<?xml version="1.0" encoding="UTF-8" standalone="no" ?>
<gpx xmlns="http://www.topografix.com/GPX/1/1" xmlns:xsi="http://www.w3.org/2001/XMLSchema-instance" xsi:schemaLocation="http://www.topografix.com/GPX/1/1 http://www.topografix.com/GPX/1/1/gpx.xsd" version="1.1" creator="VisuGPX - https://www.visugpx.com">
  <metadata>
    <name>Rocamadour / vallée de l\'Alzou</name>
    <desc><![CDATA[Rando parmi les vieux moulins dans la vallée de l\'Alzou avant de grimper sur le Causse avec de supers points de vue sur les gorges et retour par les plateaux]]></desc>
  </metadata>
  <trk>
    <name><![CDATA[Tracé actuel: 22 NOV 2015 09:29]]></name>
    <trkseg>
      <trkpt lat="44.80142" lon="1.61554">
        <ele>281.32</ele>
        <time>2015-11-22T08:29:33Z</time>
      </trkpt>
      <trkpt lat="44.80142" lon="1.61555">
        <ele>281.32</ele>
        <time>2015-11-22T08:29:34Z</time>
      </trkpt>
      <trkpt lat="44.80139" lon="1.61575">
        <ele>277.96</ele>
        <time>2015-11-22T08:29:44Z</time>
      </trkpt>
      <trkpt lat="44.80135" lon="1.61593">
        <ele>275.56</ele>
        <time>2015-11-22T08:29:55Z</time>
      </trkpt>
      <trkpt lat="44.80131" lon="1.61622">
        <ele>272.19</ele>
        <time>2015-11-22T08:30:08Z</time>
      </trkpt>
      <trkpt lat="44.80128" lon="1.61644">
        <ele>270.27</ele>
        <time>2015-11-22T08:30:19Z</time>
      </trkpt>
      <trkpt lat="44.80121" lon="1.61648">
        <ele>269.31</ele>
        <time>2015-11-22T08:30:24Z</time>
      </trkpt>
      <trkpt lat="44.80113" lon="1.6165">
        <ele>268.35</ele>
        <time>2015-11-22T08:30:30Z</time>
      </trkpt>
      <trkpt lat="44.8009" lon="1.61646">
        <ele>266.42</ele>
        <time>2015-11-22T08:30:46Z</time>
      </trkpt>
      <trkpt lat="44.80084" lon="1.61647">
        <ele>264.98</ele>
        <time>2015-11-22T08:30:50Z</time>
      </trkpt>
      <trkpt lat="44.80082" lon="1.61648">
        <ele>264.98</ele>
        <time>2015-11-22T08:30:51Z</time>
      </trkpt>
      <trkpt lat="44.8008" lon="1.6165">
        <ele>264.98</ele>
        <time>2015-11-22T08:30:53Z</time>
      </trkpt>
      <trkpt lat="44.80074" lon="1.61651">
        <ele>264.98</ele>
        <time>2015-11-22T08:30:58Z</time>
      </trkpt>
      <trkpt lat="44.80053" lon="1.61655">
        <ele>264.98</ele>
        <time>2015-11-22T08:31:14Z</time>
      </trkpt>
      <trkpt lat="44.80038" lon="1.61658">
        <ele>264.5</ele>
        <time>2015-11-22T08:31:24Z</time>
      </trkpt>
      <trkpt lat="44.80025" lon="1.61654">
        <ele>264.02</ele>
        <time>2015-11-22T08:31:33Z</time>
      </trkpt>
      <trkpt lat="44.8" lon="1.61658">
        <ele>263.06</ele>
        <time>2015-11-22T08:31:49Z</time>
      </trkpt>
      <trkpt lat="44.79997" lon="1.61665">
        <ele>262.1</ele>
        <time>2015-11-22T08:31:54Z</time>
      </trkpt>
      <trkpt lat="44.80007" lon="1.61668">
        <ele>262.1</ele>
        <time>2015-11-22T08:32:01Z</time>
      </trkpt>
      <trkpt lat="44.80011" lon="1.61667">
        <ele>262.1</ele>
        <time>2015-11-22T08:32:04Z</time>
      </trkpt>
      <trkpt lat="44.80028" lon="1.61664">
        <ele>262.1</ele>
        <time>2015-11-22T08:32:17Z</time>
      </trkpt>
      <trkpt lat="44.80047" lon="1.61666">
        <ele>262.1</ele>
        <time>2015-11-22T08:32:31Z</time>
      </trkpt>
      <trkpt lat="44.80048" lon="1.61669">
        <ele>262.1</ele>
        <time>2015-11-22T08:32:33Z</time>
      </trkpt>
      <trkpt lat="44.80047" lon="1.61671">
        <ele>262.1</ele>
        <time>2015-11-22T08:32:35Z</time>
      </trkpt>
      <trkpt lat="44.80034" lon="1.61666">
        <ele>261.62</ele>
        <time>2015-11-22T08:32:46Z</time>
      </trkpt>
      <trkpt lat="44.80019" lon="1.61671">
        <ele>259.21</ele>
        <time>2015-11-22T08:32:59Z</time>
      </trkpt>
      <trkpt lat="44.80015" lon="1.61674">
        <ele>255.85</ele>
        <time>2015-11-22T08:33:03Z</time>
      </trkpt>
      <trkpt lat="44.80013" lon="1.61676">
        <ele>255.37</ele>
        <time>2015-11-22T08:33:05Z</time>
      </trkpt>
      <trkpt lat="44.80019" lon="1.61676">
        <ele>254.89</ele>
        <time>2015-11-22T08:33:15Z</time>
      </trkpt>
      <trkpt lat="44.8003" lon="1.61672">
        <ele>252.48</ele>
        <time>2015-11-22T08:33:29Z</time>
      </trkpt>
      <trkpt lat="44.80032" lon="1.61674">
        <ele>252</ele>
        <time>2015-11-22T08:33:32Z</time>
      </trkpt>
      <trkpt lat="44.80046" lon="1.61692">
        <ele>250.08</ele>
        <time>2015-11-22T08:33:45Z</time>
      </trkpt>
      <trkpt lat="44.80045" lon="1.61694">
        <ele>249.6</ele>
        <time>2015-11-22T08:33:52Z</time>
      </trkpt>
      <trkpt lat="44.80039" lon="1.61688">
        <ele>248.64</ele>
        <time>2015-11-22T08:33:57Z</time>
      </trkpt>
      <trkpt lat="44.80032" lon="1.6168">
        <ele>247.68</ele>
        <time>2015-11-22T08:34:05Z</time>
      </trkpt>
      <trkpt lat="44.80033" lon="1.61684">
        <ele>246.72</ele>
        <time>2015-11-22T08:34:07Z</time>
      </trkpt>
      <trkpt lat="44.80042" lon="1.61702">
        <ele>244.79</ele>
        <time>2015-11-22T08:34:17Z</time>
      </trkpt>
      <trkpt lat="44.80047" lon="1.61709">
        <ele>243.83</ele>
        <time>2015-11-22T08:34:24Z</time>
      </trkpt>
      <trkpt lat="44.8004" lon="1.61703">
        <ele>242.87</ele>
        <time>2015-11-22T08:34:31Z</time>
      </trkpt>
      <trkpt lat="44.80023" lon="1.61687">
        <ele>239.99</ele>
        <time>2015-11-22T08:34:46Z</time>
      </trkpt>
      <trkpt lat="44.80033" lon="1.61708">
        <ele>238.06</ele>
        <time>2015-11-22T08:34:57Z</time>
      </trkpt>
      <trkpt lat="44.80039" lon="1.6172">
        <ele>236.14</ele>
        <time>2015-11-22T08:35:06Z</time>
      </trkpt>
      <trkpt lat="44.80039" lon="1.61719">
        <ele>236.14</ele>
        <time>2015-11-22T08:35:07Z</time>
      </trkpt>
      <trkpt lat="44.80028" lon="1.61712">
        <ele>235.18</ele>
        <time>2015-11-22T08:35:14Z</time>
      </trkpt>
      <trkpt lat="44.80015" lon="1.61707">
        <ele>233.26</ele>
        <time>2015-11-22T08:35:25Z</time>
      </trkpt>
      <trkpt lat="44.80013" lon="1.61713">
        <ele>233.26</ele>
        <time>2015-11-22T08:35:31Z</time>
      </trkpt>
      <trkpt lat="44.80028" lon="1.61732">
        <ele>230.85</ele>
        <time>2015-11-22T08:35:43Z</time>
      </trkpt>
      <trkpt lat="44.80028" lon="1.61737">
        <ele>230.85</ele>
        <time>2015-11-22T08:35:46Z</time>
      </trkpt>
      <trkpt lat="44.80029" lon="1.61745">
        <ele>230.37</ele>
        <time>2015-11-22T08:35:50Z</time>
      </trkpt>
      <trkpt lat="44.80029" lon="1.6175">
        <ele>229.89</ele>
        <time>2015-11-22T08:35:53Z</time>
      </trkpt>
      <trkpt lat="44.80029" lon="1.61756">
        <ele>229.89</ele>
        <time>2015-11-22T08:35:57Z</time>
      </trkpt>
      <trkpt lat="44.80032" lon="1.6176">
        <ele>229.41</ele>
        <time>2015-11-22T08:36:00Z</time>
      </trkpt>
      <trkpt lat="44.80035" lon="1.61767">
        <ele>229.41</ele>
        <time>2015-11-22T08:36:15Z</time>
      </trkpt>
      <trkpt lat="44.80035" lon="1.61765">
        <ele>229.41</ele>
        <time>2015-11-22T08:36:33Z</time>
      </trkpt>
      <trkpt lat="44.80036" lon="1.61766">
        <ele>228.93</ele>
        <time>2015-11-22T08:36:53Z</time>
      </trkpt>
      <trkpt lat="44.80036" lon="1.61765">
        <ele>228.93</ele>
        <time>2015-11-22T08:37:11Z</time>
      </trkpt>
      <trkpt lat="44.80036" lon="1.61764">
        <ele>228.93</ele>
        <time>2015-11-22T08:37:35Z</time>
      </trkpt>
      <trkpt lat="44.80036" lon="1.61764">
        <ele>228.93</ele>
        <time>2015-11-22T08:37:55Z</time>
      </trkpt>
      <trkpt lat="44.80034" lon="1.61754">
        <ele>228.93</ele>
        <time>2015-11-22T08:38:06Z</time>
      </trkpt>
      <trkpt lat="44.80019" lon="1.61722">
        <ele>229.41</ele>
        <time>2015-11-22T08:38:23Z</time>
      </trkpt>
      <trkpt lat="44.80006" lon="1.61705">
        <ele>231.33</ele>
        <time>2015-11-22T08:38:36Z</time>
      </trkpt>
      <trkpt lat="44.79997" lon="1.61708">
        <ele>231.81</ele>
        <time>2015-11-22T08:38:42Z</time>
      </trkpt>
      <trkpt lat="44.79992" lon="1.61725">
        <ele>231.81</ele>
        <time>2015-11-22T08:38:52Z</time>
      </trkpt>
      <trkpt lat="44.79997" lon="1.61725">
        <ele>230.37</ele>
        <time>2015-11-22T08:38:59Z</time>
      </trkpt>
      <trkpt lat="44.79999" lon="1.61724">
        <ele>229.41</ele>
        <time>2015-11-22T08:39:01Z</time>
      </trkpt>
      <trkpt lat="44.80011" lon="1.61726">
        <ele>227.49</ele>
        <time>2015-11-22T08:39:15Z</time>
      </trkpt>
      <trkpt lat="44.80009" lon="1.61726">
        <ele>227.01</ele>
        <time>2015-11-22T08:39:17Z</time>
      </trkpt>
      <trkpt lat="44.80001" lon="1.61727">
        <ele>226.53</ele>
        <time>2015-11-22T08:39:22Z</time>
      </trkpt>
      <trkpt lat="44.79997" lon="1.61731">
        <ele>225.09</ele>
        <time>2015-11-22T08:39:25Z</time>
      </trkpt>
      <trkpt lat="44.79994" lon="1.61741">
        <ele>221.24</ele>
        <time>2015-11-22T08:39:30Z</time>
      </trkpt>
      <trkpt lat="44.79991" lon="1.61747">
        <ele>219.32</ele>
        <time>2015-11-22T08:39:33Z</time>
      </trkpt>
      <trkpt lat="44.7999" lon="1.61749">
        <ele>217.88</ele>
        <time>2015-11-22T08:39:35Z</time>
      </trkpt>
      <trkpt lat="44.80006" lon="1.6174">
        <ele>218.36</ele>
        <time>2015-11-22T08:39:47Z</time>
      </trkpt>
      <trkpt lat="44.8001" lon="1.61749">
        <ele>217.88</ele>
        <time>2015-11-22T08:39:55Z</time>
      </trkpt>
      <trkpt lat="44.80003" lon="1.61747">
        <ele>217.4</ele>
        <time>2015-11-22T08:40:00Z</time>
      </trkpt>
      <trkpt lat="44.79999" lon="1.61748">
        <ele>216.43</ele>
        <time>2015-11-22T08:40:03Z</time>
      </trkpt>
      <trkpt lat="44.79999" lon="1.61753">
        <ele>213.07</ele>
        <time>2015-11-22T08:40:09Z</time>
      </trkpt>
      <trkpt lat="44.80012" lon="1.61759">
        <ele>211.15</ele>
        <time>2015-11-22T08:40:19Z</time>
      </trkpt>
      <trkpt lat="44.80013" lon="1.61763">
        <ele>211.15</ele>
        <time>2015-11-22T08:40:22Z</time>
      </trkpt>
      <trkpt lat="44.80003" lon="1.61762">
        <ele>210.19</ele>
        <time>2015-11-22T08:40:30Z</time>
      </trkpt>
      <trkpt lat="44.79999" lon="1.6176">
        <ele>209.22</ele>
        <time>2015-11-22T08:40:33Z</time>
      </trkpt>
      <trkpt lat="44.79991" lon="1.6176">
        <ele>206.34</ele>
        <time>2015-11-22T08:40:38Z</time>
      </trkpt>
      <trkpt lat="44.79984" lon="1.61761">
        <ele>202.98</ele>
        <time>2015-11-22T08:40:43Z</time>
      </trkpt>
      <trkpt lat="44.79973" lon="1.61755">
        <ele>203.94</ele>
        <time>2015-11-22T08:40:58Z</time>
      </trkpt>
      <trkpt lat="44.79956" lon="1.61753">
        <ele>204.42</ele>
        <time>2015-11-22T08:41:39Z</time>
      </trkpt>
      <trkpt lat="44.79954" lon="1.61741">
        <ele>204.42</ele>
        <time>2015-11-22T08:42:01Z</time>
      </trkpt>
      <trkpt lat="44.7994" lon="1.6175">
        <ele>204.42</ele>
        <time>2015-11-22T08:42:16Z</time>
      </trkpt>
      <trkpt lat="44.7994" lon="1.61747">
        <ele>202.01</ele>
        <time>2015-11-22T08:42:22Z</time>
      </trkpt>
      <trkpt lat="44.79938" lon="1.61743">
        <ele>199.13</ele>
        <time>2015-11-22T08:42:25Z</time>
      </trkpt>
      <trkpt lat="44.79936" lon="1.61741">
        <ele>198.17</ele>
        <time>2015-11-22T08:42:26Z</time>
      </trkpt>
      <trkpt lat="44.79935" lon="1.6174">
        <ele>194.32</ele>
        <time>2015-11-22T08:42:28Z</time>
      </trkpt>
      <trkpt lat="44.79907" lon="1.6174">
        <ele>192.88</ele>
        <time>2015-11-22T08:42:41Z</time>
      </trkpt>
      <trkpt lat="44.79908" lon="1.61736">
        <ele>192.88</ele>
        <time>2015-11-22T08:42:44Z</time>
      </trkpt>
      <trkpt lat="44.79911" lon="1.61752">
        <ele>193.36</ele>
        <time>2015-11-22T08:42:57Z</time>
      </trkpt>
      <trkpt lat="44.79917" lon="1.61772">
        <ele>190.96</ele>
        <time>2015-11-22T08:43:10Z</time>
      </trkpt>
      <trkpt lat="44.79918" lon="1.61781">
        <ele>187.11</ele>
        <time>2015-11-22T08:43:14Z</time>
      </trkpt>
      <trkpt lat="44.7991" lon="1.61788">
        <ele>183.75</ele>
        <time>2015-11-22T08:43:17Z</time>
      </trkpt>
      <trkpt lat="44.79908" lon="1.6179">
        <ele>182.79</ele>
        <time>2015-11-22T08:43:18Z</time>
      </trkpt>
      <trkpt lat="44.79899" lon="1.61796">
        <ele>180.38</ele>
        <time>2015-11-22T08:43:22Z</time>
      </trkpt>
      <trkpt lat="44.79896" lon="1.61799">
        <ele>179.9</ele>
        <time>2015-11-22T08:43:24Z</time>
      </trkpt>
      <trkpt lat="44.79885" lon="1.61798">
        <ele>178.94</ele>
        <time>2015-11-22T08:43:34Z</time>
      </trkpt>
      <trkpt lat="44.79883" lon="1.61793">
        <ele>177.02</ele>
        <time>2015-11-22T08:43:39Z</time>
      </trkpt>
      <trkpt lat="44.79881" lon="1.61791">
        <ele>173.66</ele>
        <time>2015-11-22T08:43:42Z</time>
      </trkpt>
      <trkpt lat="44.79878" lon="1.61789">
        <ele>170.77</ele>
        <time>2015-11-22T08:43:45Z</time>
      </trkpt>
      <trkpt lat="44.79877" lon="1.61788">
        <ele>169.81</ele>
        <time>2015-11-22T08:43:46Z</time>
      </trkpt>
      <trkpt lat="44.79875" lon="1.61788">
        <ele>167.89</ele>
        <time>2015-11-22T08:43:49Z</time>
      </trkpt>
      <trkpt lat="44.79878" lon="1.6178">
        <ele>167.89</ele>
        <time>2015-11-22T08:43:56Z</time>
      </trkpt>
      <trkpt lat="44.7988" lon="1.6178">
        <ele>167.41</ele>
        <time>2015-11-22T08:44:08Z</time>
      </trkpt>
      <trkpt lat="44.79888" lon="1.61782">
        <ele>167.41</ele>
        <time>2015-11-22T08:44:25Z</time>
      </trkpt>
      <trkpt lat="44.79895" lon="1.61782">
        <ele>167.41</ele>
        <time>2015-11-22T08:44:37Z</time>
      </trkpt>
      <trkpt lat="44.79924" lon="1.61799">
        <ele>167.41</ele>
        <time>2015-11-22T08:44:50Z</time>
      </trkpt>
      <trkpt lat="44.79947" lon="1.61811">
        <ele>166.93</ele>
        <time>2015-11-22T08:45:08Z</time>
      </trkpt>
      <trkpt lat="44.79952" lon="1.61813">
        <ele>166.93</ele>
        <time>2015-11-22T08:45:12Z</time>
      </trkpt>
      <trkpt lat="44.79967" lon="1.61819">
        <ele>166.93</ele>
        <time>2015-11-22T08:45:21Z</time>
      </trkpt>
      <trkpt lat="44.79969" lon="1.61821">
        <ele>166.93</ele>
        <time>2015-11-22T08:45:22Z</time>
      </trkpt>
      <trkpt lat="44.7997" lon="1.61823">
        <ele>166.93</ele>
        <time>2015-11-22T08:45:23Z</time>
      </trkpt>
      <trkpt lat="44.79969" lon="1.61825">
        <ele>166.93</ele>
        <time>2015-11-22T08:45:24Z</time>
      </trkpt>
      <trkpt lat="44.79969" lon="1.61826">
        <ele>166.93</ele>
        <time>2015-11-22T08:45:25Z</time>
      </trkpt>
      <trkpt lat="44.79969" lon="1.61833">
        <ele>166.45</ele>
        <time>2015-11-22T08:45:28Z</time>
      </trkpt>
      <trkpt lat="44.79969" lon="1.61837">
        <ele>166.45</ele>
        <time>2015-11-22T08:45:30Z</time>
      </trkpt>
      <trkpt lat="44.79969" lon="1.61838">
        <ele>166.45</ele>
        <time>2015-11-22T08:45:31Z</time>
      </trkpt>
      <trkpt lat="44.79969" lon="1.61839">
        <ele>166.45</ele>
        <time>2015-11-22T08:45:32Z</time>
      </trkpt>
      <trkpt lat="44.79969" lon="1.61842">
        <ele>166.45</ele>
        <time>2015-11-22T08:45:33Z</time>
      </trkpt>
      <trkpt lat="44.79969" lon="1.61844">
        <ele>166.45</ele>
        <time>2015-11-22T08:45:34Z</time>
      </trkpt>
      <trkpt lat="44.7997" lon="1.61846">
        <ele>165.96</ele>
        <time>2015-11-22T08:45:35Z</time>
      </trkpt>
      <trkpt lat="44.7997" lon="1.61848">
        <ele>165.96</ele>
        <time>2015-11-22T08:45:36Z</time>
      </trkpt>
      <trkpt lat="44.79971" lon="1.61849">
        <ele>165.96</ele>
        <time>2015-11-22T08:45:37Z</time>
      </trkpt>
      <trkpt lat="44.79973" lon="1.61851">
        <ele>165.96</ele>
        <time>2015-11-22T08:45:39Z</time>
      </trkpt>
      <trkpt lat="44.79975" lon="1.61851">
        <ele>165.48</ele>
        <time>2015-11-22T08:45:40Z</time>
      </trkpt>
      <trkpt lat="44.79976" lon="1.61852">
        <ele>165.48</ele>
        <time>2015-11-22T08:45:41Z</time>
      </trkpt>
      <trkpt lat="44.79994" lon="1.61862">
        <ele>164.52</ele>
        <time>2015-11-22T08:45:53Z</time>
      </trkpt>
      <trkpt lat="44.79994" lon="1.61862">
        <ele>164.04</ele>
        <time>2015-11-22T08:45:54Z</time>
      </trkpt>
      <trkpt lat="44.79995" lon="1.61863">
        <ele>164.04</ele>
        <time>2015-11-22T08:45:55Z</time>
      </trkpt>
      <trkpt lat="44.79996" lon="1.61863">
        <ele>164.04</ele>
        <time>2015-11-22T08:45:56Z</time>
      </trkpt>
      <trkpt lat="44.8001" lon="1.6187">
        <ele>163.08</ele>
        <time>2015-11-22T08:46:06Z</time>
      </trkpt>
      <trkpt lat="44.80011" lon="1.61871">
        <ele>162.12</ele>
        <time>2015-11-22T08:46:07Z</time>
      </trkpt>
      <trkpt lat="44.80012" lon="1.61872">
        <ele>162.12</ele>
        <time>2015-11-22T08:46:08Z</time>
      </trkpt>
      <trkpt lat="44.80013" lon="1.61874">
        <ele>162.12</ele>
        <time>2015-11-22T08:46:09Z</time>
      </trkpt>
      <trkpt lat="44.80015" lon="1.61875">
        <ele>162.12</ele>
        <time>2015-11-22T08:46:10Z</time>
      </trkpt>
      <trkpt lat="44.80016" lon="1.61875">
        <ele>161.64</ele>
        <time>2015-11-22T08:46:11Z</time>
      </trkpt>
      <trkpt lat="44.80027" lon="1.61884">
        <ele>161.16</ele>
        <time>2015-11-22T08:46:18Z</time>
      </trkpt>
      <trkpt lat="44.80028" lon="1.61886">
        <ele>160.68</ele>
        <time>2015-11-22T08:46:19Z</time>
      </trkpt>
      <trkpt lat="44.80029" lon="1.61887">
        <ele>160.68</ele>
        <time>2015-11-22T08:46:20Z</time>
      </trkpt>
      <trkpt lat="44.80036" lon="1.61893">
        <ele>160.2</ele>
        <time>2015-11-22T08:46:27Z</time>
      </trkpt>
      <trkpt lat="44.80039" lon="1.61901">
        <ele>158.27</ele>
        <time>2015-11-22T08:46:39Z</time>
      </trkpt>
      <trkpt lat="44.80036" lon="1.619">
        <ele>156.35</ele>
        <time>2015-11-22T08:46:50Z</time>
      </trkpt>
      <trkpt lat="44.80039" lon="1.61903">
        <ele>154.43</ele>
        <time>2015-11-22T08:46:53Z</time>
      </trkpt>
      <trkpt lat="44.8004" lon="1.61905">
        <ele>153.47</ele>
        <time>2015-11-22T08:46:54Z</time>
      </trkpt>
      <trkpt lat="44.80043" lon="1.61908">
        <ele>150.58</ele>
        <time>2015-11-22T08:46:57Z</time>
      </trkpt>
      <trkpt lat="44.80046" lon="1.61913">
        <ele>148.66</ele>
        <time>2015-11-22T08:47:01Z</time>
      </trkpt>
      <trkpt lat="44.80045" lon="1.61914">
        <ele>147.7</ele>
        <time>2015-11-22T08:47:02Z</time>
      </trkpt>
      <trkpt lat="44.80044" lon="1.61916">
        <ele>148.18</ele>
        <time>2015-11-22T08:47:03Z</time>
      </trkpt>
      <trkpt lat="44.80043" lon="1.61916">
        <ele>148.18</ele>
        <time>2015-11-22T08:47:04Z</time>
      </trkpt>
      <trkpt lat="44.80041" lon="1.61916">
        <ele>148.18</ele>
        <time>2015-11-22T08:47:05Z</time>
      </trkpt>
      <trkpt lat="44.8004" lon="1.61917">
        <ele>148.18</ele>
        <time>2015-11-22T08:47:06Z</time>
      </trkpt>
      <trkpt lat="44.80038" lon="1.61916">
        <ele>148.18</ele>
        <time>2015-11-22T08:47:07Z</time>
      </trkpt>
      <trkpt lat="44.80036" lon="1.61916">
        <ele>148.18</ele>
        <time>2015-11-22T08:47:08Z</time>
      </trkpt>
      <trkpt lat="44.80034" lon="1.61916">
        <ele>148.18</ele>
        <time>2015-11-22T08:47:09Z</time>
      </trkpt>
      <trkpt lat="44.80033" lon="1.61916">
        <ele>148.18</ele>
        <time>2015-11-22T08:47:10Z</time>
      </trkpt>
      <trkpt lat="44.80031" lon="1.61917">
        <ele>148.18</ele>
        <time>2015-11-22T08:47:11Z</time>
      </trkpt>
      <trkpt lat="44.8003" lon="1.61917">
        <ele>148.18</ele>
        <time>2015-11-22T08:47:12Z</time>
      </trkpt>
      <trkpt lat="44.80022" lon="1.61917">
        <ele>147.22</ele>
        <time>2015-11-22T08:47:17Z</time>
      </trkpt>
      <trkpt lat="44.80017" lon="1.61916">
        <ele>146.74</ele>
        <time>2015-11-22T08:47:21Z</time>
      </trkpt>
      <trkpt lat="44.80007" lon="1.61915">
        <ele>143.85</ele>
        <time>2015-11-22T08:47:27Z</time>
      </trkpt>
      <trkpt lat="44.80004" lon="1.61915">
        <ele>140.49</ele>
        <time>2015-11-22T08:47:30Z</time>
      </trkpt>
      <trkpt lat="44.79998" lon="1.61914">
        <ele>137.13</ele>
        <time>2015-11-22T08:47:34Z</time>
      </trkpt>
      <trkpt lat="44.79995" lon="1.61914">
        <ele>136.16</ele>
        <time>2015-11-22T08:47:36Z</time>
      </trkpt>
      <trkpt lat="44.79992" lon="1.61915">
        <ele>136.16</ele>
        <time>2015-11-22T08:47:38Z</time>
      </trkpt>
      <trkpt lat="44.79994" lon="1.61927">
        <ele>136.64</ele>
        <time>2015-11-22T08:47:53Z</time>
      </trkpt>
      <trkpt lat="44.80001" lon="1.6193">
        <ele>136.64</ele>
        <time>2015-11-22T08:48:01Z</time>
      </trkpt>
      <trkpt lat="44.80013" lon="1.61934">
        <ele>136.64</ele>
        <time>2015-11-22T08:48:14Z</time>
      </trkpt>
      <trkpt lat="44.80021" lon="1.61937">
        <ele>136.64</ele>
        <time>2015-11-22T08:48:22Z</time>
      </trkpt>
      <trkpt lat="44.80027" lon="1.61939">
        <ele>136.64</ele>
        <time>2015-11-22T08:48:28Z</time>
      </trkpt>
      <trkpt lat="44.80033" lon="1.61942">
        <ele>136.64</ele>
        <time>2015-11-22T08:48:33Z</time>
      </trkpt>
      <trkpt lat="44.80037" lon="1.61946">
        <ele>136.64</ele>
        <time>2015-11-22T08:48:37Z</time>
      </trkpt>
      <trkpt lat="44.80041" lon="1.61949">
        <ele>136.64</ele>
        <time>2015-11-22T08:48:40Z</time>
      </trkpt>
      <trkpt lat="44.80051" lon="1.61959">
        <ele>136.64</ele>
        <time>2015-11-22T08:48:47Z</time>
      </trkpt>
      <trkpt lat="44.80059" lon="1.61967">
        <ele>136.64</ele>
        <time>2015-11-22T08:48:52Z</time>
      </trkpt>
      <trkpt lat="44.80062" lon="1.61972">
        <ele>136.64</ele>
        <time>2015-11-22T08:48:55Z</time>
      </trkpt>
      <trkpt lat="44.80072" lon="1.61989">
        <ele>136.64</ele>
        <time>2015-11-22T08:49:05Z</time>
      </trkpt>
      <trkpt lat="44.80083" lon="1.6201">
        <ele>136.64</ele>
        <time>2015-11-22T08:49:17Z</time>
      </trkpt>
      <trkpt lat="44.80096" lon="1.62031">
        <ele>136.64</ele>
        <time>2015-11-22T08:49:29Z</time>
      </trkpt>
      <trkpt lat="44.80106" lon="1.62042">
        <ele>136.64</ele>
        <time>2015-11-22T08:49:38Z</time>
      </trkpt>
      <trkpt lat="44.80108" lon="1.62043">
        <ele>136.16</ele>
        <time>2015-11-22T08:49:39Z</time>
      </trkpt>
      <trkpt lat="44.80115" lon="1.6205">
        <ele>136.16</ele>
        <time>2015-11-22T08:49:44Z</time>
      </trkpt>
      <trkpt lat="44.80116" lon="1.62052">
        <ele>136.16</ele>
        <time>2015-11-22T08:49:45Z</time>
      </trkpt>
      <trkpt lat="44.80118" lon="1.62053">
        <ele>136.16</ele>
        <time>2015-11-22T08:49:46Z</time>
      </trkpt>
      <trkpt lat="44.80119" lon="1.62054">
        <ele>136.16</ele>
        <time>2015-11-22T08:49:47Z</time>
      </trkpt>
      <trkpt lat="44.80121" lon="1.62056">
        <ele>136.16</ele>
        <time>2015-11-22T08:49:48Z</time>
      </trkpt>
      <trkpt lat="44.80123" lon="1.62058">
        <ele>136.16</ele>
        <time>2015-11-22T08:49:49Z</time>
      </trkpt>
      <trkpt lat="44.80124" lon="1.62059">
        <ele>136.16</ele>
        <time>2015-11-22T08:49:50Z</time>
      </trkpt>
      <trkpt lat="44.80126" lon="1.62061">
        <ele>136.16</ele>
        <time>2015-11-22T08:49:51Z</time>
      </trkpt>
      <trkpt lat="44.80127" lon="1.62063">
        <ele>136.16</ele>
        <time>2015-11-22T08:49:52Z</time>
      </trkpt>
      <trkpt lat="44.80129" lon="1.62067">
        <ele>136.16</ele>
        <time>2015-11-22T08:49:54Z</time>
      </trkpt>
      <trkpt lat="44.8013" lon="1.62069">
        <ele>136.16</ele>
        <time>2015-11-22T08:49:55Z</time>
      </trkpt>
      <trkpt lat="44.80131" lon="1.62071">
        <ele>136.16</ele>
        <time>2015-11-22T08:49:56Z</time>
      </trkpt>
      <trkpt lat="44.80138" lon="1.6208">
        <ele>136.16</ele>
        <time>2015-11-22T08:50:02Z</time>
      </trkpt>
      <trkpt lat="44.80139" lon="1.62082">
        <ele>136.16</ele>
        <time>2015-11-22T08:50:03Z</time>
      </trkpt>
      <trkpt lat="44.80144" lon="1.62091">
        <ele>136.16</ele>
        <time>2015-11-22T08:50:10Z</time>
      </trkpt>
      <trkpt lat="44.80145" lon="1.62092">
        <ele>136.16</ele>
        <time>2015-11-22T08:50:11Z</time>
      </trkpt>
      <trkpt lat="44.80146" lon="1.62094">
        <ele>136.16</ele>
        <time>2015-11-22T08:50:12Z</time>
      </trkpt>
      <trkpt lat="44.80147" lon="1.62096">
        <ele>136.16</ele>
        <time>2015-11-22T08:50:13Z</time>
      </trkpt>
      <trkpt lat="44.80148" lon="1.62098">
        <ele>136.16</ele>
        <time>2015-11-22T08:50:14Z</time>
      </trkpt>
      <trkpt lat="44.80149" lon="1.621">
        <ele>136.16</ele>
        <time>2015-11-22T08:50:15Z</time>
      </trkpt>
      <trkpt lat="44.80153" lon="1.62106">
        <ele>136.16</ele>
        <time>2015-11-22T08:50:20Z</time>
      </trkpt>
      <trkpt lat="44.80154" lon="1.62108">
        <ele>136.16</ele>
        <time>2015-11-22T08:50:21Z</time>
      </trkpt>
      <trkpt lat="44.80155" lon="1.6211">
        <ele>136.16</ele>
        <time>2015-11-22T08:50:22Z</time>
      </trkpt>
      <trkpt lat="44.80156" lon="1.6211">
        <ele>136.16</ele>
        <time>2015-11-22T08:50:23Z</time>
      </trkpt>
      <trkpt lat="44.80158" lon="1.62112">
        <ele>136.16</ele>
        <time>2015-11-22T08:50:24Z</time>
      </trkpt>
      <trkpt lat="44.80159" lon="1.62114">
        <ele>136.16</ele>
        <time>2015-11-22T08:50:25Z</time>
      </trkpt>
      <trkpt lat="44.80164" lon="1.62123">
        <ele>136.16</ele>
        <time>2015-11-22T08:50:30Z</time>
      </trkpt>
      <trkpt lat="44.80165" lon="1.62125">
        <ele>136.16</ele>
        <time>2015-11-22T08:50:31Z</time>
      </trkpt>
      <trkpt lat="44.80169" lon="1.62134">
        <ele>136.16</ele>
        <time>2015-11-22T08:50:36Z</time>
      </trkpt>
      <trkpt lat="44.80176" lon="1.62148">
        <ele>136.16</ele>
        <time>2015-11-22T08:50:43Z</time>
      </trkpt>
      <trkpt lat="44.80177" lon="1.6215">
        <ele>136.16</ele>
        <time>2015-11-22T08:50:44Z</time>
      </trkpt>
      <trkpt lat="44.80178" lon="1.62152">
        <ele>136.16</ele>
        <time>2015-11-22T08:50:45Z</time>
      </trkpt>
      <trkpt lat="44.80179" lon="1.62154">
        <ele>136.16</ele>
        <time>2015-11-22T08:50:46Z</time>
      </trkpt>
      <trkpt lat="44.80179" lon="1.62157">
        <ele>136.16</ele>
        <time>2015-11-22T08:50:47Z</time>
      </trkpt>
      <trkpt lat="44.8018" lon="1.62159">
        <ele>136.16</ele>
        <time>2015-11-22T08:50:48Z</time>
      </trkpt>
      <trkpt lat="44.80181" lon="1.62161">
        <ele>136.16</ele>
        <time>2015-11-22T08:50:49Z</time>
      </trkpt>
      <trkpt lat="44.80185" lon="1.62164">
        <ele>136.16</ele>
        <time>2015-11-22T08:50:53Z</time>
      </trkpt>
      <trkpt lat="44.80186" lon="1.62165">
        <ele>136.16</ele>
        <time>2015-11-22T08:50:54Z</time>
      </trkpt>
      <trkpt lat="44.80192" lon="1.62186">
        <ele>136.16</ele>
        <time>2015-11-22T08:51:04Z</time>
      </trkpt>
      <trkpt lat="44.80199" lon="1.62215">
        <ele>136.16</ele>
        <time>2015-11-22T08:51:17Z</time>
      </trkpt>
      <trkpt lat="44.80201" lon="1.62227">
        <ele>136.16</ele>
        <time>2015-11-22T08:51:22Z</time>
      </trkpt>
      <trkpt lat="44.80202" lon="1.62229">
        <ele>136.16</ele>
        <time>2015-11-22T08:51:23Z</time>
      </trkpt>
      <trkpt lat="44.80207" lon="1.62249">
        <ele>137.13</ele>
        <time>2015-11-22T08:51:33Z</time>
      </trkpt>
      <trkpt lat="44.80216" lon="1.62267">
        <ele>137.13</ele>
        <time>2015-11-22T08:51:44Z</time>
      </trkpt>
      <trkpt lat="44.80232" lon="1.62285">
        <ele>137.61</ele>
        <time>2015-11-22T08:51:56Z</time>
      </trkpt>
      <trkpt lat="44.80242" lon="1.62305">
        <ele>136.64</ele>
        <time>2015-11-22T08:52:07Z</time>
      </trkpt>
      <trkpt lat="44.80246" lon="1.62325">
        <ele>136.64</ele>
        <time>2015-11-22T08:52:17Z</time>
      </trkpt>
      <trkpt lat="44.80254" lon="1.62354">
        <ele>136.64</ele>
        <time>2015-11-22T08:52:30Z</time>
      </trkpt>
      <trkpt lat="44.80248" lon="1.62388">
        <ele>136.64</ele>
        <time>2015-11-22T08:52:43Z</time>
      </trkpt>
      <trkpt lat="44.80235" lon="1.6242">
        <ele>136.64</ele>
        <time>2015-11-22T08:52:59Z</time>
      </trkpt>
      <trkpt lat="44.80225" lon="1.62435">
        <ele>136.64</ele>
        <time>2015-11-22T08:53:10Z</time>
      </trkpt>
      <trkpt lat="44.80225" lon="1.62435">
        <ele>136.64</ele>
        <time>2015-11-22T08:53:23Z</time>
      </trkpt>
      <trkpt lat="44.80221" lon="1.62441">
        <ele>136.64</ele>
        <time>2015-11-22T08:53:35Z</time>
      </trkpt>
      <trkpt lat="44.8022" lon="1.62442">
        <ele>136.64</ele>
        <time>2015-11-22T08:53:36Z</time>
      </trkpt>
      <trkpt lat="44.80206" lon="1.62462">
        <ele>136.64</ele>
        <time>2015-11-22T08:53:50Z</time>
      </trkpt>
      <trkpt lat="44.802" lon="1.62469">
        <ele>136.64</ele>
        <time>2015-11-22T08:53:55Z</time>
      </trkpt>
      <trkpt lat="44.80199" lon="1.62471">
        <ele>137.13</ele>
        <time>2015-11-22T08:53:56Z</time>
      </trkpt>
      <trkpt lat="44.80189" lon="1.62484">
        <ele>137.13</ele>
        <time>2015-11-22T08:54:04Z</time>
      </trkpt>
      <trkpt lat="44.8018" lon="1.62492">
        <ele>137.13</ele>
        <time>2015-11-22T08:54:11Z</time>
      </trkpt>
      <trkpt lat="44.80179" lon="1.62493">
        <ele>137.13</ele>
        <time>2015-11-22T08:54:12Z</time>
      </trkpt>
      <trkpt lat="44.80177" lon="1.62495">
        <ele>137.13</ele>
        <time>2015-11-22T08:54:13Z</time>
      </trkpt>
      <trkpt lat="44.80173" lon="1.62498">
        <ele>137.13</ele>
        <time>2015-11-22T08:54:16Z</time>
      </trkpt>
      <trkpt lat="44.80172" lon="1.625">
        <ele>137.13</ele>
        <time>2015-11-22T08:54:17Z</time>
      </trkpt>
      <trkpt lat="44.80164" lon="1.62511">
        <ele>137.13</ele>
        <time>2015-11-22T08:54:23Z</time>
      </trkpt>
      <trkpt lat="44.80163" lon="1.62514">
        <ele>137.13</ele>
        <time>2015-11-22T08:54:24Z</time>
      </trkpt>
      <trkpt lat="44.80162" lon="1.62516">
        <ele>137.13</ele>
        <time>2015-11-22T08:54:25Z</time>
      </trkpt>
      <trkpt lat="44.80153" lon="1.62535">
        <ele>137.13</ele>
        <time>2015-11-22T08:54:34Z</time>
      </trkpt>
      <trkpt lat="44.80147" lon="1.62544">
        <ele>137.13</ele>
        <time>2015-11-22T08:54:39Z</time>
      </trkpt>
      <trkpt lat="44.80146" lon="1.62546">
        <ele>137.13</ele>
        <time>2015-11-22T08:54:40Z</time>
      </trkpt>
      <trkpt lat="44.80143" lon="1.62552">
        <ele>137.13</ele>
        <time>2015-11-22T08:54:43Z</time>
      </trkpt>
      <trkpt lat="44.80142" lon="1.62554">
        <ele>137.13</ele>
        <time>2015-11-22T08:54:44Z</time>
      </trkpt>
      <trkpt lat="44.80129" lon="1.62578">
        <ele>138.57</ele>
        <time>2015-11-22T08:54:57Z</time>
      </trkpt>
      <trkpt lat="44.80128" lon="1.62579">
        <ele>138.57</ele>
        <time>2015-11-22T08:54:58Z</time>
      </trkpt>
      <trkpt lat="44.80124" lon="1.62589">
        <ele>138.57</ele>
        <time>2015-11-22T08:55:04Z</time>
      </trkpt>
      <trkpt lat="44.80122" lon="1.62594">
        <ele>138.57</ele>
        <time>2015-11-22T08:55:07Z</time>
      </trkpt>
      <trkpt lat="44.8012" lon="1.62598">
        <ele>138.57</ele>
        <time>2015-11-22T08:55:09Z</time>
      </trkpt>
      <trkpt lat="44.80119" lon="1.62602">
        <ele>138.57</ele>
        <time>2015-11-22T08:55:11Z</time>
      </trkpt>
      <trkpt lat="44.80115" lon="1.62608">
        <ele>138.57</ele>
        <time>2015-11-22T08:55:15Z</time>
      </trkpt>
      <trkpt lat="44.80114" lon="1.6261">
        <ele>138.57</ele>
        <time>2015-11-22T08:55:16Z</time>
      </trkpt>
      <trkpt lat="44.80112" lon="1.62613">
        <ele>138.57</ele>
        <time>2015-11-22T08:55:17Z</time>
      </trkpt>
      <trkpt lat="44.80112" lon="1.62615">
        <ele>138.57</ele>
        <time>2015-11-22T08:55:18Z</time>
      </trkpt>
      <trkpt lat="44.80111" lon="1.62617">
        <ele>138.57</ele>
        <time>2015-11-22T08:55:19Z</time>
      </trkpt>
      <trkpt lat="44.80109" lon="1.62619">
        <ele>138.57</ele>
        <time>2015-11-22T08:55:20Z</time>
      </trkpt>
      <trkpt lat="44.80108" lon="1.62621">
        <ele>138.57</ele>
        <time>2015-11-22T08:55:21Z</time>
      </trkpt>
      <trkpt lat="44.80107" lon="1.62624">
        <ele>138.57</ele>
        <time>2015-11-22T08:55:22Z</time>
      </trkpt>
      <trkpt lat="44.80106" lon="1.62628">
        <ele>138.57</ele>
        <time>2015-11-22T08:55:24Z</time>
      </trkpt>
      <trkpt lat="44.80104" lon="1.62634">
        <ele>138.57</ele>
        <time>2015-11-22T08:55:27Z</time>
      </trkpt>
      <trkpt lat="44.80103" lon="1.62637">
        <ele>138.57</ele>
        <time>2015-11-22T08:55:28Z</time>
      </trkpt>
      <trkpt lat="44.80101" lon="1.62647">
        <ele>138.57</ele>
        <time>2015-11-22T08:55:32Z</time>
      </trkpt>
      <trkpt lat="44.80097" lon="1.62666">
        <ele>138.57</ele>
        <time>2015-11-22T08:55:40Z</time>
      </trkpt>
      <trkpt lat="44.80099" lon="1.6269">
        <ele>138.57</ele>
        <time>2015-11-22T08:55:53Z</time>
      </trkpt>
      <trkpt lat="44.80098" lon="1.62693">
        <ele>138.57</ele>
        <time>2015-11-22T08:55:54Z</time>
      </trkpt>
      <trkpt lat="44.80099" lon="1.62695">
        <ele>139.05</ele>
        <time>2015-11-22T08:55:55Z</time>
      </trkpt>
      <trkpt lat="44.80098" lon="1.62699">
        <ele>139.05</ele>
        <time>2015-11-22T08:55:57Z</time>
      </trkpt>
      <trkpt lat="44.80098" lon="1.62702">
        <ele>139.05</ele>
        <time>2015-11-22T08:55:58Z</time>
      </trkpt>
      <trkpt lat="44.80097" lon="1.62705">
        <ele>139.05</ele>
        <time>2015-11-22T08:55:59Z</time>
      </trkpt>
      <trkpt lat="44.80097" lon="1.62707">
        <ele>139.05</ele>
        <time>2015-11-22T08:56:00Z</time>
      </trkpt>
      <trkpt lat="44.80097" lon="1.6271">
        <ele>139.05</ele>
        <time>2015-11-22T08:56:01Z</time>
      </trkpt>
      <trkpt lat="44.80091" lon="1.62747">
        <ele>139.05</ele>
        <time>2015-11-22T08:56:15Z</time>
      </trkpt>
      <trkpt lat="44.80089" lon="1.62765">
        <ele>139.53</ele>
        <time>2015-11-22T08:56:23Z</time>
      </trkpt>
      <trkpt lat="44.80088" lon="1.62767">
        <ele>139.53</ele>
        <time>2015-11-22T08:56:24Z</time>
      </trkpt>
      <trkpt lat="44.80087" lon="1.62769">
        <ele>139.53</ele>
        <time>2015-11-22T08:56:25Z</time>
      </trkpt>
      <trkpt lat="44.80087" lon="1.62771">
        <ele>140.49</ele>
        <time>2015-11-22T08:56:26Z</time>
      </trkpt>
      <trkpt lat="44.80086" lon="1.62773">
        <ele>140.01</ele>
        <time>2015-11-22T08:56:27Z</time>
      </trkpt>
      <trkpt lat="44.80086" lon="1.62775">
        <ele>140.01</ele>
        <time>2015-11-22T08:56:28Z</time>
      </trkpt>
      <trkpt lat="44.80086" lon="1.62777">
        <ele>140.01</ele>
        <time>2015-11-22T08:56:29Z</time>
      </trkpt>
      <trkpt lat="44.80085" lon="1.62779">
        <ele>140.01</ele>
        <time>2015-11-22T08:56:30Z</time>
      </trkpt>
      <trkpt lat="44.80085" lon="1.62782">
        <ele>140.01</ele>
        <time>2015-11-22T08:56:31Z</time>
      </trkpt>
      <trkpt lat="44.80084" lon="1.62784">
        <ele>140.97</ele>
        <time>2015-11-22T08:56:32Z</time>
      </trkpt>
      <trkpt lat="44.80084" lon="1.62787">
        <ele>140.97</ele>
        <time>2015-11-22T08:56:33Z</time>
      </trkpt>
      <trkpt lat="44.80082" lon="1.62817">
        <ele>141.93</ele>
        <time>2015-11-22T08:56:46Z</time>
      </trkpt>
      <trkpt lat="44.80082" lon="1.62819">
        <ele>141.93</ele>
        <time>2015-11-22T08:56:47Z</time>
      </trkpt>
      <trkpt lat="44.80081" lon="1.62822">
        <ele>141.93</ele>
        <time>2015-11-22T08:56:48Z</time>
      </trkpt>
      <trkpt lat="44.80081" lon="1.62824">
        <ele>141.93</ele>
        <time>2015-11-22T08:56:49Z</time>
      </trkpt>
      <trkpt lat="44.80081" lon="1.62826">
        <ele>142.41</ele>
        <time>2015-11-22T08:56:50Z</time>
      </trkpt>
      <trkpt lat="44.80081" lon="1.62828">
        <ele>142.41</ele>
        <time>2015-11-22T08:56:51Z</time>
      </trkpt>
      <trkpt lat="44.8008" lon="1.62839">
        <ele>142.41</ele>
        <time>2015-11-22T08:56:56Z</time>
      </trkpt>
      <trkpt lat="44.80078" lon="1.62857">
        <ele>142.89</ele>
        <time>2015-11-22T08:57:04Z</time>
      </trkpt>
      <trkpt lat="44.80077" lon="1.62859">
        <ele>142.89</ele>
        <time>2015-11-22T08:57:05Z</time>
      </trkpt>
      <trkpt lat="44.80077" lon="1.62861">
        <ele>142.89</ele>
        <time>2015-11-22T08:57:06Z</time>
      </trkpt>
      <trkpt lat="44.80077" lon="1.62863">
        <ele>142.89</ele>
        <time>2015-11-22T08:57:07Z</time>
      </trkpt>
      <trkpt lat="44.80076" lon="1.62865">
        <ele>142.89</ele>
        <time>2015-11-22T08:57:08Z</time>
      </trkpt>
      <trkpt lat="44.80076" lon="1.62867">
        <ele>142.89</ele>
        <time>2015-11-22T08:57:09Z</time>
      </trkpt>
      <trkpt lat="44.80069" lon="1.62908">
        <ele>142.89</ele>
        <time>2015-11-22T08:57:26Z</time>
      </trkpt>
      <trkpt lat="44.80062" lon="1.62938">
        <ele>142.89</ele>
        <time>2015-11-22T08:57:39Z</time>
      </trkpt>
      <trkpt lat="44.80055" lon="1.62971">
        <ele>142.89</ele>
        <time>2015-11-22T08:57:55Z</time>
      </trkpt>
      <trkpt lat="44.80055" lon="1.62973">
        <ele>142.89</ele>
        <time>2015-11-22T08:57:56Z</time>
      </trkpt>
      <trkpt lat="44.80054" lon="1.62975">
        <ele>142.89</ele>
        <time>2015-11-22T08:57:57Z</time>
      </trkpt>
      <trkpt lat="44.80043" lon="1.6301">
        <ele>143.37</ele>
        <time>2015-11-22T08:58:13Z</time>
      </trkpt>
      <trkpt lat="44.80034" lon="1.63039">
        <ele>143.37</ele>
        <time>2015-11-22T08:58:27Z</time>
      </trkpt>
      <trkpt lat="44.80024" lon="1.63066">
        <ele>143.37</ele>
        <time>2015-11-22T08:58:41Z</time>
      </trkpt>
      <trkpt lat="44.80015" lon="1.63097">
        <ele>143.85</ele>
        <time>2015-11-22T08:58:55Z</time>
      </trkpt>
      <trkpt lat="44.80008" lon="1.63119">
        <ele>144.82</ele>
        <time>2015-11-22T08:59:06Z</time>
      </trkpt>
      <trkpt lat="44.80007" lon="1.63121">
        <ele>144.82</ele>
        <time>2015-11-22T08:59:07Z</time>
      </trkpt>
      <trkpt lat="44.80007" lon="1.63123">
        <ele>144.82</ele>
        <time>2015-11-22T08:59:08Z</time>
      </trkpt>
      <trkpt lat="44.80006" lon="1.63125">
        <ele>144.82</ele>
        <time>2015-11-22T08:59:09Z</time>
      </trkpt>
      <trkpt lat="44.79999" lon="1.63141">
        <ele>144.82</ele>
        <time>2015-11-22T08:59:19Z</time>
      </trkpt>
      <trkpt lat="44.79996" lon="1.63151">
        <ele>144.82</ele>
        <time>2015-11-22T08:59:24Z</time>
      </trkpt>
      <trkpt lat="44.79984" lon="1.63175">
        <ele>144.82</ele>
        <time>2015-11-22T08:59:37Z</time>
      </trkpt>
      <trkpt lat="44.79978" lon="1.63187">
        <ele>144.82</ele>
        <time>2015-11-22T08:59:43Z</time>
      </trkpt>
      <trkpt lat="44.79977" lon="1.63189">
        <ele>144.82</ele>
        <time>2015-11-22T08:59:44Z</time>
      </trkpt>
      <trkpt lat="44.79976" lon="1.63195">
        <ele>143.85</ele>
        <time>2015-11-22T08:59:47Z</time>
      </trkpt>
      <trkpt lat="44.79976" lon="1.63197">
        <ele>143.85</ele>
        <time>2015-11-22T08:59:48Z</time>
      </trkpt>
      <trkpt lat="44.79975" lon="1.63199">
        <ele>143.37</ele>
        <time>2015-11-22T08:59:49Z</time>
      </trkpt>
      <trkpt lat="44.79975" lon="1.63202">
        <ele>143.37</ele>
        <time>2015-11-22T08:59:50Z</time>
      </trkpt>
      <trkpt lat="44.79974" lon="1.63204">
        <ele>143.37</ele>
        <time>2015-11-22T08:59:51Z</time>
      </trkpt>
      <trkpt lat="44.79974" lon="1.63206">
        <ele>143.37</ele>
        <time>2015-11-22T08:59:52Z</time>
      </trkpt>
      <trkpt lat="44.79974" lon="1.63208">
        <ele>143.37</ele>
        <time>2015-11-22T08:59:53Z</time>
      </trkpt>
      <trkpt lat="44.79974" lon="1.63211">
        <ele>143.37</ele>
        <time>2015-11-22T08:59:54Z</time>
      </trkpt>
      <trkpt lat="44.79974" lon="1.63213">
        <ele>143.37</ele>
        <time>2015-11-22T08:59:55Z</time>
      </trkpt>
      <trkpt lat="44.79974" lon="1.63216">
        <ele>143.37</ele>
        <time>2015-11-22T08:59:56Z</time>
      </trkpt>
      <trkpt lat="44.79974" lon="1.63218">
        <ele>143.37</ele>
        <time>2015-11-22T08:59:57Z</time>
      </trkpt>
      <trkpt lat="44.79974" lon="1.63221">
        <ele>143.37</ele>
        <time>2015-11-22T08:59:58Z</time>
      </trkpt>
      <trkpt lat="44.79974" lon="1.63223">
        <ele>143.37</ele>
        <time>2015-11-22T08:59:59Z</time>
      </trkpt>
      <trkpt lat="44.79974" lon="1.63225">
        <ele>142.89</ele>
        <time>2015-11-22T09:00:00Z</time>
      </trkpt>
      <trkpt lat="44.79974" lon="1.63227">
        <ele>142.89</ele>
        <time>2015-11-22T09:00:01Z</time>
      </trkpt>
      <trkpt lat="44.79975" lon="1.63229">
        <ele>142.89</ele>
        <time>2015-11-22T09:00:02Z</time>
      </trkpt>
      <trkpt lat="44.79975" lon="1.6323">
        <ele>142.89</ele>
        <time>2015-11-22T09:00:03Z</time>
      </trkpt>
      <trkpt lat="44.79975" lon="1.63236">
        <ele>142.89</ele>
        <time>2015-11-22T09:00:06Z</time>
      </trkpt>
      <trkpt lat="44.79975" lon="1.63238">
        <ele>142.89</ele>
        <time>2015-11-22T09:00:07Z</time>
      </trkpt>
      <trkpt lat="44.79975" lon="1.6324">
        <ele>142.89</ele>
        <time>2015-11-22T09:00:08Z</time>
      </trkpt>
      <trkpt lat="44.79974" lon="1.63242">
        <ele>142.89</ele>
        <time>2015-11-22T09:00:09Z</time>
      </trkpt>
      <trkpt lat="44.79974" lon="1.63245">
        <ele>142.89</ele>
        <time>2015-11-22T09:00:10Z</time>
      </trkpt>
      <trkpt lat="44.79974" lon="1.63246">
        <ele>142.89</ele>
        <time>2015-11-22T09:00:11Z</time>
      </trkpt>
      <trkpt lat="44.79973" lon="1.63248">
        <ele>142.89</ele>
        <time>2015-11-22T09:00:12Z</time>
      </trkpt>
      <trkpt lat="44.79973" lon="1.6325">
        <ele>142.89</ele>
        <time>2015-11-22T09:00:13Z</time>
      </trkpt>
      <trkpt lat="44.79972" lon="1.63252">
        <ele>142.89</ele>
        <time>2015-11-22T09:00:14Z</time>
      </trkpt>
      <trkpt lat="44.79971" lon="1.63254">
        <ele>142.89</ele>
        <time>2015-11-22T09:00:15Z</time>
      </trkpt>
      <trkpt lat="44.7997" lon="1.63256">
        <ele>142.89</ele>
        <time>2015-11-22T09:00:16Z</time>
      </trkpt>
      <trkpt lat="44.7997" lon="1.63258">
        <ele>142.89</ele>
        <time>2015-11-22T09:00:17Z</time>
      </trkpt>
      <trkpt lat="44.79969" lon="1.6326">
        <ele>142.89</ele>
        <time>2015-11-22T09:00:18Z</time>
      </trkpt>
      <trkpt lat="44.79967" lon="1.6327">
        <ele>144.34</ele>
        <time>2015-11-22T09:00:23Z</time>
      </trkpt>
      <trkpt lat="44.79963" lon="1.63287">
        <ele>145.78</ele>
        <time>2015-11-22T09:00:31Z</time>
      </trkpt>
      <trkpt lat="44.79962" lon="1.63289">
        <ele>145.3</ele>
        <time>2015-11-22T09:00:32Z</time>
      </trkpt>
      <trkpt lat="44.79962" lon="1.63291">
        <ele>145.78</ele>
        <time>2015-11-22T09:00:33Z</time>
      </trkpt>
      <trkpt lat="44.79962" lon="1.63293">
        <ele>146.74</ele>
        <time>2015-11-22T09:00:34Z</time>
      </trkpt>
      <trkpt lat="44.79961" lon="1.63294">
        <ele>147.22</ele>
        <time>2015-11-22T09:00:35Z</time>
      </trkpt>
      <trkpt lat="44.79961" lon="1.63296">
        <ele>147.22</ele>
        <time>2015-11-22T09:00:36Z</time>
      </trkpt>
      <trkpt lat="44.7996" lon="1.63304">
        <ele>150.1</ele>
        <time>2015-11-22T09:00:40Z</time>
      </trkpt>
      <trkpt lat="44.79959" lon="1.63306">
        <ele>151.06</ele>
        <time>2015-11-22T09:00:41Z</time>
      </trkpt>
      <trkpt lat="44.79959" lon="1.63308">
        <ele>151.06</ele>
        <time>2015-11-22T09:00:42Z</time>
      </trkpt>
      <trkpt lat="44.79958" lon="1.6331">
        <ele>151.06</ele>
        <time>2015-11-22T09:00:43Z</time>
      </trkpt>
      <trkpt lat="44.79958" lon="1.63312">
        <ele>151.54</ele>
        <time>2015-11-22T09:00:44Z</time>
      </trkpt>
      <trkpt lat="44.79958" lon="1.63314">
        <ele>151.54</ele>
        <time>2015-11-22T09:00:45Z</time>
      </trkpt>
      <trkpt lat="44.79958" lon="1.63317">
        <ele>151.54</ele>
        <time>2015-11-22T09:00:46Z</time>
      </trkpt>
      <trkpt lat="44.79958" lon="1.63319">
        <ele>151.06</ele>
        <time>2015-11-22T09:00:47Z</time>
      </trkpt>
      <trkpt lat="44.79957" lon="1.63321">
        <ele>151.06</ele>
        <time>2015-11-22T09:00:48Z</time>
      </trkpt>
      <trkpt lat="44.79957" lon="1.63324">
        <ele>151.06</ele>
        <time>2015-11-22T09:00:49Z</time>
      </trkpt>
      <trkpt lat="44.79957" lon="1.63326">
        <ele>151.06</ele>
        <time>2015-11-22T09:00:50Z</time>
      </trkpt>
      <trkpt lat="44.79956" lon="1.63328">
        <ele>151.06</ele>
        <time>2015-11-22T09:00:51Z</time>
      </trkpt>
      <trkpt lat="44.79956" lon="1.63331">
        <ele>151.06</ele>
        <time>2015-11-22T09:00:52Z</time>
      </trkpt>
      <trkpt lat="44.79955" lon="1.63333">
        <ele>151.06</ele>
        <time>2015-11-22T09:00:53Z</time>
      </trkpt>
      <trkpt lat="44.79954" lon="1.63338">
        <ele>151.06</ele>
        <time>2015-11-22T09:00:55Z</time>
      </trkpt>
      <trkpt lat="44.79954" lon="1.63341">
        <ele>151.06</ele>
        <time>2015-11-22T09:00:56Z</time>
      </trkpt>
      <trkpt lat="44.79953" lon="1.63343">
        <ele>151.06</ele>
        <time>2015-11-22T09:00:57Z</time>
      </trkpt>
      <trkpt lat="44.79953" lon="1.63345">
        <ele>151.06</ele>
        <time>2015-11-22T09:00:58Z</time>
      </trkpt>
      <trkpt lat="44.79953" lon="1.63348">
        <ele>151.06</ele>
        <time>2015-11-22T09:00:59Z</time>
      </trkpt>
      <trkpt lat="44.79952" lon="1.63351">
        <ele>151.06</ele>
        <time>2015-11-22T09:01:00Z</time>
      </trkpt>
      <trkpt lat="44.79952" lon="1.63353">
        <ele>151.06</ele>
        <time>2015-11-22T09:01:01Z</time>
      </trkpt>
      <trkpt lat="44.79952" lon="1.63355">
        <ele>151.06</ele>
        <time>2015-11-22T09:01:02Z</time>
      </trkpt>
      <trkpt lat="44.79949" lon="1.6337">
        <ele>151.06</ele>
        <time>2015-11-22T09:01:08Z</time>
      </trkpt>
      <trkpt lat="44.79949" lon="1.63372">
        <ele>151.06</ele>
        <time>2015-11-22T09:01:09Z</time>
      </trkpt>
      <trkpt lat="44.79949" lon="1.63374">
        <ele>151.06</ele>
        <time>2015-11-22T09:01:10Z</time>
      </trkpt>
      <trkpt lat="44.79949" lon="1.63376">
        <ele>151.06</ele>
        <time>2015-11-22T09:01:11Z</time>
      </trkpt>
      <trkpt lat="44.79948" lon="1.63378">
        <ele>151.06</ele>
        <time>2015-11-22T09:01:12Z</time>
      </trkpt>
      <trkpt lat="44.79948" lon="1.63381">
        <ele>151.06</ele>
        <time>2015-11-22T09:01:13Z</time>
      </trkpt>
      <trkpt lat="44.79948" lon="1.63383">
        <ele>151.06</ele>
        <time>2015-11-22T09:01:14Z</time>
      </trkpt>
      <trkpt lat="44.79948" lon="1.63385">
        <ele>151.06</ele>
        <time>2015-11-22T09:01:15Z</time>
      </trkpt>
      <trkpt lat="44.79947" lon="1.63387">
        <ele>150.1</ele>
        <time>2015-11-22T09:01:16Z</time>
      </trkpt>
      <trkpt lat="44.79947" lon="1.63389">
        <ele>150.1</ele>
        <time>2015-11-22T09:01:17Z</time>
      </trkpt>
      <trkpt lat="44.79947" lon="1.63391">
        <ele>149.62</ele>
        <time>2015-11-22T09:01:18Z</time>
      </trkpt>
      <trkpt lat="44.79947" lon="1.63393">
        <ele>149.62</ele>
        <time>2015-11-22T09:01:19Z</time>
      </trkpt>
      <trkpt lat="44.79946" lon="1.63395">
        <ele>149.62</ele>
        <time>2015-11-22T09:01:20Z</time>
      </trkpt>
      <trkpt lat="44.79945" lon="1.63398">
        <ele>150.1</ele>
        <time>2015-11-22T09:01:21Z</time>
      </trkpt>
      <trkpt lat="44.79945" lon="1.634">
        <ele>150.1</ele>
        <time>2015-11-22T09:01:22Z</time>
      </trkpt>
      <trkpt lat="44.79945" lon="1.63403">
        <ele>149.14</ele>
        <time>2015-11-22T09:01:23Z</time>
      </trkpt>
      <trkpt lat="44.79945" lon="1.63405">
        <ele>149.14</ele>
        <time>2015-11-22T09:01:24Z</time>
      </trkpt>
      <trkpt lat="44.79939" lon="1.63439">
        <ele>148.18</ele>
        <time>2015-11-22T09:01:38Z</time>
      </trkpt>
      <trkpt lat="44.79935" lon="1.6346">
        <ele>147.7</ele>
        <time>2015-11-22T09:01:47Z</time>
      </trkpt>
      <trkpt lat="44.79935" lon="1.63462">
        <ele>147.7</ele>
        <time>2015-11-22T09:01:48Z</time>
      </trkpt>
      <trkpt lat="44.79934" lon="1.63463">
        <ele>147.7</ele>
        <time>2015-11-22T09:01:49Z</time>
      </trkpt>
      <trkpt lat="44.79933" lon="1.63466">
        <ele>147.7</ele>
        <time>2015-11-22T09:01:50Z</time>
      </trkpt>
      <trkpt lat="44.79933" lon="1.63468">
        <ele>147.7</ele>
        <time>2015-11-22T09:01:51Z</time>
      </trkpt>
      <trkpt lat="44.79932" lon="1.6347">
        <ele>146.74</ele>
        <time>2015-11-22T09:01:52Z</time>
      </trkpt>
      <trkpt lat="44.79926" lon="1.63495">
        <ele>147.22</ele>
        <time>2015-11-22T09:02:05Z</time>
      </trkpt>
      <trkpt lat="44.79916" lon="1.63527">
        <ele>147.22</ele>
        <time>2015-11-22T09:02:20Z</time>
      </trkpt>
      <trkpt lat="44.79911" lon="1.63545">
        <ele>147.22</ele>
        <time>2015-11-22T09:02:28Z</time>
      </trkpt>
      <trkpt lat="44.7991" lon="1.63547">
        <ele>147.22</ele>
        <time>2015-11-22T09:02:29Z</time>
      </trkpt>
      <trkpt lat="44.79909" lon="1.63549">
        <ele>147.22</ele>
        <time>2015-11-22T09:02:30Z</time>
      </trkpt>
      <trkpt lat="44.79909" lon="1.63551">
        <ele>147.22</ele>
        <time>2015-11-22T09:02:31Z</time>
      </trkpt>
      <trkpt lat="44.79908" lon="1.63553">
        <ele>147.22</ele>
        <time>2015-11-22T09:02:32Z</time>
      </trkpt>
      <trkpt lat="44.79907" lon="1.63555">
        <ele>147.22</ele>
        <time>2015-11-22T09:02:33Z</time>
      </trkpt>
      <trkpt lat="44.79906" lon="1.63557">
        <ele>147.22</ele>
        <time>2015-11-22T09:02:34Z</time>
      </trkpt>
      <trkpt lat="44.79905" lon="1.63558">
        <ele>147.22</ele>
        <time>2015-11-22T09:02:35Z</time>
      </trkpt>
      <trkpt lat="44.79885" lon="1.63578">
        <ele>146.74</ele>
        <time>2015-11-22T09:02:50Z</time>
      </trkpt>
      <trkpt lat="44.79867" lon="1.6359">
        <ele>145.78</ele>
        <time>2015-11-22T09:03:02Z</time>
      </trkpt>
      <trkpt lat="44.79854" lon="1.63598">
        <ele>145.3</ele>
        <time>2015-11-22T09:03:11Z</time>
      </trkpt>
      <trkpt lat="44.79842" lon="1.63603">
        <ele>144.82</ele>
        <time>2015-11-22T09:03:19Z</time>
      </trkpt>
      <trkpt lat="44.79841" lon="1.63604">
        <ele>144.82</ele>
        <time>2015-11-22T09:03:20Z</time>
      </trkpt>
      <trkpt lat="44.7984" lon="1.63605">
        <ele>144.82</ele>
        <time>2015-11-22T09:03:21Z</time>
      </trkpt>
      <trkpt lat="44.79838" lon="1.63605">
        <ele>144.82</ele>
        <time>2015-11-22T09:03:22Z</time>
      </trkpt>
      <trkpt lat="44.79836" lon="1.63606">
        <ele>144.82</ele>
        <time>2015-11-22T09:03:23Z</time>
      </trkpt>
      <trkpt lat="44.79821" lon="1.63611">
        <ele>144.34</ele>
        <time>2015-11-22T09:03:33Z</time>
      </trkpt>
      <trkpt lat="44.79819" lon="1.63611">
        <ele>144.34</ele>
        <time>2015-11-22T09:03:34Z</time>
      </trkpt>
      <trkpt lat="44.79818" lon="1.63611">
        <ele>144.34</ele>
        <time>2015-11-22T09:03:35Z</time>
      </trkpt>
      <trkpt lat="44.79805" lon="1.63616">
        <ele>144.34</ele>
        <time>2015-11-22T09:03:43Z</time>
      </trkpt>
      <trkpt lat="44.79803" lon="1.63616">
        <ele>144.34</ele>
        <time>2015-11-22T09:03:44Z</time>
      </trkpt>
      <trkpt lat="44.79802" lon="1.63617">
        <ele>144.34</ele>
        <time>2015-11-22T09:03:45Z</time>
      </trkpt>
      <trkpt lat="44.79794" lon="1.63619">
        <ele>145.3</ele>
        <time>2015-11-22T09:03:51Z</time>
      </trkpt>
      <trkpt lat="44.79769" lon="1.63612">
        <ele>146.26</ele>
        <time>2015-11-22T09:04:06Z</time>
      </trkpt>
      <trkpt lat="44.79744" lon="1.63601">
        <ele>146.26</ele>
        <time>2015-11-22T09:04:21Z</time>
      </trkpt>
      <trkpt lat="44.79742" lon="1.636">
        <ele>146.26</ele>
        <time>2015-11-22T09:04:22Z</time>
      </trkpt>
      <trkpt lat="44.79741" lon="1.63599">
        <ele>146.26</ele>
        <time>2015-11-22T09:04:23Z</time>
      </trkpt>
      <trkpt lat="44.79718" lon="1.63588">
        <ele>146.26</ele>
        <time>2015-11-22T09:04:38Z</time>
      </trkpt>
      <trkpt lat="44.797" lon="1.63584">
        <ele>146.74</ele>
        <time>2015-11-22T09:04:49Z</time>
      </trkpt>
      <trkpt lat="44.7968" lon="1.63586">
        <ele>146.74</ele>
        <time>2015-11-22T09:05:02Z</time>
      </trkpt>
      <trkpt lat="44.79657" lon="1.63595">
        <ele>146.74</ele>
        <time>2015-11-22T09:05:16Z</time>
      </trkpt>
      <trkpt lat="44.79655" lon="1.63595">
        <ele>146.74</ele>
        <time>2015-11-22T09:05:17Z</time>
      </trkpt>
      <trkpt lat="44.79654" lon="1.63595">
        <ele>146.74</ele>
        <time>2015-11-22T09:05:18Z</time>
      </trkpt>
      <trkpt lat="44.79652" lon="1.63596">
        <ele>146.74</ele>
        <time>2015-11-22T09:05:19Z</time>
      </trkpt>
      <trkpt lat="44.79651" lon="1.63597">
        <ele>146.74</ele>
        <time>2015-11-22T09:05:20Z</time>
      </trkpt>
      <trkpt lat="44.79649" lon="1.63597">
        <ele>146.74</ele>
        <time>2015-11-22T09:05:21Z</time>
      </trkpt>
      <trkpt lat="44.79647" lon="1.63598">
        <ele>146.74</ele>
        <time>2015-11-22T09:05:22Z</time>
      </trkpt>
      <trkpt lat="44.79645" lon="1.63598">
        <ele>146.74</ele>
        <time>2015-11-22T09:05:23Z</time>
      </trkpt>
      <trkpt lat="44.79644" lon="1.63599">
        <ele>146.74</ele>
        <time>2015-11-22T09:05:24Z</time>
      </trkpt>
      <trkpt lat="44.79642" lon="1.63601">
        <ele>146.74</ele>
        <time>2015-11-22T09:05:25Z</time>
      </trkpt>
      <trkpt lat="44.79625" lon="1.63611">
        <ele>146.74</ele>
        <time>2015-11-22T09:05:35Z</time>
      </trkpt>
      <trkpt lat="44.79613" lon="1.63625">
        <ele>147.22</ele>
        <time>2015-11-22T09:05:46Z</time>
      </trkpt>
      <trkpt lat="44.79599" lon="1.63645">
        <ele>148.18</ele>
        <time>2015-11-22T09:05:58Z</time>
      </trkpt>
      <trkpt lat="44.79582" lon="1.63672">
        <ele>148.66</ele>
        <time>2015-11-22T09:06:12Z</time>
      </trkpt>
      <trkpt lat="44.79575" lon="1.63688">
        <ele>149.14</ele>
        <time>2015-11-22T09:06:20Z</time>
      </trkpt>
      <trkpt lat="44.79574" lon="1.63691">
        <ele>149.14</ele>
        <time>2015-11-22T09:06:21Z</time>
      </trkpt>
      <trkpt lat="44.7957" lon="1.63704">
        <ele>149.62</ele>
        <time>2015-11-22T09:06:28Z</time>
      </trkpt>
      <trkpt lat="44.79569" lon="1.63706">
        <ele>149.62</ele>
        <time>2015-11-22T09:06:29Z</time>
      </trkpt>
      <trkpt lat="44.79568" lon="1.63708">
        <ele>149.62</ele>
        <time>2015-11-22T09:06:30Z</time>
      </trkpt>
      <trkpt lat="44.79567" lon="1.63711">
        <ele>149.62</ele>
        <time>2015-11-22T09:06:31Z</time>
      </trkpt>
      <trkpt lat="44.79567" lon="1.63713">
        <ele>150.1</ele>
        <time>2015-11-22T09:06:32Z</time>
      </trkpt>
      <trkpt lat="44.79566" lon="1.63715">
        <ele>150.1</ele>
        <time>2015-11-22T09:06:33Z</time>
      </trkpt>
      <trkpt lat="44.79565" lon="1.63718">
        <ele>150.1</ele>
        <time>2015-11-22T09:06:34Z</time>
      </trkpt>
      <trkpt lat="44.7956" lon="1.63735">
        <ele>151.06</ele>
        <time>2015-11-22T09:06:42Z</time>
      </trkpt>
      <trkpt lat="44.7955" lon="1.63761">
        <ele>152.03</ele>
        <time>2015-11-22T09:06:53Z</time>
      </trkpt>
      <trkpt lat="44.79544" lon="1.63787">
        <ele>152.99</ele>
        <time>2015-11-22T09:07:06Z</time>
      </trkpt>
      <trkpt lat="44.79538" lon="1.63811">
        <ele>152.99</ele>
        <time>2015-11-22T09:07:17Z</time>
      </trkpt>
      <trkpt lat="44.79531" lon="1.63835">
        <ele>152.99</ele>
        <time>2015-11-22T09:07:29Z</time>
      </trkpt>
      <trkpt lat="44.79535" lon="1.63819">
        <ele>152.99</ele>
        <time>2015-11-22T09:07:42Z</time>
      </trkpt>
      <trkpt lat="44.79539" lon="1.63806">
        <ele>152.99</ele>
        <time>2015-11-22T09:07:54Z</time>
      </trkpt>
      <trkpt lat="44.79541" lon="1.63799">
        <ele>152.99</ele>
        <time>2015-11-22T09:08:06Z</time>
      </trkpt>
      <trkpt lat="44.79544" lon="1.63791">
        <ele>152.99</ele>
        <time>2015-11-22T09:08:26Z</time>
      </trkpt>
      <trkpt lat="44.79545" lon="1.63786">
        <ele>152.99</ele>
        <time>2015-11-22T09:08:39Z</time>
      </trkpt>
      <trkpt lat="44.79545" lon="1.63785">
        <ele>152.99</ele>
        <time>2015-11-22T09:08:58Z</time>
      </trkpt>
      <trkpt lat="44.79547" lon="1.63775">
        <ele>153.47</ele>
        <time>2015-11-22T09:09:16Z</time>
      </trkpt>
      <trkpt lat="44.79552" lon="1.63761">
        <ele>153.47</ele>
        <time>2015-11-22T09:09:35Z</time>
      </trkpt>
      <trkpt lat="44.79552" lon="1.63759">
        <ele>153.47</ele>
        <time>2015-11-22T09:10:04Z</time>
      </trkpt>
      <trkpt lat="44.79551" lon="1.6376">
        <ele>153.47</ele>
        <time>2015-11-22T09:10:23Z</time>
      </trkpt>
      <trkpt lat="44.79553" lon="1.63761">
        <ele>153.47</ele>
        <time>2015-11-22T09:10:37Z</time>
      </trkpt>
      <trkpt lat="44.79551" lon="1.63767">
        <ele>153.47</ele>
        <time>2015-11-22T09:10:43Z</time>
      </trkpt>
      <trkpt lat="44.79547" lon="1.63782">
        <ele>153.47</ele>
        <time>2015-11-22T09:10:58Z</time>
      </trkpt>
      <trkpt lat="44.79547" lon="1.63785">
        <ele>153.47</ele>
        <time>2015-11-22T09:11:14Z</time>
      </trkpt>
      <trkpt lat="44.79547" lon="1.63786">
        <ele>153.47</ele>
        <time>2015-11-22T09:11:34Z</time>
      </trkpt>
      <trkpt lat="44.79547" lon="1.63786">
        <ele>153.47</ele>
        <time>2015-11-22T09:11:48Z</time>
      </trkpt>
      <trkpt lat="44.79547" lon="1.63785">
        <ele>153.47</ele>
        <time>2015-11-22T09:12:12Z</time>
      </trkpt>
      <trkpt lat="44.79546" lon="1.63785">
        <ele>153.47</ele>
        <time>2015-11-22T09:12:31Z</time>
      </trkpt>
      <trkpt lat="44.79546" lon="1.63785">
        <ele>153.47</ele>
        <time>2015-11-22T09:12:43Z</time>
      </trkpt>
      <trkpt lat="44.79543" lon="1.63802">
        <ele>153.47</ele>
        <time>2015-11-22T09:12:51Z</time>
      </trkpt>
      <trkpt lat="44.79534" lon="1.63835">
        <ele>152.51</ele>
        <time>2015-11-22T09:13:05Z</time>
      </trkpt>
      <trkpt lat="44.79525" lon="1.63862">
        <ele>151.54</ele>
        <time>2015-11-22T09:13:18Z</time>
      </trkpt>
      <trkpt lat="44.79525" lon="1.63864">
        <ele>151.54</ele>
        <time>2015-11-22T09:13:19Z</time>
      </trkpt>
      <trkpt lat="44.79524" lon="1.63866">
        <ele>151.54</ele>
        <time>2015-11-22T09:13:20Z</time>
      </trkpt>
      <trkpt lat="44.79515" lon="1.63897">
        <ele>151.06</ele>
        <time>2015-11-22T09:13:33Z</time>
      </trkpt>
      <trkpt lat="44.79509" lon="1.63925">
        <ele>150.58</ele>
        <time>2015-11-22T09:13:47Z</time>
      </trkpt>
      <trkpt lat="44.79508" lon="1.63928">
        <ele>150.58</ele>
        <time>2015-11-22T09:13:48Z</time>
      </trkpt>
      <trkpt lat="44.79496" lon="1.63957">
        <ele>150.58</ele>
        <time>2015-11-22T09:14:01Z</time>
      </trkpt>
      <trkpt lat="44.79485" lon="1.63982">
        <ele>150.1</ele>
        <time>2015-11-22T09:14:14Z</time>
      </trkpt>
      <trkpt lat="44.79477" lon="1.64">
        <ele>150.1</ele>
        <time>2015-11-22T09:14:22Z</time>
      </trkpt>
      <trkpt lat="44.79476" lon="1.64002">
        <ele>150.1</ele>
        <time>2015-11-22T09:14:23Z</time>
      </trkpt>
      <trkpt lat="44.79476" lon="1.64004">
        <ele>150.1</ele>
        <time>2015-11-22T09:14:24Z</time>
      </trkpt>
      <trkpt lat="44.79471" lon="1.64032">
        <ele>149.62</ele>
        <time>2015-11-22T09:14:37Z</time>
      </trkpt>
      <trkpt lat="44.79471" lon="1.64037">
        <ele>149.62</ele>
        <time>2015-11-22T09:14:39Z</time>
      </trkpt>
      <trkpt lat="44.79471" lon="1.64039">
        <ele>149.62</ele>
        <time>2015-11-22T09:14:40Z</time>
      </trkpt>
      <trkpt lat="44.79471" lon="1.64041">
        <ele>149.62</ele>
        <time>2015-11-22T09:14:41Z</time>
      </trkpt>
      <trkpt lat="44.79471" lon="1.64043">
        <ele>149.62</ele>
        <time>2015-11-22T09:14:42Z</time>
      </trkpt>
      <trkpt lat="44.79471" lon="1.64046">
        <ele>149.62</ele>
        <time>2015-11-22T09:14:43Z</time>
      </trkpt>
      <trkpt lat="44.79471" lon="1.64048">
        <ele>149.62</ele>
        <time>2015-11-22T09:14:44Z</time>
      </trkpt>
      <trkpt lat="44.79471" lon="1.6405">
        <ele>149.62</ele>
        <time>2015-11-22T09:14:45Z</time>
      </trkpt>
      <trkpt lat="44.79471" lon="1.64053">
        <ele>149.62</ele>
        <time>2015-11-22T09:14:46Z</time>
      </trkpt>
      <trkpt lat="44.79471" lon="1.64055">
        <ele>149.62</ele>
        <time>2015-11-22T09:14:47Z</time>
      </trkpt>
      <trkpt lat="44.79472" lon="1.64058">
        <ele>149.62</ele>
        <time>2015-11-22T09:14:48Z</time>
      </trkpt>
      <trkpt lat="44.79472" lon="1.64067">
        <ele>149.62</ele>
        <time>2015-11-22T09:14:52Z</time>
      </trkpt>
      <trkpt lat="44.7948" lon="1.64093">
        <ele>149.62</ele>
        <time>2015-11-22T09:15:04Z</time>
      </trkpt>
      <trkpt lat="44.7948" lon="1.64095">
        <ele>149.62</ele>
        <time>2015-11-22T09:15:05Z</time>
      </trkpt>
      <trkpt lat="44.79481" lon="1.641">
        <ele>149.62</ele>
        <time>2015-11-22T09:15:07Z</time>
      </trkpt>
      <trkpt lat="44.79481" lon="1.64103">
        <ele>149.62</ele>
        <time>2015-11-22T09:15:08Z</time>
      </trkpt>
      <trkpt lat="44.79486" lon="1.64126">
        <ele>149.62</ele>
        <time>2015-11-22T09:15:19Z</time>
      </trkpt>
      <trkpt lat="44.79486" lon="1.64129">
        <ele>149.62</ele>
        <time>2015-11-22T09:15:20Z</time>
      </trkpt>
      <trkpt lat="44.79487" lon="1.64131">
        <ele>149.62</ele>
        <time>2015-11-22T09:15:21Z</time>
      </trkpt>
      <trkpt lat="44.79488" lon="1.64133">
        <ele>149.62</ele>
        <time>2015-11-22T09:15:22Z</time>
      </trkpt>
      <trkpt lat="44.79489" lon="1.64135">
        <ele>149.62</ele>
        <time>2015-11-22T09:15:23Z</time>
      </trkpt>
      <trkpt lat="44.7949" lon="1.64137">
        <ele>149.62</ele>
        <time>2015-11-22T09:15:24Z</time>
      </trkpt>
      <trkpt lat="44.7949" lon="1.64139">
        <ele>149.62</ele>
        <time>2015-11-22T09:15:25Z</time>
      </trkpt>
      <trkpt lat="44.79491" lon="1.64141">
        <ele>149.62</ele>
        <time>2015-11-22T09:15:26Z</time>
      </trkpt>
      <trkpt lat="44.79495" lon="1.64151">
        <ele>149.62</ele>
        <time>2015-11-22T09:15:31Z</time>
      </trkpt>
      <trkpt lat="44.79496" lon="1.64153">
        <ele>149.62</ele>
        <time>2015-11-22T09:15:32Z</time>
      </trkpt>
      <trkpt lat="44.79496" lon="1.64154">
        <ele>149.62</ele>
        <time>2015-11-22T09:15:33Z</time>
      </trkpt>
      <trkpt lat="44.79497" lon="1.64156">
        <ele>149.62</ele>
        <time>2015-11-22T09:15:34Z</time>
      </trkpt>
      <trkpt lat="44.79498" lon="1.64158">
        <ele>149.62</ele>
        <time>2015-11-22T09:15:35Z</time>
      </trkpt>
      <trkpt lat="44.79499" lon="1.64161">
        <ele>149.62</ele>
        <time>2015-11-22T09:15:36Z</time>
      </trkpt>
      <trkpt lat="44.795" lon="1.64163">
        <ele>149.62</ele>
        <time>2015-11-22T09:15:37Z</time>
      </trkpt>
      <trkpt lat="44.79501" lon="1.64165">
        <ele>149.62</ele>
        <time>2015-11-22T09:15:38Z</time>
      </trkpt>
      <trkpt lat="44.79502" lon="1.64167">
        <ele>149.62</ele>
        <time>2015-11-22T09:15:39Z</time>
      </trkpt>
      <trkpt lat="44.79503" lon="1.64169">
        <ele>149.62</ele>
        <time>2015-11-22T09:15:40Z</time>
      </trkpt>
      <trkpt lat="44.79505" lon="1.64171">
        <ele>149.62</ele>
        <time>2015-11-22T09:15:41Z</time>
      </trkpt>
      <trkpt lat="44.79506" lon="1.64172">
        <ele>149.62</ele>
        <time>2015-11-22T09:15:42Z</time>
      </trkpt>
      <trkpt lat="44.79518" lon="1.64192">
        <ele>151.06</ele>
        <time>2015-11-22T09:15:53Z</time>
      </trkpt>
      <trkpt lat="44.79521" lon="1.64196">
        <ele>151.06</ele>
        <time>2015-11-22T09:15:56Z</time>
      </trkpt>
      <trkpt lat="44.79522" lon="1.64198">
        <ele>150.58</ele>
        <time>2015-11-22T09:15:57Z</time>
      </trkpt>
      <trkpt lat="44.79524" lon="1.642">
        <ele>151.06</ele>
        <time>2015-11-22T09:15:58Z</time>
      </trkpt>
      <trkpt lat="44.79536" lon="1.64218">
        <ele>152.51</ele>
        <time>2015-11-22T09:16:10Z</time>
      </trkpt>
      <trkpt lat="44.79549" lon="1.64239">
        <ele>153.47</ele>
        <time>2015-11-22T09:16:22Z</time>
      </trkpt>
      <trkpt lat="44.79559" lon="1.6426">
        <ele>154.43</ele>
        <time>2015-11-22T09:16:33Z</time>
      </trkpt>
      <trkpt lat="44.79561" lon="1.64264">
        <ele>154.43</ele>
        <time>2015-11-22T09:16:35Z</time>
      </trkpt>
      <trkpt lat="44.79563" lon="1.64266">
        <ele>154.43</ele>
        <time>2015-11-22T09:16:36Z</time>
      </trkpt>
      <trkpt lat="44.7958" lon="1.64287">
        <ele>154.91</ele>
        <time>2015-11-22T09:16:50Z</time>
      </trkpt>
      <trkpt lat="44.79591" lon="1.64292">
        <ele>154.91</ele>
        <time>2015-11-22T09:16:57Z</time>
      </trkpt>
      <trkpt lat="44.79604" lon="1.64291">
        <ele>155.39</ele>
        <time>2015-11-22T09:17:08Z</time>
      </trkpt>
      <trkpt lat="44.79606" lon="1.64291">
        <ele>155.39</ele>
        <time>2015-11-22T09:17:09Z</time>
      </trkpt>
      <trkpt lat="44.79611" lon="1.64287">
        <ele>156.35</ele>
        <time>2015-11-22T09:17:13Z</time>
      </trkpt>
      <trkpt lat="44.79626" lon="1.64279">
        <ele>155.87</ele>
        <time>2015-11-22T09:17:23Z</time>
      </trkpt>
      <trkpt lat="44.79628" lon="1.64279">
        <ele>155.87</ele>
        <time>2015-11-22T09:17:24Z</time>
      </trkpt>
      <trkpt lat="44.79639" lon="1.64272">
        <ele>157.31</ele>
        <time>2015-11-22T09:17:34Z</time>
      </trkpt>
      <trkpt lat="44.79641" lon="1.64271">
        <ele>157.79</ele>
        <time>2015-11-22T09:17:36Z</time>
      </trkpt>
      <trkpt lat="44.79642" lon="1.6427">
        <ele>157.31</ele>
        <time>2015-11-22T09:17:37Z</time>
      </trkpt>
      <trkpt lat="44.79653" lon="1.64257">
        <ele>159.24</ele>
        <time>2015-11-22T09:17:50Z</time>
      </trkpt>
      <trkpt lat="44.79661" lon="1.64247">
        <ele>162.6</ele>
        <time>2015-11-22T09:17:56Z</time>
      </trkpt>
      <trkpt lat="44.79688" lon="1.64236">
        <ele>163.08</ele>
        <time>2015-11-22T09:18:08Z</time>
      </trkpt>
      <trkpt lat="44.79726" lon="1.64233">
        <ele>160.2</ele>
        <time>2015-11-22T09:18:22Z</time>
      </trkpt>
      <trkpt lat="44.79744" lon="1.64233">
        <ele>159.24</ele>
        <time>2015-11-22T09:18:33Z</time>
      </trkpt>
      <trkpt lat="44.79767" lon="1.6423">
        <ele>158.75</ele>
        <time>2015-11-22T09:18:47Z</time>
      </trkpt>
      <trkpt lat="44.79786" lon="1.6423">
        <ele>158.75</ele>
        <time>2015-11-22T09:18:58Z</time>
      </trkpt>
      <trkpt lat="44.7979" lon="1.64229">
        <ele>158.75</ele>
        <time>2015-11-22T09:19:01Z</time>
      </trkpt>
      <trkpt lat="44.79794" lon="1.64228">
        <ele>158.75</ele>
        <time>2015-11-22T09:19:04Z</time>
      </trkpt>
      <trkpt lat="44.79795" lon="1.64228">
        <ele>158.75</ele>
        <time>2015-11-22T09:19:05Z</time>
      </trkpt>
      <trkpt lat="44.79797" lon="1.64228">
        <ele>158.75</ele>
        <time>2015-11-22T09:19:06Z</time>
      </trkpt>
      <trkpt lat="44.79798" lon="1.64228">
        <ele>158.75</ele>
        <time>2015-11-22T09:19:07Z</time>
      </trkpt>
      <trkpt lat="44.798" lon="1.64227">
        <ele>158.75</ele>
        <time>2015-11-22T09:19:08Z</time>
      </trkpt>
      <trkpt lat="44.79821" lon="1.64219">
        <ele>159.72</ele>
        <time>2015-11-22T09:19:23Z</time>
      </trkpt>
      <trkpt lat="44.79839" lon="1.64207">
        <ele>159.72</ele>
        <time>2015-11-22T09:19:34Z</time>
      </trkpt>
      <trkpt lat="44.79851" lon="1.64199">
        <ele>158.75</ele>
        <time>2015-11-22T09:19:41Z</time>
      </trkpt>
      <trkpt lat="44.7987" lon="1.64195">
        <ele>156.83</ele>
        <time>2015-11-22T09:19:53Z</time>
      </trkpt>
      <trkpt lat="44.79888" lon="1.64208">
        <ele>156.35</ele>
        <time>2015-11-22T09:20:05Z</time>
      </trkpt>
      <trkpt lat="44.79901" lon="1.64227">
        <ele>154.43</ele>
        <time>2015-11-22T09:20:17Z</time>
      </trkpt>
      <trkpt lat="44.79906" lon="1.64246">
        <ele>153.47</ele>
        <time>2015-11-22T09:20:26Z</time>
      </trkpt>
      <trkpt lat="44.79907" lon="1.64248">
        <ele>153.47</ele>
        <time>2015-11-22T09:20:27Z</time>
      </trkpt>
      <trkpt lat="44.79907" lon="1.6425">
        <ele>153.47</ele>
        <time>2015-11-22T09:20:28Z</time>
      </trkpt>
      <trkpt lat="44.79907" lon="1.64252">
        <ele>153.47</ele>
        <time>2015-11-22T09:20:29Z</time>
      </trkpt>
      <trkpt lat="44.79908" lon="1.64254">
        <ele>153.47</ele>
        <time>2015-11-22T09:20:30Z</time>
      </trkpt>
      <trkpt lat="44.79913" lon="1.6427">
        <ele>153.47</ele>
        <time>2015-11-22T09:20:40Z</time>
      </trkpt>
      <trkpt lat="44.79919" lon="1.64285">
        <ele>153.47</ele>
        <time>2015-11-22T09:20:50Z</time>
      </trkpt>
      <trkpt lat="44.79921" lon="1.64292">
        <ele>154.43</ele>
        <time>2015-11-22T09:20:54Z</time>
      </trkpt>
      <trkpt lat="44.79922" lon="1.64294">
        <ele>154.43</ele>
        <time>2015-11-22T09:20:56Z</time>
      </trkpt>
      <trkpt lat="44.79924" lon="1.64301">
        <ele>154.43</ele>
        <time>2015-11-22T09:20:59Z</time>
      </trkpt>
      <trkpt lat="44.79925" lon="1.64303">
        <ele>154.43</ele>
        <time>2015-11-22T09:21:00Z</time>
      </trkpt>
      <trkpt lat="44.79925" lon="1.64305">
        <ele>154.43</ele>
        <time>2015-11-22T09:21:01Z</time>
      </trkpt>
      <trkpt lat="44.79926" lon="1.64307">
        <ele>155.39</ele>
        <time>2015-11-22T09:21:02Z</time>
      </trkpt>
      <trkpt lat="44.79929" lon="1.64315">
        <ele>155.87</ele>
        <time>2015-11-22T09:21:12Z</time>
      </trkpt>
      <trkpt lat="44.7993" lon="1.64315">
        <ele>156.83</ele>
        <time>2015-11-22T09:21:27Z</time>
      </trkpt>
      <trkpt lat="44.7993" lon="1.64314">
        <ele>156.83</ele>
        <time>2015-11-22T09:21:36Z</time>
      </trkpt>
      <trkpt lat="44.79928" lon="1.64315">
        <ele>156.83</ele>
        <time>2015-11-22T09:21:46Z</time>
      </trkpt>
      <trkpt lat="44.79928" lon="1.64315">
        <ele>156.83</ele>
        <time>2015-11-22T09:22:10Z</time>
      </trkpt>
      <trkpt lat="44.79928" lon="1.64315">
        <ele>156.83</ele>
        <time>2015-11-22T09:22:24Z</time>
      </trkpt>
      <trkpt lat="44.79927" lon="1.64314">
        <ele>156.35</ele>
        <time>2015-11-22T09:22:37Z</time>
      </trkpt>
      <trkpt lat="44.79927" lon="1.64313">
        <ele>156.35</ele>
        <time>2015-11-22T09:22:57Z</time>
      </trkpt>
      <trkpt lat="44.79928" lon="1.64315">
        <ele>156.35</ele>
        <time>2015-11-22T09:23:06Z</time>
      </trkpt>
      <trkpt lat="44.79928" lon="1.64316">
        <ele>156.35</ele>
        <time>2015-11-22T09:23:19Z</time>
      </trkpt>
      <trkpt lat="44.79928" lon="1.64317">
        <ele>156.83</ele>
        <time>2015-11-22T09:23:23Z</time>
      </trkpt>
      <trkpt lat="44.79928" lon="1.64319">
        <ele>156.83</ele>
        <time>2015-11-22T09:23:24Z</time>
      </trkpt>
      <trkpt lat="44.79929" lon="1.64329">
        <ele>156.83</ele>
        <time>2015-11-22T09:23:30Z</time>
      </trkpt>
      <trkpt lat="44.7993" lon="1.64352">
        <ele>157.79</ele>
        <time>2015-11-22T09:23:42Z</time>
      </trkpt>
      <trkpt lat="44.79924" lon="1.64371">
        <ele>157.79</ele>
        <time>2015-11-22T09:23:52Z</time>
      </trkpt>
      <trkpt lat="44.79922" lon="1.64388">
        <ele>156.35</ele>
        <time>2015-11-22T09:24:00Z</time>
      </trkpt>
      <trkpt lat="44.79922" lon="1.64391">
        <ele>156.35</ele>
        <time>2015-11-22T09:24:01Z</time>
      </trkpt>
      <trkpt lat="44.79922" lon="1.64393">
        <ele>156.35</ele>
        <time>2015-11-22T09:24:02Z</time>
      </trkpt>
      <trkpt lat="44.79923" lon="1.64424">
        <ele>154.91</ele>
        <time>2015-11-22T09:24:14Z</time>
      </trkpt>
      <trkpt lat="44.79926" lon="1.64438">
        <ele>154.91</ele>
        <time>2015-11-22T09:24:20Z</time>
      </trkpt>
      <trkpt lat="44.79926" lon="1.64441">
        <ele>154.91</ele>
        <time>2015-11-22T09:24:21Z</time>
      </trkpt>
      <trkpt lat="44.79929" lon="1.64458">
        <ele>154.91</ele>
        <time>2015-11-22T09:24:28Z</time>
      </trkpt>
      <trkpt lat="44.79929" lon="1.64461">
        <ele>154.91</ele>
        <time>2015-11-22T09:24:29Z</time>
      </trkpt>
      <trkpt lat="44.79936" lon="1.64492">
        <ele>155.39</ele>
        <time>2015-11-22T09:24:42Z</time>
      </trkpt>
      <trkpt lat="44.7994" lon="1.64512">
        <ele>155.39</ele>
        <time>2015-11-22T09:24:51Z</time>
      </trkpt>
      <trkpt lat="44.7994" lon="1.64514">
        <ele>155.39</ele>
        <time>2015-11-22T09:24:52Z</time>
      </trkpt>
      <trkpt lat="44.7994" lon="1.64517">
        <ele>155.39</ele>
        <time>2015-11-22T09:24:53Z</time>
      </trkpt>
      <trkpt lat="44.7994" lon="1.64519">
        <ele>155.39</ele>
        <time>2015-11-22T09:24:54Z</time>
      </trkpt>
      <trkpt lat="44.7994" lon="1.64522">
        <ele>155.39</ele>
        <time>2015-11-22T09:24:55Z</time>
      </trkpt>
      <trkpt lat="44.79941" lon="1.64525">
        <ele>155.39</ele>
        <time>2015-11-22T09:24:56Z</time>
      </trkpt>
      <trkpt lat="44.79941" lon="1.64527">
        <ele>155.39</ele>
        <time>2015-11-22T09:24:57Z</time>
      </trkpt>
      <trkpt lat="44.79941" lon="1.6453">
        <ele>155.39</ele>
        <time>2015-11-22T09:24:58Z</time>
      </trkpt>
      <trkpt lat="44.79943" lon="1.64562">
        <ele>155.39</ele>
        <time>2015-11-22T09:25:11Z</time>
      </trkpt>
      <trkpt lat="44.79946" lon="1.64581">
        <ele>156.35</ele>
        <time>2015-11-22T09:25:19Z</time>
      </trkpt>
      <trkpt lat="44.79946" lon="1.64584">
        <ele>156.35</ele>
        <time>2015-11-22T09:25:20Z</time>
      </trkpt>
      <trkpt lat="44.79946" lon="1.64587">
        <ele>156.35</ele>
        <time>2015-11-22T09:25:21Z</time>
      </trkpt>
      <trkpt lat="44.79946" lon="1.64589">
        <ele>156.35</ele>
        <time>2015-11-22T09:25:22Z</time>
      </trkpt>
      <trkpt lat="44.79947" lon="1.64592">
        <ele>156.35</ele>
        <time>2015-11-22T09:25:23Z</time>
      </trkpt>
      <trkpt lat="44.79946" lon="1.64594">
        <ele>156.35</ele>
        <time>2015-11-22T09:25:24Z</time>
      </trkpt>
      <trkpt lat="44.79945" lon="1.64601">
        <ele>156.35</ele>
        <time>2015-11-22T09:25:27Z</time>
      </trkpt>
      <trkpt lat="44.79945" lon="1.64604">
        <ele>156.35</ele>
        <time>2015-11-22T09:25:28Z</time>
      </trkpt>
      <trkpt lat="44.79945" lon="1.64606">
        <ele>156.35</ele>
        <time>2015-11-22T09:25:29Z</time>
      </trkpt>
      <trkpt lat="44.79945" lon="1.6464">
        <ele>158.27</ele>
        <time>2015-11-22T09:25:43Z</time>
      </trkpt>
      <trkpt lat="44.7995" lon="1.64667">
        <ele>160.2</ele>
        <time>2015-11-22T09:25:54Z</time>
      </trkpt>
      <trkpt lat="44.79952" lon="1.64672">
        <ele>160.2</ele>
        <time>2015-11-22T09:25:56Z</time>
      </trkpt>
      <trkpt lat="44.79953" lon="1.64674">
        <ele>160.2</ele>
        <time>2015-11-22T09:25:57Z</time>
      </trkpt>
      <trkpt lat="44.79953" lon="1.64677">
        <ele>160.2</ele>
        <time>2015-11-22T09:25:58Z</time>
      </trkpt>
      <trkpt lat="44.79954" lon="1.64679">
        <ele>160.2</ele>
        <time>2015-11-22T09:25:59Z</time>
      </trkpt>
      <trkpt lat="44.79955" lon="1.64682">
        <ele>160.2</ele>
        <time>2015-11-22T09:26:00Z</time>
      </trkpt>
      <trkpt lat="44.79955" lon="1.64684">
        <ele>160.2</ele>
        <time>2015-11-22T09:26:01Z</time>
      </trkpt>
      <trkpt lat="44.79956" lon="1.64687">
        <ele>158.75</ele>
        <time>2015-11-22T09:26:02Z</time>
      </trkpt>
      <trkpt lat="44.79957" lon="1.6469">
        <ele>158.75</ele>
        <time>2015-11-22T09:26:03Z</time>
      </trkpt>
      <trkpt lat="44.79958" lon="1.64693">
        <ele>158.75</ele>
        <time>2015-11-22T09:26:04Z</time>
      </trkpt>
      <trkpt lat="44.79959" lon="1.64702">
        <ele>157.79</ele>
        <time>2015-11-22T09:26:07Z</time>
      </trkpt>
      <trkpt lat="44.7996" lon="1.64703">
        <ele>156.83</ele>
        <time>2015-11-22T09:26:08Z</time>
      </trkpt>
      <trkpt lat="44.79961" lon="1.64705">
        <ele>157.31</ele>
        <time>2015-11-22T09:26:09Z</time>
      </trkpt>
      <trkpt lat="44.79962" lon="1.64707">
        <ele>155.87</ele>
        <time>2015-11-22T09:26:10Z</time>
      </trkpt>
      <trkpt lat="44.79962" lon="1.64709">
        <ele>155.39</ele>
        <time>2015-11-22T09:26:11Z</time>
      </trkpt>
      <trkpt lat="44.79963" lon="1.64711">
        <ele>154.91</ele>
        <time>2015-11-22T09:26:12Z</time>
      </trkpt>
      <trkpt lat="44.7997" lon="1.64731">
        <ele>155.39</ele>
        <time>2015-11-22T09:26:21Z</time>
      </trkpt>
      <trkpt lat="44.79971" lon="1.64733">
        <ele>156.35</ele>
        <time>2015-11-22T09:26:22Z</time>
      </trkpt>
      <trkpt lat="44.79978" lon="1.64765">
        <ele>156.83</ele>
        <time>2015-11-22T09:26:36Z</time>
      </trkpt>
      <trkpt lat="44.7998" lon="1.64772">
        <ele>156.83</ele>
        <time>2015-11-22T09:26:39Z</time>
      </trkpt>
      <trkpt lat="44.7998" lon="1.64774">
        <ele>156.83</ele>
        <time>2015-11-22T09:26:40Z</time>
      </trkpt>
      <trkpt lat="44.79981" lon="1.64776">
        <ele>156.83</ele>
        <time>2015-11-22T09:26:41Z</time>
      </trkpt>
      <trkpt lat="44.79981" lon="1.64779">
        <ele>156.83</ele>
        <time>2015-11-22T09:26:42Z</time>
      </trkpt>
      <trkpt lat="44.79982" lon="1.64781">
        <ele>156.83</ele>
        <time>2015-11-22T09:26:43Z</time>
      </trkpt>
      <trkpt lat="44.79982" lon="1.64784">
        <ele>156.83</ele>
        <time>2015-11-22T09:26:44Z</time>
      </trkpt>
      <trkpt lat="44.79982" lon="1.64786">
        <ele>156.83</ele>
        <time>2015-11-22T09:26:45Z</time>
      </trkpt>
      <trkpt lat="44.79983" lon="1.64789">
        <ele>156.83</ele>
        <time>2015-11-22T09:26:46Z</time>
      </trkpt>
      <trkpt lat="44.79984" lon="1.64791">
        <ele>156.83</ele>
        <time>2015-11-22T09:26:47Z</time>
      </trkpt>
      <trkpt lat="44.79984" lon="1.64794">
        <ele>156.83</ele>
        <time>2015-11-22T09:26:48Z</time>
      </trkpt>
      <trkpt lat="44.79987" lon="1.64805">
        <ele>156.83</ele>
        <time>2015-11-22T09:26:53Z</time>
      </trkpt>
      <trkpt lat="44.79986" lon="1.64807">
        <ele>156.83</ele>
        <time>2015-11-22T09:26:54Z</time>
      </trkpt>
      <trkpt lat="44.79986" lon="1.6481">
        <ele>156.83</ele>
        <time>2015-11-22T09:26:55Z</time>
      </trkpt>
      <trkpt lat="44.79987" lon="1.64812">
        <ele>156.83</ele>
        <time>2015-11-22T09:26:56Z</time>
      </trkpt>
      <trkpt lat="44.79987" lon="1.64815">
        <ele>156.83</ele>
        <time>2015-11-22T09:26:57Z</time>
      </trkpt>
      <trkpt lat="44.79988" lon="1.64817">
        <ele>157.31</ele>
        <time>2015-11-22T09:26:58Z</time>
      </trkpt>
      <trkpt lat="44.79988" lon="1.6482">
        <ele>157.31</ele>
        <time>2015-11-22T09:26:59Z</time>
      </trkpt>
      <trkpt lat="44.79988" lon="1.64821">
        <ele>157.31</ele>
        <time>2015-11-22T09:27:00Z</time>
      </trkpt>
      <trkpt lat="44.79988" lon="1.64823">
        <ele>157.31</ele>
        <time>2015-11-22T09:27:01Z</time>
      </trkpt>
      <trkpt lat="44.79989" lon="1.64825">
        <ele>157.31</ele>
        <time>2015-11-22T09:27:02Z</time>
      </trkpt>
      <trkpt lat="44.7999" lon="1.64832">
        <ele>157.31</ele>
        <time>2015-11-22T09:27:05Z</time>
      </trkpt>
      <trkpt lat="44.79989" lon="1.64834">
        <ele>157.31</ele>
        <time>2015-11-22T09:27:06Z</time>
      </trkpt>
      <trkpt lat="44.79989" lon="1.64835">
        <ele>157.79</ele>
        <time>2015-11-22T09:27:07Z</time>
      </trkpt>
      <trkpt lat="44.79989" lon="1.64838">
        <ele>157.79</ele>
        <time>2015-11-22T09:27:08Z</time>
      </trkpt>
      <trkpt lat="44.79989" lon="1.6484">
        <ele>157.79</ele>
        <time>2015-11-22T09:27:09Z</time>
      </trkpt>
      <trkpt lat="44.79989" lon="1.64842">
        <ele>157.79</ele>
        <time>2015-11-22T09:27:10Z</time>
      </trkpt>
      <trkpt lat="44.79989" lon="1.64844">
        <ele>157.79</ele>
        <time>2015-11-22T09:27:11Z</time>
      </trkpt>
      <trkpt lat="44.79988" lon="1.64846">
        <ele>157.79</ele>
        <time>2015-11-22T09:27:12Z</time>
      </trkpt>
      <trkpt lat="44.79988" lon="1.64848">
        <ele>157.79</ele>
        <time>2015-11-22T09:27:13Z</time>
      </trkpt>
      <trkpt lat="44.79989" lon="1.6485">
        <ele>157.79</ele>
        <time>2015-11-22T09:27:14Z</time>
      </trkpt>
      <trkpt lat="44.79988" lon="1.64852">
        <ele>158.27</ele>
        <time>2015-11-22T09:27:15Z</time>
      </trkpt>
      <trkpt lat="44.79988" lon="1.64853">
        <ele>158.27</ele>
        <time>2015-11-22T09:27:16Z</time>
      </trkpt>
      <trkpt lat="44.79988" lon="1.64855">
        <ele>158.27</ele>
        <time>2015-11-22T09:27:17Z</time>
      </trkpt>
      <trkpt lat="44.79987" lon="1.64857">
        <ele>158.75</ele>
        <time>2015-11-22T09:27:18Z</time>
      </trkpt>
      <trkpt lat="44.79987" lon="1.64859">
        <ele>158.75</ele>
        <time>2015-11-22T09:27:19Z</time>
      </trkpt>
      <trkpt lat="44.79986" lon="1.6486">
        <ele>158.75</ele>
        <time>2015-11-22T09:27:20Z</time>
      </trkpt>
      <trkpt lat="44.79981" lon="1.64874">
        <ele>158.75</ele>
        <time>2015-11-22T09:27:28Z</time>
      </trkpt>
      <trkpt lat="44.7998" lon="1.64876">
        <ele>158.75</ele>
        <time>2015-11-22T09:27:29Z</time>
      </trkpt>
      <trkpt lat="44.7998" lon="1.64878">
        <ele>158.75</ele>
        <time>2015-11-22T09:27:30Z</time>
      </trkpt>
      <trkpt lat="44.79979" lon="1.6488">
        <ele>158.75</ele>
        <time>2015-11-22T09:27:31Z</time>
      </trkpt>
      <trkpt lat="44.79978" lon="1.64882">
        <ele>158.75</ele>
        <time>2015-11-22T09:27:32Z</time>
      </trkpt>
      <trkpt lat="44.79975" lon="1.64889">
        <ele>158.75</ele>
        <time>2015-11-22T09:27:37Z</time>
      </trkpt>
      <trkpt lat="44.79974" lon="1.6489">
        <ele>158.75</ele>
        <time>2015-11-22T09:27:38Z</time>
      </trkpt>
      <trkpt lat="44.79972" lon="1.64891">
        <ele>158.75</ele>
        <time>2015-11-22T09:27:39Z</time>
      </trkpt>
      <trkpt lat="44.79971" lon="1.64892">
        <ele>158.75</ele>
        <time>2015-11-22T09:27:40Z</time>
      </trkpt>
      <trkpt lat="44.7997" lon="1.64893">
        <ele>159.24</ele>
        <time>2015-11-22T09:27:41Z</time>
      </trkpt>
      <trkpt lat="44.79952" lon="1.64912">
        <ele>159.24</ele>
        <time>2015-11-22T09:27:53Z</time>
      </trkpt>
      <trkpt lat="44.79949" lon="1.64916">
        <ele>159.24</ele>
        <time>2015-11-22T09:27:55Z</time>
      </trkpt>
      <trkpt lat="44.79949" lon="1.64918">
        <ele>159.72</ele>
        <time>2015-11-22T09:27:56Z</time>
      </trkpt>
      <trkpt lat="44.79948" lon="1.6492">
        <ele>159.72</ele>
        <time>2015-11-22T09:27:57Z</time>
      </trkpt>
      <trkpt lat="44.79947" lon="1.64922">
        <ele>159.72</ele>
        <time>2015-11-22T09:27:58Z</time>
      </trkpt>
      <trkpt lat="44.79946" lon="1.64925">
        <ele>158.27</ele>
        <time>2015-11-22T09:27:59Z</time>
      </trkpt>
      <trkpt lat="44.79946" lon="1.64927">
        <ele>158.27</ele>
        <time>2015-11-22T09:28:00Z</time>
      </trkpt>
      <trkpt lat="44.79945" lon="1.64929">
        <ele>158.27</ele>
        <time>2015-11-22T09:28:01Z</time>
      </trkpt>
      <trkpt lat="44.79943" lon="1.64942">
        <ele>158.27</ele>
        <time>2015-11-22T09:28:07Z</time>
      </trkpt>
      <trkpt lat="44.79944" lon="1.64945">
        <ele>158.27</ele>
        <time>2015-11-22T09:28:08Z</time>
      </trkpt>
      <trkpt lat="44.79946" lon="1.64952">
        <ele>157.79</ele>
        <time>2015-11-22T09:28:11Z</time>
      </trkpt>
      <trkpt lat="44.79946" lon="1.64955">
        <ele>157.79</ele>
        <time>2015-11-22T09:28:12Z</time>
      </trkpt>
      <trkpt lat="44.79946" lon="1.64958">
        <ele>157.79</ele>
        <time>2015-11-22T09:28:13Z</time>
      </trkpt>
      <trkpt lat="44.79947" lon="1.6496">
        <ele>157.79</ele>
        <time>2015-11-22T09:28:14Z</time>
      </trkpt>
      <trkpt lat="44.79947" lon="1.64962">
        <ele>157.79</ele>
        <time>2015-11-22T09:28:15Z</time>
      </trkpt>
      <trkpt lat="44.79948" lon="1.64972">
        <ele>157.79</ele>
        <time>2015-11-22T09:28:19Z</time>
      </trkpt>
      <trkpt lat="44.79953" lon="1.64996">
        <ele>157.79</ele>
        <time>2015-11-22T09:28:32Z</time>
      </trkpt>
      <trkpt lat="44.79954" lon="1.64998">
        <ele>157.79</ele>
        <time>2015-11-22T09:28:33Z</time>
      </trkpt>
      <trkpt lat="44.79957" lon="1.65011">
        <ele>157.79</ele>
        <time>2015-11-22T09:28:40Z</time>
      </trkpt>
      <trkpt lat="44.79958" lon="1.65018">
        <ele>157.79</ele>
        <time>2015-11-22T09:28:45Z</time>
      </trkpt>
      <trkpt lat="44.79963" lon="1.65024">
        <ele>157.79</ele>
        <time>2015-11-22T09:28:51Z</time>
      </trkpt>
      <trkpt lat="44.79965" lon="1.65034">
        <ele>157.79</ele>
        <time>2015-11-22T09:28:57Z</time>
      </trkpt>
      <trkpt lat="44.79961" lon="1.65038">
        <ele>159.24</ele>
        <time>2015-11-22T09:29:01Z</time>
      </trkpt>
      <trkpt lat="44.79946" lon="1.65048">
        <ele>159.24</ele>
        <time>2015-11-22T09:29:14Z</time>
      </trkpt>
      <trkpt lat="44.79946" lon="1.65051">
        <ele>159.24</ele>
        <time>2015-11-22T09:29:16Z</time>
      </trkpt>
      <trkpt lat="44.79949" lon="1.6507">
        <ele>160.68</ele>
        <time>2015-11-22T09:29:28Z</time>
      </trkpt>
      <trkpt lat="44.7995" lon="1.65071">
        <ele>160.68</ele>
        <time>2015-11-22T09:29:33Z</time>
      </trkpt>
      <trkpt lat="44.79952" lon="1.65075">
        <ele>160.68</ele>
        <time>2015-11-22T09:29:37Z</time>
      </trkpt>
      <trkpt lat="44.79954" lon="1.6508">
        <ele>161.16</ele>
        <time>2015-11-22T09:29:50Z</time>
      </trkpt>
      <trkpt lat="44.79954" lon="1.65082">
        <ele>161.16</ele>
        <time>2015-11-22T09:29:53Z</time>
      </trkpt>
      <trkpt lat="44.79956" lon="1.65085">
        <ele>161.16</ele>
        <time>2015-11-22T09:29:57Z</time>
      </trkpt>
      <trkpt lat="44.79965" lon="1.65109">
        <ele>161.16</ele>
        <time>2015-11-22T09:30:11Z</time>
      </trkpt>
      <trkpt lat="44.79972" lon="1.6512">
        <ele>161.16</ele>
        <time>2015-11-22T09:30:18Z</time>
      </trkpt>
      <trkpt lat="44.7998" lon="1.65136">
        <ele>161.16</ele>
        <time>2015-11-22T09:30:26Z</time>
      </trkpt>
      <trkpt lat="44.79981" lon="1.65138">
        <ele>161.16</ele>
        <time>2015-11-22T09:30:27Z</time>
      </trkpt>
      <trkpt lat="44.79987" lon="1.65147">
        <ele>161.64</ele>
        <time>2015-11-22T09:30:33Z</time>
      </trkpt>
      <trkpt lat="44.79987" lon="1.65149">
        <ele>161.64</ele>
        <time>2015-11-22T09:30:34Z</time>
      </trkpt>
      <trkpt lat="44.79986" lon="1.65151">
        <ele>161.64</ele>
        <time>2015-11-22T09:30:35Z</time>
      </trkpt>
      <trkpt lat="44.79985" lon="1.65154">
        <ele>161.64</ele>
        <time>2015-11-22T09:30:37Z</time>
      </trkpt>
      <trkpt lat="44.79985" lon="1.65157">
        <ele>161.64</ele>
        <time>2015-11-22T09:30:38Z</time>
      </trkpt>
      <trkpt lat="44.79985" lon="1.65159">
        <ele>161.64</ele>
        <time>2015-11-22T09:30:39Z</time>
      </trkpt>
      <trkpt lat="44.79985" lon="1.65161">
        <ele>161.64</ele>
        <time>2015-11-22T09:30:40Z</time>
      </trkpt>
      <trkpt lat="44.79985" lon="1.65162">
        <ele>161.64</ele>
        <time>2015-11-22T09:30:41Z</time>
      </trkpt>
      <trkpt lat="44.79985" lon="1.65164">
        <ele>161.64</ele>
        <time>2015-11-22T09:30:42Z</time>
      </trkpt>
      <trkpt lat="44.79984" lon="1.65184">
        <ele>161.64</ele>
        <time>2015-11-22T09:30:50Z</time>
      </trkpt>
      <trkpt lat="44.79981" lon="1.65193">
        <ele>161.64</ele>
        <time>2015-11-22T09:30:54Z</time>
      </trkpt>
      <trkpt lat="44.79981" lon="1.65195">
        <ele>161.64</ele>
        <time>2015-11-22T09:30:55Z</time>
      </trkpt>
      <trkpt lat="44.79975" lon="1.65217">
        <ele>162.12</ele>
        <time>2015-11-22T09:31:05Z</time>
      </trkpt>
      <trkpt lat="44.79974" lon="1.65219">
        <ele>162.12</ele>
        <time>2015-11-22T09:31:06Z</time>
      </trkpt>
      <trkpt lat="44.79974" lon="1.65222">
        <ele>162.12</ele>
        <time>2015-11-22T09:31:07Z</time>
      </trkpt>
      <trkpt lat="44.79972" lon="1.65234">
        <ele>162.12</ele>
        <time>2015-11-22T09:31:13Z</time>
      </trkpt>
      <trkpt lat="44.79971" lon="1.65236">
        <ele>162.12</ele>
        <time>2015-11-22T09:31:14Z</time>
      </trkpt>
      <trkpt lat="44.7997" lon="1.65238">
        <ele>162.12</ele>
        <time>2015-11-22T09:31:15Z</time>
      </trkpt>
      <trkpt lat="44.79969" lon="1.65239">
        <ele>162.12</ele>
        <time>2015-11-22T09:31:16Z</time>
      </trkpt>
      <trkpt lat="44.79967" lon="1.6524">
        <ele>162.12</ele>
        <time>2015-11-22T09:31:17Z</time>
      </trkpt>
      <trkpt lat="44.79966" lon="1.65241">
        <ele>162.12</ele>
        <time>2015-11-22T09:31:18Z</time>
      </trkpt>
      <trkpt lat="44.79965" lon="1.65243">
        <ele>162.6</ele>
        <time>2015-11-22T09:31:19Z</time>
      </trkpt>
      <trkpt lat="44.79957" lon="1.6525">
        <ele>162.6</ele>
        <time>2015-11-22T09:31:27Z</time>
      </trkpt>
      <trkpt lat="44.79954" lon="1.65252">
        <ele>163.08</ele>
        <time>2015-11-22T09:31:31Z</time>
      </trkpt>
      <trkpt lat="44.79952" lon="1.65253">
        <ele>163.08</ele>
        <time>2015-11-22T09:31:32Z</time>
      </trkpt>
      <trkpt lat="44.79951" lon="1.65253">
        <ele>163.08</ele>
        <time>2015-11-22T09:31:33Z</time>
      </trkpt>
      <trkpt lat="44.7995" lon="1.65254">
        <ele>163.08</ele>
        <time>2015-11-22T09:31:34Z</time>
      </trkpt>
      <trkpt lat="44.79949" lon="1.65255">
        <ele>163.08</ele>
        <time>2015-11-22T09:31:35Z</time>
      </trkpt>
      <trkpt lat="44.79947" lon="1.65256">
        <ele>163.08</ele>
        <time>2015-11-22T09:31:36Z</time>
      </trkpt>
      <trkpt lat="44.79946" lon="1.65256">
        <ele>163.08</ele>
        <time>2015-11-22T09:31:37Z</time>
      </trkpt>
      <trkpt lat="44.79932" lon="1.65255">
        <ele>163.56</ele>
        <time>2015-11-22T09:31:46Z</time>
      </trkpt>
      <trkpt lat="44.79915" lon="1.65266">
        <ele>164.04</ele>
        <time>2015-11-22T09:31:56Z</time>
      </trkpt>
      <trkpt lat="44.79913" lon="1.65267">
        <ele>164.04</ele>
        <time>2015-11-22T09:31:57Z</time>
      </trkpt>
      <trkpt lat="44.79912" lon="1.65269">
        <ele>164.04</ele>
        <time>2015-11-22T09:31:58Z</time>
      </trkpt>
      <trkpt lat="44.7991" lon="1.65271">
        <ele>164.04</ele>
        <time>2015-11-22T09:31:59Z</time>
      </trkpt>
      <trkpt lat="44.799" lon="1.6528">
        <ele>164.52</ele>
        <time>2015-11-22T09:32:07Z</time>
      </trkpt>
      <trkpt lat="44.79898" lon="1.65282">
        <ele>164.52</ele>
        <time>2015-11-22T09:32:08Z</time>
      </trkpt>
      <trkpt lat="44.79897" lon="1.65284">
        <ele>165</ele>
        <time>2015-11-22T09:32:09Z</time>
      </trkpt>
      <trkpt lat="44.79894" lon="1.65286">
        <ele>165</ele>
        <time>2015-11-22T09:32:10Z</time>
      </trkpt>
      <trkpt lat="44.79892" lon="1.65287">
        <ele>165</ele>
        <time>2015-11-22T09:32:11Z</time>
      </trkpt>
      <trkpt lat="44.7989" lon="1.65289">
        <ele>165</ele>
        <time>2015-11-22T09:32:12Z</time>
      </trkpt>
      <trkpt lat="44.79888" lon="1.65291">
        <ele>165</ele>
        <time>2015-11-22T09:32:13Z</time>
      </trkpt>
      <trkpt lat="44.79884" lon="1.65294">
        <ele>165</ele>
        <time>2015-11-22T09:32:15Z</time>
      </trkpt>
      <trkpt lat="44.79883" lon="1.65296">
        <ele>165</ele>
        <time>2015-11-22T09:32:16Z</time>
      </trkpt>
      <trkpt lat="44.79881" lon="1.65297">
        <ele>165</ele>
        <time>2015-11-22T09:32:17Z</time>
      </trkpt>
      <trkpt lat="44.7988" lon="1.65302">
        <ele>165</ele>
        <time>2015-11-22T09:32:19Z</time>
      </trkpt>
      <trkpt lat="44.79879" lon="1.65305">
        <ele>165.96</ele>
        <time>2015-11-22T09:32:20Z</time>
      </trkpt>
      <trkpt lat="44.79878" lon="1.65306">
        <ele>165.96</ele>
        <time>2015-11-22T09:32:21Z</time>
      </trkpt>
      <trkpt lat="44.79876" lon="1.65309">
        <ele>166.93</ele>
        <time>2015-11-22T09:32:23Z</time>
      </trkpt>
      <trkpt lat="44.79875" lon="1.6531">
        <ele>167.41</ele>
        <time>2015-11-22T09:32:24Z</time>
      </trkpt>
      <trkpt lat="44.79873" lon="1.65311">
        <ele>167.89</ele>
        <time>2015-11-22T09:32:25Z</time>
      </trkpt>
      <trkpt lat="44.79871" lon="1.65312">
        <ele>168.85</ele>
        <time>2015-11-22T09:32:26Z</time>
      </trkpt>
      <trkpt lat="44.79869" lon="1.65313">
        <ele>169.33</ele>
        <time>2015-11-22T09:32:27Z</time>
      </trkpt>
      <trkpt lat="44.79868" lon="1.65315">
        <ele>169.81</ele>
        <time>2015-11-22T09:32:28Z</time>
      </trkpt>
      <trkpt lat="44.79867" lon="1.65316">
        <ele>170.77</ele>
        <time>2015-11-22T09:32:29Z</time>
      </trkpt>
      <trkpt lat="44.79865" lon="1.6532">
        <ele>171.73</ele>
        <time>2015-11-22T09:32:31Z</time>
      </trkpt>
      <trkpt lat="44.79865" lon="1.65323">
        <ele>171.73</ele>
        <time>2015-11-22T09:32:32Z</time>
      </trkpt>
      <trkpt lat="44.79863" lon="1.65325">
        <ele>172.69</ele>
        <time>2015-11-22T09:32:33Z</time>
      </trkpt>
      <trkpt lat="44.79849" lon="1.65351">
        <ele>173.17</ele>
        <time>2015-11-22T09:32:47Z</time>
      </trkpt>
      <trkpt lat="44.79843" lon="1.65358">
        <ele>173.17</ele>
        <time>2015-11-22T09:32:51Z</time>
      </trkpt>
      <trkpt lat="44.79843" lon="1.65361">
        <ele>173.17</ele>
        <time>2015-11-22T09:32:52Z</time>
      </trkpt>
      <trkpt lat="44.79841" lon="1.65369">
        <ele>173.66</ele>
        <time>2015-11-22T09:32:56Z</time>
      </trkpt>
      <trkpt lat="44.79843" lon="1.65386">
        <ele>177.02</ele>
        <time>2015-11-22T09:33:05Z</time>
      </trkpt>
      <trkpt lat="44.79843" lon="1.65388">
        <ele>177.02</ele>
        <time>2015-11-22T09:33:06Z</time>
      </trkpt>
      <trkpt lat="44.79843" lon="1.65391">
        <ele>177.98</ele>
        <time>2015-11-22T09:33:07Z</time>
      </trkpt>
      <trkpt lat="44.79844" lon="1.65393">
        <ele>177.98</ele>
        <time>2015-11-22T09:33:08Z</time>
      </trkpt>
      <trkpt lat="44.79844" lon="1.65395">
        <ele>177.98</ele>
        <time>2015-11-22T09:33:09Z</time>
      </trkpt>
      <trkpt lat="44.79844" lon="1.65399">
        <ele>177.98</ele>
        <time>2015-11-22T09:33:10Z</time>
      </trkpt>
      <trkpt lat="44.79844" lon="1.65401">
        <ele>177.98</ele>
        <time>2015-11-22T09:33:11Z</time>
      </trkpt>
      <trkpt lat="44.79843" lon="1.65403">
        <ele>177.98</ele>
        <time>2015-11-22T09:33:12Z</time>
      </trkpt>
      <trkpt lat="44.79842" lon="1.65405">
        <ele>177.98</ele>
        <time>2015-11-22T09:33:13Z</time>
      </trkpt>
      <trkpt lat="44.79843" lon="1.65408">
        <ele>177.98</ele>
        <time>2015-11-22T09:33:14Z</time>
      </trkpt>
      <trkpt lat="44.79842" lon="1.6541">
        <ele>177.98</ele>
        <time>2015-11-22T09:33:15Z</time>
      </trkpt>
      <trkpt lat="44.79842" lon="1.65412">
        <ele>177.98</ele>
        <time>2015-11-22T09:33:16Z</time>
      </trkpt>
      <trkpt lat="44.79843" lon="1.65415">
        <ele>177.98</ele>
        <time>2015-11-22T09:33:17Z</time>
      </trkpt>
      <trkpt lat="44.79844" lon="1.6542">
        <ele>177.98</ele>
        <time>2015-11-22T09:33:19Z</time>
      </trkpt>
      <trkpt lat="44.79844" lon="1.65422">
        <ele>177.98</ele>
        <time>2015-11-22T09:33:20Z</time>
      </trkpt>
      <trkpt lat="44.79845" lon="1.65425">
        <ele>177.98</ele>
        <time>2015-11-22T09:33:21Z</time>
      </trkpt>
      <trkpt lat="44.79847" lon="1.65429">
        <ele>177.98</ele>
        <time>2015-11-22T09:33:23Z</time>
      </trkpt>
      <trkpt lat="44.79848" lon="1.65431">
        <ele>177.98</ele>
        <time>2015-11-22T09:33:24Z</time>
      </trkpt>
      <trkpt lat="44.7985" lon="1.65433">
        <ele>177.98</ele>
        <time>2015-11-22T09:33:25Z</time>
      </trkpt>
      <trkpt lat="44.79852" lon="1.65436">
        <ele>177.98</ele>
        <time>2015-11-22T09:33:26Z</time>
      </trkpt>
      <trkpt lat="44.79852" lon="1.65438">
        <ele>177.98</ele>
        <time>2015-11-22T09:33:27Z</time>
      </trkpt>
      <trkpt lat="44.79852" lon="1.6544">
        <ele>176.54</ele>
        <time>2015-11-22T09:33:28Z</time>
      </trkpt>
      <trkpt lat="44.79851" lon="1.65442">
        <ele>176.06</ele>
        <time>2015-11-22T09:33:29Z</time>
      </trkpt>
      <trkpt lat="44.79851" lon="1.65444">
        <ele>174.14</ele>
        <time>2015-11-22T09:33:31Z</time>
      </trkpt>
      <trkpt lat="44.79852" lon="1.65446">
        <ele>173.66</ele>
        <time>2015-11-22T09:33:32Z</time>
      </trkpt>
      <trkpt lat="44.79854" lon="1.65447">
        <ele>172.69</ele>
        <time>2015-11-22T09:33:33Z</time>
      </trkpt>
      <trkpt lat="44.79856" lon="1.65449">
        <ele>171.73</ele>
        <time>2015-11-22T09:33:34Z</time>
      </trkpt>
      <trkpt lat="44.79858" lon="1.65452">
        <ele>170.77</ele>
        <time>2015-11-22T09:33:35Z</time>
      </trkpt>
      <trkpt lat="44.7986" lon="1.65454">
        <ele>170.29</ele>
        <time>2015-11-22T09:33:36Z</time>
      </trkpt>
      <trkpt lat="44.79863" lon="1.65456">
        <ele>169.81</ele>
        <time>2015-11-22T09:33:37Z</time>
      </trkpt>
      <trkpt lat="44.79865" lon="1.65458">
        <ele>169.81</ele>
        <time>2015-11-22T09:33:38Z</time>
      </trkpt>
      <trkpt lat="44.79868" lon="1.65459">
        <ele>168.85</ele>
        <time>2015-11-22T09:33:39Z</time>
      </trkpt>
      <trkpt lat="44.79871" lon="1.65467">
        <ele>168.37</ele>
        <time>2015-11-22T09:33:44Z</time>
      </trkpt>
      <trkpt lat="44.79875" lon="1.65474">
        <ele>168.37</ele>
        <time>2015-11-22T09:33:47Z</time>
      </trkpt>
      <trkpt lat="44.79877" lon="1.65486">
        <ele>168.85</ele>
        <time>2015-11-22T09:33:53Z</time>
      </trkpt>
      <trkpt lat="44.79877" lon="1.65488">
        <ele>168.85</ele>
        <time>2015-11-22T09:33:54Z</time>
      </trkpt>
      <trkpt lat="44.79877" lon="1.6549">
        <ele>168.85</ele>
        <time>2015-11-22T09:33:55Z</time>
      </trkpt>
      <trkpt lat="44.79877" lon="1.65493">
        <ele>168.85</ele>
        <time>2015-11-22T09:33:56Z</time>
      </trkpt>
      <trkpt lat="44.79877" lon="1.65495">
        <ele>168.85</ele>
        <time>2015-11-22T09:33:57Z</time>
      </trkpt>
      <trkpt lat="44.79877" lon="1.65498">
        <ele>168.85</ele>
        <time>2015-11-22T09:33:58Z</time>
      </trkpt>
      <trkpt lat="44.79877" lon="1.655">
        <ele>168.85</ele>
        <time>2015-11-22T09:33:59Z</time>
      </trkpt>
      <trkpt lat="44.79878" lon="1.65502">
        <ele>168.85</ele>
        <time>2015-11-22T09:34:00Z</time>
      </trkpt>
      <trkpt lat="44.79879" lon="1.65505">
        <ele>168.85</ele>
        <time>2015-11-22T09:34:01Z</time>
      </trkpt>
      <trkpt lat="44.79879" lon="1.65507">
        <ele>168.85</ele>
        <time>2015-11-22T09:34:02Z</time>
      </trkpt>
      <trkpt lat="44.79879" lon="1.65509">
        <ele>168.85</ele>
        <time>2015-11-22T09:34:03Z</time>
      </trkpt>
      <trkpt lat="44.7988" lon="1.6551">
        <ele>168.85</ele>
        <time>2015-11-22T09:34:04Z</time>
      </trkpt>
      <trkpt lat="44.7988" lon="1.65512">
        <ele>168.85</ele>
        <time>2015-11-22T09:34:05Z</time>
      </trkpt>
      <trkpt lat="44.79881" lon="1.65515">
        <ele>168.85</ele>
        <time>2015-11-22T09:34:06Z</time>
      </trkpt>
      <trkpt lat="44.79881" lon="1.65517">
        <ele>168.85</ele>
        <time>2015-11-22T09:34:07Z</time>
      </trkpt>
      <trkpt lat="44.79881" lon="1.65518">
        <ele>168.85</ele>
        <time>2015-11-22T09:34:08Z</time>
      </trkpt>
      <trkpt lat="44.7988" lon="1.65525">
        <ele>168.85</ele>
        <time>2015-11-22T09:34:12Z</time>
      </trkpt>
      <trkpt lat="44.79871" lon="1.65535">
        <ele>170.29</ele>
        <time>2015-11-22T09:34:22Z</time>
      </trkpt>
      <trkpt lat="44.79869" lon="1.65536">
        <ele>170.29</ele>
        <time>2015-11-22T09:34:23Z</time>
      </trkpt>
      <trkpt lat="44.79867" lon="1.65538">
        <ele>170.29</ele>
        <time>2015-11-22T09:34:24Z</time>
      </trkpt>
      <trkpt lat="44.79865" lon="1.65539">
        <ele>170.29</ele>
        <time>2015-11-22T09:34:25Z</time>
      </trkpt>
      <trkpt lat="44.79864" lon="1.6554">
        <ele>170.29</ele>
        <time>2015-11-22T09:34:26Z</time>
      </trkpt>
      <trkpt lat="44.79863" lon="1.65541">
        <ele>170.29</ele>
        <time>2015-11-22T09:34:27Z</time>
      </trkpt>
      <trkpt lat="44.79863" lon="1.65542">
        <ele>170.77</ele>
        <time>2015-11-22T09:34:28Z</time>
      </trkpt>
      <trkpt lat="44.79858" lon="1.65548">
        <ele>171.73</ele>
        <time>2015-11-22T09:34:32Z</time>
      </trkpt>
      <trkpt lat="44.79852" lon="1.65553">
        <ele>175.1</ele>
        <time>2015-11-22T09:34:38Z</time>
      </trkpt>
      <trkpt lat="44.79842" lon="1.65563">
        <ele>177.5</ele>
        <time>2015-11-22T09:34:50Z</time>
      </trkpt>
      <trkpt lat="44.79842" lon="1.65576">
        <ele>177.5</ele>
        <time>2015-11-22T09:34:57Z</time>
      </trkpt>
      <trkpt lat="44.79843" lon="1.65579">
        <ele>177.5</ele>
        <time>2015-11-22T09:34:58Z</time>
      </trkpt>
      <trkpt lat="44.79844" lon="1.65581">
        <ele>177.5</ele>
        <time>2015-11-22T09:34:59Z</time>
      </trkpt>
      <trkpt lat="44.79848" lon="1.65585">
        <ele>176.06</ele>
        <time>2015-11-22T09:35:01Z</time>
      </trkpt>
      <trkpt lat="44.79846" lon="1.65596">
        <ele>171.25</ele>
        <time>2015-11-22T09:35:06Z</time>
      </trkpt>
      <trkpt lat="44.79846" lon="1.65598">
        <ele>170.29</ele>
        <time>2015-11-22T09:35:07Z</time>
      </trkpt>
      <trkpt lat="44.79846" lon="1.65615">
        <ele>170.77</ele>
        <time>2015-11-22T09:35:16Z</time>
      </trkpt>
      <trkpt lat="44.7985" lon="1.65627">
        <ele>174.14</ele>
        <time>2015-11-22T09:35:23Z</time>
      </trkpt>
      <trkpt lat="44.79853" lon="1.65632">
        <ele>174.14</ele>
        <time>2015-11-22T09:35:25Z</time>
      </trkpt>
      <trkpt lat="44.79866" lon="1.65644">
        <ele>174.14</ele>
        <time>2015-11-22T09:35:33Z</time>
      </trkpt>
      <trkpt lat="44.79883" lon="1.65645">
        <ele>174.14</ele>
        <time>2015-11-22T09:35:45Z</time>
      </trkpt>
      <trkpt lat="44.79896" lon="1.65638">
        <ele>174.14</ele>
        <time>2015-11-22T09:35:53Z</time>
      </trkpt>
      <trkpt lat="44.799" lon="1.6564">
        <ele>174.14</ele>
        <time>2015-11-22T09:35:57Z</time>
      </trkpt>
      <trkpt lat="44.79911" lon="1.65642">
        <ele>173.17</ele>
        <time>2015-11-22T09:36:04Z</time>
      </trkpt>
      <trkpt lat="44.79914" lon="1.65644">
        <ele>173.17</ele>
        <time>2015-11-22T09:36:06Z</time>
      </trkpt>
      <trkpt lat="44.79919" lon="1.65646">
        <ele>173.17</ele>
        <time>2015-11-22T09:36:10Z</time>
      </trkpt>
      <trkpt lat="44.79938" lon="1.65651">
        <ele>173.17</ele>
        <time>2015-11-22T09:36:22Z</time>
      </trkpt>
      <trkpt lat="44.79941" lon="1.65652">
        <ele>173.17</ele>
        <time>2015-11-22T09:36:24Z</time>
      </trkpt>
      <trkpt lat="44.79949" lon="1.65656">
        <ele>173.17</ele>
        <time>2015-11-22T09:36:29Z</time>
      </trkpt>
      <trkpt lat="44.79966" lon="1.6566">
        <ele>173.17</ele>
        <time>2015-11-22T09:36:40Z</time>
      </trkpt>
      <trkpt lat="44.79969" lon="1.65662">
        <ele>173.17</ele>
        <time>2015-11-22T09:36:42Z</time>
      </trkpt>
      <trkpt lat="44.79971" lon="1.65662">
        <ele>173.17</ele>
        <time>2015-11-22T09:36:43Z</time>
      </trkpt>
      <trkpt lat="44.79972" lon="1.65663">
        <ele>173.17</ele>
        <time>2015-11-22T09:36:44Z</time>
      </trkpt>
      <trkpt lat="44.79973" lon="1.65665">
        <ele>173.17</ele>
        <time>2015-11-22T09:36:45Z</time>
      </trkpt>
      <trkpt lat="44.79974" lon="1.65665">
        <ele>173.17</ele>
        <time>2015-11-22T09:36:46Z</time>
      </trkpt>
      <trkpt lat="44.79976" lon="1.65667">
        <ele>173.17</ele>
        <time>2015-11-22T09:36:48Z</time>
      </trkpt>
      <trkpt lat="44.79977" lon="1.65668">
        <ele>173.17</ele>
        <time>2015-11-22T09:36:49Z</time>
      </trkpt>
      <trkpt lat="44.79978" lon="1.65669">
        <ele>173.17</ele>
        <time>2015-11-22T09:36:50Z</time>
      </trkpt>
      <trkpt lat="44.79981" lon="1.65668">
        <ele>173.66</ele>
        <time>2015-11-22T09:36:52Z</time>
      </trkpt>
      <trkpt lat="44.79983" lon="1.65667">
        <ele>173.66</ele>
        <time>2015-11-22T09:36:53Z</time>
      </trkpt>
      <trkpt lat="44.79988" lon="1.65666">
        <ele>173.66</ele>
        <time>2015-11-22T09:36:58Z</time>
      </trkpt>
      <trkpt lat="44.79996" lon="1.65664">
        <ele>173.66</ele>
        <time>2015-11-22T09:37:05Z</time>
      </trkpt>
      <trkpt lat="44.79999" lon="1.65665">
        <ele>173.66</ele>
        <time>2015-11-22T09:37:09Z</time>
      </trkpt>
      <trkpt lat="44.80002" lon="1.65665">
        <ele>173.66</ele>
        <time>2015-11-22T09:37:13Z</time>
      </trkpt>
      <trkpt lat="44.80004" lon="1.65668">
        <ele>173.66</ele>
        <time>2015-11-22T09:37:16Z</time>
      </trkpt>
      <trkpt lat="44.80006" lon="1.6567">
        <ele>173.66</ele>
        <time>2015-11-22T09:37:27Z</time>
      </trkpt>
      <trkpt lat="44.80008" lon="1.6566">
        <ele>174.14</ele>
        <time>2015-11-22T09:37:45Z</time>
      </trkpt>
      <trkpt lat="44.80009" lon="1.65661">
        <ele>174.14</ele>
        <time>2015-11-22T09:37:59Z</time>
      </trkpt>
      <trkpt lat="44.8001" lon="1.65664">
        <ele>174.14</ele>
        <time>2015-11-22T09:38:06Z</time>
      </trkpt>
      <trkpt lat="44.80015" lon="1.65676">
        <ele>174.14</ele>
        <time>2015-11-22T09:38:12Z</time>
      </trkpt>
      <trkpt lat="44.80023" lon="1.657">
        <ele>175.58</ele>
        <time>2015-11-22T09:38:23Z</time>
      </trkpt>
      <trkpt lat="44.80024" lon="1.65703">
        <ele>175.58</ele>
        <time>2015-11-22T09:38:24Z</time>
      </trkpt>
      <trkpt lat="44.80033" lon="1.65718">
        <ele>175.58</ele>
        <time>2015-11-22T09:38:33Z</time>
      </trkpt>
      <trkpt lat="44.80037" lon="1.65728">
        <ele>175.58</ele>
        <time>2015-11-22T09:38:39Z</time>
      </trkpt>
      <trkpt lat="44.80037" lon="1.6573">
        <ele>175.58</ele>
        <time>2015-11-22T09:38:40Z</time>
      </trkpt>
      <trkpt lat="44.80039" lon="1.65733">
        <ele>175.58</ele>
        <time>2015-11-22T09:38:41Z</time>
      </trkpt>
      <trkpt lat="44.8004" lon="1.65735">
        <ele>175.58</ele>
        <time>2015-11-22T09:38:42Z</time>
      </trkpt>
      <trkpt lat="44.80041" lon="1.65738">
        <ele>175.58</ele>
        <time>2015-11-22T09:38:43Z</time>
      </trkpt>
      <trkpt lat="44.80042" lon="1.6574">
        <ele>175.58</ele>
        <time>2015-11-22T09:38:44Z</time>
      </trkpt>
      <trkpt lat="44.80043" lon="1.65742">
        <ele>175.58</ele>
        <time>2015-11-22T09:38:45Z</time>
      </trkpt>
      <trkpt lat="44.80045" lon="1.65743">
        <ele>175.58</ele>
        <time>2015-11-22T09:38:46Z</time>
      </trkpt>
      <trkpt lat="44.80046" lon="1.65744">
        <ele>176.54</ele>
        <time>2015-11-22T09:38:47Z</time>
      </trkpt>
      <trkpt lat="44.80048" lon="1.65747">
        <ele>176.54</ele>
        <time>2015-11-22T09:38:49Z</time>
      </trkpt>
      <trkpt lat="44.80049" lon="1.65749">
        <ele>176.54</ele>
        <time>2015-11-22T09:38:50Z</time>
      </trkpt>
      <trkpt lat="44.8005" lon="1.6575">
        <ele>176.54</ele>
        <time>2015-11-22T09:38:51Z</time>
      </trkpt>
      <trkpt lat="44.80051" lon="1.65751">
        <ele>176.54</ele>
        <time>2015-11-22T09:38:52Z</time>
      </trkpt>
      <trkpt lat="44.80053" lon="1.65753">
        <ele>176.54</ele>
        <time>2015-11-22T09:38:53Z</time>
      </trkpt>
      <trkpt lat="44.80054" lon="1.65755">
        <ele>177.5</ele>
        <time>2015-11-22T09:38:54Z</time>
      </trkpt>
      <trkpt lat="44.80055" lon="1.65757">
        <ele>177.5</ele>
        <time>2015-11-22T09:38:55Z</time>
      </trkpt>
      <trkpt lat="44.80057" lon="1.65758">
        <ele>177.5</ele>
        <time>2015-11-22T09:38:56Z</time>
      </trkpt>
      <trkpt lat="44.80057" lon="1.6576">
        <ele>177.5</ele>
        <time>2015-11-22T09:38:57Z</time>
      </trkpt>
      <trkpt lat="44.80057" lon="1.65761">
        <ele>177.5</ele>
        <time>2015-11-22T09:38:58Z</time>
      </trkpt>
      <trkpt lat="44.80057" lon="1.65763">
        <ele>177.98</ele>
        <time>2015-11-22T09:38:59Z</time>
      </trkpt>
      <trkpt lat="44.80057" lon="1.65764">
        <ele>177.98</ele>
        <time>2015-11-22T09:39:00Z</time>
      </trkpt>
      <trkpt lat="44.80058" lon="1.65765">
        <ele>177.98</ele>
        <time>2015-11-22T09:39:01Z</time>
      </trkpt>
      <trkpt lat="44.80058" lon="1.65769">
        <ele>177.98</ele>
        <time>2015-11-22T09:39:05Z</time>
      </trkpt>
      <trkpt lat="44.80062" lon="1.65777">
        <ele>177.98</ele>
        <time>2015-11-22T09:39:14Z</time>
      </trkpt>
      <trkpt lat="44.80062" lon="1.65778">
        <ele>177.98</ele>
        <time>2015-11-22T09:39:16Z</time>
      </trkpt>
      <trkpt lat="44.80061" lon="1.6578">
        <ele>177.98</ele>
        <time>2015-11-22T09:39:17Z</time>
      </trkpt>
      <trkpt lat="44.80064" lon="1.65795">
        <ele>177.02</ele>
        <time>2015-11-22T09:39:27Z</time>
      </trkpt>
      <trkpt lat="44.80064" lon="1.658">
        <ele>177.02</ele>
        <time>2015-11-22T09:39:30Z</time>
      </trkpt>
      <trkpt lat="44.80058" lon="1.65817">
        <ele>177.02</ele>
        <time>2015-11-22T09:39:40Z</time>
      </trkpt>
      <trkpt lat="44.80054" lon="1.65823">
        <ele>177.02</ele>
        <time>2015-11-22T09:39:44Z</time>
      </trkpt>
      <trkpt lat="44.80052" lon="1.65826">
        <ele>177.02</ele>
        <time>2015-11-22T09:39:46Z</time>
      </trkpt>
      <trkpt lat="44.80053" lon="1.65839">
        <ele>177.02</ele>
        <time>2015-11-22T09:39:53Z</time>
      </trkpt>
      <trkpt lat="44.80052" lon="1.65843">
        <ele>177.02</ele>
        <time>2015-11-22T09:39:55Z</time>
      </trkpt>
      <trkpt lat="44.80046" lon="1.65854">
        <ele>177.02</ele>
        <time>2015-11-22T09:40:02Z</time>
      </trkpt>
      <trkpt lat="44.80043" lon="1.65856">
        <ele>177.02</ele>
        <time>2015-11-22T09:40:04Z</time>
      </trkpt>
      <trkpt lat="44.80039" lon="1.65863">
        <ele>177.02</ele>
        <time>2015-11-22T09:40:08Z</time>
      </trkpt>
      <trkpt lat="44.80031" lon="1.65876">
        <ele>177.02</ele>
        <time>2015-11-22T09:40:16Z</time>
      </trkpt>
      <trkpt lat="44.80028" lon="1.65881">
        <ele>177.02</ele>
        <time>2015-11-22T09:40:19Z</time>
      </trkpt>
      <trkpt lat="44.80025" lon="1.65891">
        <ele>177.02</ele>
        <time>2015-11-22T09:40:23Z</time>
      </trkpt>
      <trkpt lat="44.80025" lon="1.65906">
        <ele>178.94</ele>
        <time>2015-11-22T09:40:29Z</time>
      </trkpt>
      <trkpt lat="44.80024" lon="1.65918">
        <ele>181.83</ele>
        <time>2015-11-22T09:40:36Z</time>
      </trkpt>
      <trkpt lat="44.80023" lon="1.65923">
        <ele>185.19</ele>
        <time>2015-11-22T09:40:39Z</time>
      </trkpt>
      <trkpt lat="44.80018" lon="1.65935">
        <ele>187.59</ele>
        <time>2015-11-22T09:40:46Z</time>
      </trkpt>
      <trkpt lat="44.80012" lon="1.65941">
        <ele>184.71</ele>
        <time>2015-11-22T09:40:51Z</time>
      </trkpt>
      <trkpt lat="44.80008" lon="1.65945">
        <ele>183.27</ele>
        <time>2015-11-22T09:40:54Z</time>
      </trkpt>
      <trkpt lat="44.8" lon="1.65953">
        <ele>183.27</ele>
        <time>2015-11-22T09:41:00Z</time>
      </trkpt>
      <trkpt lat="44.79996" lon="1.65953">
        <ele>183.27</ele>
        <time>2015-11-22T09:41:03Z</time>
      </trkpt>
      <trkpt lat="44.79989" lon="1.65954">
        <ele>183.75</ele>
        <time>2015-11-22T09:41:09Z</time>
      </trkpt>
      <trkpt lat="44.79986" lon="1.6596">
        <ele>179.9</ele>
        <time>2015-11-22T09:41:16Z</time>
      </trkpt>
      <trkpt lat="44.79992" lon="1.65966">
        <ele>180.38</ele>
        <time>2015-11-22T09:41:27Z</time>
      </trkpt>
      <trkpt lat="44.79995" lon="1.65963">
        <ele>184.23</ele>
        <time>2015-11-22T09:41:38Z</time>
      </trkpt>
      <trkpt lat="44.79994" lon="1.65965">
        <ele>182.79</ele>
        <time>2015-11-22T09:42:05Z</time>
      </trkpt>
      <trkpt lat="44.79994" lon="1.65964">
        <ele>182.79</ele>
        <time>2015-11-22T09:42:11Z</time>
      </trkpt>
      <trkpt lat="44.79991" lon="1.65961">
        <ele>181.83</ele>
        <time>2015-11-22T09:42:22Z</time>
      </trkpt>
      <trkpt lat="44.79991" lon="1.6596">
        <ele>181.35</ele>
        <time>2015-11-22T09:42:38Z</time>
      </trkpt>
      <trkpt lat="44.79994" lon="1.6596">
        <ele>181.35</ele>
        <time>2015-11-22T09:42:48Z</time>
      </trkpt>
      <trkpt lat="44.7999" lon="1.65962">
        <ele>181.35</ele>
        <time>2015-11-22T09:42:53Z</time>
      </trkpt>
      <trkpt lat="44.79982" lon="1.65965">
        <ele>180.87</ele>
        <time>2015-11-22T09:42:58Z</time>
      </trkpt>
      <trkpt lat="44.79974" lon="1.65982">
        <ele>178.46</ele>
        <time>2015-11-22T09:43:07Z</time>
      </trkpt>
      <trkpt lat="44.79972" lon="1.65994">
        <ele>178.46</ele>
        <time>2015-11-22T09:43:12Z</time>
      </trkpt>
      <trkpt lat="44.79964" lon="1.66015">
        <ele>179.9</ele>
        <time>2015-11-22T09:43:24Z</time>
      </trkpt>
      <trkpt lat="44.79961" lon="1.66021">
        <ele>179.9</ele>
        <time>2015-11-22T09:43:27Z</time>
      </trkpt>
      <trkpt lat="44.79961" lon="1.66035">
        <ele>179.9</ele>
        <time>2015-11-22T09:43:33Z</time>
      </trkpt>
      <trkpt lat="44.79961" lon="1.66041">
        <ele>179.9</ele>
        <time>2015-11-22T09:43:35Z</time>
      </trkpt>
      <trkpt lat="44.79959" lon="1.66046">
        <ele>179.9</ele>
        <time>2015-11-22T09:43:38Z</time>
      </trkpt>
      <trkpt lat="44.79954" lon="1.66053">
        <ele>179.9</ele>
        <time>2015-11-22T09:43:43Z</time>
      </trkpt>
      <trkpt lat="44.79946" lon="1.66077">
        <ele>179.9</ele>
        <time>2015-11-22T09:43:56Z</time>
      </trkpt>
      <trkpt lat="44.7994" lon="1.66095">
        <ele>180.87</ele>
        <time>2015-11-22T09:44:06Z</time>
      </trkpt>
      <trkpt lat="44.79939" lon="1.66104">
        <ele>180.87</ele>
        <time>2015-11-22T09:44:14Z</time>
      </trkpt>
      <trkpt lat="44.79935" lon="1.66109">
        <ele>180.87</ele>
        <time>2015-11-22T09:44:21Z</time>
      </trkpt>
      <trkpt lat="44.79935" lon="1.6611">
        <ele>180.87</ele>
        <time>2015-11-22T09:44:22Z</time>
      </trkpt>
      <trkpt lat="44.79934" lon="1.6611">
        <ele>180.87</ele>
        <time>2015-11-22T09:44:23Z</time>
      </trkpt>
      <trkpt lat="44.79933" lon="1.6611">
        <ele>180.87</ele>
        <time>2015-11-22T09:44:24Z</time>
      </trkpt>
      <trkpt lat="44.79925" lon="1.66111">
        <ele>180.87</ele>
        <time>2015-11-22T09:44:31Z</time>
      </trkpt>
      <trkpt lat="44.79924" lon="1.66111">
        <ele>180.87</ele>
        <time>2015-11-22T09:44:32Z</time>
      </trkpt>
      <trkpt lat="44.79915" lon="1.66113">
        <ele>180.87</ele>
        <time>2015-11-22T09:44:40Z</time>
      </trkpt>
      <trkpt lat="44.79916" lon="1.66115">
        <ele>180.87</ele>
        <time>2015-11-22T09:44:50Z</time>
      </trkpt>
      <trkpt lat="44.79916" lon="1.66118">
        <ele>181.35</ele>
        <time>2015-11-22T09:45:03Z</time>
      </trkpt>
      <trkpt lat="44.79917" lon="1.66119">
        <ele>181.83</ele>
        <time>2015-11-22T09:45:25Z</time>
      </trkpt>
      <trkpt lat="44.79917" lon="1.66119">
        <ele>181.83</ele>
        <time>2015-11-22T09:45:38Z</time>
      </trkpt>
      <trkpt lat="44.79916" lon="1.66123">
        <ele>181.83</ele>
        <time>2015-11-22T09:45:52Z</time>
      </trkpt>
      <trkpt lat="44.79914" lon="1.66125">
        <ele>181.83</ele>
        <time>2015-11-22T09:46:09Z</time>
      </trkpt>
      <trkpt lat="44.79914" lon="1.66122">
        <ele>181.83</ele>
        <time>2015-11-22T09:46:26Z</time>
      </trkpt>
      <trkpt lat="44.79915" lon="1.66121">
        <ele>181.35</ele>
        <time>2015-11-22T09:46:41Z</time>
      </trkpt>
      <trkpt lat="44.79916" lon="1.66121">
        <ele>181.35</ele>
        <time>2015-11-22T09:46:50Z</time>
      </trkpt>
      <trkpt lat="44.79917" lon="1.66121">
        <ele>181.35</ele>
        <time>2015-11-22T09:47:09Z</time>
      </trkpt>
      <trkpt lat="44.79913" lon="1.66123">
        <ele>181.35</ele>
        <time>2015-11-22T09:47:21Z</time>
      </trkpt>
      <trkpt lat="44.7991" lon="1.66121">
        <ele>181.35</ele>
        <time>2015-11-22T09:47:37Z</time>
      </trkpt>
      <trkpt lat="44.7991" lon="1.66121">
        <ele>181.35</ele>
        <time>2015-11-22T09:47:57Z</time>
      </trkpt>
      <trkpt lat="44.79909" lon="1.66121">
        <ele>181.35</ele>
        <time>2015-11-22T09:48:23Z</time>
      </trkpt>
      <trkpt lat="44.79909" lon="1.6612">
        <ele>181.35</ele>
        <time>2015-11-22T09:48:34Z</time>
      </trkpt>
      <trkpt lat="44.79908" lon="1.66119">
        <ele>181.83</ele>
        <time>2015-11-22T09:49:02Z</time>
      </trkpt>
      <trkpt lat="44.79907" lon="1.66119">
        <ele>181.83</ele>
        <time>2015-11-22T09:49:03Z</time>
      </trkpt>
      <trkpt lat="44.79904" lon="1.66118">
        <ele>181.83</ele>
        <time>2015-11-22T09:49:05Z</time>
      </trkpt>
      <trkpt lat="44.79903" lon="1.66118">
        <ele>181.83</ele>
        <time>2015-11-22T09:49:06Z</time>
      </trkpt>
      <trkpt lat="44.79901" lon="1.66118">
        <ele>181.83</ele>
        <time>2015-11-22T09:49:07Z</time>
      </trkpt>
      <trkpt lat="44.799" lon="1.66118">
        <ele>181.83</ele>
        <time>2015-11-22T09:49:08Z</time>
      </trkpt>
      <trkpt lat="44.79885" lon="1.66116">
        <ele>181.83</ele>
        <time>2015-11-22T09:49:20Z</time>
      </trkpt>
      <trkpt lat="44.79871" lon="1.66116">
        <ele>181.83</ele>
        <time>2015-11-22T09:49:29Z</time>
      </trkpt>
      <trkpt lat="44.79853" lon="1.66113">
        <ele>181.83</ele>
        <time>2015-11-22T09:49:39Z</time>
      </trkpt>
      <trkpt lat="44.79852" lon="1.66113">
        <ele>181.83</ele>
        <time>2015-11-22T09:49:40Z</time>
      </trkpt>
      <trkpt lat="44.7985" lon="1.66113">
        <ele>181.83</ele>
        <time>2015-11-22T09:49:41Z</time>
      </trkpt>
      <trkpt lat="44.79837" lon="1.66111">
        <ele>181.83</ele>
        <time>2015-11-22T09:49:49Z</time>
      </trkpt>
      <trkpt lat="44.79833" lon="1.66111">
        <ele>181.83</ele>
        <time>2015-11-22T09:49:52Z</time>
      </trkpt>
      <trkpt lat="44.79831" lon="1.66111">
        <ele>181.83</ele>
        <time>2015-11-22T09:49:53Z</time>
      </trkpt>
      <trkpt lat="44.79828" lon="1.6611">
        <ele>181.83</ele>
        <time>2015-11-22T09:49:55Z</time>
      </trkpt>
      <trkpt lat="44.79826" lon="1.66111">
        <ele>181.83</ele>
        <time>2015-11-22T09:49:56Z</time>
      </trkpt>
      <trkpt lat="44.79824" lon="1.66111">
        <ele>181.83</ele>
        <time>2015-11-22T09:49:57Z</time>
      </trkpt>
      <trkpt lat="44.79822" lon="1.66111">
        <ele>181.83</ele>
        <time>2015-11-22T09:49:58Z</time>
      </trkpt>
      <trkpt lat="44.7982" lon="1.66111">
        <ele>181.83</ele>
        <time>2015-11-22T09:49:59Z</time>
      </trkpt>
      <trkpt lat="44.79818" lon="1.66111">
        <ele>181.83</ele>
        <time>2015-11-22T09:50:00Z</time>
      </trkpt>
      <trkpt lat="44.79816" lon="1.66111">
        <ele>181.83</ele>
        <time>2015-11-22T09:50:01Z</time>
      </trkpt>
      <trkpt lat="44.79809" lon="1.66112">
        <ele>181.83</ele>
        <time>2015-11-22T09:50:06Z</time>
      </trkpt>
      <trkpt lat="44.79807" lon="1.66112">
        <ele>181.83</ele>
        <time>2015-11-22T09:50:07Z</time>
      </trkpt>
      <trkpt lat="44.79806" lon="1.66113">
        <ele>181.83</ele>
        <time>2015-11-22T09:50:08Z</time>
      </trkpt>
      <trkpt lat="44.79804" lon="1.66114">
        <ele>181.83</ele>
        <time>2015-11-22T09:50:09Z</time>
      </trkpt>
      <trkpt lat="44.79803" lon="1.66114">
        <ele>181.83</ele>
        <time>2015-11-22T09:50:10Z</time>
      </trkpt>
      <trkpt lat="44.79801" lon="1.66115">
        <ele>181.83</ele>
        <time>2015-11-22T09:50:11Z</time>
      </trkpt>
      <trkpt lat="44.79794" lon="1.66119">
        <ele>181.83</ele>
        <time>2015-11-22T09:50:16Z</time>
      </trkpt>
      <trkpt lat="44.79793" lon="1.6612">
        <ele>181.83</ele>
        <time>2015-11-22T09:50:17Z</time>
      </trkpt>
      <trkpt lat="44.79791" lon="1.66121">
        <ele>181.83</ele>
        <time>2015-11-22T09:50:18Z</time>
      </trkpt>
      <trkpt lat="44.7979" lon="1.66122">
        <ele>181.83</ele>
        <time>2015-11-22T09:50:19Z</time>
      </trkpt>
      <trkpt lat="44.79788" lon="1.66123">
        <ele>182.31</ele>
        <time>2015-11-22T09:50:20Z</time>
      </trkpt>
      <trkpt lat="44.79787" lon="1.66123">
        <ele>182.31</ele>
        <time>2015-11-22T09:50:21Z</time>
      </trkpt>
      <trkpt lat="44.79785" lon="1.66124">
        <ele>182.31</ele>
        <time>2015-11-22T09:50:22Z</time>
      </trkpt>
      <trkpt lat="44.79783" lon="1.66124">
        <ele>182.31</ele>
        <time>2015-11-22T09:50:23Z</time>
      </trkpt>
      <trkpt lat="44.79781" lon="1.66125">
        <ele>182.79</ele>
        <time>2015-11-22T09:50:24Z</time>
      </trkpt>
      <trkpt lat="44.79779" lon="1.66126">
        <ele>182.79</ele>
        <time>2015-11-22T09:50:25Z</time>
      </trkpt>
      <trkpt lat="44.79778" lon="1.66127">
        <ele>182.79</ele>
        <time>2015-11-22T09:50:26Z</time>
      </trkpt>
      <trkpt lat="44.79776" lon="1.66128">
        <ele>182.79</ele>
        <time>2015-11-22T09:50:27Z</time>
      </trkpt>
      <trkpt lat="44.79774" lon="1.66128">
        <ele>182.79</ele>
        <time>2015-11-22T09:50:28Z</time>
      </trkpt>
      <trkpt lat="44.79772" lon="1.66129">
        <ele>182.79</ele>
        <time>2015-11-22T09:50:29Z</time>
      </trkpt>
      <trkpt lat="44.79753" lon="1.66138">
        <ele>183.27</ele>
        <time>2015-11-22T09:50:41Z</time>
      </trkpt>
      <trkpt lat="44.7975" lon="1.6614">
        <ele>183.27</ele>
        <time>2015-11-22T09:50:43Z</time>
      </trkpt>
      <trkpt lat="44.79749" lon="1.66141">
        <ele>183.27</ele>
        <time>2015-11-22T09:50:44Z</time>
      </trkpt>
      <trkpt lat="44.79747" lon="1.66141">
        <ele>183.27</ele>
        <time>2015-11-22T09:50:45Z</time>
      </trkpt>
      <trkpt lat="44.79745" lon="1.66142">
        <ele>183.27</ele>
        <time>2015-11-22T09:50:46Z</time>
      </trkpt>
      <trkpt lat="44.79744" lon="1.66143">
        <ele>183.27</ele>
        <time>2015-11-22T09:50:47Z</time>
      </trkpt>
      <trkpt lat="44.79734" lon="1.66144">
        <ele>183.75</ele>
        <time>2015-11-22T09:50:53Z</time>
      </trkpt>
      <trkpt lat="44.79732" lon="1.66145">
        <ele>183.75</ele>
        <time>2015-11-22T09:50:54Z</time>
      </trkpt>
      <trkpt lat="44.79731" lon="1.66147">
        <ele>183.75</ele>
        <time>2015-11-22T09:50:55Z</time>
      </trkpt>
      <trkpt lat="44.79728" lon="1.6615">
        <ele>183.75</ele>
        <time>2015-11-22T09:50:57Z</time>
      </trkpt>
      <trkpt lat="44.79727" lon="1.66152">
        <ele>183.75</ele>
        <time>2015-11-22T09:50:58Z</time>
      </trkpt>
      <trkpt lat="44.79726" lon="1.66154">
        <ele>183.75</ele>
        <time>2015-11-22T09:50:59Z</time>
      </trkpt>
      <trkpt lat="44.79725" lon="1.66156">
        <ele>183.75</ele>
        <time>2015-11-22T09:51:00Z</time>
      </trkpt>
      <trkpt lat="44.79724" lon="1.66158">
        <ele>183.75</ele>
        <time>2015-11-22T09:51:01Z</time>
      </trkpt>
      <trkpt lat="44.79723" lon="1.66159">
        <ele>183.75</ele>
        <time>2015-11-22T09:51:02Z</time>
      </trkpt>
      <trkpt lat="44.79722" lon="1.66161">
        <ele>184.23</ele>
        <time>2015-11-22T09:51:03Z</time>
      </trkpt>
      <trkpt lat="44.79721" lon="1.66162">
        <ele>184.23</ele>
        <time>2015-11-22T09:51:04Z</time>
      </trkpt>
      <trkpt lat="44.79719" lon="1.66164">
        <ele>184.23</ele>
        <time>2015-11-22T09:51:06Z</time>
      </trkpt>
      <trkpt lat="44.79718" lon="1.66166">
        <ele>184.23</ele>
        <time>2015-11-22T09:51:07Z</time>
      </trkpt>
      <trkpt lat="44.79716" lon="1.66173">
        <ele>184.71</ele>
        <time>2015-11-22T09:51:12Z</time>
      </trkpt>
      <trkpt lat="44.79709" lon="1.66164">
        <ele>184.71</ele>
        <time>2015-11-22T09:51:19Z</time>
      </trkpt>
      <trkpt lat="44.79704" lon="1.6616">
        <ele>184.71</ele>
        <time>2015-11-22T09:51:22Z</time>
      </trkpt>
      <trkpt lat="44.79699" lon="1.6616">
        <ele>184.71</ele>
        <time>2015-11-22T09:51:25Z</time>
      </trkpt>
      <trkpt lat="44.7969" lon="1.66158">
        <ele>184.71</ele>
        <time>2015-11-22T09:51:30Z</time>
      </trkpt>
      <trkpt lat="44.79674" lon="1.66168">
        <ele>184.71</ele>
        <time>2015-11-22T09:51:40Z</time>
      </trkpt>
      <trkpt lat="44.79666" lon="1.66181">
        <ele>184.71</ele>
        <time>2015-11-22T09:51:52Z</time>
      </trkpt>
      <trkpt lat="44.79668" lon="1.6619">
        <ele>184.71</ele>
        <time>2015-11-22T09:52:02Z</time>
      </trkpt>
      <trkpt lat="44.79668" lon="1.66198">
        <ele>184.71</ele>
        <time>2015-11-22T09:52:11Z</time>
      </trkpt>
      <trkpt lat="44.79667" lon="1.662">
        <ele>185.19</ele>
        <time>2015-11-22T09:52:25Z</time>
      </trkpt>
      <trkpt lat="44.79668" lon="1.66199">
        <ele>185.67</ele>
        <time>2015-11-22T09:52:39Z</time>
      </trkpt>
      <trkpt lat="44.79665" lon="1.66203">
        <ele>185.67</ele>
        <time>2015-11-22T09:52:52Z</time>
      </trkpt>
      <trkpt lat="44.79664" lon="1.66203">
        <ele>185.67</ele>
        <time>2015-11-22T09:53:10Z</time>
      </trkpt>
      <trkpt lat="44.79664" lon="1.66203">
        <ele>185.67</ele>
        <time>2015-11-22T09:53:29Z</time>
      </trkpt>
      <trkpt lat="44.79664" lon="1.66203">
        <ele>185.67</ele>
        <time>2015-11-22T09:53:32Z</time>
      </trkpt>
      <trkpt lat="44.79673" lon="1.66203">
        <ele>185.67</ele>
        <time>2015-11-22T09:53:44Z</time>
      </trkpt>
      <trkpt lat="44.79674" lon="1.66203">
        <ele>185.67</ele>
        <time>2015-11-22T09:53:46Z</time>
      </trkpt>
      <trkpt lat="44.79672" lon="1.66204">
        <ele>186.15</ele>
        <time>2015-11-22T09:53:48Z</time>
      </trkpt>
      <trkpt lat="44.79668" lon="1.66205">
        <ele>186.63</ele>
        <time>2015-11-22T09:54:01Z</time>
      </trkpt>
      <trkpt lat="44.79669" lon="1.66206">
        <ele>187.11</ele>
        <time>2015-11-22T09:54:17Z</time>
      </trkpt>
      <trkpt lat="44.79668" lon="1.66209">
        <ele>187.11</ele>
        <time>2015-11-22T09:54:20Z</time>
      </trkpt>
      <trkpt lat="44.79666" lon="1.66207">
        <ele>187.11</ele>
        <time>2015-11-22T09:54:31Z</time>
      </trkpt>
      <trkpt lat="44.79669" lon="1.66203">
        <ele>187.11</ele>
        <time>2015-11-22T09:54:47Z</time>
      </trkpt>
      <trkpt lat="44.79671" lon="1.66201">
        <ele>187.11</ele>
        <time>2015-11-22T09:55:00Z</time>
      </trkpt>
      <trkpt lat="44.79671" lon="1.66197">
        <ele>187.11</ele>
        <time>2015-11-22T09:55:11Z</time>
      </trkpt>
      <trkpt lat="44.79669" lon="1.66197">
        <ele>187.11</ele>
        <time>2015-11-22T09:55:16Z</time>
      </trkpt>
      <trkpt lat="44.79671" lon="1.6619">
        <ele>185.67</ele>
        <time>2015-11-22T09:55:27Z</time>
      </trkpt>
      <trkpt lat="44.79672" lon="1.66192">
        <ele>185.19</ele>
        <time>2015-11-22T09:55:44Z</time>
      </trkpt>
      <trkpt lat="44.79672" lon="1.66192">
        <ele>184.23</ele>
        <time>2015-11-22T09:56:04Z</time>
      </trkpt>
      <trkpt lat="44.79671" lon="1.66193">
        <ele>184.23</ele>
        <time>2015-11-22T09:56:27Z</time>
      </trkpt>
      <trkpt lat="44.7967" lon="1.66194">
        <ele>184.23</ele>
        <time>2015-11-22T09:56:53Z</time>
      </trkpt>
      <trkpt lat="44.79669" lon="1.66194">
        <ele>183.75</ele>
        <time>2015-11-22T09:57:14Z</time>
      </trkpt>
      <trkpt lat="44.79669" lon="1.66195">
        <ele>183.75</ele>
        <time>2015-11-22T09:57:34Z</time>
      </trkpt>
      <trkpt lat="44.79668" lon="1.66196">
        <ele>183.75</ele>
        <time>2015-11-22T09:57:59Z</time>
      </trkpt>
      <trkpt lat="44.79668" lon="1.66196">
        <ele>183.75</ele>
        <time>2015-11-22T09:58:22Z</time>
      </trkpt>
      <trkpt lat="44.79669" lon="1.66195">
        <ele>183.75</ele>
        <time>2015-11-22T09:58:39Z</time>
      </trkpt>
      <trkpt lat="44.79671" lon="1.66193">
        <ele>183.75</ele>
        <time>2015-11-22T09:58:51Z</time>
      </trkpt>
      <trkpt lat="44.79672" lon="1.66193">
        <ele>183.75</ele>
        <time>2015-11-22T09:59:07Z</time>
      </trkpt>
      <trkpt lat="44.79672" lon="1.66192">
        <ele>183.27</ele>
        <time>2015-11-22T09:59:24Z</time>
      </trkpt>
      <trkpt lat="44.79672" lon="1.66192">
        <ele>182.79</ele>
        <time>2015-11-22T09:59:41Z</time>
      </trkpt>
      <trkpt lat="44.79673" lon="1.66191">
        <ele>182.79</ele>
        <time>2015-11-22T09:59:58Z</time>
      </trkpt>
      <trkpt lat="44.79672" lon="1.66189">
        <ele>182.79</ele>
        <time>2015-11-22T10:00:18Z</time>
      </trkpt>
      <trkpt lat="44.7967" lon="1.66187">
        <ele>182.79</ele>
        <time>2015-11-22T10:00:39Z</time>
      </trkpt>
      <trkpt lat="44.7967" lon="1.66187">
        <ele>182.79</ele>
        <time>2015-11-22T10:00:42Z</time>
      </trkpt>
      <trkpt lat="44.79669" lon="1.66187">
        <ele>182.79</ele>
        <time>2015-11-22T10:00:49Z</time>
      </trkpt>
      <trkpt lat="44.7967" lon="1.66189">
        <ele>183.75</ele>
        <time>2015-11-22T10:01:08Z</time>
      </trkpt>
      <trkpt lat="44.79668" lon="1.66195">
        <ele>183.75</ele>
        <time>2015-11-22T10:01:18Z</time>
      </trkpt>
      <trkpt lat="44.79668" lon="1.66196">
        <ele>183.75</ele>
        <time>2015-11-22T10:01:41Z</time>
      </trkpt>
      <trkpt lat="44.79669" lon="1.66198">
        <ele>183.75</ele>
        <time>2015-11-22T10:01:44Z</time>
      </trkpt>
      <trkpt lat="44.79674" lon="1.66195">
        <ele>185.19</ele>
        <time>2015-11-22T10:01:56Z</time>
      </trkpt>
      <trkpt lat="44.79677" lon="1.66196">
        <ele>186.15</ele>
        <time>2015-11-22T10:02:16Z</time>
      </trkpt>
      <trkpt lat="44.79677" lon="1.66195">
        <ele>186.15</ele>
        <time>2015-11-22T10:02:32Z</time>
      </trkpt>
      <trkpt lat="44.79677" lon="1.66196">
        <ele>186.15</ele>
        <time>2015-11-22T10:02:46Z</time>
      </trkpt>
      <trkpt lat="44.79677" lon="1.66195">
        <ele>186.15</ele>
        <time>2015-11-22T10:03:04Z</time>
      </trkpt>
      <trkpt lat="44.79676" lon="1.66192">
        <ele>186.15</ele>
        <time>2015-11-22T10:03:10Z</time>
      </trkpt>
      <trkpt lat="44.79678" lon="1.66194">
        <ele>186.15</ele>
        <time>2015-11-22T10:03:32Z</time>
      </trkpt>
      <trkpt lat="44.79676" lon="1.66196">
        <ele>186.15</ele>
        <time>2015-11-22T10:03:56Z</time>
      </trkpt>
      <trkpt lat="44.79677" lon="1.66196">
        <ele>186.15</ele>
        <time>2015-11-22T10:04:09Z</time>
      </trkpt>
      <trkpt lat="44.79676" lon="1.66195">
        <ele>186.15</ele>
        <time>2015-11-22T10:04:25Z</time>
      </trkpt>
      <trkpt lat="44.79676" lon="1.66194">
        <ele>185.67</ele>
        <time>2015-11-22T10:04:38Z</time>
      </trkpt>
      <trkpt lat="44.79676" lon="1.66195">
        <ele>185.67</ele>
        <time>2015-11-22T10:05:01Z</time>
      </trkpt>
      <trkpt lat="44.79677" lon="1.66197">
        <ele>185.67</ele>
        <time>2015-11-22T10:05:28Z</time>
      </trkpt>
      <trkpt lat="44.79678" lon="1.66199">
        <ele>185.67</ele>
        <time>2015-11-22T10:05:47Z</time>
      </trkpt>
      <trkpt lat="44.79686" lon="1.66198">
        <ele>185.67</ele>
        <time>2015-11-22T10:05:52Z</time>
      </trkpt>
      <trkpt lat="44.79691" lon="1.662">
        <ele>185.67</ele>
        <time>2015-11-22T10:05:55Z</time>
      </trkpt>
      <trkpt lat="44.79692" lon="1.662">
        <ele>186.15</ele>
        <time>2015-11-22T10:05:56Z</time>
      </trkpt>
      <trkpt lat="44.79694" lon="1.66201">
        <ele>185.67</ele>
        <time>2015-11-22T10:05:58Z</time>
      </trkpt>
      <trkpt lat="44.79696" lon="1.66211">
        <ele>187.59</ele>
        <time>2015-11-22T10:06:08Z</time>
      </trkpt>
      <trkpt lat="44.79697" lon="1.66211">
        <ele>190.48</ele>
        <time>2015-11-22T10:06:18Z</time>
      </trkpt>
      <trkpt lat="44.79697" lon="1.66213">
        <ele>192.4</ele>
        <time>2015-11-22T10:06:20Z</time>
      </trkpt>
      <trkpt lat="44.79699" lon="1.66215">
        <ele>195.77</ele>
        <time>2015-11-22T10:06:32Z</time>
      </trkpt>
      <trkpt lat="44.79699" lon="1.66215">
        <ele>195.77</ele>
        <time>2015-11-22T10:06:34Z</time>
      </trkpt>
      <trkpt lat="44.79698" lon="1.66217">
        <ele>195.77</ele>
        <time>2015-11-22T10:06:35Z</time>
      </trkpt>
      <trkpt lat="44.79697" lon="1.66219">
        <ele>195.77</ele>
        <time>2015-11-22T10:06:36Z</time>
      </trkpt>
      <trkpt lat="44.79696" lon="1.6622">
        <ele>195.77</ele>
        <time>2015-11-22T10:06:37Z</time>
      </trkpt>
      <trkpt lat="44.79693" lon="1.66226">
        <ele>197.21</ele>
        <time>2015-11-22T10:06:49Z</time>
      </trkpt>
      <trkpt lat="44.79694" lon="1.66228">
        <ele>201.05</ele>
        <time>2015-11-22T10:06:54Z</time>
      </trkpt>
      <trkpt lat="44.79693" lon="1.66229">
        <ele>202.49</ele>
        <time>2015-11-22T10:06:57Z</time>
      </trkpt>
      <trkpt lat="44.79694" lon="1.66229">
        <ele>202.49</ele>
        <time>2015-11-22T10:07:02Z</time>
      </trkpt>
      <trkpt lat="44.79692" lon="1.66226">
        <ele>198.65</ele>
        <time>2015-11-22T10:07:09Z</time>
      </trkpt>
      <trkpt lat="44.79693" lon="1.66224">
        <ele>195.77</ele>
        <time>2015-11-22T10:07:12Z</time>
      </trkpt>
      <trkpt lat="44.79696" lon="1.66221">
        <ele>192.88</ele>
        <time>2015-11-22T10:07:16Z</time>
      </trkpt>
      <trkpt lat="44.79696" lon="1.66219">
        <ele>192.88</ele>
        <time>2015-11-22T10:07:18Z</time>
      </trkpt>
      <trkpt lat="44.79697" lon="1.66216">
        <ele>192.4</ele>
        <time>2015-11-22T10:07:22Z</time>
      </trkpt>
      <trkpt lat="44.79698" lon="1.66215">
        <ele>191.92</ele>
        <time>2015-11-22T10:07:31Z</time>
      </trkpt>
      <trkpt lat="44.79697" lon="1.66214">
        <ele>188.56</ele>
        <time>2015-11-22T10:07:34Z</time>
      </trkpt>
      <trkpt lat="44.79697" lon="1.66214">
        <ele>189.04</ele>
        <time>2015-11-22T10:07:35Z</time>
      </trkpt>
      <trkpt lat="44.79697" lon="1.66214">
        <ele>189.04</ele>
        <time>2015-11-22T10:07:36Z</time>
      </trkpt>
      <trkpt lat="44.79694" lon="1.66208">
        <ele>185.67</ele>
        <time>2015-11-22T10:07:42Z</time>
      </trkpt>
      <trkpt lat="44.7969" lon="1.66205">
        <ele>186.15</ele>
        <time>2015-11-22T10:07:53Z</time>
      </trkpt>
      <trkpt lat="44.79692" lon="1.66205">
        <ele>186.15</ele>
        <time>2015-11-22T10:07:58Z</time>
      </trkpt>
      <trkpt lat="44.79694" lon="1.66204">
        <ele>186.15</ele>
        <time>2015-11-22T10:08:10Z</time>
      </trkpt>
      <trkpt lat="44.79693" lon="1.66205">
        <ele>186.15</ele>
        <time>2015-11-22T10:08:25Z</time>
      </trkpt>
      <trkpt lat="44.79692" lon="1.66204">
        <ele>187.11</ele>
        <time>2015-11-22T10:08:48Z</time>
      </trkpt>
      <trkpt lat="44.79692" lon="1.66204">
        <ele>187.11</ele>
        <time>2015-11-22T10:09:05Z</time>
      </trkpt>
      <trkpt lat="44.79691" lon="1.66204">
        <ele>187.11</ele>
        <time>2015-11-22T10:09:24Z</time>
      </trkpt>
      <trkpt lat="44.79691" lon="1.66204">
        <ele>187.11</ele>
        <time>2015-11-22T10:09:26Z</time>
      </trkpt>
      <trkpt lat="44.7969" lon="1.66206">
        <ele>187.11</ele>
        <time>2015-11-22T10:09:28Z</time>
      </trkpt>
      <trkpt lat="44.79685" lon="1.66206">
        <ele>187.11</ele>
        <time>2015-11-22T10:09:31Z</time>
      </trkpt>
      <trkpt lat="44.79683" lon="1.66205">
        <ele>187.11</ele>
        <time>2015-11-22T10:09:32Z</time>
      </trkpt>
      <trkpt lat="44.79681" lon="1.66205">
        <ele>187.11</ele>
        <time>2015-11-22T10:09:33Z</time>
      </trkpt>
      <trkpt lat="44.79679" lon="1.66206">
        <ele>187.11</ele>
        <time>2015-11-22T10:09:34Z</time>
      </trkpt>
      <trkpt lat="44.79678" lon="1.66208">
        <ele>187.11</ele>
        <time>2015-11-22T10:09:35Z</time>
      </trkpt>
      <trkpt lat="44.79678" lon="1.6621">
        <ele>187.11</ele>
        <time>2015-11-22T10:09:36Z</time>
      </trkpt>
      <trkpt lat="44.79677" lon="1.66211">
        <ele>187.11</ele>
        <time>2015-11-22T10:09:37Z</time>
      </trkpt>
      <trkpt lat="44.79676" lon="1.66212">
        <ele>187.11</ele>
        <time>2015-11-22T10:09:38Z</time>
      </trkpt>
      <trkpt lat="44.79675" lon="1.66212">
        <ele>187.11</ele>
        <time>2015-11-22T10:09:39Z</time>
      </trkpt>
      <trkpt lat="44.79673" lon="1.66213">
        <ele>187.11</ele>
        <time>2015-11-22T10:09:40Z</time>
      </trkpt>
      <trkpt lat="44.79672" lon="1.66214">
        <ele>187.11</ele>
        <time>2015-11-22T10:09:41Z</time>
      </trkpt>
      <trkpt lat="44.79671" lon="1.66216">
        <ele>187.11</ele>
        <time>2015-11-22T10:09:42Z</time>
      </trkpt>
      <trkpt lat="44.7967" lon="1.66218">
        <ele>187.11</ele>
        <time>2015-11-22T10:09:43Z</time>
      </trkpt>
      <trkpt lat="44.79669" lon="1.6622">
        <ele>187.11</ele>
        <time>2015-11-22T10:09:44Z</time>
      </trkpt>
      <trkpt lat="44.79668" lon="1.6622">
        <ele>187.11</ele>
        <time>2015-11-22T10:09:45Z</time>
      </trkpt>
      <trkpt lat="44.79667" lon="1.66222">
        <ele>187.11</ele>
        <time>2015-11-22T10:09:46Z</time>
      </trkpt>
      <trkpt lat="44.79666" lon="1.66224">
        <ele>188.08</ele>
        <time>2015-11-22T10:09:47Z</time>
      </trkpt>
      <trkpt lat="44.79665" lon="1.66225">
        <ele>188.08</ele>
        <time>2015-11-22T10:09:48Z</time>
      </trkpt>
      <trkpt lat="44.79663" lon="1.66225">
        <ele>188.08</ele>
        <time>2015-11-22T10:09:49Z</time>
      </trkpt>
      <trkpt lat="44.79662" lon="1.66226">
        <ele>188.08</ele>
        <time>2015-11-22T10:09:50Z</time>
      </trkpt>
      <trkpt lat="44.79661" lon="1.66228">
        <ele>188.08</ele>
        <time>2015-11-22T10:09:51Z</time>
      </trkpt>
      <trkpt lat="44.79661" lon="1.6623">
        <ele>188.08</ele>
        <time>2015-11-22T10:09:52Z</time>
      </trkpt>
      <trkpt lat="44.7966" lon="1.66231">
        <ele>188.08</ele>
        <time>2015-11-22T10:09:53Z</time>
      </trkpt>
      <trkpt lat="44.79658" lon="1.66232">
        <ele>188.08</ele>
        <time>2015-11-22T10:09:54Z</time>
      </trkpt>
      <trkpt lat="44.79657" lon="1.66233">
        <ele>188.08</ele>
        <time>2015-11-22T10:09:55Z</time>
      </trkpt>
      <trkpt lat="44.79656" lon="1.66234">
        <ele>188.08</ele>
        <time>2015-11-22T10:09:56Z</time>
      </trkpt>
      <trkpt lat="44.79655" lon="1.66235">
        <ele>188.08</ele>
        <time>2015-11-22T10:09:57Z</time>
      </trkpt>
      <trkpt lat="44.79654" lon="1.66237">
        <ele>188.08</ele>
        <time>2015-11-22T10:09:58Z</time>
      </trkpt>
      <trkpt lat="44.79653" lon="1.66238">
        <ele>188.08</ele>
        <time>2015-11-22T10:09:59Z</time>
      </trkpt>
      <trkpt lat="44.79652" lon="1.6624">
        <ele>188.08</ele>
        <time>2015-11-22T10:10:00Z</time>
      </trkpt>
      <trkpt lat="44.79651" lon="1.66241">
        <ele>188.08</ele>
        <time>2015-11-22T10:10:01Z</time>
      </trkpt>
      <trkpt lat="44.7965" lon="1.66242">
        <ele>188.08</ele>
        <time>2015-11-22T10:10:02Z</time>
      </trkpt>
      <trkpt lat="44.79648" lon="1.66243">
        <ele>188.08</ele>
        <time>2015-11-22T10:10:03Z</time>
      </trkpt>
      <trkpt lat="44.79647" lon="1.66244">
        <ele>188.08</ele>
        <time>2015-11-22T10:10:04Z</time>
      </trkpt>
      <trkpt lat="44.79645" lon="1.66244">
        <ele>188.08</ele>
        <time>2015-11-22T10:10:05Z</time>
      </trkpt>
      <trkpt lat="44.79644" lon="1.66245">
        <ele>188.08</ele>
        <time>2015-11-22T10:10:06Z</time>
      </trkpt>
      <trkpt lat="44.79643" lon="1.66248">
        <ele>188.08</ele>
        <time>2015-11-22T10:10:07Z</time>
      </trkpt>
      <trkpt lat="44.79643" lon="1.6625">
        <ele>188.08</ele>
        <time>2015-11-22T10:10:08Z</time>
      </trkpt>
      <trkpt lat="44.79642" lon="1.66252">
        <ele>188.08</ele>
        <time>2015-11-22T10:10:09Z</time>
      </trkpt>
      <trkpt lat="44.79641" lon="1.66254">
        <ele>188.08</ele>
        <time>2015-11-22T10:10:10Z</time>
      </trkpt>
      <trkpt lat="44.79641" lon="1.66256">
        <ele>188.08</ele>
        <time>2015-11-22T10:10:11Z</time>
      </trkpt>
      <trkpt lat="44.7964" lon="1.66258">
        <ele>188.08</ele>
        <time>2015-11-22T10:10:12Z</time>
      </trkpt>
      <trkpt lat="44.79638" lon="1.66259">
        <ele>188.08</ele>
        <time>2015-11-22T10:10:13Z</time>
      </trkpt>
      <trkpt lat="44.79632" lon="1.66268">
        <ele>188.08</ele>
        <time>2015-11-22T10:10:18Z</time>
      </trkpt>
      <trkpt lat="44.79632" lon="1.6627">
        <ele>188.08</ele>
        <time>2015-11-22T10:10:19Z</time>
      </trkpt>
      <trkpt lat="44.7963" lon="1.66271">
        <ele>188.08</ele>
        <time>2015-11-22T10:10:21Z</time>
      </trkpt>
      <trkpt lat="44.79629" lon="1.6627">
        <ele>188.08</ele>
        <time>2015-11-22T10:10:22Z</time>
      </trkpt>
      <trkpt lat="44.79627" lon="1.66271">
        <ele>188.08</ele>
        <time>2015-11-22T10:10:23Z</time>
      </trkpt>
      <trkpt lat="44.79626" lon="1.66273">
        <ele>188.08</ele>
        <time>2015-11-22T10:10:24Z</time>
      </trkpt>
      <trkpt lat="44.79624" lon="1.66274">
        <ele>188.08</ele>
        <time>2015-11-22T10:10:25Z</time>
      </trkpt>
      <trkpt lat="44.79623" lon="1.66275">
        <ele>188.08</ele>
        <time>2015-11-22T10:10:26Z</time>
      </trkpt>
      <trkpt lat="44.79621" lon="1.66276">
        <ele>188.08</ele>
        <time>2015-11-22T10:10:27Z</time>
      </trkpt>
      <trkpt lat="44.79619" lon="1.66277">
        <ele>188.08</ele>
        <time>2015-11-22T10:10:28Z</time>
      </trkpt>
      <trkpt lat="44.79617" lon="1.66278">
        <ele>188.08</ele>
        <time>2015-11-22T10:10:29Z</time>
      </trkpt>
      <trkpt lat="44.79614" lon="1.66279">
        <ele>188.08</ele>
        <time>2015-11-22T10:10:31Z</time>
      </trkpt>
      <trkpt lat="44.79611" lon="1.66279">
        <ele>188.08</ele>
        <time>2015-11-22T10:10:32Z</time>
      </trkpt>
      <trkpt lat="44.79608" lon="1.66281">
        <ele>186.63</ele>
        <time>2015-11-22T10:10:34Z</time>
      </trkpt>
      <trkpt lat="44.79606" lon="1.66282">
        <ele>186.63</ele>
        <time>2015-11-22T10:10:35Z</time>
      </trkpt>
      <trkpt lat="44.79604" lon="1.66283">
        <ele>186.63</ele>
        <time>2015-11-22T10:10:36Z</time>
      </trkpt>
      <trkpt lat="44.79602" lon="1.66285">
        <ele>186.63</ele>
        <time>2015-11-22T10:10:37Z</time>
      </trkpt>
      <trkpt lat="44.79601" lon="1.66287">
        <ele>185.67</ele>
        <time>2015-11-22T10:10:38Z</time>
      </trkpt>
      <trkpt lat="44.796" lon="1.66289">
        <ele>186.15</ele>
        <time>2015-11-22T10:10:39Z</time>
      </trkpt>
      <trkpt lat="44.796" lon="1.66292">
        <ele>184.71</ele>
        <time>2015-11-22T10:10:40Z</time>
      </trkpt>
      <trkpt lat="44.79599" lon="1.66295">
        <ele>184.71</ele>
        <time>2015-11-22T10:10:43Z</time>
      </trkpt>
      <trkpt lat="44.79598" lon="1.66297">
        <ele>183.75</ele>
        <time>2015-11-22T10:10:44Z</time>
      </trkpt>
      <trkpt lat="44.79598" lon="1.663">
        <ele>184.23</ele>
        <time>2015-11-22T10:10:45Z</time>
      </trkpt>
      <trkpt lat="44.79597" lon="1.66302">
        <ele>183.27</ele>
        <time>2015-11-22T10:10:46Z</time>
      </trkpt>
      <trkpt lat="44.79596" lon="1.66303">
        <ele>183.75</ele>
        <time>2015-11-22T10:10:47Z</time>
      </trkpt>
      <trkpt lat="44.79593" lon="1.66303">
        <ele>183.75</ele>
        <time>2015-11-22T10:10:48Z</time>
      </trkpt>
      <trkpt lat="44.7959" lon="1.66304">
        <ele>183.75</ele>
        <time>2015-11-22T10:10:50Z</time>
      </trkpt>
      <trkpt lat="44.79589" lon="1.66305">
        <ele>183.75</ele>
        <time>2015-11-22T10:10:51Z</time>
      </trkpt>
      <trkpt lat="44.79586" lon="1.66306">
        <ele>183.75</ele>
        <time>2015-11-22T10:10:52Z</time>
      </trkpt>
      <trkpt lat="44.79584" lon="1.66307">
        <ele>183.75</ele>
        <time>2015-11-22T10:10:53Z</time>
      </trkpt>
      <trkpt lat="44.79582" lon="1.66307">
        <ele>183.75</ele>
        <time>2015-11-22T10:10:54Z</time>
      </trkpt>
      <trkpt lat="44.7958" lon="1.66307">
        <ele>183.75</ele>
        <time>2015-11-22T10:10:55Z</time>
      </trkpt>
      <trkpt lat="44.79577" lon="1.66307">
        <ele>183.75</ele>
        <time>2015-11-22T10:10:56Z</time>
      </trkpt>
      <trkpt lat="44.7957" lon="1.66308">
        <ele>183.75</ele>
        <time>2015-11-22T10:10:59Z</time>
      </trkpt>
      <trkpt lat="44.79567" lon="1.66308">
        <ele>183.75</ele>
        <time>2015-11-22T10:11:00Z</time>
      </trkpt>
      <trkpt lat="44.79562" lon="1.66309">
        <ele>183.75</ele>
        <time>2015-11-22T10:11:02Z</time>
      </trkpt>
      <trkpt lat="44.7956" lon="1.66309">
        <ele>183.75</ele>
        <time>2015-11-22T10:11:03Z</time>
      </trkpt>
      <trkpt lat="44.79558" lon="1.6631">
        <ele>183.75</ele>
        <time>2015-11-22T10:11:04Z</time>
      </trkpt>
      <trkpt lat="44.79557" lon="1.66311">
        <ele>183.75</ele>
        <time>2015-11-22T10:11:05Z</time>
      </trkpt>
      <trkpt lat="44.79554" lon="1.6631">
        <ele>183.75</ele>
        <time>2015-11-22T10:11:06Z</time>
      </trkpt>
      <trkpt lat="44.79552" lon="1.66311">
        <ele>183.75</ele>
        <time>2015-11-22T10:11:07Z</time>
      </trkpt>
      <trkpt lat="44.79546" lon="1.66318">
        <ele>183.75</ele>
        <time>2015-11-22T10:11:12Z</time>
      </trkpt>
      <trkpt lat="44.79545" lon="1.66319">
        <ele>183.75</ele>
        <time>2015-11-22T10:11:13Z</time>
      </trkpt>
      <trkpt lat="44.79544" lon="1.66322">
        <ele>183.75</ele>
        <time>2015-11-22T10:11:14Z</time>
      </trkpt>
      <trkpt lat="44.79542" lon="1.66323">
        <ele>183.75</ele>
        <time>2015-11-22T10:11:15Z</time>
      </trkpt>
      <trkpt lat="44.79541" lon="1.66324">
        <ele>183.75</ele>
        <time>2015-11-22T10:11:16Z</time>
      </trkpt>
      <trkpt lat="44.79539" lon="1.66325">
        <ele>183.75</ele>
        <time>2015-11-22T10:11:17Z</time>
      </trkpt>
      <trkpt lat="44.79537" lon="1.66325">
        <ele>183.75</ele>
        <time>2015-11-22T10:11:18Z</time>
      </trkpt>
      <trkpt lat="44.79536" lon="1.66326">
        <ele>183.75</ele>
        <time>2015-11-22T10:11:19Z</time>
      </trkpt>
      <trkpt lat="44.79535" lon="1.66326">
        <ele>183.75</ele>
        <time>2015-11-22T10:11:20Z</time>
      </trkpt>
      <trkpt lat="44.79533" lon="1.66327">
        <ele>183.75</ele>
        <time>2015-11-22T10:11:21Z</time>
      </trkpt>
      <trkpt lat="44.79531" lon="1.66327">
        <ele>183.75</ele>
        <time>2015-11-22T10:11:22Z</time>
      </trkpt>
      <trkpt lat="44.79529" lon="1.66327">
        <ele>184.71</ele>
        <time>2015-11-22T10:11:23Z</time>
      </trkpt>
      <trkpt lat="44.79528" lon="1.66328">
        <ele>184.71</ele>
        <time>2015-11-22T10:11:24Z</time>
      </trkpt>
      <trkpt lat="44.79526" lon="1.66329">
        <ele>184.71</ele>
        <time>2015-11-22T10:11:25Z</time>
      </trkpt>
      <trkpt lat="44.79525" lon="1.66331">
        <ele>185.19</ele>
        <time>2015-11-22T10:11:26Z</time>
      </trkpt>
      <trkpt lat="44.79524" lon="1.66332">
        <ele>185.19</ele>
        <time>2015-11-22T10:11:27Z</time>
      </trkpt>
      <trkpt lat="44.79523" lon="1.66332">
        <ele>185.19</ele>
        <time>2015-11-22T10:11:28Z</time>
      </trkpt>
      <trkpt lat="44.79521" lon="1.66331">
        <ele>185.19</ele>
        <time>2015-11-22T10:11:29Z</time>
      </trkpt>
      <trkpt lat="44.79517" lon="1.66332">
        <ele>185.19</ele>
        <time>2015-11-22T10:11:32Z</time>
      </trkpt>
      <trkpt lat="44.79515" lon="1.66333">
        <ele>185.19</ele>
        <time>2015-11-22T10:11:33Z</time>
      </trkpt>
      <trkpt lat="44.79514" lon="1.66333">
        <ele>185.67</ele>
        <time>2015-11-22T10:11:35Z</time>
      </trkpt>
      <trkpt lat="44.79512" lon="1.66333">
        <ele>185.67</ele>
        <time>2015-11-22T10:11:36Z</time>
      </trkpt>
      <trkpt lat="44.7951" lon="1.66333">
        <ele>186.15</ele>
        <time>2015-11-22T10:11:37Z</time>
      </trkpt>
      <trkpt lat="44.79509" lon="1.66334">
        <ele>186.15</ele>
        <time>2015-11-22T10:11:38Z</time>
      </trkpt>
      <trkpt lat="44.79508" lon="1.66336">
        <ele>186.15</ele>
        <time>2015-11-22T10:11:39Z</time>
      </trkpt>
      <trkpt lat="44.79505" lon="1.66337">
        <ele>186.15</ele>
        <time>2015-11-22T10:11:41Z</time>
      </trkpt>
      <trkpt lat="44.79501" lon="1.66339">
        <ele>187.11</ele>
        <time>2015-11-22T10:11:44Z</time>
      </trkpt>
      <trkpt lat="44.795" lon="1.66339">
        <ele>187.11</ele>
        <time>2015-11-22T10:11:47Z</time>
      </trkpt>
      <trkpt lat="44.79501" lon="1.66339">
        <ele>187.11</ele>
        <time>2015-11-22T10:11:48Z</time>
      </trkpt>
      <trkpt lat="44.79502" lon="1.66339">
        <ele>187.11</ele>
        <time>2015-11-22T10:11:49Z</time>
      </trkpt>
      <trkpt lat="44.79504" lon="1.66339">
        <ele>187.59</ele>
        <time>2015-11-22T10:11:50Z</time>
      </trkpt>
      <trkpt lat="44.79505" lon="1.66338">
        <ele>188.08</ele>
        <time>2015-11-22T10:11:51Z</time>
      </trkpt>
      <trkpt lat="44.79505" lon="1.66336">
        <ele>187.59</ele>
        <time>2015-11-22T10:11:53Z</time>
      </trkpt>
      <trkpt lat="44.795" lon="1.66333">
        <ele>187.59</ele>
        <time>2015-11-22T10:11:57Z</time>
      </trkpt>
      <trkpt lat="44.79495" lon="1.66337">
        <ele>186.15</ele>
        <time>2015-11-22T10:12:02Z</time>
      </trkpt>
      <trkpt lat="44.79493" lon="1.66338">
        <ele>186.63</ele>
        <time>2015-11-22T10:12:06Z</time>
      </trkpt>
      <trkpt lat="44.79488" lon="1.66339">
        <ele>185.67</ele>
        <time>2015-11-22T10:12:09Z</time>
      </trkpt>
      <trkpt lat="44.7948" lon="1.66348">
        <ele>185.19</ele>
        <time>2015-11-22T10:12:16Z</time>
      </trkpt>
      <trkpt lat="44.79472" lon="1.66357">
        <ele>185.19</ele>
        <time>2015-11-22T10:12:22Z</time>
      </trkpt>
      <trkpt lat="44.7947" lon="1.66359">
        <ele>185.19</ele>
        <time>2015-11-22T10:12:24Z</time>
      </trkpt>
      <trkpt lat="44.79467" lon="1.66362">
        <ele>185.19</ele>
        <time>2015-11-22T10:12:27Z</time>
      </trkpt>
      <trkpt lat="44.79463" lon="1.66367">
        <ele>185.67</ele>
        <time>2015-11-22T10:12:31Z</time>
      </trkpt>
      <trkpt lat="44.79461" lon="1.66372">
        <ele>185.67</ele>
        <time>2015-11-22T10:12:34Z</time>
      </trkpt>
      <trkpt lat="44.79452" lon="1.6639">
        <ele>185.67</ele>
        <time>2015-11-22T10:12:44Z</time>
      </trkpt>
      <trkpt lat="44.7945" lon="1.66394">
        <ele>185.67</ele>
        <time>2015-11-22T10:12:46Z</time>
      </trkpt>
      <trkpt lat="44.79441" lon="1.66414">
        <ele>185.67</ele>
        <time>2015-11-22T10:12:58Z</time>
      </trkpt>
      <trkpt lat="44.79437" lon="1.66423">
        <ele>186.63</ele>
        <time>2015-11-22T10:13:03Z</time>
      </trkpt>
      <trkpt lat="44.79437" lon="1.66425">
        <ele>187.11</ele>
        <time>2015-11-22T10:13:04Z</time>
      </trkpt>
      <trkpt lat="44.79437" lon="1.66427">
        <ele>186.63</ele>
        <time>2015-11-22T10:13:05Z</time>
      </trkpt>
      <trkpt lat="44.79436" lon="1.66429">
        <ele>186.63</ele>
        <time>2015-11-22T10:13:06Z</time>
      </trkpt>
      <trkpt lat="44.79435" lon="1.66431">
        <ele>186.63</ele>
        <time>2015-11-22T10:13:07Z</time>
      </trkpt>
      <trkpt lat="44.79434" lon="1.66432">
        <ele>187.11</ele>
        <time>2015-11-22T10:13:08Z</time>
      </trkpt>
      <trkpt lat="44.7943" lon="1.6644">
        <ele>187.11</ele>
        <time>2015-11-22T10:13:12Z</time>
      </trkpt>
      <trkpt lat="44.7943" lon="1.66442">
        <ele>187.11</ele>
        <time>2015-11-22T10:13:13Z</time>
      </trkpt>
      <trkpt lat="44.79429" lon="1.66444">
        <ele>187.11</ele>
        <time>2015-11-22T10:13:14Z</time>
      </trkpt>
      <trkpt lat="44.79428" lon="1.66445">
        <ele>187.11</ele>
        <time>2015-11-22T10:13:15Z</time>
      </trkpt>
      <trkpt lat="44.79428" lon="1.66447">
        <ele>187.11</ele>
        <time>2015-11-22T10:13:16Z</time>
      </trkpt>
      <trkpt lat="44.79427" lon="1.66449">
        <ele>187.11</ele>
        <time>2015-11-22T10:13:17Z</time>
      </trkpt>
      <trkpt lat="44.79426" lon="1.6645">
        <ele>187.11</ele>
        <time>2015-11-22T10:13:18Z</time>
      </trkpt>
      <trkpt lat="44.79425" lon="1.66452">
        <ele>187.11</ele>
        <time>2015-11-22T10:13:19Z</time>
      </trkpt>
      <trkpt lat="44.79424" lon="1.66454">
        <ele>187.11</ele>
        <time>2015-11-22T10:13:20Z</time>
      </trkpt>
      <trkpt lat="44.79423" lon="1.66455">
        <ele>187.11</ele>
        <time>2015-11-22T10:13:21Z</time>
      </trkpt>
      <trkpt lat="44.79422" lon="1.66457">
        <ele>187.11</ele>
        <time>2015-11-22T10:13:22Z</time>
      </trkpt>
      <trkpt lat="44.79421" lon="1.66459">
        <ele>187.11</ele>
        <time>2015-11-22T10:13:23Z</time>
      </trkpt>
      <trkpt lat="44.7942" lon="1.66461">
        <ele>187.59</ele>
        <time>2015-11-22T10:13:24Z</time>
      </trkpt>
      <trkpt lat="44.79419" lon="1.66462">
        <ele>187.59</ele>
        <time>2015-11-22T10:13:25Z</time>
      </trkpt>
      <trkpt lat="44.79418" lon="1.66463">
        <ele>187.59</ele>
        <time>2015-11-22T10:13:26Z</time>
      </trkpt>
      <trkpt lat="44.79416" lon="1.66465">
        <ele>187.59</ele>
        <time>2015-11-22T10:13:27Z</time>
      </trkpt>
      <trkpt lat="44.79416" lon="1.66467">
        <ele>187.59</ele>
        <time>2015-11-22T10:13:28Z</time>
      </trkpt>
      <trkpt lat="44.79415" lon="1.66469">
        <ele>187.59</ele>
        <time>2015-11-22T10:13:29Z</time>
      </trkpt>
      <trkpt lat="44.79414" lon="1.66471">
        <ele>187.59</ele>
        <time>2015-11-22T10:13:30Z</time>
      </trkpt>
      <trkpt lat="44.79413" lon="1.66472">
        <ele>187.59</ele>
        <time>2015-11-22T10:13:31Z</time>
      </trkpt>
      <trkpt lat="44.79411" lon="1.66475">
        <ele>187.59</ele>
        <time>2015-11-22T10:13:33Z</time>
      </trkpt>
      <trkpt lat="44.79411" lon="1.66477">
        <ele>187.59</ele>
        <time>2015-11-22T10:13:34Z</time>
      </trkpt>
      <trkpt lat="44.7941" lon="1.6648">
        <ele>187.59</ele>
        <time>2015-11-22T10:13:35Z</time>
      </trkpt>
      <trkpt lat="44.7941" lon="1.66482">
        <ele>187.59</ele>
        <time>2015-11-22T10:13:36Z</time>
      </trkpt>
      <trkpt lat="44.79409" lon="1.66485">
        <ele>187.59</ele>
        <time>2015-11-22T10:13:37Z</time>
      </trkpt>
      <trkpt lat="44.79409" lon="1.66487">
        <ele>187.59</ele>
        <time>2015-11-22T10:13:38Z</time>
      </trkpt>
      <trkpt lat="44.79408" lon="1.66489">
        <ele>187.59</ele>
        <time>2015-11-22T10:13:39Z</time>
      </trkpt>
      <trkpt lat="44.79407" lon="1.6649">
        <ele>187.59</ele>
        <time>2015-11-22T10:13:40Z</time>
      </trkpt>
      <trkpt lat="44.79405" lon="1.66491">
        <ele>187.59</ele>
        <time>2015-11-22T10:13:41Z</time>
      </trkpt>
      <trkpt lat="44.79405" lon="1.66493">
        <ele>187.59</ele>
        <time>2015-11-22T10:13:42Z</time>
      </trkpt>
      <trkpt lat="44.79403" lon="1.66494">
        <ele>187.59</ele>
        <time>2015-11-22T10:13:43Z</time>
      </trkpt>
      <trkpt lat="44.79402" lon="1.66496">
        <ele>187.59</ele>
        <time>2015-11-22T10:13:44Z</time>
      </trkpt>
      <trkpt lat="44.79402" lon="1.66498">
        <ele>187.59</ele>
        <time>2015-11-22T10:13:45Z</time>
      </trkpt>
      <trkpt lat="44.79401" lon="1.66501">
        <ele>187.59</ele>
        <time>2015-11-22T10:13:46Z</time>
      </trkpt>
      <trkpt lat="44.794" lon="1.66502">
        <ele>187.59</ele>
        <time>2015-11-22T10:13:47Z</time>
      </trkpt>
      <trkpt lat="44.79397" lon="1.66502">
        <ele>187.59</ele>
        <time>2015-11-22T10:13:49Z</time>
      </trkpt>
      <trkpt lat="44.79392" lon="1.66521">
        <ele>188.08</ele>
        <time>2015-11-22T10:13:57Z</time>
      </trkpt>
      <trkpt lat="44.79389" lon="1.66534">
        <ele>187.59</ele>
        <time>2015-11-22T10:14:03Z</time>
      </trkpt>
      <trkpt lat="44.79386" lon="1.66555">
        <ele>187.59</ele>
        <time>2015-11-22T10:14:14Z</time>
      </trkpt>
      <trkpt lat="44.79387" lon="1.66563">
        <ele>187.59</ele>
        <time>2015-11-22T10:14:18Z</time>
      </trkpt>
      <trkpt lat="44.79383" lon="1.66583">
        <ele>188.08</ele>
        <time>2015-11-22T10:14:28Z</time>
      </trkpt>
      <trkpt lat="44.79382" lon="1.66588">
        <ele>188.08</ele>
        <time>2015-11-22T10:14:30Z</time>
      </trkpt>
      <trkpt lat="44.79382" lon="1.66591">
        <ele>188.08</ele>
        <time>2015-11-22T10:14:31Z</time>
      </trkpt>
      <trkpt lat="44.79382" lon="1.66594">
        <ele>188.08</ele>
        <time>2015-11-22T10:14:32Z</time>
      </trkpt>
      <trkpt lat="44.79382" lon="1.66597">
        <ele>188.08</ele>
        <time>2015-11-22T10:14:33Z</time>
      </trkpt>
      <trkpt lat="44.79381" lon="1.666">
        <ele>188.08</ele>
        <time>2015-11-22T10:14:34Z</time>
      </trkpt>
      <trkpt lat="44.7938" lon="1.66602">
        <ele>188.08</ele>
        <time>2015-11-22T10:14:35Z</time>
      </trkpt>
      <trkpt lat="44.7938" lon="1.66604">
        <ele>188.08</ele>
        <time>2015-11-22T10:14:36Z</time>
      </trkpt>
      <trkpt lat="44.79379" lon="1.66607">
        <ele>188.08</ele>
        <time>2015-11-22T10:14:37Z</time>
      </trkpt>
      <trkpt lat="44.79376" lon="1.6662">
        <ele>188.56</ele>
        <time>2015-11-22T10:14:43Z</time>
      </trkpt>
      <trkpt lat="44.79378" lon="1.66628">
        <ele>189.04</ele>
        <time>2015-11-22T10:14:47Z</time>
      </trkpt>
      <trkpt lat="44.79379" lon="1.66631">
        <ele>189.04</ele>
        <time>2015-11-22T10:14:48Z</time>
      </trkpt>
      <trkpt lat="44.7938" lon="1.66632">
        <ele>189.04</ele>
        <time>2015-11-22T10:14:49Z</time>
      </trkpt>
      <trkpt lat="44.79381" lon="1.66634">
        <ele>189.04</ele>
        <time>2015-11-22T10:14:50Z</time>
      </trkpt>
      <trkpt lat="44.79387" lon="1.66645">
        <ele>189.04</ele>
        <time>2015-11-22T10:14:58Z</time>
      </trkpt>
      <trkpt lat="44.79393" lon="1.66657">
        <ele>190</ele>
        <time>2015-11-22T10:15:06Z</time>
      </trkpt>
      <trkpt lat="44.79395" lon="1.66662">
        <ele>190.96</ele>
        <time>2015-11-22T10:15:09Z</time>
      </trkpt>
      <trkpt lat="44.79395" lon="1.66663">
        <ele>190.96</ele>
        <time>2015-11-22T10:15:10Z</time>
      </trkpt>
      <trkpt lat="44.79396" lon="1.66665">
        <ele>190.96</ele>
        <time>2015-11-22T10:15:11Z</time>
      </trkpt>
      <trkpt lat="44.79402" lon="1.6668">
        <ele>192.4</ele>
        <time>2015-11-22T10:15:21Z</time>
      </trkpt>
      <trkpt lat="44.79403" lon="1.66683">
        <ele>192.88</ele>
        <time>2015-11-22T10:15:23Z</time>
      </trkpt>
      <trkpt lat="44.79403" lon="1.66685">
        <ele>192.88</ele>
        <time>2015-11-22T10:15:24Z</time>
      </trkpt>
      <trkpt lat="44.79404" lon="1.66686">
        <ele>192.88</ele>
        <time>2015-11-22T10:15:25Z</time>
      </trkpt>
      <trkpt lat="44.79413" lon="1.66703">
        <ele>195.28</ele>
        <time>2015-11-22T10:15:39Z</time>
      </trkpt>
      <trkpt lat="44.79415" lon="1.66706">
        <ele>195.28</ele>
        <time>2015-11-22T10:15:49Z</time>
      </trkpt>
      <trkpt lat="44.79417" lon="1.66708">
        <ele>195.28</ele>
        <time>2015-11-22T10:15:56Z</time>
      </trkpt>
      <trkpt lat="44.79419" lon="1.6671">
        <ele>195.28</ele>
        <time>2015-11-22T10:15:58Z</time>
      </trkpt>
      <trkpt lat="44.7942" lon="1.66716">
        <ele>190.96</ele>
        <time>2015-11-22T10:16:04Z</time>
      </trkpt>
      <trkpt lat="44.79422" lon="1.66723">
        <ele>190</ele>
        <time>2015-11-22T10:16:16Z</time>
      </trkpt>
      <trkpt lat="44.79421" lon="1.66729">
        <ele>190</ele>
        <time>2015-11-22T10:16:21Z</time>
      </trkpt>
      <trkpt lat="44.79419" lon="1.66742">
        <ele>190</ele>
        <time>2015-11-22T10:16:30Z</time>
      </trkpt>
      <trkpt lat="44.79414" lon="1.66746">
        <ele>190</ele>
        <time>2015-11-22T10:16:35Z</time>
      </trkpt>
      <trkpt lat="44.7941" lon="1.66762">
        <ele>189.52</ele>
        <time>2015-11-22T10:16:46Z</time>
      </trkpt>
      <trkpt lat="44.79408" lon="1.66771">
        <ele>190</ele>
        <time>2015-11-22T10:16:50Z</time>
      </trkpt>
      <trkpt lat="44.79405" lon="1.66795">
        <ele>190</ele>
        <time>2015-11-22T10:17:01Z</time>
      </trkpt>
      <trkpt lat="44.79403" lon="1.66808">
        <ele>190</ele>
        <time>2015-11-22T10:17:07Z</time>
      </trkpt>
      <trkpt lat="44.79396" lon="1.66819">
        <ele>190</ele>
        <time>2015-11-22T10:17:14Z</time>
      </trkpt>
      <trkpt lat="44.79393" lon="1.66831">
        <ele>190</ele>
        <time>2015-11-22T10:17:19Z</time>
      </trkpt>
      <trkpt lat="44.7939" lon="1.66836">
        <ele>190</ele>
        <time>2015-11-22T10:17:22Z</time>
      </trkpt>
      <trkpt lat="44.7938" lon="1.66852">
        <ele>190</ele>
        <time>2015-11-22T10:17:32Z</time>
      </trkpt>
      <trkpt lat="44.79378" lon="1.66855">
        <ele>190</ele>
        <time>2015-11-22T10:17:34Z</time>
      </trkpt>
      <trkpt lat="44.79371" lon="1.66868">
        <ele>190.96</ele>
        <time>2015-11-22T10:17:42Z</time>
      </trkpt>
      <trkpt lat="44.79361" lon="1.66882">
        <ele>191.44</ele>
        <time>2015-11-22T10:17:52Z</time>
      </trkpt>
      <trkpt lat="44.7936" lon="1.66885">
        <ele>191.44</ele>
        <time>2015-11-22T10:17:54Z</time>
      </trkpt>
      <trkpt lat="44.79357" lon="1.66894">
        <ele>191.44</ele>
        <time>2015-11-22T10:17:59Z</time>
      </trkpt>
      <trkpt lat="44.79357" lon="1.66897">
        <ele>191.44</ele>
        <time>2015-11-22T10:18:00Z</time>
      </trkpt>
      <trkpt lat="44.79357" lon="1.66899">
        <ele>191.44</ele>
        <time>2015-11-22T10:18:01Z</time>
      </trkpt>
      <trkpt lat="44.79356" lon="1.66901">
        <ele>191.44</ele>
        <time>2015-11-22T10:18:02Z</time>
      </trkpt>
      <trkpt lat="44.79355" lon="1.66901">
        <ele>191.44</ele>
        <time>2015-11-22T10:18:03Z</time>
      </trkpt>
      <trkpt lat="44.79352" lon="1.66904">
        <ele>191.44</ele>
        <time>2015-11-22T10:18:06Z</time>
      </trkpt>
      <trkpt lat="44.7935" lon="1.66906">
        <ele>191.44</ele>
        <time>2015-11-22T10:18:07Z</time>
      </trkpt>
      <trkpt lat="44.79349" lon="1.66907">
        <ele>191.44</ele>
        <time>2015-11-22T10:18:08Z</time>
      </trkpt>
      <trkpt lat="44.79348" lon="1.66908">
        <ele>191.44</ele>
        <time>2015-11-22T10:18:09Z</time>
      </trkpt>
      <trkpt lat="44.79348" lon="1.6691">
        <ele>191.44</ele>
        <time>2015-11-22T10:18:10Z</time>
      </trkpt>
      <trkpt lat="44.79346" lon="1.66912">
        <ele>191.44</ele>
        <time>2015-11-22T10:18:12Z</time>
      </trkpt>
      <trkpt lat="44.79345" lon="1.66913">
        <ele>191.44</ele>
        <time>2015-11-22T10:18:13Z</time>
      </trkpt>
      <trkpt lat="44.79337" lon="1.66914">
        <ele>191.44</ele>
        <time>2015-11-22T10:18:18Z</time>
      </trkpt>
      <trkpt lat="44.79335" lon="1.66914">
        <ele>191.44</ele>
        <time>2015-11-22T10:18:19Z</time>
      </trkpt>
      <trkpt lat="44.79334" lon="1.66915">
        <ele>191.44</ele>
        <time>2015-11-22T10:18:20Z</time>
      </trkpt>
      <trkpt lat="44.79333" lon="1.66917">
        <ele>191.44</ele>
        <time>2015-11-22T10:18:21Z</time>
      </trkpt>
      <trkpt lat="44.79331" lon="1.66918">
        <ele>191.44</ele>
        <time>2015-11-22T10:18:22Z</time>
      </trkpt>
      <trkpt lat="44.79329" lon="1.66919">
        <ele>191.44</ele>
        <time>2015-11-22T10:18:23Z</time>
      </trkpt>
      <trkpt lat="44.79325" lon="1.6692">
        <ele>191.44</ele>
        <time>2015-11-22T10:18:26Z</time>
      </trkpt>
      <trkpt lat="44.79321" lon="1.66928">
        <ele>192.4</ele>
        <time>2015-11-22T10:18:31Z</time>
      </trkpt>
      <trkpt lat="44.79319" lon="1.66931">
        <ele>192.4</ele>
        <time>2015-11-22T10:18:33Z</time>
      </trkpt>
      <trkpt lat="44.79315" lon="1.66936">
        <ele>192.4</ele>
        <time>2015-11-22T10:18:37Z</time>
      </trkpt>
      <trkpt lat="44.79309" lon="1.66948">
        <ele>192.4</ele>
        <time>2015-11-22T10:18:44Z</time>
      </trkpt>
      <trkpt lat="44.79308" lon="1.6695">
        <ele>192.4</ele>
        <time>2015-11-22T10:18:45Z</time>
      </trkpt>
      <trkpt lat="44.79307" lon="1.66951">
        <ele>192.4</ele>
        <time>2015-11-22T10:18:46Z</time>
      </trkpt>
      <trkpt lat="44.79306" lon="1.66952">
        <ele>192.4</ele>
        <time>2015-11-22T10:18:47Z</time>
      </trkpt>
      <trkpt lat="44.79306" lon="1.66954">
        <ele>192.4</ele>
        <time>2015-11-22T10:18:48Z</time>
      </trkpt>
      <trkpt lat="44.79305" lon="1.66956">
        <ele>192.4</ele>
        <time>2015-11-22T10:18:49Z</time>
      </trkpt>
      <trkpt lat="44.79304" lon="1.66958">
        <ele>192.4</ele>
        <time>2015-11-22T10:18:50Z</time>
      </trkpt>
      <trkpt lat="44.79302" lon="1.66958">
        <ele>192.4</ele>
        <time>2015-11-22T10:18:51Z</time>
      </trkpt>
      <trkpt lat="44.793" lon="1.66958">
        <ele>192.4</ele>
        <time>2015-11-22T10:18:52Z</time>
      </trkpt>
      <trkpt lat="44.7929" lon="1.66962">
        <ele>192.4</ele>
        <time>2015-11-22T10:18:59Z</time>
      </trkpt>
      <trkpt lat="44.79289" lon="1.66962">
        <ele>192.4</ele>
        <time>2015-11-22T10:19:00Z</time>
      </trkpt>
      <trkpt lat="44.79287" lon="1.66963">
        <ele>192.4</ele>
        <time>2015-11-22T10:19:01Z</time>
      </trkpt>
      <trkpt lat="44.79286" lon="1.66964">
        <ele>192.4</ele>
        <time>2015-11-22T10:19:02Z</time>
      </trkpt>
      <trkpt lat="44.79285" lon="1.66966">
        <ele>192.4</ele>
        <time>2015-11-22T10:19:03Z</time>
      </trkpt>
      <trkpt lat="44.79284" lon="1.66967">
        <ele>192.4</ele>
        <time>2015-11-22T10:19:04Z</time>
      </trkpt>
      <trkpt lat="44.79283" lon="1.66968">
        <ele>192.88</ele>
        <time>2015-11-22T10:19:05Z</time>
      </trkpt>
      <trkpt lat="44.79282" lon="1.66969">
        <ele>192.88</ele>
        <time>2015-11-22T10:19:06Z</time>
      </trkpt>
      <trkpt lat="44.79281" lon="1.66969">
        <ele>192.88</ele>
        <time>2015-11-22T10:19:07Z</time>
      </trkpt>
      <trkpt lat="44.79279" lon="1.6697">
        <ele>192.88</ele>
        <time>2015-11-22T10:19:08Z</time>
      </trkpt>
      <trkpt lat="44.79277" lon="1.6697">
        <ele>192.88</ele>
        <time>2015-11-22T10:19:09Z</time>
      </trkpt>
      <trkpt lat="44.79276" lon="1.66973">
        <ele>192.88</ele>
        <time>2015-11-22T10:19:11Z</time>
      </trkpt>
      <trkpt lat="44.79276" lon="1.66975">
        <ele>192.88</ele>
        <time>2015-11-22T10:19:12Z</time>
      </trkpt>
      <trkpt lat="44.79275" lon="1.66977">
        <ele>192.88</ele>
        <time>2015-11-22T10:19:13Z</time>
      </trkpt>
      <trkpt lat="44.79274" lon="1.66979">
        <ele>192.88</ele>
        <time>2015-11-22T10:19:14Z</time>
      </trkpt>
      <trkpt lat="44.79273" lon="1.66982">
        <ele>192.88</ele>
        <time>2015-11-22T10:19:15Z</time>
      </trkpt>
      <trkpt lat="44.79273" lon="1.66984">
        <ele>192.88</ele>
        <time>2015-11-22T10:19:16Z</time>
      </trkpt>
      <trkpt lat="44.79272" lon="1.66984">
        <ele>192.88</ele>
        <time>2015-11-22T10:19:17Z</time>
      </trkpt>
      <trkpt lat="44.7927" lon="1.66984">
        <ele>192.88</ele>
        <time>2015-11-22T10:19:18Z</time>
      </trkpt>
      <trkpt lat="44.79269" lon="1.66985">
        <ele>192.88</ele>
        <time>2015-11-22T10:19:19Z</time>
      </trkpt>
      <trkpt lat="44.79268" lon="1.66986">
        <ele>192.88</ele>
        <time>2015-11-22T10:19:20Z</time>
      </trkpt>
      <trkpt lat="44.79266" lon="1.66987">
        <ele>192.88</ele>
        <time>2015-11-22T10:19:21Z</time>
      </trkpt>
      <trkpt lat="44.79264" lon="1.66987">
        <ele>192.88</ele>
        <time>2015-11-22T10:19:22Z</time>
      </trkpt>
      <trkpt lat="44.79263" lon="1.66987">
        <ele>193.36</ele>
        <time>2015-11-22T10:19:23Z</time>
      </trkpt>
      <trkpt lat="44.79262" lon="1.66989">
        <ele>193.36</ele>
        <time>2015-11-22T10:19:24Z</time>
      </trkpt>
      <trkpt lat="44.79261" lon="1.6699">
        <ele>193.36</ele>
        <time>2015-11-22T10:19:25Z</time>
      </trkpt>
      <trkpt lat="44.7926" lon="1.66993">
        <ele>193.36</ele>
        <time>2015-11-22T10:19:27Z</time>
      </trkpt>
      <trkpt lat="44.7926" lon="1.66994">
        <ele>193.36</ele>
        <time>2015-11-22T10:19:28Z</time>
      </trkpt>
      <trkpt lat="44.79258" lon="1.66996">
        <ele>193.36</ele>
        <time>2015-11-22T10:19:29Z</time>
      </trkpt>
      <trkpt lat="44.79256" lon="1.66996">
        <ele>193.36</ele>
        <time>2015-11-22T10:19:30Z</time>
      </trkpt>
      <trkpt lat="44.79254" lon="1.66995">
        <ele>193.36</ele>
        <time>2015-11-22T10:19:31Z</time>
      </trkpt>
      <trkpt lat="44.79252" lon="1.66997">
        <ele>193.36</ele>
        <time>2015-11-22T10:19:33Z</time>
      </trkpt>
      <trkpt lat="44.79252" lon="1.67">
        <ele>193.36</ele>
        <time>2015-11-22T10:19:34Z</time>
      </trkpt>
      <trkpt lat="44.79251" lon="1.67001">
        <ele>193.36</ele>
        <time>2015-11-22T10:19:35Z</time>
      </trkpt>
      <trkpt lat="44.79247" lon="1.67002">
        <ele>193.36</ele>
        <time>2015-11-22T10:19:38Z</time>
      </trkpt>
      <trkpt lat="44.79246" lon="1.67002">
        <ele>193.36</ele>
        <time>2015-11-22T10:19:39Z</time>
      </trkpt>
      <trkpt lat="44.79244" lon="1.67002">
        <ele>193.36</ele>
        <time>2015-11-22T10:19:40Z</time>
      </trkpt>
      <trkpt lat="44.79237" lon="1.67002">
        <ele>193.84</ele>
        <time>2015-11-22T10:19:45Z</time>
      </trkpt>
      <trkpt lat="44.79236" lon="1.67003">
        <ele>193.84</ele>
        <time>2015-11-22T10:19:46Z</time>
      </trkpt>
      <trkpt lat="44.79235" lon="1.67005">
        <ele>193.84</ele>
        <time>2015-11-22T10:19:47Z</time>
      </trkpt>
      <trkpt lat="44.79234" lon="1.67007">
        <ele>193.84</ele>
        <time>2015-11-22T10:19:48Z</time>
      </trkpt>
      <trkpt lat="44.79233" lon="1.67008">
        <ele>193.84</ele>
        <time>2015-11-22T10:19:49Z</time>
      </trkpt>
      <trkpt lat="44.79232" lon="1.6701">
        <ele>193.84</ele>
        <time>2015-11-22T10:19:50Z</time>
      </trkpt>
      <trkpt lat="44.7923" lon="1.67011">
        <ele>193.84</ele>
        <time>2015-11-22T10:19:51Z</time>
      </trkpt>
      <trkpt lat="44.79229" lon="1.67012">
        <ele>193.84</ele>
        <time>2015-11-22T10:19:52Z</time>
      </trkpt>
      <trkpt lat="44.79228" lon="1.67013">
        <ele>193.84</ele>
        <time>2015-11-22T10:19:53Z</time>
      </trkpt>
      <trkpt lat="44.79225" lon="1.67014">
        <ele>193.84</ele>
        <time>2015-11-22T10:19:55Z</time>
      </trkpt>
      <trkpt lat="44.79224" lon="1.67016">
        <ele>193.84</ele>
        <time>2015-11-22T10:19:56Z</time>
      </trkpt>
      <trkpt lat="44.79223" lon="1.67018">
        <ele>193.84</ele>
        <time>2015-11-22T10:19:57Z</time>
      </trkpt>
      <trkpt lat="44.79223" lon="1.6702">
        <ele>193.84</ele>
        <time>2015-11-22T10:19:58Z</time>
      </trkpt>
      <trkpt lat="44.79222" lon="1.67023">
        <ele>193.84</ele>
        <time>2015-11-22T10:19:59Z</time>
      </trkpt>
      <trkpt lat="44.79221" lon="1.67025">
        <ele>193.84</ele>
        <time>2015-11-22T10:20:00Z</time>
      </trkpt>
      <trkpt lat="44.7922" lon="1.67027">
        <ele>193.84</ele>
        <time>2015-11-22T10:20:01Z</time>
      </trkpt>
      <trkpt lat="44.79218" lon="1.67028">
        <ele>193.84</ele>
        <time>2015-11-22T10:20:02Z</time>
      </trkpt>
      <trkpt lat="44.79214" lon="1.67032">
        <ele>193.84</ele>
        <time>2015-11-22T10:20:06Z</time>
      </trkpt>
      <trkpt lat="44.79213" lon="1.67032">
        <ele>194.32</ele>
        <time>2015-11-22T10:20:07Z</time>
      </trkpt>
      <trkpt lat="44.79208" lon="1.67034">
        <ele>194.32</ele>
        <time>2015-11-22T10:20:10Z</time>
      </trkpt>
      <trkpt lat="44.79207" lon="1.67033">
        <ele>194.32</ele>
        <time>2015-11-22T10:20:11Z</time>
      </trkpt>
      <trkpt lat="44.79202" lon="1.67034">
        <ele>194.32</ele>
        <time>2015-11-22T10:20:15Z</time>
      </trkpt>
      <trkpt lat="44.792" lon="1.67035">
        <ele>194.32</ele>
        <time>2015-11-22T10:20:16Z</time>
      </trkpt>
      <trkpt lat="44.79199" lon="1.67034">
        <ele>194.32</ele>
        <time>2015-11-22T10:20:17Z</time>
      </trkpt>
      <trkpt lat="44.79191" lon="1.67034">
        <ele>194.32</ele>
        <time>2015-11-22T10:20:24Z</time>
      </trkpt>
      <trkpt lat="44.79181" lon="1.67033">
        <ele>195.28</ele>
        <time>2015-11-22T10:20:33Z</time>
      </trkpt>
      <trkpt lat="44.7918" lon="1.67035">
        <ele>195.28</ele>
        <time>2015-11-22T10:20:34Z</time>
      </trkpt>
      <trkpt lat="44.79179" lon="1.67036">
        <ele>195.28</ele>
        <time>2015-11-22T10:20:35Z</time>
      </trkpt>
      <trkpt lat="44.79178" lon="1.67036">
        <ele>195.28</ele>
        <time>2015-11-22T10:20:36Z</time>
      </trkpt>
      <trkpt lat="44.79176" lon="1.67036">
        <ele>195.28</ele>
        <time>2015-11-22T10:20:37Z</time>
      </trkpt>
      <trkpt lat="44.79175" lon="1.67037">
        <ele>195.28</ele>
        <time>2015-11-22T10:20:38Z</time>
      </trkpt>
      <trkpt lat="44.79174" lon="1.67037">
        <ele>195.28</ele>
        <time>2015-11-22T10:20:39Z</time>
      </trkpt>
      <trkpt lat="44.79167" lon="1.67034">
        <ele>195.77</ele>
        <time>2015-11-22T10:20:45Z</time>
      </trkpt>
      <trkpt lat="44.79165" lon="1.67034">
        <ele>195.77</ele>
        <time>2015-11-22T10:20:46Z</time>
      </trkpt>
      <trkpt lat="44.79161" lon="1.67032">
        <ele>195.77</ele>
        <time>2015-11-22T10:20:50Z</time>
      </trkpt>
      <trkpt lat="44.79153" lon="1.6703">
        <ele>196.25</ele>
        <time>2015-11-22T10:20:59Z</time>
      </trkpt>
      <trkpt lat="44.7915" lon="1.67032">
        <ele>196.73</ele>
        <time>2015-11-22T10:21:08Z</time>
      </trkpt>
      <trkpt lat="44.7915" lon="1.67034">
        <ele>197.69</ele>
        <time>2015-11-22T10:21:09Z</time>
      </trkpt>
      <trkpt lat="44.79149" lon="1.67037">
        <ele>201.05</ele>
        <time>2015-11-22T10:21:17Z</time>
      </trkpt>
      <trkpt lat="44.79149" lon="1.67037">
        <ele>203.94</ele>
        <time>2015-11-22T10:21:21Z</time>
      </trkpt>
      <trkpt lat="44.79147" lon="1.67042">
        <ele>205.86</ele>
        <time>2015-11-22T10:21:31Z</time>
      </trkpt>
      <trkpt lat="44.79147" lon="1.67042">
        <ele>205.86</ele>
        <time>2015-11-22T10:21:35Z</time>
      </trkpt>
      <trkpt lat="44.79144" lon="1.67045">
        <ele>206.82</ele>
        <time>2015-11-22T10:21:41Z</time>
      </trkpt>
      <trkpt lat="44.79142" lon="1.67044">
        <ele>207.78</ele>
        <time>2015-11-22T10:21:44Z</time>
      </trkpt>
      <trkpt lat="44.79138" lon="1.67046">
        <ele>208.74</ele>
        <time>2015-11-22T10:21:51Z</time>
      </trkpt>
      <trkpt lat="44.79134" lon="1.67045">
        <ele>212.59</ele>
        <time>2015-11-22T10:21:58Z</time>
      </trkpt>
      <trkpt lat="44.79129" lon="1.67043">
        <ele>215.95</ele>
        <time>2015-11-22T10:22:03Z</time>
      </trkpt>
      <trkpt lat="44.79125" lon="1.67044">
        <ele>216.43</ele>
        <time>2015-11-22T10:22:09Z</time>
      </trkpt>
      <trkpt lat="44.7912" lon="1.67039">
        <ele>216.43</ele>
        <time>2015-11-22T10:22:14Z</time>
      </trkpt>
      <trkpt lat="44.79118" lon="1.67042">
        <ele>217.4</ele>
        <time>2015-11-22T10:22:23Z</time>
      </trkpt>
      <trkpt lat="44.79119" lon="1.67048">
        <ele>219.32</ele>
        <time>2015-11-22T10:22:31Z</time>
      </trkpt>
      <trkpt lat="44.79119" lon="1.67049">
        <ele>219.32</ele>
        <time>2015-11-22T10:22:32Z</time>
      </trkpt>
      <trkpt lat="44.7912" lon="1.67051">
        <ele>219.32</ele>
        <time>2015-11-22T10:22:33Z</time>
      </trkpt>
      <trkpt lat="44.79121" lon="1.67053">
        <ele>220.28</ele>
        <time>2015-11-22T10:22:34Z</time>
      </trkpt>
      <trkpt lat="44.79122" lon="1.67057">
        <ele>223.64</ele>
        <time>2015-11-22T10:22:39Z</time>
      </trkpt>
      <trkpt lat="44.79124" lon="1.67067">
        <ele>226.05</ele>
        <time>2015-11-22T10:22:49Z</time>
      </trkpt>
      <trkpt lat="44.79121" lon="1.6707">
        <ele>226.05</ele>
        <time>2015-11-22T10:22:54Z</time>
      </trkpt>
      <trkpt lat="44.79119" lon="1.67069">
        <ele>226.05</ele>
        <time>2015-11-22T10:22:56Z</time>
      </trkpt>
      <trkpt lat="44.79118" lon="1.67069">
        <ele>226.53</ele>
        <time>2015-11-22T10:22:57Z</time>
      </trkpt>
      <trkpt lat="44.79109" lon="1.67067">
        <ele>228.45</ele>
        <time>2015-11-22T10:23:09Z</time>
      </trkpt>
      <trkpt lat="44.79099" lon="1.6706">
        <ele>230.85</ele>
        <time>2015-11-22T10:23:20Z</time>
      </trkpt>
      <trkpt lat="44.79097" lon="1.67058">
        <ele>233.74</ele>
        <time>2015-11-22T10:23:26Z</time>
      </trkpt>
      <trkpt lat="44.79095" lon="1.67056">
        <ele>237.1</ele>
        <time>2015-11-22T10:23:30Z</time>
      </trkpt>
      <trkpt lat="44.79089" lon="1.67045">
        <ele>237.1</ele>
        <time>2015-11-22T10:23:41Z</time>
      </trkpt>
      <trkpt lat="44.79089" lon="1.67042">
        <ele>237.1</ele>
        <time>2015-11-22T10:23:43Z</time>
      </trkpt>
      <trkpt lat="44.79089" lon="1.67041">
        <ele>237.1</ele>
        <time>2015-11-22T10:23:44Z</time>
      </trkpt>
      <trkpt lat="44.7909" lon="1.67036">
        <ele>236.14</ele>
        <time>2015-11-22T10:23:47Z</time>
      </trkpt>
      <trkpt lat="44.79093" lon="1.67023">
        <ele>236.14</ele>
        <time>2015-11-22T10:23:58Z</time>
      </trkpt>
      <trkpt lat="44.79094" lon="1.67018">
        <ele>236.14</ele>
        <time>2015-11-22T10:24:01Z</time>
      </trkpt>
      <trkpt lat="44.79095" lon="1.67017">
        <ele>236.14</ele>
        <time>2015-11-22T10:24:02Z</time>
      </trkpt>
      <trkpt lat="44.79099" lon="1.67003">
        <ele>235.18</ele>
        <time>2015-11-22T10:24:10Z</time>
      </trkpt>
      <trkpt lat="44.79099" lon="1.67001">
        <ele>235.18</ele>
        <time>2015-11-22T10:24:11Z</time>
      </trkpt>
      <trkpt lat="44.79104" lon="1.66989">
        <ele>235.66</ele>
        <time>2015-11-22T10:24:21Z</time>
      </trkpt>
      <trkpt lat="44.79106" lon="1.66979">
        <ele>235.66</ele>
        <time>2015-11-22T10:24:27Z</time>
      </trkpt>
      <trkpt lat="44.79107" lon="1.66978">
        <ele>235.66</ele>
        <time>2015-11-22T10:24:28Z</time>
      </trkpt>
      <trkpt lat="44.79108" lon="1.66961">
        <ele>234.7</ele>
        <time>2015-11-22T10:24:42Z</time>
      </trkpt>
      <trkpt lat="44.7911" lon="1.66952">
        <ele>232.3</ele>
        <time>2015-11-22T10:24:51Z</time>
      </trkpt>
      <trkpt lat="44.79113" lon="1.66947">
        <ele>228.45</ele>
        <time>2015-11-22T10:24:55Z</time>
      </trkpt>
      <trkpt lat="44.79116" lon="1.66932">
        <ele>226.05</ele>
        <time>2015-11-22T10:25:05Z</time>
      </trkpt>
      <trkpt lat="44.79113" lon="1.6693">
        <ele>226.05</ele>
        <time>2015-11-22T10:25:07Z</time>
      </trkpt>
      <trkpt lat="44.79108" lon="1.66914">
        <ele>226.53</ele>
        <time>2015-11-22T10:25:19Z</time>
      </trkpt>
      <trkpt lat="44.79106" lon="1.66907">
        <ele>226.53</ele>
        <time>2015-11-22T10:25:29Z</time>
      </trkpt>
      <trkpt lat="44.79103" lon="1.66903">
        <ele>223.16</ele>
        <time>2015-11-22T10:25:33Z</time>
      </trkpt>
      <trkpt lat="44.79101" lon="1.66902">
        <ele>222.2</ele>
        <time>2015-11-22T10:25:34Z</time>
      </trkpt>
      <trkpt lat="44.79094" lon="1.66902">
        <ele>219.8</ele>
        <time>2015-11-22T10:25:41Z</time>
      </trkpt>
      <trkpt lat="44.79092" lon="1.66901">
        <ele>219.8</ele>
        <time>2015-11-22T10:25:42Z</time>
      </trkpt>
      <trkpt lat="44.79089" lon="1.66899">
        <ele>219.8</ele>
        <time>2015-11-22T10:25:43Z</time>
      </trkpt>
      <trkpt lat="44.79087" lon="1.66898">
        <ele>219.8</ele>
        <time>2015-11-22T10:25:44Z</time>
      </trkpt>
      <trkpt lat="44.79078" lon="1.66892">
        <ele>219.8</ele>
        <time>2015-11-22T10:25:51Z</time>
      </trkpt>
      <trkpt lat="44.7907" lon="1.66891">
        <ele>217.4</ele>
        <time>2015-11-22T10:25:58Z</time>
      </trkpt>
      <trkpt lat="44.7907" lon="1.66893">
        <ele>216.91</ele>
        <time>2015-11-22T10:25:59Z</time>
      </trkpt>
      <trkpt lat="44.79069" lon="1.66896">
        <ele>215.95</ele>
        <time>2015-11-22T10:26:00Z</time>
      </trkpt>
      <trkpt lat="44.79068" lon="1.66898">
        <ele>214.99</ele>
        <time>2015-11-22T10:26:01Z</time>
      </trkpt>
      <trkpt lat="44.79068" lon="1.669">
        <ele>214.03</ele>
        <time>2015-11-22T10:26:02Z</time>
      </trkpt>
      <trkpt lat="44.79065" lon="1.66905">
        <ele>211.63</ele>
        <time>2015-11-22T10:26:06Z</time>
      </trkpt>
      <trkpt lat="44.79063" lon="1.66904">
        <ele>211.63</ele>
        <time>2015-11-22T10:26:07Z</time>
      </trkpt>
      <trkpt lat="44.79061" lon="1.66903">
        <ele>211.15</ele>
        <time>2015-11-22T10:26:08Z</time>
      </trkpt>
      <trkpt lat="44.79058" lon="1.66904">
        <ele>211.15</ele>
        <time>2015-11-22T10:26:11Z</time>
      </trkpt>
      <trkpt lat="44.79055" lon="1.66906">
        <ele>211.15</ele>
        <time>2015-11-22T10:26:14Z</time>
      </trkpt>
      <trkpt lat="44.79054" lon="1.66906">
        <ele>211.15</ele>
        <time>2015-11-22T10:26:15Z</time>
      </trkpt>
      <trkpt lat="44.79051" lon="1.66909">
        <ele>211.15</ele>
        <time>2015-11-22T10:26:20Z</time>
      </trkpt>
      <trkpt lat="44.79048" lon="1.6691">
        <ele>211.15</ele>
        <time>2015-11-22T10:26:23Z</time>
      </trkpt>
      <trkpt lat="44.79045" lon="1.66908">
        <ele>212.11</ele>
        <time>2015-11-22T10:26:27Z</time>
      </trkpt>
      <trkpt lat="44.79043" lon="1.66909">
        <ele>212.59</ele>
        <time>2015-11-22T10:26:29Z</time>
      </trkpt>
      <trkpt lat="44.79039" lon="1.66912">
        <ele>213.07</ele>
        <time>2015-11-22T10:26:38Z</time>
      </trkpt>
      <trkpt lat="44.79039" lon="1.66914">
        <ele>213.55</ele>
        <time>2015-11-22T10:26:43Z</time>
      </trkpt>
      <trkpt lat="44.79041" lon="1.66921">
        <ele>214.03</ele>
        <time>2015-11-22T10:26:52Z</time>
      </trkpt>
      <trkpt lat="44.79041" lon="1.66924">
        <ele>214.99</ele>
        <time>2015-11-22T10:27:02Z</time>
      </trkpt>
      <trkpt lat="44.79041" lon="1.66923">
        <ele>216.91</ele>
        <time>2015-11-22T10:27:18Z</time>
      </trkpt>
      <trkpt lat="44.79039" lon="1.66918">
        <ele>216.91</ele>
        <time>2015-11-22T10:27:20Z</time>
      </trkpt>
      <trkpt lat="44.79036" lon="1.66914">
        <ele>217.4</ele>
        <time>2015-11-22T10:27:21Z</time>
      </trkpt>
      <trkpt lat="44.79035" lon="1.66913">
        <ele>217.4</ele>
        <time>2015-11-22T10:27:22Z</time>
      </trkpt>
      <trkpt lat="44.79033" lon="1.66913">
        <ele>217.88</ele>
        <time>2015-11-22T10:27:23Z</time>
      </trkpt>
      <trkpt lat="44.7903" lon="1.66914">
        <ele>220.76</ele>
        <time>2015-11-22T10:27:27Z</time>
      </trkpt>
      <trkpt lat="44.79029" lon="1.66918">
        <ele>224.61</ele>
        <time>2015-11-22T10:27:31Z</time>
      </trkpt>
      <trkpt lat="44.79029" lon="1.66921">
        <ele>225.57</ele>
        <time>2015-11-22T10:27:40Z</time>
      </trkpt>
      <trkpt lat="44.7903" lon="1.66921">
        <ele>224.61</ele>
        <time>2015-11-22T10:27:44Z</time>
      </trkpt>
      <trkpt lat="44.7903" lon="1.66922">
        <ele>224.61</ele>
        <time>2015-11-22T10:27:45Z</time>
      </trkpt>
      <trkpt lat="44.7903" lon="1.66924">
        <ele>224.61</ele>
        <time>2015-11-22T10:27:46Z</time>
      </trkpt>
      <trkpt lat="44.79029" lon="1.66926">
        <ele>224.12</ele>
        <time>2015-11-22T10:27:48Z</time>
      </trkpt>
      <trkpt lat="44.79028" lon="1.66927">
        <ele>224.12</ele>
        <time>2015-11-22T10:27:49Z</time>
      </trkpt>
      <trkpt lat="44.79027" lon="1.66929">
        <ele>224.12</ele>
        <time>2015-11-22T10:27:51Z</time>
      </trkpt>
      <trkpt lat="44.79026" lon="1.66932">
        <ele>224.12</ele>
        <time>2015-11-22T10:27:53Z</time>
      </trkpt>
      <trkpt lat="44.79025" lon="1.66931">
        <ele>224.12</ele>
        <time>2015-11-22T10:27:54Z</time>
      </trkpt>
      <trkpt lat="44.79019" lon="1.66928">
        <ele>224.12</ele>
        <time>2015-11-22T10:28:04Z</time>
      </trkpt>
      <trkpt lat="44.7902" lon="1.6693">
        <ele>224.12</ele>
        <time>2015-11-22T10:28:07Z</time>
      </trkpt>
      <trkpt lat="44.7902" lon="1.66931">
        <ele>224.12</ele>
        <time>2015-11-22T10:28:08Z</time>
      </trkpt>
      <trkpt lat="44.7902" lon="1.66931">
        <ele>224.12</ele>
        <time>2015-11-22T10:28:09Z</time>
      </trkpt>
      <trkpt lat="44.79021" lon="1.6693">
        <ele>224.12</ele>
        <time>2015-11-22T10:28:11Z</time>
      </trkpt>
      <trkpt lat="44.79022" lon="1.66929">
        <ele>224.12</ele>
        <time>2015-11-22T10:28:18Z</time>
      </trkpt>
      <trkpt lat="44.79023" lon="1.6693">
        <ele>224.12</ele>
        <time>2015-11-22T10:28:23Z</time>
      </trkpt>
      <trkpt lat="44.79021" lon="1.6692">
        <ele>224.12</ele>
        <time>2015-11-22T10:28:27Z</time>
      </trkpt>
      <trkpt lat="44.79021" lon="1.66921">
        <ele>224.12</ele>
        <time>2015-11-22T10:28:28Z</time>
      </trkpt>
      <trkpt lat="44.79023" lon="1.66922">
        <ele>223.64</ele>
        <time>2015-11-22T10:28:29Z</time>
      </trkpt>
      <trkpt lat="44.79023" lon="1.66923">
        <ele>223.64</ele>
        <time>2015-11-22T10:28:38Z</time>
      </trkpt>
      <trkpt lat="44.79024" lon="1.66924">
        <ele>223.64</ele>
        <time>2015-11-22T10:28:40Z</time>
      </trkpt>
      <trkpt lat="44.79024" lon="1.66929">
        <ele>223.64</ele>
        <time>2015-11-22T10:28:43Z</time>
      </trkpt>
      <trkpt lat="44.79023" lon="1.66927">
        <ele>223.64</ele>
        <time>2015-11-22T10:28:47Z</time>
      </trkpt>
      <trkpt lat="44.79021" lon="1.66929">
        <ele>223.16</ele>
        <time>2015-11-22T10:28:55Z</time>
      </trkpt>
      <trkpt lat="44.79026" lon="1.66938">
        <ele>222.68</ele>
        <time>2015-11-22T10:29:01Z</time>
      </trkpt>
      <trkpt lat="44.79026" lon="1.66937">
        <ele>221.24</ele>
        <time>2015-11-22T10:29:04Z</time>
      </trkpt>
      <trkpt lat="44.79029" lon="1.66934">
        <ele>218.84</ele>
        <time>2015-11-22T10:29:08Z</time>
      </trkpt>
      <trkpt lat="44.79028" lon="1.66931">
        <ele>219.32</ele>
        <time>2015-11-22T10:29:09Z</time>
      </trkpt>
      <trkpt lat="44.79027" lon="1.66927">
        <ele>219.32</ele>
        <time>2015-11-22T10:29:10Z</time>
      </trkpt>
      <trkpt lat="44.79026" lon="1.66923">
        <ele>219.32</ele>
        <time>2015-11-22T10:29:11Z</time>
      </trkpt>
      <trkpt lat="44.79026" lon="1.66918">
        <ele>219.32</ele>
        <time>2015-11-22T10:29:19Z</time>
      </trkpt>
      <trkpt lat="44.79023" lon="1.66914">
        <ele>219.32</ele>
        <time>2015-11-22T10:29:38Z</time>
      </trkpt>
      <trkpt lat="44.79023" lon="1.66915">
        <ele>219.32</ele>
        <time>2015-11-22T10:29:39Z</time>
      </trkpt>
      <trkpt lat="44.79021" lon="1.66919">
        <ele>219.32</ele>
        <time>2015-11-22T10:29:45Z</time>
      </trkpt>
      <trkpt lat="44.7902" lon="1.6692">
        <ele>219.8</ele>
        <time>2015-11-22T10:29:47Z</time>
      </trkpt>
      <trkpt lat="44.79017" lon="1.66921">
        <ele>219.8</ele>
        <time>2015-11-22T10:29:57Z</time>
      </trkpt>
      <trkpt lat="44.79015" lon="1.6692">
        <ele>219.8</ele>
        <time>2015-11-22T10:30:09Z</time>
      </trkpt>
      <trkpt lat="44.79017" lon="1.6692">
        <ele>219.8</ele>
        <time>2015-11-22T10:30:18Z</time>
      </trkpt>
      <trkpt lat="44.79017" lon="1.6692">
        <ele>219.8</ele>
        <time>2015-11-22T10:30:24Z</time>
      </trkpt>
      <trkpt lat="44.79017" lon="1.66917">
        <ele>220.28</ele>
        <time>2015-11-22T10:30:34Z</time>
      </trkpt>
      <trkpt lat="44.79017" lon="1.66921">
        <ele>221.72</ele>
        <time>2015-11-22T10:30:43Z</time>
      </trkpt>
      <trkpt lat="44.79018" lon="1.66922">
        <ele>221.72</ele>
        <time>2015-11-22T10:30:44Z</time>
      </trkpt>
      <trkpt lat="44.79023" lon="1.66923">
        <ele>222.68</ele>
        <time>2015-11-22T10:30:54Z</time>
      </trkpt>
      <trkpt lat="44.79022" lon="1.66924">
        <ele>223.16</ele>
        <time>2015-11-22T10:31:02Z</time>
      </trkpt>
      <trkpt lat="44.79021" lon="1.66927">
        <ele>223.64</ele>
        <time>2015-11-22T10:31:12Z</time>
      </trkpt>
      <trkpt lat="44.7902" lon="1.66929">
        <ele>223.64</ele>
        <time>2015-11-22T10:31:14Z</time>
      </trkpt>
      <trkpt lat="44.79018" lon="1.66931">
        <ele>224.12</ele>
        <time>2015-11-22T10:31:17Z</time>
      </trkpt>
      <trkpt lat="44.79016" lon="1.66932">
        <ele>224.12</ele>
        <time>2015-11-22T10:31:20Z</time>
      </trkpt>
      <trkpt lat="44.79013" lon="1.66937">
        <ele>224.12</ele>
        <time>2015-11-22T10:31:24Z</time>
      </trkpt>
      <trkpt lat="44.79011" lon="1.66939">
        <ele>224.61</ele>
        <time>2015-11-22T10:31:27Z</time>
      </trkpt>
      <trkpt lat="44.79014" lon="1.66948">
        <ele>225.57</ele>
        <time>2015-11-22T10:31:38Z</time>
      </trkpt>
      <trkpt lat="44.79012" lon="1.6695">
        <ele>226.05</ele>
        <time>2015-11-22T10:32:02Z</time>
      </trkpt>
      <trkpt lat="44.79012" lon="1.6695">
        <ele>226.05</ele>
        <time>2015-11-22T10:32:20Z</time>
      </trkpt>
      <trkpt lat="44.79012" lon="1.66951">
        <ele>226.05</ele>
        <time>2015-11-22T10:32:33Z</time>
      </trkpt>
      <trkpt lat="44.79018" lon="1.66947">
        <ele>226.05</ele>
        <time>2015-11-22T10:32:44Z</time>
      </trkpt>
      <trkpt lat="44.79022" lon="1.6695">
        <ele>226.05</ele>
        <time>2015-11-22T10:32:55Z</time>
      </trkpt>
      <trkpt lat="44.79022" lon="1.66949">
        <ele>225.09</ele>
        <time>2015-11-22T10:33:11Z</time>
      </trkpt>
      <trkpt lat="44.79023" lon="1.66951">
        <ele>225.09</ele>
        <time>2015-11-22T10:33:27Z</time>
      </trkpt>
      <trkpt lat="44.79023" lon="1.66952">
        <ele>225.09</ele>
        <time>2015-11-22T10:33:40Z</time>
      </trkpt>
      <trkpt lat="44.79023" lon="1.66952">
        <ele>225.09</ele>
        <time>2015-11-22T10:33:59Z</time>
      </trkpt>
      <trkpt lat="44.79024" lon="1.66954">
        <ele>225.09</ele>
        <time>2015-11-22T10:34:13Z</time>
      </trkpt>
      <trkpt lat="44.79024" lon="1.66954">
        <ele>225.09</ele>
        <time>2015-11-22T10:34:30Z</time>
      </trkpt>
      <trkpt lat="44.79023" lon="1.66953">
        <ele>224.61</ele>
        <time>2015-11-22T10:34:45Z</time>
      </trkpt>
      <trkpt lat="44.79024" lon="1.66955">
        <ele>224.61</ele>
        <time>2015-11-22T10:34:53Z</time>
      </trkpt>
      <trkpt lat="44.79023" lon="1.66956">
        <ele>224.61</ele>
        <time>2015-11-22T10:35:12Z</time>
      </trkpt>
      <trkpt lat="44.79024" lon="1.66956">
        <ele>224.61</ele>
        <time>2015-11-22T10:35:29Z</time>
      </trkpt>
      <trkpt lat="44.79024" lon="1.66954">
        <ele>224.61</ele>
        <time>2015-11-22T10:35:42Z</time>
      </trkpt>
      <trkpt lat="44.79025" lon="1.66954">
        <ele>224.61</ele>
        <time>2015-11-22T10:35:58Z</time>
      </trkpt>
      <trkpt lat="44.79025" lon="1.66957">
        <ele>224.61</ele>
        <time>2015-11-22T10:36:17Z</time>
      </trkpt>
      <trkpt lat="44.79027" lon="1.66958">
        <ele>224.12</ele>
        <time>2015-11-22T10:36:36Z</time>
      </trkpt>
      <trkpt lat="44.79027" lon="1.66955">
        <ele>224.12</ele>
        <time>2015-11-22T10:36:57Z</time>
      </trkpt>
      <trkpt lat="44.79027" lon="1.66956">
        <ele>224.12</ele>
        <time>2015-11-22T10:37:10Z</time>
      </trkpt>
      <trkpt lat="44.79028" lon="1.66959">
        <ele>224.12</ele>
        <time>2015-11-22T10:37:28Z</time>
      </trkpt>
      <trkpt lat="44.79027" lon="1.66962">
        <ele>224.12</ele>
        <time>2015-11-22T10:37:31Z</time>
      </trkpt>
      <trkpt lat="44.79026" lon="1.66963">
        <ele>224.12</ele>
        <time>2015-11-22T10:37:33Z</time>
      </trkpt>
      <trkpt lat="44.79025" lon="1.66965">
        <ele>224.12</ele>
        <time>2015-11-22T10:37:39Z</time>
      </trkpt>
      <trkpt lat="44.79023" lon="1.66963">
        <ele>223.64</ele>
        <time>2015-11-22T10:37:51Z</time>
      </trkpt>
      <trkpt lat="44.79022" lon="1.66961">
        <ele>223.64</ele>
        <time>2015-11-22T10:38:02Z</time>
      </trkpt>
      <trkpt lat="44.7902" lon="1.66967">
        <ele>223.64</ele>
        <time>2015-11-22T10:38:06Z</time>
      </trkpt>
      <trkpt lat="44.7902" lon="1.66972">
        <ele>225.09</ele>
        <time>2015-11-22T10:38:09Z</time>
      </trkpt>
      <trkpt lat="44.7902" lon="1.66975">
        <ele>225.09</ele>
        <time>2015-11-22T10:38:10Z</time>
      </trkpt>
      <trkpt lat="44.7902" lon="1.66978">
        <ele>225.09</ele>
        <time>2015-11-22T10:38:11Z</time>
      </trkpt>
      <trkpt lat="44.79019" lon="1.6698">
        <ele>225.09</ele>
        <time>2015-11-22T10:38:12Z</time>
      </trkpt>
      <trkpt lat="44.79019" lon="1.66983">
        <ele>225.09</ele>
        <time>2015-11-22T10:38:13Z</time>
      </trkpt>
      <trkpt lat="44.79019" lon="1.66986">
        <ele>225.09</ele>
        <time>2015-11-22T10:38:14Z</time>
      </trkpt>
      <trkpt lat="44.79019" lon="1.66989">
        <ele>225.09</ele>
        <time>2015-11-22T10:38:15Z</time>
      </trkpt>
      <trkpt lat="44.79019" lon="1.66991">
        <ele>225.09</ele>
        <time>2015-11-22T10:38:16Z</time>
      </trkpt>
      <trkpt lat="44.79018" lon="1.66992">
        <ele>225.09</ele>
        <time>2015-11-22T10:38:17Z</time>
      </trkpt>
      <trkpt lat="44.79018" lon="1.66993">
        <ele>226.05</ele>
        <time>2015-11-22T10:38:18Z</time>
      </trkpt>
      <trkpt lat="44.79017" lon="1.66993">
        <ele>226.05</ele>
        <time>2015-11-22T10:38:19Z</time>
      </trkpt>
      <trkpt lat="44.79016" lon="1.66995">
        <ele>226.05</ele>
        <time>2015-11-22T10:38:20Z</time>
      </trkpt>
      <trkpt lat="44.79015" lon="1.66996">
        <ele>226.05</ele>
        <time>2015-11-22T10:38:21Z</time>
      </trkpt>
      <trkpt lat="44.79014" lon="1.66998">
        <ele>226.05</ele>
        <time>2015-11-22T10:38:22Z</time>
      </trkpt>
      <trkpt lat="44.79012" lon="1.66998">
        <ele>226.05</ele>
        <time>2015-11-22T10:38:23Z</time>
      </trkpt>
      <trkpt lat="44.79011" lon="1.66998">
        <ele>227.01</ele>
        <time>2015-11-22T10:38:24Z</time>
      </trkpt>
      <trkpt lat="44.7901" lon="1.66999">
        <ele>227.01</ele>
        <time>2015-11-22T10:38:25Z</time>
      </trkpt>
      <trkpt lat="44.79008" lon="1.67001">
        <ele>227.49</ele>
        <time>2015-11-22T10:38:26Z</time>
      </trkpt>
      <trkpt lat="44.79007" lon="1.67003">
        <ele>227.49</ele>
        <time>2015-11-22T10:38:27Z</time>
      </trkpt>
      <trkpt lat="44.79003" lon="1.67012">
        <ele>229.41</ele>
        <time>2015-11-22T10:38:32Z</time>
      </trkpt>
      <trkpt lat="44.79002" lon="1.67013">
        <ele>229.41</ele>
        <time>2015-11-22T10:38:33Z</time>
      </trkpt>
      <trkpt lat="44.79002" lon="1.67014">
        <ele>228.93</ele>
        <time>2015-11-22T10:38:34Z</time>
      </trkpt>
      <trkpt lat="44.79002" lon="1.67016">
        <ele>228.93</ele>
        <time>2015-11-22T10:38:35Z</time>
      </trkpt>
      <trkpt lat="44.79001" lon="1.67018">
        <ele>228.93</ele>
        <time>2015-11-22T10:38:36Z</time>
      </trkpt>
      <trkpt lat="44.79001" lon="1.6702">
        <ele>228.93</ele>
        <time>2015-11-22T10:38:37Z</time>
      </trkpt>
      <trkpt lat="44.79" lon="1.67022">
        <ele>228.93</ele>
        <time>2015-11-22T10:38:38Z</time>
      </trkpt>
      <trkpt lat="44.79" lon="1.67026">
        <ele>228.93</ele>
        <time>2015-11-22T10:38:40Z</time>
      </trkpt>
      <trkpt lat="44.79" lon="1.67028">
        <ele>228.93</ele>
        <time>2015-11-22T10:38:41Z</time>
      </trkpt>
      <trkpt lat="44.79" lon="1.6703">
        <ele>228.93</ele>
        <time>2015-11-22T10:38:42Z</time>
      </trkpt>
      <trkpt lat="44.79" lon="1.67032">
        <ele>228.93</ele>
        <time>2015-11-22T10:38:43Z</time>
      </trkpt>
      <trkpt lat="44.79" lon="1.67034">
        <ele>228.93</ele>
        <time>2015-11-22T10:38:44Z</time>
      </trkpt>
      <trkpt lat="44.79001" lon="1.67035">
        <ele>228.93</ele>
        <time>2015-11-22T10:38:45Z</time>
      </trkpt>
      <trkpt lat="44.79" lon="1.67037">
        <ele>228.93</ele>
        <time>2015-11-22T10:38:46Z</time>
      </trkpt>
      <trkpt lat="44.79" lon="1.67039">
        <ele>229.89</ele>
        <time>2015-11-22T10:38:47Z</time>
      </trkpt>
      <trkpt lat="44.79" lon="1.67041">
        <ele>229.89</ele>
        <time>2015-11-22T10:38:48Z</time>
      </trkpt>
      <trkpt lat="44.78999" lon="1.67063">
        <ele>229.89</ele>
        <time>2015-11-22T10:38:58Z</time>
      </trkpt>
      <trkpt lat="44.78998" lon="1.67073">
        <ele>230.85</ele>
        <time>2015-11-22T10:39:05Z</time>
      </trkpt>
      <trkpt lat="44.78998" lon="1.67075">
        <ele>230.85</ele>
        <time>2015-11-22T10:39:06Z</time>
      </trkpt>
      <trkpt lat="44.78998" lon="1.67077">
        <ele>230.85</ele>
        <time>2015-11-22T10:39:07Z</time>
      </trkpt>
      <trkpt lat="44.78993" lon="1.671">
        <ele>231.81</ele>
        <time>2015-11-22T10:39:18Z</time>
      </trkpt>
      <trkpt lat="44.78992" lon="1.67102">
        <ele>232.3</ele>
        <time>2015-11-22T10:39:19Z</time>
      </trkpt>
      <trkpt lat="44.78992" lon="1.67104">
        <ele>232.3</ele>
        <time>2015-11-22T10:39:20Z</time>
      </trkpt>
      <trkpt lat="44.78991" lon="1.67106">
        <ele>232.3</ele>
        <time>2015-11-22T10:39:21Z</time>
      </trkpt>
      <trkpt lat="44.78991" lon="1.67109">
        <ele>232.3</ele>
        <time>2015-11-22T10:39:22Z</time>
      </trkpt>
      <trkpt lat="44.7899" lon="1.67111">
        <ele>232.3</ele>
        <time>2015-11-22T10:39:23Z</time>
      </trkpt>
      <trkpt lat="44.78985" lon="1.67131">
        <ele>232.78</ele>
        <time>2015-11-22T10:39:32Z</time>
      </trkpt>
      <trkpt lat="44.78981" lon="1.67148">
        <ele>233.26</ele>
        <time>2015-11-22T10:39:41Z</time>
      </trkpt>
      <trkpt lat="44.78981" lon="1.6715">
        <ele>233.26</ele>
        <time>2015-11-22T10:39:42Z</time>
      </trkpt>
      <trkpt lat="44.7898" lon="1.67153">
        <ele>233.74</ele>
        <time>2015-11-22T10:39:44Z</time>
      </trkpt>
      <trkpt lat="44.78978" lon="1.67177">
        <ele>235.18</ele>
        <time>2015-11-22T10:39:55Z</time>
      </trkpt>
      <trkpt lat="44.78979" lon="1.67189">
        <ele>238.54</ele>
        <time>2015-11-22T10:40:01Z</time>
      </trkpt>
      <trkpt lat="44.78979" lon="1.67197">
        <ele>241.43</ele>
        <time>2015-11-22T10:40:06Z</time>
      </trkpt>
      <trkpt lat="44.78981" lon="1.6721">
        <ele>241.91</ele>
        <time>2015-11-22T10:40:16Z</time>
      </trkpt>
      <trkpt lat="44.7898" lon="1.67216">
        <ele>241.91</ele>
        <time>2015-11-22T10:40:20Z</time>
      </trkpt>
      <trkpt lat="44.7898" lon="1.67217">
        <ele>241.91</ele>
        <time>2015-11-22T10:40:22Z</time>
      </trkpt>
      <trkpt lat="44.7898" lon="1.67219">
        <ele>241.91</ele>
        <time>2015-11-22T10:40:23Z</time>
      </trkpt>
      <trkpt lat="44.78974" lon="1.67232">
        <ele>239.02</ele>
        <time>2015-11-22T10:40:31Z</time>
      </trkpt>
      <trkpt lat="44.78968" lon="1.67243">
        <ele>236.62</ele>
        <time>2015-11-22T10:40:38Z</time>
      </trkpt>
      <trkpt lat="44.78967" lon="1.67245">
        <ele>235.66</ele>
        <time>2015-11-22T10:40:39Z</time>
      </trkpt>
      <trkpt lat="44.78967" lon="1.67247">
        <ele>236.14</ele>
        <time>2015-11-22T10:40:40Z</time>
      </trkpt>
      <trkpt lat="44.78967" lon="1.67251">
        <ele>236.14</ele>
        <time>2015-11-22T10:40:42Z</time>
      </trkpt>
      <trkpt lat="44.78966" lon="1.67253">
        <ele>236.14</ele>
        <time>2015-11-22T10:40:43Z</time>
      </trkpt>
      <trkpt lat="44.78966" lon="1.67255">
        <ele>236.14</ele>
        <time>2015-11-22T10:40:44Z</time>
      </trkpt>
      <trkpt lat="44.78964" lon="1.67261">
        <ele>236.14</ele>
        <time>2015-11-22T10:40:48Z</time>
      </trkpt>
      <trkpt lat="44.78964" lon="1.67262">
        <ele>236.14</ele>
        <time>2015-11-22T10:40:49Z</time>
      </trkpt>
      <trkpt lat="44.78961" lon="1.67276">
        <ele>236.14</ele>
        <time>2015-11-22T10:40:56Z</time>
      </trkpt>
      <trkpt lat="44.7896" lon="1.6728">
        <ele>236.14</ele>
        <time>2015-11-22T10:40:58Z</time>
      </trkpt>
      <trkpt lat="44.7896" lon="1.67282">
        <ele>235.66</ele>
        <time>2015-11-22T10:40:59Z</time>
      </trkpt>
      <trkpt lat="44.7896" lon="1.67285">
        <ele>235.66</ele>
        <time>2015-11-22T10:41:00Z</time>
      </trkpt>
      <trkpt lat="44.7896" lon="1.67287">
        <ele>235.18</ele>
        <time>2015-11-22T10:41:01Z</time>
      </trkpt>
      <trkpt lat="44.7896" lon="1.6729">
        <ele>235.18</ele>
        <time>2015-11-22T10:41:02Z</time>
      </trkpt>
      <trkpt lat="44.7896" lon="1.67293">
        <ele>234.7</ele>
        <time>2015-11-22T10:41:03Z</time>
      </trkpt>
      <trkpt lat="44.78959" lon="1.67295">
        <ele>234.7</ele>
        <time>2015-11-22T10:41:04Z</time>
      </trkpt>
      <trkpt lat="44.78959" lon="1.67298">
        <ele>234.7</ele>
        <time>2015-11-22T10:41:06Z</time>
      </trkpt>
      <trkpt lat="44.78959" lon="1.67301">
        <ele>234.7</ele>
        <time>2015-11-22T10:41:07Z</time>
      </trkpt>
      <trkpt lat="44.78958" lon="1.67303">
        <ele>234.7</ele>
        <time>2015-11-22T10:41:08Z</time>
      </trkpt>
      <trkpt lat="44.78953" lon="1.67307">
        <ele>234.7</ele>
        <time>2015-11-22T10:41:13Z</time>
      </trkpt>
      <trkpt lat="44.78952" lon="1.67307">
        <ele>234.7</ele>
        <time>2015-11-22T10:41:14Z</time>
      </trkpt>
      <trkpt lat="44.7895" lon="1.67307">
        <ele>234.7</ele>
        <time>2015-11-22T10:41:15Z</time>
      </trkpt>
      <trkpt lat="44.7895" lon="1.67309">
        <ele>234.7</ele>
        <time>2015-11-22T10:41:16Z</time>
      </trkpt>
      <trkpt lat="44.78949" lon="1.67312">
        <ele>234.7</ele>
        <time>2015-11-22T10:41:17Z</time>
      </trkpt>
      <trkpt lat="44.78948" lon="1.67314">
        <ele>234.7</ele>
        <time>2015-11-22T10:41:18Z</time>
      </trkpt>
      <trkpt lat="44.78947" lon="1.67316">
        <ele>234.7</ele>
        <time>2015-11-22T10:41:19Z</time>
      </trkpt>
      <trkpt lat="44.78948" lon="1.67325">
        <ele>234.7</ele>
        <time>2015-11-22T10:41:21Z</time>
      </trkpt>
      <trkpt lat="44.78947" lon="1.67327">
        <ele>234.7</ele>
        <time>2015-11-22T10:41:22Z</time>
      </trkpt>
      <trkpt lat="44.78946" lon="1.67329">
        <ele>234.7</ele>
        <time>2015-11-22T10:41:23Z</time>
      </trkpt>
      <trkpt lat="44.78946" lon="1.67333">
        <ele>234.7</ele>
        <time>2015-11-22T10:41:25Z</time>
      </trkpt>
      <trkpt lat="44.78945" lon="1.67337">
        <ele>234.7</ele>
        <time>2015-11-22T10:41:27Z</time>
      </trkpt>
      <trkpt lat="44.78946" lon="1.6736">
        <ele>236.62</ele>
        <time>2015-11-22T10:41:36Z</time>
      </trkpt>
      <trkpt lat="44.78945" lon="1.67363">
        <ele>236.62</ele>
        <time>2015-11-22T10:41:37Z</time>
      </trkpt>
      <trkpt lat="44.78946" lon="1.67366">
        <ele>236.62</ele>
        <time>2015-11-22T10:41:38Z</time>
      </trkpt>
      <trkpt lat="44.78945" lon="1.67371">
        <ele>237.1</ele>
        <time>2015-11-22T10:41:40Z</time>
      </trkpt>
      <trkpt lat="44.78942" lon="1.67389">
        <ele>239.02</ele>
        <time>2015-11-22T10:41:48Z</time>
      </trkpt>
      <trkpt lat="44.78941" lon="1.67392">
        <ele>239.51</ele>
        <time>2015-11-22T10:41:50Z</time>
      </trkpt>
      <trkpt lat="44.78938" lon="1.67402">
        <ele>242.87</ele>
        <time>2015-11-22T10:41:56Z</time>
      </trkpt>
      <trkpt lat="44.78932" lon="1.67411">
        <ele>246.72</ele>
        <time>2015-11-22T10:42:03Z</time>
      </trkpt>
      <trkpt lat="44.7893" lon="1.67416">
        <ele>247.68</ele>
        <time>2015-11-22T10:42:07Z</time>
      </trkpt>
      <trkpt lat="44.78923" lon="1.67433">
        <ele>250.08</ele>
        <time>2015-11-22T10:42:20Z</time>
      </trkpt>
      <trkpt lat="44.78923" lon="1.67436">
        <ele>250.56</ele>
        <time>2015-11-22T10:42:23Z</time>
      </trkpt>
      <trkpt lat="44.78927" lon="1.67445">
        <ele>252</ele>
        <time>2015-11-22T10:42:31Z</time>
      </trkpt>
      <trkpt lat="44.78928" lon="1.6745">
        <ele>254.89</ele>
        <time>2015-11-22T10:42:35Z</time>
      </trkpt>
      <trkpt lat="44.7892" lon="1.67462">
        <ele>257.29</ele>
        <time>2015-11-22T10:42:46Z</time>
      </trkpt>
      <trkpt lat="44.78916" lon="1.67464">
        <ele>257.29</ele>
        <time>2015-11-22T10:43:02Z</time>
      </trkpt>
      <trkpt lat="44.78908" lon="1.67454">
        <ele>257.77</ele>
        <time>2015-11-22T10:43:15Z</time>
      </trkpt>
      <trkpt lat="44.78899" lon="1.67449">
        <ele>260.17</ele>
        <time>2015-11-22T10:43:28Z</time>
      </trkpt>
      <trkpt lat="44.78895" lon="1.67454">
        <ele>262.58</ele>
        <time>2015-11-22T10:43:34Z</time>
      </trkpt>
      <trkpt lat="44.78891" lon="1.67454">
        <ele>266.42</ele>
        <time>2015-11-22T10:43:38Z</time>
      </trkpt>
      <trkpt lat="44.7889" lon="1.67451">
        <ele>268.83</ele>
        <time>2015-11-22T10:43:42Z</time>
      </trkpt>
      <trkpt lat="44.78892" lon="1.67429">
        <ele>268.35</ele>
        <time>2015-11-22T10:43:56Z</time>
      </trkpt>
      <trkpt lat="44.78894" lon="1.67421">
        <ele>268.83</ele>
        <time>2015-11-22T10:44:01Z</time>
      </trkpt>
      <trkpt lat="44.78895" lon="1.67413">
        <ele>269.31</ele>
        <time>2015-11-22T10:44:06Z</time>
      </trkpt>
      <trkpt lat="44.78899" lon="1.67404">
        <ele>269.79</ele>
        <time>2015-11-22T10:44:11Z</time>
      </trkpt>
      <trkpt lat="44.78907" lon="1.67379">
        <ele>271.71</ele>
        <time>2015-11-22T10:44:26Z</time>
      </trkpt>
      <trkpt lat="44.78907" lon="1.67373">
        <ele>271.71</ele>
        <time>2015-11-22T10:44:29Z</time>
      </trkpt>
      <trkpt lat="44.78907" lon="1.67366">
        <ele>272.67</ele>
        <time>2015-11-22T10:44:33Z</time>
      </trkpt>
      <trkpt lat="44.78908" lon="1.67358">
        <ele>273.63</ele>
        <time>2015-11-22T10:44:38Z</time>
      </trkpt>
      <trkpt lat="44.78909" lon="1.67355">
        <ele>273.63</ele>
        <time>2015-11-22T10:44:40Z</time>
      </trkpt>
      <trkpt lat="44.78909" lon="1.67344">
        <ele>274.59</ele>
        <time>2015-11-22T10:44:47Z</time>
      </trkpt>
      <trkpt lat="44.78903" lon="1.67344">
        <ele>276.52</ele>
        <time>2015-11-22T10:44:56Z</time>
      </trkpt>
      <trkpt lat="44.78893" lon="1.67354">
        <ele>277.96</ele>
        <time>2015-11-22T10:45:06Z</time>
      </trkpt>
      <trkpt lat="44.78892" lon="1.67356">
        <ele>278.44</ele>
        <time>2015-11-22T10:45:08Z</time>
      </trkpt>
      <trkpt lat="44.78877" lon="1.6736">
        <ele>280.84</ele>
        <time>2015-11-22T10:45:20Z</time>
      </trkpt>
      <trkpt lat="44.78874" lon="1.67359">
        <ele>280.84</ele>
        <time>2015-11-22T10:45:22Z</time>
      </trkpt>
      <trkpt lat="44.78871" lon="1.67353">
        <ele>282.28</ele>
        <time>2015-11-22T10:45:26Z</time>
      </trkpt>
      <trkpt lat="44.78873" lon="1.67347">
        <ele>283.73</ele>
        <time>2015-11-22T10:45:37Z</time>
      </trkpt>
      <trkpt lat="44.78873" lon="1.67344">
        <ele>283.73</ele>
        <time>2015-11-22T10:45:54Z</time>
      </trkpt>
      <trkpt lat="44.78876" lon="1.67337">
        <ele>283.73</ele>
        <time>2015-11-22T10:46:06Z</time>
      </trkpt>
      <trkpt lat="44.78877" lon="1.67335">
        <ele>283.73</ele>
        <time>2015-11-22T10:46:08Z</time>
      </trkpt>
      <trkpt lat="44.78874" lon="1.6733">
        <ele>283.73</ele>
        <time>2015-11-22T10:46:15Z</time>
      </trkpt>
      <trkpt lat="44.78875" lon="1.6732">
        <ele>284.21</ele>
        <time>2015-11-22T10:46:28Z</time>
      </trkpt>
      <trkpt lat="44.78875" lon="1.67317">
        <ele>284.69</ele>
        <time>2015-11-22T10:46:39Z</time>
      </trkpt>
      <trkpt lat="44.78874" lon="1.67318">
        <ele>284.69</ele>
        <time>2015-11-22T10:46:55Z</time>
      </trkpt>
      <trkpt lat="44.78874" lon="1.67318">
        <ele>284.69</ele>
        <time>2015-11-22T10:47:01Z</time>
      </trkpt>
      <trkpt lat="44.78873" lon="1.67321">
        <ele>284.69</ele>
        <time>2015-11-22T10:47:12Z</time>
      </trkpt>
      <trkpt lat="44.78874" lon="1.67321">
        <ele>284.69</ele>
        <time>2015-11-22T10:47:36Z</time>
      </trkpt>
      <trkpt lat="44.78873" lon="1.67322">
        <ele>284.69</ele>
        <time>2015-11-22T10:47:52Z</time>
      </trkpt>
      <trkpt lat="44.78873" lon="1.67322">
        <ele>284.69</ele>
        <time>2015-11-22T10:48:12Z</time>
      </trkpt>
      <trkpt lat="44.78874" lon="1.67322">
        <ele>284.21</ele>
        <time>2015-11-22T10:48:42Z</time>
      </trkpt>
      <trkpt lat="44.78873" lon="1.67322">
        <ele>284.21</ele>
        <time>2015-11-22T10:48:56Z</time>
      </trkpt>
      <trkpt lat="44.78874" lon="1.67322">
        <ele>284.21</ele>
        <time>2015-11-22T10:49:20Z</time>
      </trkpt>
      <trkpt lat="44.78874" lon="1.67317">
        <ele>284.21</ele>
        <time>2015-11-22T10:49:35Z</time>
      </trkpt>
      <trkpt lat="44.78875" lon="1.67318">
        <ele>283.73</ele>
        <time>2015-11-22T10:49:47Z</time>
      </trkpt>
      <trkpt lat="44.78875" lon="1.67317">
        <ele>283.73</ele>
        <time>2015-11-22T10:50:09Z</time>
      </trkpt>
      <trkpt lat="44.78875" lon="1.67317">
        <ele>284.21</ele>
        <time>2015-11-22T10:50:21Z</time>
      </trkpt>
      <trkpt lat="44.78875" lon="1.67317">
        <ele>284.21</ele>
        <time>2015-11-22T10:50:38Z</time>
      </trkpt>
      <trkpt lat="44.78876" lon="1.67319">
        <ele>284.21</ele>
        <time>2015-11-22T10:51:01Z</time>
      </trkpt>
      <trkpt lat="44.78874" lon="1.6732">
        <ele>284.21</ele>
        <time>2015-11-22T10:51:14Z</time>
      </trkpt>
      <trkpt lat="44.78873" lon="1.67319">
        <ele>283.73</ele>
        <time>2015-11-22T10:51:33Z</time>
      </trkpt>
      <trkpt lat="44.78872" lon="1.67318">
        <ele>283.73</ele>
        <time>2015-11-22T10:51:53Z</time>
      </trkpt>
      <trkpt lat="44.78873" lon="1.67317">
        <ele>283.73</ele>
        <time>2015-11-22T10:52:12Z</time>
      </trkpt>
      <trkpt lat="44.78876" lon="1.67317">
        <ele>283.73</ele>
        <time>2015-11-22T10:52:38Z</time>
      </trkpt>
      <trkpt lat="44.78876" lon="1.67315">
        <ele>283.73</ele>
        <time>2015-11-22T10:52:43Z</time>
      </trkpt>
      <trkpt lat="44.78878" lon="1.67293">
        <ele>283.73</ele>
        <time>2015-11-22T10:52:57Z</time>
      </trkpt>
      <trkpt lat="44.78881" lon="1.6728">
        <ele>283.73</ele>
        <time>2015-11-22T10:53:03Z</time>
      </trkpt>
      <trkpt lat="44.78886" lon="1.67253">
        <ele>283.73</ele>
        <time>2015-11-22T10:53:16Z</time>
      </trkpt>
      <trkpt lat="44.78889" lon="1.67226">
        <ele>282.28</ele>
        <time>2015-11-22T10:53:28Z</time>
      </trkpt>
      <trkpt lat="44.78894" lon="1.6719">
        <ele>281.32</ele>
        <time>2015-11-22T10:53:44Z</time>
      </trkpt>
      <trkpt lat="44.78901" lon="1.67169">
        <ele>281.32</ele>
        <time>2015-11-22T10:53:54Z</time>
      </trkpt>
      <trkpt lat="44.78901" lon="1.67167">
        <ele>280.36</ele>
        <time>2015-11-22T10:53:55Z</time>
      </trkpt>
      <trkpt lat="44.78902" lon="1.67165">
        <ele>280.36</ele>
        <time>2015-11-22T10:53:56Z</time>
      </trkpt>
      <trkpt lat="44.78901" lon="1.67156">
        <ele>277.96</ele>
        <time>2015-11-22T10:54:01Z</time>
      </trkpt>
      <trkpt lat="44.78901" lon="1.67155">
        <ele>277.48</ele>
        <time>2015-11-22T10:54:02Z</time>
      </trkpt>
      <trkpt lat="44.789" lon="1.67153">
        <ele>277</ele>
        <time>2015-11-22T10:54:03Z</time>
      </trkpt>
      <trkpt lat="44.789" lon="1.67151">
        <ele>277</ele>
        <time>2015-11-22T10:54:04Z</time>
      </trkpt>
      <trkpt lat="44.789" lon="1.67149">
        <ele>276.04</ele>
        <time>2015-11-22T10:54:05Z</time>
      </trkpt>
      <trkpt lat="44.78901" lon="1.67146">
        <ele>276.04</ele>
        <time>2015-11-22T10:54:06Z</time>
      </trkpt>
      <trkpt lat="44.78902" lon="1.67143">
        <ele>276.04</ele>
        <time>2015-11-22T10:54:08Z</time>
      </trkpt>
      <trkpt lat="44.78903" lon="1.67141">
        <ele>274.59</ele>
        <time>2015-11-22T10:54:09Z</time>
      </trkpt>
      <trkpt lat="44.78903" lon="1.67138">
        <ele>275.07</ele>
        <time>2015-11-22T10:54:10Z</time>
      </trkpt>
      <trkpt lat="44.78903" lon="1.67135">
        <ele>275.07</ele>
        <time>2015-11-22T10:54:11Z</time>
      </trkpt>
      <trkpt lat="44.78903" lon="1.67132">
        <ele>275.07</ele>
        <time>2015-11-22T10:54:12Z</time>
      </trkpt>
      <trkpt lat="44.78903" lon="1.6713">
        <ele>275.07</ele>
        <time>2015-11-22T10:54:13Z</time>
      </trkpt>
      <trkpt lat="44.78904" lon="1.67127">
        <ele>275.07</ele>
        <time>2015-11-22T10:54:14Z</time>
      </trkpt>
      <trkpt lat="44.78904" lon="1.67124">
        <ele>275.07</ele>
        <time>2015-11-22T10:54:15Z</time>
      </trkpt>
      <trkpt lat="44.78908" lon="1.67109">
        <ele>275.07</ele>
        <time>2015-11-22T10:54:22Z</time>
      </trkpt>
      <trkpt lat="44.78911" lon="1.67079">
        <ele>275.07</ele>
        <time>2015-11-22T10:54:36Z</time>
      </trkpt>
      <trkpt lat="44.78914" lon="1.67051">
        <ele>277.96</ele>
        <time>2015-11-22T10:54:49Z</time>
      </trkpt>
      <trkpt lat="44.78914" lon="1.67032">
        <ele>280.36</ele>
        <time>2015-11-22T10:54:59Z</time>
      </trkpt>
      <trkpt lat="44.78914" lon="1.6703">
        <ele>280.36</ele>
        <time>2015-11-22T10:55:00Z</time>
      </trkpt>
      <trkpt lat="44.78913" lon="1.67028">
        <ele>280.36</ele>
        <time>2015-11-22T10:55:01Z</time>
      </trkpt>
      <trkpt lat="44.78913" lon="1.67026">
        <ele>280.36</ele>
        <time>2015-11-22T10:55:02Z</time>
      </trkpt>
      <trkpt lat="44.78912" lon="1.67024">
        <ele>280.36</ele>
        <time>2015-11-22T10:55:03Z</time>
      </trkpt>
      <trkpt lat="44.78912" lon="1.67022">
        <ele>280.36</ele>
        <time>2015-11-22T10:55:04Z</time>
      </trkpt>
      <trkpt lat="44.78912" lon="1.67019">
        <ele>280.36</ele>
        <time>2015-11-22T10:55:05Z</time>
      </trkpt>
      <trkpt lat="44.78911" lon="1.67017">
        <ele>280.36</ele>
        <time>2015-11-22T10:55:06Z</time>
      </trkpt>
      <trkpt lat="44.78911" lon="1.67015">
        <ele>280.36</ele>
        <time>2015-11-22T10:55:07Z</time>
      </trkpt>
      <trkpt lat="44.78912" lon="1.66992">
        <ele>281.32</ele>
        <time>2015-11-22T10:55:18Z</time>
      </trkpt>
      <trkpt lat="44.78912" lon="1.66983">
        <ele>281.8</ele>
        <time>2015-11-22T10:55:23Z</time>
      </trkpt>
      <trkpt lat="44.78911" lon="1.66981">
        <ele>281.8</ele>
        <time>2015-11-22T10:55:24Z</time>
      </trkpt>
      <trkpt lat="44.78911" lon="1.6698">
        <ele>281.8</ele>
        <time>2015-11-22T10:55:25Z</time>
      </trkpt>
      <trkpt lat="44.7891" lon="1.66978">
        <ele>282.28</ele>
        <time>2015-11-22T10:55:26Z</time>
      </trkpt>
      <trkpt lat="44.7891" lon="1.66976">
        <ele>282.28</ele>
        <time>2015-11-22T10:55:27Z</time>
      </trkpt>
      <trkpt lat="44.78909" lon="1.66953">
        <ele>283.73</ele>
        <time>2015-11-22T10:55:38Z</time>
      </trkpt>
      <trkpt lat="44.78916" lon="1.66933">
        <ele>284.21</ele>
        <time>2015-11-22T10:55:48Z</time>
      </trkpt>
      <trkpt lat="44.7892" lon="1.66919">
        <ele>284.69</ele>
        <time>2015-11-22T10:55:55Z</time>
      </trkpt>
      <trkpt lat="44.7892" lon="1.66917">
        <ele>284.69</ele>
        <time>2015-11-22T10:55:56Z</time>
      </trkpt>
      <trkpt lat="44.78921" lon="1.66913">
        <ele>284.69</ele>
        <time>2015-11-22T10:55:58Z</time>
      </trkpt>
      <trkpt lat="44.78922" lon="1.66906">
        <ele>284.69</ele>
        <time>2015-11-22T10:56:01Z</time>
      </trkpt>
      <trkpt lat="44.78923" lon="1.66905">
        <ele>285.17</ele>
        <time>2015-11-22T10:56:02Z</time>
      </trkpt>
      <trkpt lat="44.78924" lon="1.66902">
        <ele>285.17</ele>
        <time>2015-11-22T10:56:03Z</time>
      </trkpt>
      <trkpt lat="44.78928" lon="1.66879">
        <ele>285.17</ele>
        <time>2015-11-22T10:56:14Z</time>
      </trkpt>
      <trkpt lat="44.78929" lon="1.66877">
        <ele>285.17</ele>
        <time>2015-11-22T10:56:15Z</time>
      </trkpt>
      <trkpt lat="44.78929" lon="1.66875">
        <ele>285.17</ele>
        <time>2015-11-22T10:56:16Z</time>
      </trkpt>
      <trkpt lat="44.78932" lon="1.66861">
        <ele>285.17</ele>
        <time>2015-11-22T10:56:22Z</time>
      </trkpt>
      <trkpt lat="44.78935" lon="1.66853">
        <ele>283.73</ele>
        <time>2015-11-22T10:56:26Z</time>
      </trkpt>
      <trkpt lat="44.78935" lon="1.66852">
        <ele>283.73</ele>
        <time>2015-11-22T10:56:27Z</time>
      </trkpt>
      <trkpt lat="44.78936" lon="1.66849">
        <ele>283.73</ele>
        <time>2015-11-22T10:56:28Z</time>
      </trkpt>
      <trkpt lat="44.78936" lon="1.66847">
        <ele>283.73</ele>
        <time>2015-11-22T10:56:29Z</time>
      </trkpt>
      <trkpt lat="44.78937" lon="1.66845">
        <ele>283.73</ele>
        <time>2015-11-22T10:56:30Z</time>
      </trkpt>
      <trkpt lat="44.78937" lon="1.66843">
        <ele>283.73</ele>
        <time>2015-11-22T10:56:31Z</time>
      </trkpt>
      <trkpt lat="44.78939" lon="1.66838">
        <ele>282.77</ele>
        <time>2015-11-22T10:56:34Z</time>
      </trkpt>
      <trkpt lat="44.7894" lon="1.66836">
        <ele>282.77</ele>
        <time>2015-11-22T10:56:35Z</time>
      </trkpt>
      <trkpt lat="44.78941" lon="1.66834">
        <ele>282.77</ele>
        <time>2015-11-22T10:56:36Z</time>
      </trkpt>
      <trkpt lat="44.78942" lon="1.66833">
        <ele>282.77</ele>
        <time>2015-11-22T10:56:37Z</time>
      </trkpt>
      <trkpt lat="44.78944" lon="1.66831">
        <ele>282.77</ele>
        <time>2015-11-22T10:56:38Z</time>
      </trkpt>
      <trkpt lat="44.78955" lon="1.66812">
        <ele>282.28</ele>
        <time>2015-11-22T10:56:49Z</time>
      </trkpt>
      <trkpt lat="44.78956" lon="1.66811">
        <ele>282.28</ele>
        <time>2015-11-22T10:56:50Z</time>
      </trkpt>
      <trkpt lat="44.78963" lon="1.66802">
        <ele>282.28</ele>
        <time>2015-11-22T10:56:56Z</time>
      </trkpt>
      <trkpt lat="44.78968" lon="1.66802">
        <ele>282.28</ele>
        <time>2015-11-22T10:57:00Z</time>
      </trkpt>
      <trkpt lat="44.78969" lon="1.66803">
        <ele>282.28</ele>
        <time>2015-11-22T10:57:01Z</time>
      </trkpt>
      <trkpt lat="44.78979" lon="1.66813">
        <ele>281.32</ele>
        <time>2015-11-22T10:57:11Z</time>
      </trkpt>
      <trkpt lat="44.7898" lon="1.66812">
        <ele>280.36</ele>
        <time>2015-11-22T10:57:12Z</time>
      </trkpt>
      <trkpt lat="44.78982" lon="1.66812">
        <ele>280.36</ele>
        <time>2015-11-22T10:57:13Z</time>
      </trkpt>
      <trkpt lat="44.78985" lon="1.66813">
        <ele>279.88</ele>
        <time>2015-11-22T10:57:15Z</time>
      </trkpt>
      <trkpt lat="44.78986" lon="1.66813">
        <ele>279.88</ele>
        <time>2015-11-22T10:57:16Z</time>
      </trkpt>
      <trkpt lat="44.78998" lon="1.66816">
        <ele>279.88</ele>
        <time>2015-11-22T10:57:23Z</time>
      </trkpt>
      <trkpt lat="44.78999" lon="1.66816">
        <ele>279.88</ele>
        <time>2015-11-22T10:57:24Z</time>
      </trkpt>
      <trkpt lat="44.79003" lon="1.66816">
        <ele>279.88</ele>
        <time>2015-11-22T10:57:27Z</time>
      </trkpt>
      <trkpt lat="44.79005" lon="1.66816">
        <ele>279.88</ele>
        <time>2015-11-22T10:57:29Z</time>
      </trkpt>
      <trkpt lat="44.79006" lon="1.66815">
        <ele>279.4</ele>
        <time>2015-11-22T10:57:30Z</time>
      </trkpt>
      <trkpt lat="44.79008" lon="1.66815">
        <ele>279.4</ele>
        <time>2015-11-22T10:57:31Z</time>
      </trkpt>
      <trkpt lat="44.79009" lon="1.66816">
        <ele>279.4</ele>
        <time>2015-11-22T10:57:32Z</time>
      </trkpt>
      <trkpt lat="44.7901" lon="1.66816">
        <ele>279.4</ele>
        <time>2015-11-22T10:57:33Z</time>
      </trkpt>
      <trkpt lat="44.79012" lon="1.66816">
        <ele>279.4</ele>
        <time>2015-11-22T10:57:34Z</time>
      </trkpt>
      <trkpt lat="44.79013" lon="1.66816">
        <ele>279.4</ele>
        <time>2015-11-22T10:57:35Z</time>
      </trkpt>
      <trkpt lat="44.79015" lon="1.66816">
        <ele>279.4</ele>
        <time>2015-11-22T10:57:36Z</time>
      </trkpt>
      <trkpt lat="44.79017" lon="1.66816">
        <ele>279.4</ele>
        <time>2015-11-22T10:57:37Z</time>
      </trkpt>
      <trkpt lat="44.79018" lon="1.66816">
        <ele>279.4</ele>
        <time>2015-11-22T10:57:38Z</time>
      </trkpt>
      <trkpt lat="44.7902" lon="1.66815">
        <ele>279.4</ele>
        <time>2015-11-22T10:57:39Z</time>
      </trkpt>
      <trkpt lat="44.79021" lon="1.66814">
        <ele>279.4</ele>
        <time>2015-11-22T10:57:40Z</time>
      </trkpt>
      <trkpt lat="44.79023" lon="1.66814">
        <ele>279.4</ele>
        <time>2015-11-22T10:57:41Z</time>
      </trkpt>
      <trkpt lat="44.79025" lon="1.66814">
        <ele>279.4</ele>
        <time>2015-11-22T10:57:42Z</time>
      </trkpt>
      <trkpt lat="44.79026" lon="1.66813">
        <ele>279.4</ele>
        <time>2015-11-22T10:57:43Z</time>
      </trkpt>
      <trkpt lat="44.79027" lon="1.66812">
        <ele>279.4</ele>
        <time>2015-11-22T10:57:44Z</time>
      </trkpt>
      <trkpt lat="44.79029" lon="1.66811">
        <ele>279.4</ele>
        <time>2015-11-22T10:57:45Z</time>
      </trkpt>
      <trkpt lat="44.7903" lon="1.66811">
        <ele>279.4</ele>
        <time>2015-11-22T10:57:46Z</time>
      </trkpt>
      <trkpt lat="44.79031" lon="1.6681">
        <ele>279.4</ele>
        <time>2015-11-22T10:57:47Z</time>
      </trkpt>
      <trkpt lat="44.79032" lon="1.66809">
        <ele>279.4</ele>
        <time>2015-11-22T10:57:48Z</time>
      </trkpt>
      <trkpt lat="44.79034" lon="1.66808">
        <ele>279.4</ele>
        <time>2015-11-22T10:57:49Z</time>
      </trkpt>
      <trkpt lat="44.79049" lon="1.66796">
        <ele>280.84</ele>
        <time>2015-11-22T10:58:01Z</time>
      </trkpt>
      <trkpt lat="44.79057" lon="1.66788">
        <ele>281.32</ele>
        <time>2015-11-22T10:58:08Z</time>
      </trkpt>
      <trkpt lat="44.7907" lon="1.66791">
        <ele>281.32</ele>
        <time>2015-11-22T10:58:18Z</time>
      </trkpt>
      <trkpt lat="44.79071" lon="1.6679">
        <ele>281.32</ele>
        <time>2015-11-22T10:58:19Z</time>
      </trkpt>
      <trkpt lat="44.79072" lon="1.66789">
        <ele>281.32</ele>
        <time>2015-11-22T10:58:20Z</time>
      </trkpt>
      <trkpt lat="44.79073" lon="1.66788">
        <ele>281.32</ele>
        <time>2015-11-22T10:58:21Z</time>
      </trkpt>
      <trkpt lat="44.79074" lon="1.66786">
        <ele>281.32</ele>
        <time>2015-11-22T10:58:22Z</time>
      </trkpt>
      <trkpt lat="44.79075" lon="1.66785">
        <ele>281.32</ele>
        <time>2015-11-22T10:58:23Z</time>
      </trkpt>
      <trkpt lat="44.79075" lon="1.66783">
        <ele>281.32</ele>
        <time>2015-11-22T10:58:24Z</time>
      </trkpt>
      <trkpt lat="44.79076" lon="1.66783">
        <ele>281.32</ele>
        <time>2015-11-22T10:58:25Z</time>
      </trkpt>
      <trkpt lat="44.79078" lon="1.66782">
        <ele>281.32</ele>
        <time>2015-11-22T10:58:26Z</time>
      </trkpt>
      <trkpt lat="44.79081" lon="1.66781">
        <ele>281.32</ele>
        <time>2015-11-22T10:58:39Z</time>
      </trkpt>
      <trkpt lat="44.79081" lon="1.66781">
        <ele>281.8</ele>
        <time>2015-11-22T10:58:58Z</time>
      </trkpt>
      <trkpt lat="44.79081" lon="1.6678">
        <ele>281.8</ele>
        <time>2015-11-22T10:59:18Z</time>
      </trkpt>
      <trkpt lat="44.79081" lon="1.66781">
        <ele>281.32</ele>
        <time>2015-11-22T10:59:41Z</time>
      </trkpt>
      <trkpt lat="44.79081" lon="1.66781">
        <ele>281.32</ele>
        <time>2015-11-22T11:00:06Z</time>
      </trkpt>
      <trkpt lat="44.79084" lon="1.66777">
        <ele>281.32</ele>
        <time>2015-11-22T11:00:22Z</time>
      </trkpt>
      <trkpt lat="44.79084" lon="1.66771">
        <ele>281.8</ele>
        <time>2015-11-22T11:00:33Z</time>
      </trkpt>
      <trkpt lat="44.79084" lon="1.66769">
        <ele>281.8</ele>
        <time>2015-11-22T11:00:48Z</time>
      </trkpt>
      <trkpt lat="44.79085" lon="1.66769">
        <ele>282.28</ele>
        <time>2015-11-22T11:01:08Z</time>
      </trkpt>
      <trkpt lat="44.79088" lon="1.66767">
        <ele>282.28</ele>
        <time>2015-11-22T11:01:16Z</time>
      </trkpt>
      <trkpt lat="44.79091" lon="1.66767">
        <ele>282.28</ele>
        <time>2015-11-22T11:01:19Z</time>
      </trkpt>
      <trkpt lat="44.79095" lon="1.66767">
        <ele>282.28</ele>
        <time>2015-11-22T11:01:23Z</time>
      </trkpt>
      <trkpt lat="44.791" lon="1.66768">
        <ele>282.28</ele>
        <time>2015-11-22T11:01:28Z</time>
      </trkpt>
      <trkpt lat="44.79102" lon="1.66768">
        <ele>282.28</ele>
        <time>2015-11-22T11:01:29Z</time>
      </trkpt>
      <trkpt lat="44.79103" lon="1.66769">
        <ele>282.28</ele>
        <time>2015-11-22T11:01:30Z</time>
      </trkpt>
      <trkpt lat="44.79104" lon="1.66769">
        <ele>282.28</ele>
        <time>2015-11-22T11:01:31Z</time>
      </trkpt>
      <trkpt lat="44.79106" lon="1.66769">
        <ele>282.28</ele>
        <time>2015-11-22T11:01:33Z</time>
      </trkpt>
      <trkpt lat="44.79113" lon="1.66768">
        <ele>281.8</ele>
        <time>2015-11-22T11:01:39Z</time>
      </trkpt>
      <trkpt lat="44.79116" lon="1.66774">
        <ele>281.8</ele>
        <time>2015-11-22T11:01:49Z</time>
      </trkpt>
      <trkpt lat="44.79117" lon="1.66773">
        <ele>281.8</ele>
        <time>2015-11-22T11:02:07Z</time>
      </trkpt>
      <trkpt lat="44.79117" lon="1.66773">
        <ele>281.8</ele>
        <time>2015-11-22T11:02:22Z</time>
      </trkpt>
      <trkpt lat="44.79117" lon="1.66769">
        <ele>281.8</ele>
        <time>2015-11-22T11:02:31Z</time>
      </trkpt>
      <trkpt lat="44.79124" lon="1.66768">
        <ele>282.28</ele>
        <time>2015-11-22T11:02:42Z</time>
      </trkpt>
      <trkpt lat="44.79129" lon="1.66766">
        <ele>282.28</ele>
        <time>2015-11-22T11:02:54Z</time>
      </trkpt>
      <trkpt lat="44.79135" lon="1.66761">
        <ele>282.28</ele>
        <time>2015-11-22T11:03:04Z</time>
      </trkpt>
      <trkpt lat="44.79151" lon="1.66758">
        <ele>282.28</ele>
        <time>2015-11-22T11:03:17Z</time>
      </trkpt>
      <trkpt lat="44.79153" lon="1.66756">
        <ele>282.77</ele>
        <time>2015-11-22T11:03:19Z</time>
      </trkpt>
      <trkpt lat="44.79158" lon="1.66757">
        <ele>282.77</ele>
        <time>2015-11-22T11:03:23Z</time>
      </trkpt>
      <trkpt lat="44.79162" lon="1.66763">
        <ele>282.77</ele>
        <time>2015-11-22T11:03:28Z</time>
      </trkpt>
      <trkpt lat="44.79164" lon="1.66765">
        <ele>282.77</ele>
        <time>2015-11-22T11:03:30Z</time>
      </trkpt>
      <trkpt lat="44.7917" lon="1.66765">
        <ele>282.77</ele>
        <time>2015-11-22T11:03:35Z</time>
      </trkpt>
      <trkpt lat="44.7918" lon="1.66776">
        <ele>283.25</ele>
        <time>2015-11-22T11:03:45Z</time>
      </trkpt>
      <trkpt lat="44.79184" lon="1.66789">
        <ele>283.25</ele>
        <time>2015-11-22T11:03:52Z</time>
      </trkpt>
      <trkpt lat="44.7919" lon="1.66798">
        <ele>280.84</ele>
        <time>2015-11-22T11:03:58Z</time>
      </trkpt>
      <trkpt lat="44.79193" lon="1.66813">
        <ele>280.84</ele>
        <time>2015-11-22T11:04:06Z</time>
      </trkpt>
      <trkpt lat="44.79194" lon="1.66817">
        <ele>280.84</ele>
        <time>2015-11-22T11:04:19Z</time>
      </trkpt>
      <trkpt lat="44.79195" lon="1.66819">
        <ele>280.84</ele>
        <time>2015-11-22T11:04:39Z</time>
      </trkpt>
      <trkpt lat="44.79194" lon="1.6682">
        <ele>280.84</ele>
        <time>2015-11-22T11:04:54Z</time>
      </trkpt>
      <trkpt lat="44.79199" lon="1.66825">
        <ele>280.84</ele>
        <time>2015-11-22T11:05:05Z</time>
      </trkpt>
      <trkpt lat="44.792" lon="1.66835">
        <ele>279.88</ele>
        <time>2015-11-22T11:05:10Z</time>
      </trkpt>
      <trkpt lat="44.79201" lon="1.66843">
        <ele>278.92</ele>
        <time>2015-11-22T11:05:15Z</time>
      </trkpt>
      <trkpt lat="44.79209" lon="1.66856">
        <ele>278.44</ele>
        <time>2015-11-22T11:05:25Z</time>
      </trkpt>
      <trkpt lat="44.79211" lon="1.66856">
        <ele>278.44</ele>
        <time>2015-11-22T11:05:26Z</time>
      </trkpt>
      <trkpt lat="44.79224" lon="1.66854">
        <ele>277.96</ele>
        <time>2015-11-22T11:05:38Z</time>
      </trkpt>
      <trkpt lat="44.79228" lon="1.66855">
        <ele>277.96</ele>
        <time>2015-11-22T11:05:50Z</time>
      </trkpt>
      <trkpt lat="44.79226" lon="1.66856">
        <ele>277.96</ele>
        <time>2015-11-22T11:06:00Z</time>
      </trkpt>
      <trkpt lat="44.79225" lon="1.66856">
        <ele>277.96</ele>
        <time>2015-11-22T11:06:14Z</time>
      </trkpt>
      <trkpt lat="44.79222" lon="1.66857">
        <ele>277.96</ele>
        <time>2015-11-22T11:06:23Z</time>
      </trkpt>
      <trkpt lat="44.79219" lon="1.66857">
        <ele>277.96</ele>
        <time>2015-11-22T11:06:27Z</time>
      </trkpt>
      <trkpt lat="44.79216" lon="1.66859">
        <ele>277.96</ele>
        <time>2015-11-22T11:06:30Z</time>
      </trkpt>
      <trkpt lat="44.79214" lon="1.66858">
        <ele>277.96</ele>
        <time>2015-11-22T11:06:33Z</time>
      </trkpt>
      <trkpt lat="44.7921" lon="1.66861">
        <ele>277.96</ele>
        <time>2015-11-22T11:06:37Z</time>
      </trkpt>
      <trkpt lat="44.79206" lon="1.66863">
        <ele>277.96</ele>
        <time>2015-11-22T11:06:40Z</time>
      </trkpt>
      <trkpt lat="44.792" lon="1.66871">
        <ele>277.48</ele>
        <time>2015-11-22T11:06:51Z</time>
      </trkpt>
      <trkpt lat="44.79198" lon="1.66874">
        <ele>275.56</ele>
        <time>2015-11-22T11:07:01Z</time>
      </trkpt>
      <trkpt lat="44.79197" lon="1.66874">
        <ele>275.07</ele>
        <time>2015-11-22T11:07:20Z</time>
      </trkpt>
      <trkpt lat="44.79198" lon="1.66873">
        <ele>274.59</ele>
        <time>2015-11-22T11:07:39Z</time>
      </trkpt>
      <trkpt lat="44.79198" lon="1.66875">
        <ele>274.59</ele>
        <time>2015-11-22T11:07:50Z</time>
      </trkpt>
      <trkpt lat="44.79204" lon="1.66884">
        <ele>274.59</ele>
        <time>2015-11-22T11:08:01Z</time>
      </trkpt>
      <trkpt lat="44.79203" lon="1.66886">
        <ele>274.59</ele>
        <time>2015-11-22T11:08:04Z</time>
      </trkpt>
      <trkpt lat="44.79203" lon="1.66891">
        <ele>274.11</ele>
        <time>2015-11-22T11:08:08Z</time>
      </trkpt>
      <trkpt lat="44.79203" lon="1.66896">
        <ele>274.11</ele>
        <time>2015-11-22T11:08:12Z</time>
      </trkpt>
      <trkpt lat="44.79202" lon="1.66901">
        <ele>273.63</ele>
        <time>2015-11-22T11:08:21Z</time>
      </trkpt>
      <trkpt lat="44.79201" lon="1.66901">
        <ele>272.67</ele>
        <time>2015-11-22T11:08:44Z</time>
      </trkpt>
      <trkpt lat="44.79202" lon="1.669">
        <ele>272.67</ele>
        <time>2015-11-22T11:09:12Z</time>
      </trkpt>
      <trkpt lat="44.79201" lon="1.669">
        <ele>272.67</ele>
        <time>2015-11-22T11:09:40Z</time>
      </trkpt>
      <trkpt lat="44.79202" lon="1.66899">
        <ele>272.67</ele>
        <time>2015-11-22T11:09:55Z</time>
      </trkpt>
      <trkpt lat="44.79202" lon="1.66899">
        <ele>272.67</ele>
        <time>2015-11-22T11:10:00Z</time>
      </trkpt>
      <trkpt lat="44.79203" lon="1.66895">
        <ele>272.67</ele>
        <time>2015-11-22T11:10:03Z</time>
      </trkpt>
      <trkpt lat="44.79206" lon="1.66888">
        <ele>272.67</ele>
        <time>2015-11-22T11:10:09Z</time>
      </trkpt>
      <trkpt lat="44.79203" lon="1.66874">
        <ele>275.07</ele>
        <time>2015-11-22T11:10:23Z</time>
      </trkpt>
      <trkpt lat="44.79202" lon="1.66869">
        <ele>275.07</ele>
        <time>2015-11-22T11:10:33Z</time>
      </trkpt>
      <trkpt lat="44.79201" lon="1.66867">
        <ele>275.56</ele>
        <time>2015-11-22T11:10:52Z</time>
      </trkpt>
      <trkpt lat="44.79202" lon="1.66866">
        <ele>275.56</ele>
        <time>2015-11-22T11:11:11Z</time>
      </trkpt>
      <trkpt lat="44.79205" lon="1.66864">
        <ele>275.56</ele>
        <time>2015-11-22T11:11:19Z</time>
      </trkpt>
      <trkpt lat="44.79211" lon="1.66857">
        <ele>276.04</ele>
        <time>2015-11-22T11:11:24Z</time>
      </trkpt>
      <trkpt lat="44.79216" lon="1.66855">
        <ele>276.04</ele>
        <time>2015-11-22T11:11:28Z</time>
      </trkpt>
      <trkpt lat="44.79231" lon="1.66848">
        <ele>277.48</ele>
        <time>2015-11-22T11:11:40Z</time>
      </trkpt>
      <trkpt lat="44.79236" lon="1.66841">
        <ele>277.48</ele>
        <time>2015-11-22T11:11:45Z</time>
      </trkpt>
      <trkpt lat="44.79239" lon="1.66838">
        <ele>278.44</ele>
        <time>2015-11-22T11:11:48Z</time>
      </trkpt>
      <trkpt lat="44.79244" lon="1.66837">
        <ele>277.96</ele>
        <time>2015-11-22T11:11:52Z</time>
      </trkpt>
      <trkpt lat="44.79247" lon="1.66832">
        <ele>277.96</ele>
        <time>2015-11-22T11:11:55Z</time>
      </trkpt>
      <trkpt lat="44.79249" lon="1.66829">
        <ele>277.96</ele>
        <time>2015-11-22T11:11:57Z</time>
      </trkpt>
      <trkpt lat="44.7925" lon="1.66827">
        <ele>277.96</ele>
        <time>2015-11-22T11:11:58Z</time>
      </trkpt>
      <trkpt lat="44.79251" lon="1.66826">
        <ele>277.96</ele>
        <time>2015-11-22T11:11:59Z</time>
      </trkpt>
      <trkpt lat="44.79252" lon="1.66824">
        <ele>277.96</ele>
        <time>2015-11-22T11:12:00Z</time>
      </trkpt>
      <trkpt lat="44.79253" lon="1.66823">
        <ele>277.96</ele>
        <time>2015-11-22T11:12:01Z</time>
      </trkpt>
      <trkpt lat="44.79255" lon="1.66819">
        <ele>278.44</ele>
        <time>2015-11-22T11:12:04Z</time>
      </trkpt>
      <trkpt lat="44.79263" lon="1.66812">
        <ele>278.44</ele>
        <time>2015-11-22T11:12:10Z</time>
      </trkpt>
      <trkpt lat="44.79264" lon="1.6681">
        <ele>278.44</ele>
        <time>2015-11-22T11:12:11Z</time>
      </trkpt>
      <trkpt lat="44.79265" lon="1.66809">
        <ele>278.44</ele>
        <time>2015-11-22T11:12:12Z</time>
      </trkpt>
      <trkpt lat="44.79267" lon="1.66808">
        <ele>278.44</ele>
        <time>2015-11-22T11:12:13Z</time>
      </trkpt>
      <trkpt lat="44.79268" lon="1.66807">
        <ele>278.44</ele>
        <time>2015-11-22T11:12:14Z</time>
      </trkpt>
      <trkpt lat="44.79269" lon="1.66806">
        <ele>278.44</ele>
        <time>2015-11-22T11:12:15Z</time>
      </trkpt>
      <trkpt lat="44.79271" lon="1.66805">
        <ele>278.44</ele>
        <time>2015-11-22T11:12:16Z</time>
      </trkpt>
      <trkpt lat="44.79272" lon="1.66803">
        <ele>278.44</ele>
        <time>2015-11-22T11:12:17Z</time>
      </trkpt>
      <trkpt lat="44.79273" lon="1.66803">
        <ele>278.44</ele>
        <time>2015-11-22T11:12:18Z</time>
      </trkpt>
      <trkpt lat="44.79275" lon="1.66802">
        <ele>278.44</ele>
        <time>2015-11-22T11:12:19Z</time>
      </trkpt>
      <trkpt lat="44.79276" lon="1.66801">
        <ele>278.44</ele>
        <time>2015-11-22T11:12:20Z</time>
      </trkpt>
      <trkpt lat="44.79277" lon="1.66799">
        <ele>278.44</ele>
        <time>2015-11-22T11:12:21Z</time>
      </trkpt>
      <trkpt lat="44.79277" lon="1.66797">
        <ele>278.44</ele>
        <time>2015-11-22T11:12:22Z</time>
      </trkpt>
      <trkpt lat="44.79278" lon="1.66795">
        <ele>278.44</ele>
        <time>2015-11-22T11:12:23Z</time>
      </trkpt>
      <trkpt lat="44.79284" lon="1.66787">
        <ele>277.48</ele>
        <time>2015-11-22T11:12:29Z</time>
      </trkpt>
      <trkpt lat="44.79285" lon="1.66786">
        <ele>277.48</ele>
        <time>2015-11-22T11:12:30Z</time>
      </trkpt>
      <trkpt lat="44.79286" lon="1.66784">
        <ele>277</ele>
        <time>2015-11-22T11:12:31Z</time>
      </trkpt>
      <trkpt lat="44.79287" lon="1.66783">
        <ele>277</ele>
        <time>2015-11-22T11:12:32Z</time>
      </trkpt>
      <trkpt lat="44.79289" lon="1.66782">
        <ele>277</ele>
        <time>2015-11-22T11:12:33Z</time>
      </trkpt>
      <trkpt lat="44.7929" lon="1.66781">
        <ele>277</ele>
        <time>2015-11-22T11:12:34Z</time>
      </trkpt>
      <trkpt lat="44.79291" lon="1.66779">
        <ele>277</ele>
        <time>2015-11-22T11:12:35Z</time>
      </trkpt>
      <trkpt lat="44.79292" lon="1.66778">
        <ele>277</ele>
        <time>2015-11-22T11:12:36Z</time>
      </trkpt>
      <trkpt lat="44.79293" lon="1.66777">
        <ele>277</ele>
        <time>2015-11-22T11:12:37Z</time>
      </trkpt>
      <trkpt lat="44.79294" lon="1.66775">
        <ele>277</ele>
        <time>2015-11-22T11:12:38Z</time>
      </trkpt>
      <trkpt lat="44.79295" lon="1.66773">
        <ele>277</ele>
        <time>2015-11-22T11:12:39Z</time>
      </trkpt>
      <trkpt lat="44.793" lon="1.66763">
        <ele>276.52</ele>
        <time>2015-11-22T11:12:46Z</time>
      </trkpt>
      <trkpt lat="44.79301" lon="1.66762">
        <ele>276.04</ele>
        <time>2015-11-22T11:12:47Z</time>
      </trkpt>
      <trkpt lat="44.79302" lon="1.6676">
        <ele>276.04</ele>
        <time>2015-11-22T11:12:48Z</time>
      </trkpt>
      <trkpt lat="44.79302" lon="1.66758">
        <ele>276.04</ele>
        <time>2015-11-22T11:12:49Z</time>
      </trkpt>
      <trkpt lat="44.79303" lon="1.66756">
        <ele>276.04</ele>
        <time>2015-11-22T11:12:50Z</time>
      </trkpt>
      <trkpt lat="44.79303" lon="1.66754">
        <ele>276.04</ele>
        <time>2015-11-22T11:12:51Z</time>
      </trkpt>
      <trkpt lat="44.79303" lon="1.66752">
        <ele>276.04</ele>
        <time>2015-11-22T11:12:52Z</time>
      </trkpt>
      <trkpt lat="44.79302" lon="1.6675">
        <ele>276.04</ele>
        <time>2015-11-22T11:12:53Z</time>
      </trkpt>
      <trkpt lat="44.79302" lon="1.66747">
        <ele>276.04</ele>
        <time>2015-11-22T11:12:54Z</time>
      </trkpt>
      <trkpt lat="44.79303" lon="1.66745">
        <ele>276.04</ele>
        <time>2015-11-22T11:12:55Z</time>
      </trkpt>
      <trkpt lat="44.79303" lon="1.66743">
        <ele>276.04</ele>
        <time>2015-11-22T11:12:56Z</time>
      </trkpt>
      <trkpt lat="44.79303" lon="1.66741">
        <ele>275.56</ele>
        <time>2015-11-22T11:12:57Z</time>
      </trkpt>
      <trkpt lat="44.79303" lon="1.66738">
        <ele>275.56</ele>
        <time>2015-11-22T11:12:58Z</time>
      </trkpt>
      <trkpt lat="44.79303" lon="1.66737">
        <ele>275.56</ele>
        <time>2015-11-22T11:12:59Z</time>
      </trkpt>
      <trkpt lat="44.79302" lon="1.66735">
        <ele>275.56</ele>
        <time>2015-11-22T11:13:00Z</time>
      </trkpt>
      <trkpt lat="44.79303" lon="1.6673">
        <ele>275.56</ele>
        <time>2015-11-22T11:13:03Z</time>
      </trkpt>
      <trkpt lat="44.79304" lon="1.66715">
        <ele>275.56</ele>
        <time>2015-11-22T11:13:11Z</time>
      </trkpt>
      <trkpt lat="44.79303" lon="1.66714">
        <ele>276.52</ele>
        <time>2015-11-22T11:13:12Z</time>
      </trkpt>
      <trkpt lat="44.79303" lon="1.66712">
        <ele>276.52</ele>
        <time>2015-11-22T11:13:13Z</time>
      </trkpt>
      <trkpt lat="44.79302" lon="1.6671">
        <ele>276.52</ele>
        <time>2015-11-22T11:13:14Z</time>
      </trkpt>
      <trkpt lat="44.79301" lon="1.66708">
        <ele>276.52</ele>
        <time>2015-11-22T11:13:15Z</time>
      </trkpt>
      <trkpt lat="44.79302" lon="1.66706">
        <ele>276.52</ele>
        <time>2015-11-22T11:13:16Z</time>
      </trkpt>
      <trkpt lat="44.79302" lon="1.66704">
        <ele>276.52</ele>
        <time>2015-11-22T11:13:17Z</time>
      </trkpt>
      <trkpt lat="44.79302" lon="1.66702">
        <ele>276.52</ele>
        <time>2015-11-22T11:13:18Z</time>
      </trkpt>
      <trkpt lat="44.79301" lon="1.667">
        <ele>276.52</ele>
        <time>2015-11-22T11:13:19Z</time>
      </trkpt>
      <trkpt lat="44.79301" lon="1.66698">
        <ele>276.52</ele>
        <time>2015-11-22T11:13:20Z</time>
      </trkpt>
      <trkpt lat="44.79301" lon="1.66696">
        <ele>276.52</ele>
        <time>2015-11-22T11:13:21Z</time>
      </trkpt>
      <trkpt lat="44.793" lon="1.66694">
        <ele>276.52</ele>
        <time>2015-11-22T11:13:22Z</time>
      </trkpt>
      <trkpt lat="44.793" lon="1.66692">
        <ele>276.52</ele>
        <time>2015-11-22T11:13:23Z</time>
      </trkpt>
      <trkpt lat="44.79299" lon="1.66691">
        <ele>276.52</ele>
        <time>2015-11-22T11:13:24Z</time>
      </trkpt>
      <trkpt lat="44.79298" lon="1.66689">
        <ele>276.52</ele>
        <time>2015-11-22T11:13:25Z</time>
      </trkpt>
      <trkpt lat="44.79293" lon="1.6668">
        <ele>276.52</ele>
        <time>2015-11-22T11:13:30Z</time>
      </trkpt>
      <trkpt lat="44.79289" lon="1.66672">
        <ele>277.48</ele>
        <time>2015-11-22T11:13:35Z</time>
      </trkpt>
      <trkpt lat="44.79284" lon="1.66663">
        <ele>277.48</ele>
        <time>2015-11-22T11:13:41Z</time>
      </trkpt>
      <trkpt lat="44.79282" lon="1.66656">
        <ele>277.48</ele>
        <time>2015-11-22T11:13:45Z</time>
      </trkpt>
      <trkpt lat="44.79272" lon="1.66652">
        <ele>277.48</ele>
        <time>2015-11-22T11:13:54Z</time>
      </trkpt>
      <trkpt lat="44.79266" lon="1.66647">
        <ele>277.48</ele>
        <time>2015-11-22T11:13:59Z</time>
      </trkpt>
      <trkpt lat="44.79262" lon="1.66642">
        <ele>277.48</ele>
        <time>2015-11-22T11:14:03Z</time>
      </trkpt>
      <trkpt lat="44.79257" lon="1.66641">
        <ele>277.48</ele>
        <time>2015-11-22T11:14:09Z</time>
      </trkpt>
      <trkpt lat="44.79247" lon="1.66636">
        <ele>277.48</ele>
        <time>2015-11-22T11:14:16Z</time>
      </trkpt>
      <trkpt lat="44.79244" lon="1.66632">
        <ele>277.48</ele>
        <time>2015-11-22T11:14:19Z</time>
      </trkpt>
      <trkpt lat="44.79241" lon="1.66628">
        <ele>277.48</ele>
        <time>2015-11-22T11:14:23Z</time>
      </trkpt>
      <trkpt lat="44.79241" lon="1.66621">
        <ele>276.04</ele>
        <time>2015-11-22T11:14:28Z</time>
      </trkpt>
      <trkpt lat="44.79238" lon="1.66613">
        <ele>275.07</ele>
        <time>2015-11-22T11:14:32Z</time>
      </trkpt>
      <trkpt lat="44.79233" lon="1.66597">
        <ele>275.07</ele>
        <time>2015-11-22T11:14:39Z</time>
      </trkpt>
      <trkpt lat="44.79232" lon="1.66568">
        <ele>275.07</ele>
        <time>2015-11-22T11:14:53Z</time>
      </trkpt>
      <trkpt lat="44.79237" lon="1.66558">
        <ele>275.07</ele>
        <time>2015-11-22T11:14:58Z</time>
      </trkpt>
      <trkpt lat="44.79247" lon="1.66542">
        <ele>275.07</ele>
        <time>2015-11-22T11:15:08Z</time>
      </trkpt>
      <trkpt lat="44.79257" lon="1.66524">
        <ele>275.07</ele>
        <time>2015-11-22T11:15:19Z</time>
      </trkpt>
      <trkpt lat="44.79265" lon="1.66509">
        <ele>274.11</ele>
        <time>2015-11-22T11:15:27Z</time>
      </trkpt>
      <trkpt lat="44.79277" lon="1.66496">
        <ele>274.11</ele>
        <time>2015-11-22T11:15:38Z</time>
      </trkpt>
      <trkpt lat="44.79279" lon="1.66492">
        <ele>274.11</ele>
        <time>2015-11-22T11:15:41Z</time>
      </trkpt>
      <trkpt lat="44.79293" lon="1.66481">
        <ele>272.67</ele>
        <time>2015-11-22T11:15:51Z</time>
      </trkpt>
      <trkpt lat="44.79299" lon="1.66477">
        <ele>270.27</ele>
        <time>2015-11-22T11:15:55Z</time>
      </trkpt>
      <trkpt lat="44.79311" lon="1.66461">
        <ele>267.38</ele>
        <time>2015-11-22T11:16:06Z</time>
      </trkpt>
      <trkpt lat="44.79315" lon="1.66456">
        <ele>267.38</ele>
        <time>2015-11-22T11:16:11Z</time>
      </trkpt>
      <trkpt lat="44.79322" lon="1.66442">
        <ele>266.9</ele>
        <time>2015-11-22T11:16:21Z</time>
      </trkpt>
      <trkpt lat="44.79327" lon="1.66428">
        <ele>265.94</ele>
        <time>2015-11-22T11:16:28Z</time>
      </trkpt>
      <trkpt lat="44.79336" lon="1.66412">
        <ele>265.46</ele>
        <time>2015-11-22T11:16:37Z</time>
      </trkpt>
      <trkpt lat="44.79346" lon="1.66392">
        <ele>265.46</ele>
        <time>2015-11-22T11:16:48Z</time>
      </trkpt>
      <trkpt lat="44.79347" lon="1.6639">
        <ele>265.46</ele>
        <time>2015-11-22T11:16:49Z</time>
      </trkpt>
      <trkpt lat="44.79347" lon="1.66388">
        <ele>265.46</ele>
        <time>2015-11-22T11:16:50Z</time>
      </trkpt>
      <trkpt lat="44.79347" lon="1.66386">
        <ele>265.46</ele>
        <time>2015-11-22T11:16:51Z</time>
      </trkpt>
      <trkpt lat="44.79347" lon="1.66384">
        <ele>265.46</ele>
        <time>2015-11-22T11:16:52Z</time>
      </trkpt>
      <trkpt lat="44.79348" lon="1.66383">
        <ele>266.9</ele>
        <time>2015-11-22T11:16:53Z</time>
      </trkpt>
      <trkpt lat="44.7935" lon="1.66381">
        <ele>266.9</ele>
        <time>2015-11-22T11:16:54Z</time>
      </trkpt>
      <trkpt lat="44.79351" lon="1.6638">
        <ele>266.9</ele>
        <time>2015-11-22T11:16:55Z</time>
      </trkpt>
      <trkpt lat="44.79352" lon="1.66378">
        <ele>266.9</ele>
        <time>2015-11-22T11:16:56Z</time>
      </trkpt>
      <trkpt lat="44.79354" lon="1.66377">
        <ele>266.9</ele>
        <time>2015-11-22T11:16:57Z</time>
      </trkpt>
      <trkpt lat="44.79356" lon="1.66368">
        <ele>268.35</ele>
        <time>2015-11-22T11:17:02Z</time>
      </trkpt>
      <trkpt lat="44.79358" lon="1.66359">
        <ele>271.23</ele>
        <time>2015-11-22T11:17:07Z</time>
      </trkpt>
      <trkpt lat="44.79358" lon="1.66357">
        <ele>272.19</ele>
        <time>2015-11-22T11:17:08Z</time>
      </trkpt>
      <trkpt lat="44.79363" lon="1.66346">
        <ele>273.63</ele>
        <time>2015-11-22T11:17:15Z</time>
      </trkpt>
      <trkpt lat="44.79364" lon="1.66344">
        <ele>273.63</ele>
        <time>2015-11-22T11:17:16Z</time>
      </trkpt>
      <trkpt lat="44.79364" lon="1.66343">
        <ele>273.63</ele>
        <time>2015-11-22T11:17:17Z</time>
      </trkpt>
      <trkpt lat="44.79364" lon="1.66341">
        <ele>273.63</ele>
        <time>2015-11-22T11:17:18Z</time>
      </trkpt>
      <trkpt lat="44.79371" lon="1.66322">
        <ele>273.63</ele>
        <time>2015-11-22T11:17:29Z</time>
      </trkpt>
      <trkpt lat="44.79372" lon="1.6632">
        <ele>273.63</ele>
        <time>2015-11-22T11:17:30Z</time>
      </trkpt>
      <trkpt lat="44.79373" lon="1.66319">
        <ele>273.63</ele>
        <time>2015-11-22T11:17:31Z</time>
      </trkpt>
      <trkpt lat="44.79374" lon="1.66317">
        <ele>273.63</ele>
        <time>2015-11-22T11:17:32Z</time>
      </trkpt>
      <trkpt lat="44.79375" lon="1.66315">
        <ele>273.63</ele>
        <time>2015-11-22T11:17:33Z</time>
      </trkpt>
      <trkpt lat="44.79375" lon="1.66313">
        <ele>273.63</ele>
        <time>2015-11-22T11:17:34Z</time>
      </trkpt>
      <trkpt lat="44.79376" lon="1.66312">
        <ele>273.63</ele>
        <time>2015-11-22T11:17:35Z</time>
      </trkpt>
      <trkpt lat="44.7938" lon="1.66305">
        <ele>274.11</ele>
        <time>2015-11-22T11:17:40Z</time>
      </trkpt>
      <trkpt lat="44.7938" lon="1.66303">
        <ele>274.11</ele>
        <time>2015-11-22T11:17:41Z</time>
      </trkpt>
      <trkpt lat="44.79381" lon="1.66301">
        <ele>274.11</ele>
        <time>2015-11-22T11:17:42Z</time>
      </trkpt>
      <trkpt lat="44.79382" lon="1.663">
        <ele>274.11</ele>
        <time>2015-11-22T11:17:43Z</time>
      </trkpt>
      <trkpt lat="44.79382" lon="1.66298">
        <ele>274.11</ele>
        <time>2015-11-22T11:17:44Z</time>
      </trkpt>
      <trkpt lat="44.79385" lon="1.6629">
        <ele>275.07</ele>
        <time>2015-11-22T11:17:49Z</time>
      </trkpt>
      <trkpt lat="44.79386" lon="1.66288">
        <ele>275.07</ele>
        <time>2015-11-22T11:17:50Z</time>
      </trkpt>
      <trkpt lat="44.79391" lon="1.66275">
        <ele>276.04</ele>
        <time>2015-11-22T11:17:58Z</time>
      </trkpt>
      <trkpt lat="44.79394" lon="1.66261">
        <ele>276.52</ele>
        <time>2015-11-22T11:18:05Z</time>
      </trkpt>
      <trkpt lat="44.79396" lon="1.6624">
        <ele>277</ele>
        <time>2015-11-22T11:18:17Z</time>
      </trkpt>
      <trkpt lat="44.79398" lon="1.66237">
        <ele>277.48</ele>
        <time>2015-11-22T11:18:32Z</time>
      </trkpt>
      <trkpt lat="44.79398" lon="1.66237">
        <ele>277.48</ele>
        <time>2015-11-22T11:18:40Z</time>
      </trkpt>
      <trkpt lat="44.79402" lon="1.66237">
        <ele>276.52</ele>
        <time>2015-11-22T11:18:50Z</time>
      </trkpt>
      <trkpt lat="44.79408" lon="1.66236">
        <ele>275.56</ele>
        <time>2015-11-22T11:18:55Z</time>
      </trkpt>
      <trkpt lat="44.79409" lon="1.66233">
        <ele>272.19</ele>
        <time>2015-11-22T11:19:01Z</time>
      </trkpt>
      <trkpt lat="44.79411" lon="1.66232">
        <ele>271.23</ele>
        <time>2015-11-22T11:19:15Z</time>
      </trkpt>
      <trkpt lat="44.79411" lon="1.66231">
        <ele>272.19</ele>
        <time>2015-11-22T11:19:28Z</time>
      </trkpt>
      <trkpt lat="44.79411" lon="1.66231">
        <ele>272.19</ele>
        <time>2015-11-22T11:19:39Z</time>
      </trkpt>
      <trkpt lat="44.79412" lon="1.66231">
        <ele>272.19</ele>
        <time>2015-11-22T11:19:57Z</time>
      </trkpt>
      <trkpt lat="44.79412" lon="1.6623">
        <ele>272.19</ele>
        <time>2015-11-22T11:20:16Z</time>
      </trkpt>
      <trkpt lat="44.79412" lon="1.66229">
        <ele>272.67</ele>
        <time>2015-11-22T11:20:32Z</time>
      </trkpt>
      <trkpt lat="44.79412" lon="1.66228">
        <ele>272.67</ele>
        <time>2015-11-22T11:20:51Z</time>
      </trkpt>
      <trkpt lat="44.79411" lon="1.66228">
        <ele>272.67</ele>
        <time>2015-11-22T11:21:15Z</time>
      </trkpt>
      <trkpt lat="44.79411" lon="1.66228">
        <ele>272.67</ele>
        <time>2015-11-22T11:21:34Z</time>
      </trkpt>
      <trkpt lat="44.79411" lon="1.66227">
        <ele>272.67</ele>
        <time>2015-11-22T11:22:02Z</time>
      </trkpt>
      <trkpt lat="44.7941" lon="1.66227">
        <ele>272.67</ele>
        <time>2015-11-22T11:22:20Z</time>
      </trkpt>
      <trkpt lat="44.7941" lon="1.66227">
        <ele>272.67</ele>
        <time>2015-11-22T11:22:36Z</time>
      </trkpt>
      <trkpt lat="44.79411" lon="1.66228">
        <ele>272.67</ele>
        <time>2015-11-22T11:22:59Z</time>
      </trkpt>
      <trkpt lat="44.7941" lon="1.66228">
        <ele>272.67</ele>
        <time>2015-11-22T11:23:19Z</time>
      </trkpt>
      <trkpt lat="44.79409" lon="1.66228">
        <ele>272.67</ele>
        <time>2015-11-22T11:23:36Z</time>
      </trkpt>
      <trkpt lat="44.79409" lon="1.66228">
        <ele>272.67</ele>
        <time>2015-11-22T11:23:57Z</time>
      </trkpt>
      <trkpt lat="44.79409" lon="1.66229">
        <ele>272.67</ele>
        <time>2015-11-22T11:24:13Z</time>
      </trkpt>
      <trkpt lat="44.7941" lon="1.66235">
        <ele>272.67</ele>
        <time>2015-11-22T11:24:22Z</time>
      </trkpt>
      <trkpt lat="44.79409" lon="1.66237">
        <ele>272.67</ele>
        <time>2015-11-22T11:24:24Z</time>
      </trkpt>
      <trkpt lat="44.79408" lon="1.66242">
        <ele>273.63</ele>
        <time>2015-11-22T11:24:28Z</time>
      </trkpt>
      <trkpt lat="44.79405" lon="1.66245">
        <ele>277</ele>
        <time>2015-11-22T11:24:37Z</time>
      </trkpt>
      <trkpt lat="44.79402" lon="1.66244">
        <ele>278.92</ele>
        <time>2015-11-22T11:24:47Z</time>
      </trkpt>
      <trkpt lat="44.79401" lon="1.66244">
        <ele>278.92</ele>
        <time>2015-11-22T11:24:51Z</time>
      </trkpt>
      <trkpt lat="44.794" lon="1.66252">
        <ele>277.48</ele>
        <time>2015-11-22T11:25:01Z</time>
      </trkpt>
      <trkpt lat="44.79398" lon="1.66258">
        <ele>277.48</ele>
        <time>2015-11-22T11:25:15Z</time>
      </trkpt>
      <trkpt lat="44.7939" lon="1.66286">
        <ele>276.52</ele>
        <time>2015-11-22T11:25:29Z</time>
      </trkpt>
      <trkpt lat="44.79378" lon="1.66309">
        <ele>275.56</ele>
        <time>2015-11-22T11:25:41Z</time>
      </trkpt>
      <trkpt lat="44.79375" lon="1.66313">
        <ele>275.56</ele>
        <time>2015-11-22T11:25:43Z</time>
      </trkpt>
      <trkpt lat="44.79374" lon="1.66314">
        <ele>275.07</ele>
        <time>2015-11-22T11:25:44Z</time>
      </trkpt>
      <trkpt lat="44.79374" lon="1.66317">
        <ele>275.07</ele>
        <time>2015-11-22T11:25:45Z</time>
      </trkpt>
      <trkpt lat="44.79373" lon="1.66319">
        <ele>275.07</ele>
        <time>2015-11-22T11:25:46Z</time>
      </trkpt>
      <trkpt lat="44.79372" lon="1.66321">
        <ele>275.07</ele>
        <time>2015-11-22T11:25:48Z</time>
      </trkpt>
      <trkpt lat="44.79372" lon="1.66324">
        <ele>275.07</ele>
        <time>2015-11-22T11:25:49Z</time>
      </trkpt>
      <trkpt lat="44.79371" lon="1.66329">
        <ele>275.07</ele>
        <time>2015-11-22T11:25:51Z</time>
      </trkpt>
      <trkpt lat="44.79371" lon="1.66331">
        <ele>274.11</ele>
        <time>2015-11-22T11:25:52Z</time>
      </trkpt>
      <trkpt lat="44.7937" lon="1.66333">
        <ele>274.59</ele>
        <time>2015-11-22T11:25:53Z</time>
      </trkpt>
      <trkpt lat="44.7937" lon="1.66336">
        <ele>274.59</ele>
        <time>2015-11-22T11:25:55Z</time>
      </trkpt>
      <trkpt lat="44.79369" lon="1.66338">
        <ele>274.59</ele>
        <time>2015-11-22T11:25:56Z</time>
      </trkpt>
      <trkpt lat="44.79367" lon="1.66341">
        <ele>274.11</ele>
        <time>2015-11-22T11:25:58Z</time>
      </trkpt>
      <trkpt lat="44.79364" lon="1.66351">
        <ele>273.63</ele>
        <time>2015-11-22T11:26:03Z</time>
      </trkpt>
      <trkpt lat="44.79363" lon="1.66355">
        <ele>272.67</ele>
        <time>2015-11-22T11:26:05Z</time>
      </trkpt>
      <trkpt lat="44.7936" lon="1.66367">
        <ele>271.23</ele>
        <time>2015-11-22T11:26:11Z</time>
      </trkpt>
      <trkpt lat="44.79359" lon="1.66369">
        <ele>270.75</ele>
        <time>2015-11-22T11:26:12Z</time>
      </trkpt>
      <trkpt lat="44.79355" lon="1.66374">
        <ele>267.86</ele>
        <time>2015-11-22T11:26:16Z</time>
      </trkpt>
      <trkpt lat="44.79353" lon="1.66376">
        <ele>266.9</ele>
        <time>2015-11-22T11:26:17Z</time>
      </trkpt>
      <trkpt lat="44.79353" lon="1.66378">
        <ele>265.94</ele>
        <time>2015-11-22T11:26:18Z</time>
      </trkpt>
      <trkpt lat="44.79354" lon="1.6638">
        <ele>265.46</ele>
        <time>2015-11-22T11:26:19Z</time>
      </trkpt>
      <trkpt lat="44.79354" lon="1.66383">
        <ele>264.98</ele>
        <time>2015-11-22T11:26:20Z</time>
      </trkpt>
      <trkpt lat="44.79354" lon="1.66385">
        <ele>265.94</ele>
        <time>2015-11-22T11:26:21Z</time>
      </trkpt>
      <trkpt lat="44.79354" lon="1.66387">
        <ele>265.94</ele>
        <time>2015-11-22T11:26:22Z</time>
      </trkpt>
      <trkpt lat="44.79353" lon="1.66389">
        <ele>265.94</ele>
        <time>2015-11-22T11:26:23Z</time>
      </trkpt>
      <trkpt lat="44.79352" lon="1.66391">
        <ele>265.94</ele>
        <time>2015-11-22T11:26:24Z</time>
      </trkpt>
      <trkpt lat="44.79351" lon="1.66392">
        <ele>265.94</ele>
        <time>2015-11-22T11:26:25Z</time>
      </trkpt>
      <trkpt lat="44.79346" lon="1.66399">
        <ele>265.94</ele>
        <time>2015-11-22T11:26:29Z</time>
      </trkpt>
      <trkpt lat="44.79345" lon="1.66401">
        <ele>265.94</ele>
        <time>2015-11-22T11:26:30Z</time>
      </trkpt>
      <trkpt lat="44.79344" lon="1.66403">
        <ele>265.94</ele>
        <time>2015-11-22T11:26:31Z</time>
      </trkpt>
      <trkpt lat="44.79343" lon="1.66405">
        <ele>265.46</ele>
        <time>2015-11-22T11:26:32Z</time>
      </trkpt>
      <trkpt lat="44.79342" lon="1.66407">
        <ele>265.46</ele>
        <time>2015-11-22T11:26:33Z</time>
      </trkpt>
      <trkpt lat="44.79341" lon="1.66409">
        <ele>265.46</ele>
        <time>2015-11-22T11:26:34Z</time>
      </trkpt>
      <trkpt lat="44.7934" lon="1.66412">
        <ele>265.46</ele>
        <time>2015-11-22T11:26:35Z</time>
      </trkpt>
      <trkpt lat="44.7934" lon="1.66414">
        <ele>265.46</ele>
        <time>2015-11-22T11:26:36Z</time>
      </trkpt>
      <trkpt lat="44.79339" lon="1.66416">
        <ele>265.46</ele>
        <time>2015-11-22T11:26:37Z</time>
      </trkpt>
      <trkpt lat="44.79338" lon="1.66418">
        <ele>264.98</ele>
        <time>2015-11-22T11:26:38Z</time>
      </trkpt>
      <trkpt lat="44.79328" lon="1.6644">
        <ele>264.98</ele>
        <time>2015-11-22T11:26:50Z</time>
      </trkpt>
      <trkpt lat="44.79328" lon="1.66445">
        <ele>264.98</ele>
        <time>2015-11-22T11:26:52Z</time>
      </trkpt>
      <trkpt lat="44.79328" lon="1.66447">
        <ele>264.98</ele>
        <time>2015-11-22T11:26:53Z</time>
      </trkpt>
      <trkpt lat="44.79327" lon="1.66448">
        <ele>264.98</ele>
        <time>2015-11-22T11:26:54Z</time>
      </trkpt>
      <trkpt lat="44.79325" lon="1.66451">
        <ele>264.98</ele>
        <time>2015-11-22T11:26:56Z</time>
      </trkpt>
      <trkpt lat="44.79323" lon="1.66452">
        <ele>264.98</ele>
        <time>2015-11-22T11:26:57Z</time>
      </trkpt>
      <trkpt lat="44.79321" lon="1.66455">
        <ele>266.42</ele>
        <time>2015-11-22T11:26:59Z</time>
      </trkpt>
      <trkpt lat="44.7932" lon="1.66457">
        <ele>266.42</ele>
        <time>2015-11-22T11:27:00Z</time>
      </trkpt>
      <trkpt lat="44.79319" lon="1.66458">
        <ele>266.42</ele>
        <time>2015-11-22T11:27:01Z</time>
      </trkpt>
      <trkpt lat="44.79317" lon="1.6646">
        <ele>266.42</ele>
        <time>2015-11-22T11:27:02Z</time>
      </trkpt>
      <trkpt lat="44.79316" lon="1.66462">
        <ele>267.38</ele>
        <time>2015-11-22T11:27:03Z</time>
      </trkpt>
      <trkpt lat="44.79315" lon="1.66463">
        <ele>267.38</ele>
        <time>2015-11-22T11:27:04Z</time>
      </trkpt>
      <trkpt lat="44.79314" lon="1.66465">
        <ele>268.83</ele>
        <time>2015-11-22T11:27:05Z</time>
      </trkpt>
      <trkpt lat="44.79312" lon="1.66468">
        <ele>269.31</ele>
        <time>2015-11-22T11:27:06Z</time>
      </trkpt>
      <trkpt lat="44.79304" lon="1.66476">
        <ele>272.19</ele>
        <time>2015-11-22T11:27:12Z</time>
      </trkpt>
      <trkpt lat="44.79302" lon="1.66477">
        <ele>272.19</ele>
        <time>2015-11-22T11:27:13Z</time>
      </trkpt>
      <trkpt lat="44.79299" lon="1.66479">
        <ele>272.19</ele>
        <time>2015-11-22T11:27:16Z</time>
      </trkpt>
      <trkpt lat="44.79297" lon="1.66479">
        <ele>272.19</ele>
        <time>2015-11-22T11:27:17Z</time>
      </trkpt>
      <trkpt lat="44.79296" lon="1.6648">
        <ele>272.19</ele>
        <time>2015-11-22T11:27:18Z</time>
      </trkpt>
      <trkpt lat="44.79294" lon="1.66482">
        <ele>272.19</ele>
        <time>2015-11-22T11:27:19Z</time>
      </trkpt>
      <trkpt lat="44.79293" lon="1.66483">
        <ele>272.19</ele>
        <time>2015-11-22T11:27:20Z</time>
      </trkpt>
      <trkpt lat="44.79291" lon="1.66484">
        <ele>272.19</ele>
        <time>2015-11-22T11:27:21Z</time>
      </trkpt>
      <trkpt lat="44.7929" lon="1.66485">
        <ele>272.19</ele>
        <time>2015-11-22T11:27:22Z</time>
      </trkpt>
      <trkpt lat="44.79283" lon="1.66491">
        <ele>272.67</ele>
        <time>2015-11-22T11:27:29Z</time>
      </trkpt>
      <trkpt lat="44.79282" lon="1.66492">
        <ele>272.67</ele>
        <time>2015-11-22T11:27:30Z</time>
      </trkpt>
      <trkpt lat="44.79281" lon="1.66494">
        <ele>272.67</ele>
        <time>2015-11-22T11:27:31Z</time>
      </trkpt>
      <trkpt lat="44.7928" lon="1.66495">
        <ele>272.67</ele>
        <time>2015-11-22T11:27:32Z</time>
      </trkpt>
      <trkpt lat="44.79278" lon="1.66496">
        <ele>273.15</ele>
        <time>2015-11-22T11:27:33Z</time>
      </trkpt>
      <trkpt lat="44.79276" lon="1.66499">
        <ele>273.63</ele>
        <time>2015-11-22T11:27:35Z</time>
      </trkpt>
      <trkpt lat="44.79275" lon="1.66501">
        <ele>273.63</ele>
        <time>2015-11-22T11:27:36Z</time>
      </trkpt>
      <trkpt lat="44.79273" lon="1.66504">
        <ele>273.63</ele>
        <time>2015-11-22T11:27:38Z</time>
      </trkpt>
      <trkpt lat="44.79272" lon="1.66506">
        <ele>273.63</ele>
        <time>2015-11-22T11:27:39Z</time>
      </trkpt>
      <trkpt lat="44.79271" lon="1.66508">
        <ele>273.63</ele>
        <time>2015-11-22T11:27:40Z</time>
      </trkpt>
      <trkpt lat="44.7927" lon="1.66509">
        <ele>273.63</ele>
        <time>2015-11-22T11:27:41Z</time>
      </trkpt>
      <trkpt lat="44.79269" lon="1.66511">
        <ele>274.11</ele>
        <time>2015-11-22T11:27:42Z</time>
      </trkpt>
      <trkpt lat="44.79269" lon="1.66513">
        <ele>274.11</ele>
        <time>2015-11-22T11:27:43Z</time>
      </trkpt>
      <trkpt lat="44.79268" lon="1.66515">
        <ele>274.11</ele>
        <time>2015-11-22T11:27:44Z</time>
      </trkpt>
      <trkpt lat="44.79266" lon="1.66519">
        <ele>274.11</ele>
        <time>2015-11-22T11:27:47Z</time>
      </trkpt>
      <trkpt lat="44.79265" lon="1.66521">
        <ele>274.11</ele>
        <time>2015-11-22T11:27:48Z</time>
      </trkpt>
      <trkpt lat="44.79264" lon="1.66523">
        <ele>274.11</ele>
        <time>2015-11-22T11:27:49Z</time>
      </trkpt>
      <trkpt lat="44.79263" lon="1.66524">
        <ele>274.11</ele>
        <time>2015-11-22T11:27:50Z</time>
      </trkpt>
      <trkpt lat="44.79261" lon="1.66526">
        <ele>274.11</ele>
        <time>2015-11-22T11:27:51Z</time>
      </trkpt>
      <trkpt lat="44.79261" lon="1.66527">
        <ele>274.11</ele>
        <time>2015-11-22T11:27:52Z</time>
      </trkpt>
      <trkpt lat="44.79259" lon="1.66531">
        <ele>274.11</ele>
        <time>2015-11-22T11:27:54Z</time>
      </trkpt>
      <trkpt lat="44.79259" lon="1.66532">
        <ele>274.59</ele>
        <time>2015-11-22T11:27:55Z</time>
      </trkpt>
      <trkpt lat="44.79258" lon="1.66535">
        <ele>274.59</ele>
        <time>2015-11-22T11:27:56Z</time>
      </trkpt>
      <trkpt lat="44.79248" lon="1.66546">
        <ele>275.07</ele>
        <time>2015-11-22T11:28:04Z</time>
      </trkpt>
      <trkpt lat="44.79236" lon="1.66563">
        <ele>275.56</ele>
        <time>2015-11-22T11:28:14Z</time>
      </trkpt>
      <trkpt lat="44.79235" lon="1.66565">
        <ele>275.56</ele>
        <time>2015-11-22T11:28:15Z</time>
      </trkpt>
      <trkpt lat="44.79237" lon="1.66593">
        <ele>276.04</ele>
        <time>2015-11-22T11:28:26Z</time>
      </trkpt>
      <trkpt lat="44.79237" lon="1.66606">
        <ele>276.04</ele>
        <time>2015-11-22T11:28:32Z</time>
      </trkpt>
      <trkpt lat="44.79238" lon="1.66609">
        <ele>276.04</ele>
        <time>2015-11-22T11:28:33Z</time>
      </trkpt>
      <trkpt lat="44.79238" lon="1.66611">
        <ele>276.04</ele>
        <time>2015-11-22T11:28:34Z</time>
      </trkpt>
      <trkpt lat="44.79238" lon="1.66613">
        <ele>276.04</ele>
        <time>2015-11-22T11:28:35Z</time>
      </trkpt>
      <trkpt lat="44.79238" lon="1.66616">
        <ele>276.04</ele>
        <time>2015-11-22T11:28:36Z</time>
      </trkpt>
      <trkpt lat="44.79239" lon="1.66618">
        <ele>276.52</ele>
        <time>2015-11-22T11:28:37Z</time>
      </trkpt>
      <trkpt lat="44.7924" lon="1.66621">
        <ele>276.04</ele>
        <time>2015-11-22T11:28:38Z</time>
      </trkpt>
      <trkpt lat="44.7924" lon="1.66623">
        <ele>276.04</ele>
        <time>2015-11-22T11:28:39Z</time>
      </trkpt>
      <trkpt lat="44.7924" lon="1.66625">
        <ele>276.04</ele>
        <time>2015-11-22T11:28:40Z</time>
      </trkpt>
      <trkpt lat="44.79248" lon="1.66635">
        <ele>277</ele>
        <time>2015-11-22T11:28:48Z</time>
      </trkpt>
      <trkpt lat="44.79249" lon="1.66635">
        <ele>277</ele>
        <time>2015-11-22T11:28:49Z</time>
      </trkpt>
      <trkpt lat="44.79254" lon="1.66635">
        <ele>277.48</ele>
        <time>2015-11-22T11:28:52Z</time>
      </trkpt>
      <trkpt lat="44.7927" lon="1.66649">
        <ele>277.48</ele>
        <time>2015-11-22T11:29:02Z</time>
      </trkpt>
      <trkpt lat="44.79282" lon="1.6666">
        <ele>277.96</ele>
        <time>2015-11-22T11:29:11Z</time>
      </trkpt>
      <trkpt lat="44.79285" lon="1.66668">
        <ele>278.44</ele>
        <time>2015-11-22T11:29:15Z</time>
      </trkpt>
      <trkpt lat="44.79287" lon="1.66669">
        <ele>278.44</ele>
        <time>2015-11-22T11:29:16Z</time>
      </trkpt>
      <trkpt lat="44.79288" lon="1.6667">
        <ele>278.44</ele>
        <time>2015-11-22T11:29:17Z</time>
      </trkpt>
      <trkpt lat="44.79289" lon="1.66671">
        <ele>278.44</ele>
        <time>2015-11-22T11:29:18Z</time>
      </trkpt>
      <trkpt lat="44.79291" lon="1.66673">
        <ele>278.44</ele>
        <time>2015-11-22T11:29:19Z</time>
      </trkpt>
      <trkpt lat="44.79292" lon="1.66675">
        <ele>278.44</ele>
        <time>2015-11-22T11:29:20Z</time>
      </trkpt>
      <trkpt lat="44.79293" lon="1.66677">
        <ele>278.44</ele>
        <time>2015-11-22T11:29:21Z</time>
      </trkpt>
      <trkpt lat="44.79294" lon="1.66679">
        <ele>278.44</ele>
        <time>2015-11-22T11:29:22Z</time>
      </trkpt>
      <trkpt lat="44.79294" lon="1.66681">
        <ele>278.44</ele>
        <time>2015-11-22T11:29:23Z</time>
      </trkpt>
      <trkpt lat="44.79295" lon="1.66683">
        <ele>278.44</ele>
        <time>2015-11-22T11:29:24Z</time>
      </trkpt>
      <trkpt lat="44.79296" lon="1.66684">
        <ele>278.44</ele>
        <time>2015-11-22T11:29:25Z</time>
      </trkpt>
      <trkpt lat="44.79297" lon="1.66686">
        <ele>278.44</ele>
        <time>2015-11-22T11:29:26Z</time>
      </trkpt>
      <trkpt lat="44.79298" lon="1.66688">
        <ele>277.96</ele>
        <time>2015-11-22T11:29:27Z</time>
      </trkpt>
      <trkpt lat="44.79299" lon="1.6669">
        <ele>277.96</ele>
        <time>2015-11-22T11:29:28Z</time>
      </trkpt>
      <trkpt lat="44.79301" lon="1.66693">
        <ele>277.96</ele>
        <time>2015-11-22T11:29:30Z</time>
      </trkpt>
      <trkpt lat="44.79302" lon="1.66695">
        <ele>277.96</ele>
        <time>2015-11-22T11:29:31Z</time>
      </trkpt>
      <trkpt lat="44.79303" lon="1.66696">
        <ele>277.96</ele>
        <time>2015-11-22T11:29:32Z</time>
      </trkpt>
      <trkpt lat="44.79304" lon="1.66699">
        <ele>277.96</ele>
        <time>2015-11-22T11:29:33Z</time>
      </trkpt>
      <trkpt lat="44.79303" lon="1.667">
        <ele>277.96</ele>
        <time>2015-11-22T11:29:34Z</time>
      </trkpt>
      <trkpt lat="44.79303" lon="1.66702">
        <ele>277.96</ele>
        <time>2015-11-22T11:29:35Z</time>
      </trkpt>
      <trkpt lat="44.79303" lon="1.66705">
        <ele>277.96</ele>
        <time>2015-11-22T11:29:36Z</time>
      </trkpt>
      <trkpt lat="44.79304" lon="1.66707">
        <ele>277.96</ele>
        <time>2015-11-22T11:29:37Z</time>
      </trkpt>
      <trkpt lat="44.79304" lon="1.66709">
        <ele>277.96</ele>
        <time>2015-11-22T11:29:38Z</time>
      </trkpt>
      <trkpt lat="44.79305" lon="1.6673">
        <ele>277.96</ele>
        <time>2015-11-22T11:29:48Z</time>
      </trkpt>
      <trkpt lat="44.79308" lon="1.66751">
        <ele>277.96</ele>
        <time>2015-11-22T11:29:57Z</time>
      </trkpt>
      <trkpt lat="44.79305" lon="1.66759">
        <ele>277</ele>
        <time>2015-11-22T11:30:01Z</time>
      </trkpt>
      <trkpt lat="44.79301" lon="1.66768">
        <ele>277</ele>
        <time>2015-11-22T11:30:05Z</time>
      </trkpt>
      <trkpt lat="44.79296" lon="1.66778">
        <ele>276.52</ele>
        <time>2015-11-22T11:30:12Z</time>
      </trkpt>
      <trkpt lat="44.79283" lon="1.6679">
        <ele>276.52</ele>
        <time>2015-11-22T11:30:21Z</time>
      </trkpt>
      <trkpt lat="44.79279" lon="1.66795">
        <ele>277</ele>
        <time>2015-11-22T11:30:24Z</time>
      </trkpt>
      <trkpt lat="44.79278" lon="1.66797">
        <ele>278.44</ele>
        <time>2015-11-22T11:30:25Z</time>
      </trkpt>
      <trkpt lat="44.79277" lon="1.66798">
        <ele>278.44</ele>
        <time>2015-11-22T11:30:26Z</time>
      </trkpt>
      <trkpt lat="44.79275" lon="1.66802">
        <ele>277.96</ele>
        <time>2015-11-22T11:30:29Z</time>
      </trkpt>
      <trkpt lat="44.79272" lon="1.66803">
        <ele>277.96</ele>
        <time>2015-11-22T11:30:31Z</time>
      </trkpt>
      <trkpt lat="44.79271" lon="1.66804">
        <ele>277.96</ele>
        <time>2015-11-22T11:30:32Z</time>
      </trkpt>
      <trkpt lat="44.79269" lon="1.66805">
        <ele>277.96</ele>
        <time>2015-11-22T11:30:33Z</time>
      </trkpt>
      <trkpt lat="44.79263" lon="1.66811">
        <ele>277.96</ele>
        <time>2015-11-22T11:30:39Z</time>
      </trkpt>
      <trkpt lat="44.79258" lon="1.6682">
        <ele>278.92</ele>
        <time>2015-11-22T11:30:44Z</time>
      </trkpt>
      <trkpt lat="44.79257" lon="1.66822">
        <ele>278.92</ele>
        <time>2015-11-22T11:30:45Z</time>
      </trkpt>
      <trkpt lat="44.79256" lon="1.66824">
        <ele>278.92</ele>
        <time>2015-11-22T11:30:46Z</time>
      </trkpt>
      <trkpt lat="44.79254" lon="1.66826">
        <ele>278.92</ele>
        <time>2015-11-22T11:30:47Z</time>
      </trkpt>
      <trkpt lat="44.79253" lon="1.66828">
        <ele>278.92</ele>
        <time>2015-11-22T11:30:48Z</time>
      </trkpt>
      <trkpt lat="44.79252" lon="1.6683">
        <ele>279.4</ele>
        <time>2015-11-22T11:30:49Z</time>
      </trkpt>
      <trkpt lat="44.79252" lon="1.66832">
        <ele>279.4</ele>
        <time>2015-11-22T11:30:50Z</time>
      </trkpt>
      <trkpt lat="44.7925" lon="1.66834">
        <ele>279.4</ele>
        <time>2015-11-22T11:30:51Z</time>
      </trkpt>
      <trkpt lat="44.79249" lon="1.66836">
        <ele>279.4</ele>
        <time>2015-11-22T11:30:52Z</time>
      </trkpt>
      <trkpt lat="44.79247" lon="1.66836">
        <ele>279.4</ele>
        <time>2015-11-22T11:30:53Z</time>
      </trkpt>
      <trkpt lat="44.79246" lon="1.66836">
        <ele>279.4</ele>
        <time>2015-11-22T11:30:54Z</time>
      </trkpt>
      <trkpt lat="44.79244" lon="1.66836">
        <ele>279.4</ele>
        <time>2015-11-22T11:30:55Z</time>
      </trkpt>
      <trkpt lat="44.79242" lon="1.66837">
        <ele>279.4</ele>
        <time>2015-11-22T11:30:56Z</time>
      </trkpt>
      <trkpt lat="44.79226" lon="1.66851">
        <ele>279.4</ele>
        <time>2015-11-22T11:31:07Z</time>
      </trkpt>
      <trkpt lat="44.79225" lon="1.66851">
        <ele>279.4</ele>
        <time>2015-11-22T11:31:08Z</time>
      </trkpt>
      <trkpt lat="44.79223" lon="1.66851">
        <ele>279.4</ele>
        <time>2015-11-22T11:31:09Z</time>
      </trkpt>
      <trkpt lat="44.79222" lon="1.66851">
        <ele>279.4</ele>
        <time>2015-11-22T11:31:10Z</time>
      </trkpt>
      <trkpt lat="44.79221" lon="1.66851">
        <ele>279.4</ele>
        <time>2015-11-22T11:31:11Z</time>
      </trkpt>
      <trkpt lat="44.79219" lon="1.66851">
        <ele>279.4</ele>
        <time>2015-11-22T11:31:12Z</time>
      </trkpt>
      <trkpt lat="44.79218" lon="1.66851">
        <ele>279.4</ele>
        <time>2015-11-22T11:31:13Z</time>
      </trkpt>
      <trkpt lat="44.79215" lon="1.66853">
        <ele>279.4</ele>
        <time>2015-11-22T11:31:16Z</time>
      </trkpt>
      <trkpt lat="44.79214" lon="1.66854">
        <ele>279.4</ele>
        <time>2015-11-22T11:31:17Z</time>
      </trkpt>
      <trkpt lat="44.79213" lon="1.66855">
        <ele>279.4</ele>
        <time>2015-11-22T11:31:18Z</time>
      </trkpt>
      <trkpt lat="44.79209" lon="1.6686">
        <ele>277.48</ele>
        <time>2015-11-22T11:31:27Z</time>
      </trkpt>
      <trkpt lat="44.79207" lon="1.66865">
        <ele>277.96</ele>
        <time>2015-11-22T11:31:37Z</time>
      </trkpt>
      <trkpt lat="44.79205" lon="1.66864">
        <ele>277</ele>
        <time>2015-11-22T11:31:48Z</time>
      </trkpt>
      <trkpt lat="44.79205" lon="1.66864">
        <ele>277</ele>
        <time>2015-11-22T11:31:49Z</time>
      </trkpt>
      <trkpt lat="44.79206" lon="1.66873">
        <ele>277</ele>
        <time>2015-11-22T11:31:57Z</time>
      </trkpt>
      <trkpt lat="44.79209" lon="1.66884">
        <ele>276.04</ele>
        <time>2015-11-22T11:32:05Z</time>
      </trkpt>
      <trkpt lat="44.79205" lon="1.66894">
        <ele>275.56</ele>
        <time>2015-11-22T11:32:12Z</time>
      </trkpt>
      <trkpt lat="44.79203" lon="1.669">
        <ele>273.63</ele>
        <time>2015-11-22T11:32:24Z</time>
      </trkpt>
      <trkpt lat="44.79202" lon="1.66898">
        <ele>273.15</ele>
        <time>2015-11-22T11:32:37Z</time>
      </trkpt>
      <trkpt lat="44.79201" lon="1.66898">
        <ele>273.15</ele>
        <time>2015-11-22T11:32:50Z</time>
      </trkpt>
      <trkpt lat="44.79199" lon="1.66894">
        <ele>273.15</ele>
        <time>2015-11-22T11:32:59Z</time>
      </trkpt>
      <trkpt lat="44.792" lon="1.66894">
        <ele>273.15</ele>
        <time>2015-11-22T11:33:07Z</time>
      </trkpt>
      <trkpt lat="44.792" lon="1.66892">
        <ele>273.15</ele>
        <time>2015-11-22T11:33:24Z</time>
      </trkpt>
      <trkpt lat="44.792" lon="1.66893">
        <ele>272.67</ele>
        <time>2015-11-22T11:33:42Z</time>
      </trkpt>
      <trkpt lat="44.792" lon="1.66894">
        <ele>271.71</ele>
        <time>2015-11-22T11:34:17Z</time>
      </trkpt>
      <trkpt lat="44.792" lon="1.66894">
        <ele>271.71</ele>
        <time>2015-11-22T11:34:45Z</time>
      </trkpt>
      <trkpt lat="44.792" lon="1.66894">
        <ele>271.71</ele>
        <time>2015-11-22T11:35:15Z</time>
      </trkpt>
      <trkpt lat="44.792" lon="1.66894">
        <ele>271.71</ele>
        <time>2015-11-22T11:35:49Z</time>
      </trkpt>
      <trkpt lat="44.79199" lon="1.66894">
        <ele>271.71</ele>
        <time>2015-11-22T11:36:22Z</time>
      </trkpt>
      <trkpt lat="44.792" lon="1.66895">
        <ele>271.23</ele>
        <time>2015-11-22T11:36:45Z</time>
      </trkpt>
      <trkpt lat="44.792" lon="1.66896">
        <ele>271.23</ele>
        <time>2015-11-22T11:37:18Z</time>
      </trkpt>
      <trkpt lat="44.79201" lon="1.66896">
        <ele>271.23</ele>
        <time>2015-11-22T11:37:44Z</time>
      </trkpt>
      <trkpt lat="44.79201" lon="1.66896">
        <ele>271.23</ele>
        <time>2015-11-22T11:38:10Z</time>
      </trkpt>
      <trkpt lat="44.79201" lon="1.66896">
        <ele>271.23</ele>
        <time>2015-11-22T11:38:33Z</time>
      </trkpt>
      <trkpt lat="44.79202" lon="1.66895">
        <ele>271.23</ele>
        <time>2015-11-22T11:38:50Z</time>
      </trkpt>
      <trkpt lat="44.79201" lon="1.66895">
        <ele>271.23</ele>
        <time>2015-11-22T11:39:07Z</time>
      </trkpt>
      <trkpt lat="44.79201" lon="1.66893">
        <ele>271.23</ele>
        <time>2015-11-22T11:39:23Z</time>
      </trkpt>
      <trkpt lat="44.79201" lon="1.66893">
        <ele>271.23</ele>
        <time>2015-11-22T11:39:43Z</time>
      </trkpt>
      <trkpt lat="44.79201" lon="1.66893">
        <ele>271.23</ele>
        <time>2015-11-22T11:40:09Z</time>
      </trkpt>
      <trkpt lat="44.792" lon="1.66893">
        <ele>270.75</ele>
        <time>2015-11-22T11:40:37Z</time>
      </trkpt>
      <trkpt lat="44.79201" lon="1.66893">
        <ele>270.75</ele>
        <time>2015-11-22T11:41:04Z</time>
      </trkpt>
      <trkpt lat="44.79201" lon="1.66893">
        <ele>270.75</ele>
        <time>2015-11-22T11:41:40Z</time>
      </trkpt>
      <trkpt lat="44.79201" lon="1.66893">
        <ele>270.75</ele>
        <time>2015-11-22T11:42:14Z</time>
      </trkpt>
      <trkpt lat="44.79201" lon="1.66893">
        <ele>270.27</ele>
        <time>2015-11-22T11:42:50Z</time>
      </trkpt>
      <trkpt lat="44.79201" lon="1.66892">
        <ele>270.27</ele>
        <time>2015-11-22T11:43:18Z</time>
      </trkpt>
      <trkpt lat="44.79201" lon="1.66892">
        <ele>270.27</ele>
        <time>2015-11-22T11:43:44Z</time>
      </trkpt>
      <trkpt lat="44.79201" lon="1.66893">
        <ele>270.27</ele>
        <time>2015-11-22T11:44:14Z</time>
      </trkpt>
      <trkpt lat="44.79202" lon="1.66893">
        <ele>270.27</ele>
        <time>2015-11-22T11:44:52Z</time>
      </trkpt>
      <trkpt lat="44.79202" lon="1.66893">
        <ele>270.27</ele>
        <time>2015-11-22T11:45:31Z</time>
      </trkpt>
      <trkpt lat="44.79201" lon="1.66893">
        <ele>269.79</ele>
        <time>2015-11-22T11:46:06Z</time>
      </trkpt>
      <trkpt lat="44.79201" lon="1.66893">
        <ele>269.79</ele>
        <time>2015-11-22T11:46:39Z</time>
      </trkpt>
      <trkpt lat="44.79202" lon="1.66892">
        <ele>269.79</ele>
        <time>2015-11-22T11:47:15Z</time>
      </trkpt>
      <trkpt lat="44.79201" lon="1.66892">
        <ele>269.79</ele>
        <time>2015-11-22T11:47:49Z</time>
      </trkpt>
      <trkpt lat="44.79202" lon="1.66893">
        <ele>269.79</ele>
        <time>2015-11-22T11:48:18Z</time>
      </trkpt>
      <trkpt lat="44.79202" lon="1.66892">
        <ele>269.31</ele>
        <time>2015-11-22T11:48:46Z</time>
      </trkpt>
      <trkpt lat="44.79202" lon="1.66892">
        <ele>269.31</ele>
        <time>2015-11-22T11:49:23Z</time>
      </trkpt>
      <trkpt lat="44.79202" lon="1.66893">
        <ele>269.31</ele>
        <time>2015-11-22T11:49:55Z</time>
      </trkpt>
      <trkpt lat="44.79201" lon="1.66893">
        <ele>269.31</ele>
        <time>2015-11-22T11:50:23Z</time>
      </trkpt>
      <trkpt lat="44.79201" lon="1.66892">
        <ele>268.83</ele>
        <time>2015-11-22T11:51:03Z</time>
      </trkpt>
      <trkpt lat="44.79202" lon="1.66891">
        <ele>268.83</ele>
        <time>2015-11-22T11:51:30Z</time>
      </trkpt>
      <trkpt lat="44.79201" lon="1.66891">
        <ele>268.83</ele>
        <time>2015-11-22T11:52:03Z</time>
      </trkpt>
      <trkpt lat="44.79201" lon="1.66891">
        <ele>268.83</ele>
        <time>2015-11-22T11:52:36Z</time>
      </trkpt>
      <trkpt lat="44.79201" lon="1.66891">
        <ele>268.83</ele>
        <time>2015-11-22T11:53:15Z</time>
      </trkpt>
      <trkpt lat="44.79201" lon="1.66892">
        <ele>268.83</ele>
        <time>2015-11-22T11:53:50Z</time>
      </trkpt>
      <trkpt lat="44.79201" lon="1.66891">
        <ele>268.35</ele>
        <time>2015-11-22T11:54:26Z</time>
      </trkpt>
      <trkpt lat="44.79202" lon="1.66891">
        <ele>268.35</ele>
        <time>2015-11-22T11:55:02Z</time>
      </trkpt>
      <trkpt lat="44.79201" lon="1.66891">
        <ele>268.35</ele>
        <time>2015-11-22T11:55:33Z</time>
      </trkpt>
      <trkpt lat="44.792" lon="1.66893">
        <ele>269.31</ele>
        <time>2015-11-22T11:56:06Z</time>
      </trkpt>
      <trkpt lat="44.792" lon="1.66893">
        <ele>269.31</ele>
        <time>2015-11-22T11:56:14Z</time>
      </trkpt>
      <trkpt lat="44.792" lon="1.66895">
        <ele>269.31</ele>
        <time>2015-11-22T11:56:26Z</time>
      </trkpt>
      <trkpt lat="44.792" lon="1.66894">
        <ele>269.31</ele>
        <time>2015-11-22T11:56:40Z</time>
      </trkpt>
      <trkpt lat="44.792" lon="1.66894">
        <ele>269.31</ele>
        <time>2015-11-22T11:57:09Z</time>
      </trkpt>
      <trkpt lat="44.792" lon="1.66895">
        <ele>269.31</ele>
        <time>2015-11-22T11:57:41Z</time>
      </trkpt>
      <trkpt lat="44.792" lon="1.66895">
        <ele>269.31</ele>
        <time>2015-11-22T11:58:07Z</time>
      </trkpt>
      <trkpt lat="44.79199" lon="1.66895">
        <ele>269.31</ele>
        <time>2015-11-22T11:58:23Z</time>
      </trkpt>
      <trkpt lat="44.79199" lon="1.66895">
        <ele>269.31</ele>
        <time>2015-11-22T11:58:47Z</time>
      </trkpt>
      <trkpt lat="44.792" lon="1.66895">
        <ele>268.83</ele>
        <time>2015-11-22T11:58:59Z</time>
      </trkpt>
      <trkpt lat="44.792" lon="1.66894">
        <ele>268.83</ele>
        <time>2015-11-22T11:59:10Z</time>
      </trkpt>
      <trkpt lat="44.792" lon="1.66893">
        <ele>268.83</ele>
        <time>2015-11-22T11:59:30Z</time>
      </trkpt>
      <trkpt lat="44.79201" lon="1.66893">
        <ele>269.79</ele>
        <time>2015-11-22T11:59:43Z</time>
      </trkpt>
      <trkpt lat="44.79201" lon="1.66893">
        <ele>269.31</ele>
        <time>2015-11-22T12:00:09Z</time>
      </trkpt>
      <trkpt lat="44.79201" lon="1.66892">
        <ele>269.31</ele>
        <time>2015-11-22T12:00:34Z</time>
      </trkpt>
      <trkpt lat="44.79201" lon="1.66892">
        <ele>269.31</ele>
        <time>2015-11-22T12:00:58Z</time>
      </trkpt>
      <trkpt lat="44.79201" lon="1.66892">
        <ele>269.31</ele>
        <time>2015-11-22T12:01:21Z</time>
      </trkpt>
      <trkpt lat="44.79201" lon="1.66893">
        <ele>269.31</ele>
        <time>2015-11-22T12:01:44Z</time>
      </trkpt>
      <trkpt lat="44.79201" lon="1.66893">
        <ele>269.31</ele>
        <time>2015-11-22T12:02:11Z</time>
      </trkpt>
      <trkpt lat="44.792" lon="1.66893">
        <ele>267.86</ele>
        <time>2015-11-22T12:02:38Z</time>
      </trkpt>
      <trkpt lat="44.792" lon="1.66893">
        <ele>267.86</ele>
        <time>2015-11-22T12:03:00Z</time>
      </trkpt>
      <trkpt lat="44.79201" lon="1.66893">
        <ele>267.86</ele>
        <time>2015-11-22T12:03:32Z</time>
      </trkpt>
      <trkpt lat="44.792" lon="1.66894">
        <ele>267.38</ele>
        <time>2015-11-22T12:03:54Z</time>
      </trkpt>
      <trkpt lat="44.792" lon="1.66894">
        <ele>267.38</ele>
        <time>2015-11-22T12:04:14Z</time>
      </trkpt>
      <trkpt lat="44.792" lon="1.66894">
        <ele>267.38</ele>
        <time>2015-11-22T12:04:38Z</time>
      </trkpt>
      <trkpt lat="44.792" lon="1.66895">
        <ele>267.38</ele>
        <time>2015-11-22T12:05:03Z</time>
      </trkpt>
      <trkpt lat="44.792" lon="1.66895">
        <ele>267.38</ele>
        <time>2015-11-22T12:05:24Z</time>
      </trkpt>
      <trkpt lat="44.79201" lon="1.66897">
        <ele>267.38</ele>
        <time>2015-11-22T12:05:42Z</time>
      </trkpt>
      <trkpt lat="44.79202" lon="1.66895">
        <ele>267.86</ele>
        <time>2015-11-22T12:06:09Z</time>
      </trkpt>
      <trkpt lat="44.79201" lon="1.66893">
        <ele>267.86</ele>
        <time>2015-11-22T12:06:24Z</time>
      </trkpt>
      <trkpt lat="44.79201" lon="1.66893">
        <ele>267.86</ele>
        <time>2015-11-22T12:06:52Z</time>
      </trkpt>
      <trkpt lat="44.79201" lon="1.66893">
        <ele>267.86</ele>
        <time>2015-11-22T12:07:17Z</time>
      </trkpt>
      <trkpt lat="44.79201" lon="1.66893">
        <ele>267.86</ele>
        <time>2015-11-22T12:07:41Z</time>
      </trkpt>
      <trkpt lat="44.79201" lon="1.66892">
        <ele>267.86</ele>
        <time>2015-11-22T12:07:53Z</time>
      </trkpt>
      <trkpt lat="44.79201" lon="1.66892">
        <ele>267.86</ele>
        <time>2015-11-22T12:08:12Z</time>
      </trkpt>
      <trkpt lat="44.79201" lon="1.66892">
        <ele>267.86</ele>
        <time>2015-11-22T12:08:39Z</time>
      </trkpt>
      <trkpt lat="44.79201" lon="1.66892">
        <ele>267.86</ele>
        <time>2015-11-22T12:08:59Z</time>
      </trkpt>
      <trkpt lat="44.79202" lon="1.66892">
        <ele>268.35</ele>
        <time>2015-11-22T12:09:16Z</time>
      </trkpt>
      <trkpt lat="44.79202" lon="1.66893">
        <ele>268.35</ele>
        <time>2015-11-22T12:09:39Z</time>
      </trkpt>
      <trkpt lat="44.79202" lon="1.66893">
        <ele>268.35</ele>
        <time>2015-11-22T12:10:01Z</time>
      </trkpt>
      <trkpt lat="44.79204" lon="1.66895">
        <ele>268.35</ele>
        <time>2015-11-22T12:10:15Z</time>
      </trkpt>
      <trkpt lat="44.79206" lon="1.66894">
        <ele>268.35</ele>
        <time>2015-11-22T12:10:33Z</time>
      </trkpt>
      <trkpt lat="44.79207" lon="1.66892">
        <ele>268.35</ele>
        <time>2015-11-22T12:10:39Z</time>
      </trkpt>
      <trkpt lat="44.79209" lon="1.66887">
        <ele>269.31</ele>
        <time>2015-11-22T12:10:50Z</time>
      </trkpt>
      <trkpt lat="44.79209" lon="1.66883">
        <ele>269.31</ele>
        <time>2015-11-22T12:10:54Z</time>
      </trkpt>
      <trkpt lat="44.79203" lon="1.66869">
        <ele>270.75</ele>
        <time>2015-11-22T12:11:06Z</time>
      </trkpt>
      <trkpt lat="44.79206" lon="1.66857">
        <ele>271.71</ele>
        <time>2015-11-22T12:11:20Z</time>
      </trkpt>
      <trkpt lat="44.79205" lon="1.66853">
        <ele>271.71</ele>
        <time>2015-11-22T12:11:34Z</time>
      </trkpt>
      <trkpt lat="44.79205" lon="1.66854">
        <ele>271.71</ele>
        <time>2015-11-22T12:11:51Z</time>
      </trkpt>
      <trkpt lat="44.79204" lon="1.66853">
        <ele>272.19</ele>
        <time>2015-11-22T12:12:09Z</time>
      </trkpt>
      <trkpt lat="44.79204" lon="1.66854">
        <ele>272.19</ele>
        <time>2015-11-22T12:12:31Z</time>
      </trkpt>
      <trkpt lat="44.79204" lon="1.66854">
        <ele>272.19</ele>
        <time>2015-11-22T12:12:57Z</time>
      </trkpt>
      <trkpt lat="44.79203" lon="1.66854">
        <ele>272.19</ele>
        <time>2015-11-22T12:13:21Z</time>
      </trkpt>
      <trkpt lat="44.79203" lon="1.66854">
        <ele>271.71</ele>
        <time>2015-11-22T12:13:43Z</time>
      </trkpt>
      <trkpt lat="44.79204" lon="1.66855">
        <ele>271.71</ele>
        <time>2015-11-22T12:13:56Z</time>
      </trkpt>
      <trkpt lat="44.79204" lon="1.66855">
        <ele>271.71</ele>
        <time>2015-11-22T12:14:17Z</time>
      </trkpt>
      <trkpt lat="44.79204" lon="1.66856">
        <ele>271.71</ele>
        <time>2015-11-22T12:14:29Z</time>
      </trkpt>
      <trkpt lat="44.79203" lon="1.66858">
        <ele>271.71</ele>
        <time>2015-11-22T12:14:42Z</time>
      </trkpt>
      <trkpt lat="44.79203" lon="1.66859">
        <ele>271.71</ele>
        <time>2015-11-22T12:14:57Z</time>
      </trkpt>
      <trkpt lat="44.79204" lon="1.66859">
        <ele>271.71</ele>
        <time>2015-11-22T12:15:15Z</time>
      </trkpt>
      <trkpt lat="44.79203" lon="1.66857">
        <ele>271.71</ele>
        <time>2015-11-22T12:15:29Z</time>
      </trkpt>
      <trkpt lat="44.792" lon="1.6685">
        <ele>271.71</ele>
        <time>2015-11-22T12:15:45Z</time>
      </trkpt>
      <trkpt lat="44.79201" lon="1.66852">
        <ele>271.71</ele>
        <time>2015-11-22T12:15:58Z</time>
      </trkpt>
      <trkpt lat="44.79201" lon="1.66833">
        <ele>271.71</ele>
        <time>2015-11-22T12:16:10Z</time>
      </trkpt>
      <trkpt lat="44.79198" lon="1.66815">
        <ele>272.67</ele>
        <time>2015-11-22T12:16:21Z</time>
      </trkpt>
      <trkpt lat="44.79195" lon="1.66807">
        <ele>273.15</ele>
        <time>2015-11-22T12:16:25Z</time>
      </trkpt>
      <trkpt lat="44.79193" lon="1.668">
        <ele>274.11</ele>
        <time>2015-11-22T12:16:30Z</time>
      </trkpt>
      <trkpt lat="44.79186" lon="1.66784">
        <ele>274.59</ele>
        <time>2015-11-22T12:16:42Z</time>
      </trkpt>
      <trkpt lat="44.79177" lon="1.6677">
        <ele>275.56</ele>
        <time>2015-11-22T12:16:54Z</time>
      </trkpt>
      <trkpt lat="44.79176" lon="1.6677">
        <ele>275.56</ele>
        <time>2015-11-22T12:16:55Z</time>
      </trkpt>
      <trkpt lat="44.79174" lon="1.66769">
        <ele>275.56</ele>
        <time>2015-11-22T12:16:57Z</time>
      </trkpt>
      <trkpt lat="44.79161" lon="1.66756">
        <ele>275.56</ele>
        <time>2015-11-22T12:17:11Z</time>
      </trkpt>
      <trkpt lat="44.79154" lon="1.66756">
        <ele>275.56</ele>
        <time>2015-11-22T12:17:16Z</time>
      </trkpt>
      <trkpt lat="44.79151" lon="1.66755">
        <ele>275.56</ele>
        <time>2015-11-22T12:17:19Z</time>
      </trkpt>
      <trkpt lat="44.7914" lon="1.66757">
        <ele>275.56</ele>
        <time>2015-11-22T12:17:27Z</time>
      </trkpt>
      <trkpt lat="44.79138" lon="1.66759">
        <ele>275.56</ele>
        <time>2015-11-22T12:17:29Z</time>
      </trkpt>
      <trkpt lat="44.79136" lon="1.6676">
        <ele>275.56</ele>
        <time>2015-11-22T12:17:31Z</time>
      </trkpt>
      <trkpt lat="44.79134" lon="1.66762">
        <ele>275.07</ele>
        <time>2015-11-22T12:17:33Z</time>
      </trkpt>
      <trkpt lat="44.79128" lon="1.66765">
        <ele>275.07</ele>
        <time>2015-11-22T12:17:37Z</time>
      </trkpt>
      <trkpt lat="44.79115" lon="1.66765">
        <ele>275.07</ele>
        <time>2015-11-22T12:17:45Z</time>
      </trkpt>
      <trkpt lat="44.79107" lon="1.66768">
        <ele>275.07</ele>
        <time>2015-11-22T12:17:51Z</time>
      </trkpt>
      <trkpt lat="44.79097" lon="1.66765">
        <ele>275.07</ele>
        <time>2015-11-22T12:17:57Z</time>
      </trkpt>
      <trkpt lat="44.79092" lon="1.66765">
        <ele>275.07</ele>
        <time>2015-11-22T12:18:01Z</time>
      </trkpt>
      <trkpt lat="44.79082" lon="1.66781">
        <ele>275.07</ele>
        <time>2015-11-22T12:18:12Z</time>
      </trkpt>
      <trkpt lat="44.79065" lon="1.6679">
        <ele>274.11</ele>
        <time>2015-11-22T12:18:24Z</time>
      </trkpt>
      <trkpt lat="44.79057" lon="1.66791">
        <ele>274.11</ele>
        <time>2015-11-22T12:18:30Z</time>
      </trkpt>
      <trkpt lat="44.79042" lon="1.66801">
        <ele>274.11</ele>
        <time>2015-11-22T12:18:40Z</time>
      </trkpt>
      <trkpt lat="44.79024" lon="1.66816">
        <ele>273.15</ele>
        <time>2015-11-22T12:18:54Z</time>
      </trkpt>
      <trkpt lat="44.79016" lon="1.6682">
        <ele>273.15</ele>
        <time>2015-11-22T12:18:59Z</time>
      </trkpt>
      <trkpt lat="44.79" lon="1.66817">
        <ele>272.67</ele>
        <time>2015-11-22T12:19:11Z</time>
      </trkpt>
      <trkpt lat="44.78987" lon="1.66815">
        <ele>272.67</ele>
        <time>2015-11-22T12:19:22Z</time>
      </trkpt>
      <trkpt lat="44.78983" lon="1.66816">
        <ele>272.67</ele>
        <time>2015-11-22T12:19:24Z</time>
      </trkpt>
      <trkpt lat="44.78975" lon="1.66807">
        <ele>272.67</ele>
        <time>2015-11-22T12:19:33Z</time>
      </trkpt>
      <trkpt lat="44.78968" lon="1.66801">
        <ele>274.11</ele>
        <time>2015-11-22T12:19:40Z</time>
      </trkpt>
      <trkpt lat="44.78966" lon="1.66802">
        <ele>274.11</ele>
        <time>2015-11-22T12:19:42Z</time>
      </trkpt>
      <trkpt lat="44.78963" lon="1.66806">
        <ele>274.11</ele>
        <time>2015-11-22T12:19:45Z</time>
      </trkpt>
      <trkpt lat="44.78952" lon="1.66821">
        <ele>274.11</ele>
        <time>2015-11-22T12:19:55Z</time>
      </trkpt>
      <trkpt lat="44.78947" lon="1.6683">
        <ele>274.11</ele>
        <time>2015-11-22T12:20:00Z</time>
      </trkpt>
      <trkpt lat="44.78938" lon="1.66845">
        <ele>274.11</ele>
        <time>2015-11-22T12:20:10Z</time>
      </trkpt>
      <trkpt lat="44.7893" lon="1.6686">
        <ele>274.11</ele>
        <time>2015-11-22T12:20:19Z</time>
      </trkpt>
      <trkpt lat="44.7893" lon="1.66864">
        <ele>274.11</ele>
        <time>2015-11-22T12:20:21Z</time>
      </trkpt>
      <trkpt lat="44.78928" lon="1.66873">
        <ele>275.07</ele>
        <time>2015-11-22T12:20:26Z</time>
      </trkpt>
      <trkpt lat="44.78924" lon="1.66898">
        <ele>276.04</ele>
        <time>2015-11-22T12:20:37Z</time>
      </trkpt>
      <trkpt lat="44.78922" lon="1.6691">
        <ele>276.52</ele>
        <time>2015-11-22T12:20:44Z</time>
      </trkpt>
      <trkpt lat="44.78913" lon="1.6694">
        <ele>277</ele>
        <time>2015-11-22T12:21:00Z</time>
      </trkpt>
      <trkpt lat="44.78911" lon="1.66944">
        <ele>277</ele>
        <time>2015-11-22T12:21:02Z</time>
      </trkpt>
      <trkpt lat="44.7891" lon="1.66968">
        <ele>277</ele>
        <time>2015-11-22T12:21:14Z</time>
      </trkpt>
      <trkpt lat="44.78912" lon="1.66975">
        <ele>277</ele>
        <time>2015-11-22T12:21:18Z</time>
      </trkpt>
      <trkpt lat="44.78912" lon="1.66989">
        <ele>277</ele>
        <time>2015-11-22T12:21:25Z</time>
      </trkpt>
      <trkpt lat="44.78911" lon="1.67004">
        <ele>275.56</ele>
        <time>2015-11-22T12:21:32Z</time>
      </trkpt>
      <trkpt lat="44.78908" lon="1.67006">
        <ele>275.56</ele>
        <time>2015-11-22T12:21:35Z</time>
      </trkpt>
      <trkpt lat="44.78895" lon="1.66999">
        <ele>275.07</ele>
        <time>2015-11-22T12:21:47Z</time>
      </trkpt>
      <trkpt lat="44.7889" lon="1.66995">
        <ele>276.52</ele>
        <time>2015-11-22T12:21:51Z</time>
      </trkpt>
      <trkpt lat="44.78889" lon="1.66994">
        <ele>276.52</ele>
        <time>2015-11-22T12:21:52Z</time>
      </trkpt>
      <trkpt lat="44.78887" lon="1.66991">
        <ele>276.52</ele>
        <time>2015-11-22T12:21:54Z</time>
      </trkpt>
      <trkpt lat="44.78876" lon="1.66983">
        <ele>280.36</ele>
        <time>2015-11-22T12:22:02Z</time>
      </trkpt>
      <trkpt lat="44.78875" lon="1.66982">
        <ele>281.32</ele>
        <time>2015-11-22T12:22:03Z</time>
      </trkpt>
      <trkpt lat="44.78874" lon="1.66981">
        <ele>282.28</ele>
        <time>2015-11-22T12:22:04Z</time>
      </trkpt>
      <trkpt lat="44.78873" lon="1.6698">
        <ele>283.25</ele>
        <time>2015-11-22T12:22:05Z</time>
      </trkpt>
      <trkpt lat="44.78871" lon="1.66978">
        <ele>283.73</ele>
        <time>2015-11-22T12:22:06Z</time>
      </trkpt>
      <trkpt lat="44.7887" lon="1.66977">
        <ele>284.21</ele>
        <time>2015-11-22T12:22:07Z</time>
      </trkpt>
      <trkpt lat="44.78869" lon="1.66977">
        <ele>284.69</ele>
        <time>2015-11-22T12:22:08Z</time>
      </trkpt>
      <trkpt lat="44.78868" lon="1.66976">
        <ele>284.69</ele>
        <time>2015-11-22T12:22:09Z</time>
      </trkpt>
      <trkpt lat="44.78866" lon="1.66975">
        <ele>285.17</ele>
        <time>2015-11-22T12:22:10Z</time>
      </trkpt>
      <trkpt lat="44.78857" lon="1.66966">
        <ele>284.69</ele>
        <time>2015-11-22T12:22:19Z</time>
      </trkpt>
      <trkpt lat="44.78856" lon="1.66965">
        <ele>285.17</ele>
        <time>2015-11-22T12:22:20Z</time>
      </trkpt>
      <trkpt lat="44.78854" lon="1.66963">
        <ele>285.65</ele>
        <time>2015-11-22T12:22:23Z</time>
      </trkpt>
      <trkpt lat="44.78852" lon="1.66963">
        <ele>285.17</ele>
        <time>2015-11-22T12:22:24Z</time>
      </trkpt>
      <trkpt lat="44.78848" lon="1.66961">
        <ele>286.61</ele>
        <time>2015-11-22T12:22:28Z</time>
      </trkpt>
      <trkpt lat="44.78844" lon="1.66958">
        <ele>290.46</ele>
        <time>2015-11-22T12:22:32Z</time>
      </trkpt>
      <trkpt lat="44.78843" lon="1.66957">
        <ele>290.94</ele>
        <time>2015-11-22T12:22:33Z</time>
      </trkpt>
      <trkpt lat="44.78843" lon="1.66955">
        <ele>291.9</ele>
        <time>2015-11-22T12:22:34Z</time>
      </trkpt>
      <trkpt lat="44.78837" lon="1.66949">
        <ele>293.34</ele>
        <time>2015-11-22T12:22:40Z</time>
      </trkpt>
      <trkpt lat="44.78823" lon="1.66937">
        <ele>293.82</ele>
        <time>2015-11-22T12:22:54Z</time>
      </trkpt>
      <trkpt lat="44.78815" lon="1.66929">
        <ele>296.7</ele>
        <time>2015-11-22T12:23:02Z</time>
      </trkpt>
      <trkpt lat="44.78812" lon="1.66928">
        <ele>298.63</ele>
        <time>2015-11-22T12:23:05Z</time>
      </trkpt>
      <trkpt lat="44.7881" lon="1.66928">
        <ele>299.11</ele>
        <time>2015-11-22T12:23:06Z</time>
      </trkpt>
      <trkpt lat="44.78809" lon="1.66928">
        <ele>299.11</ele>
        <time>2015-11-22T12:23:07Z</time>
      </trkpt>
      <trkpt lat="44.78808" lon="1.66928">
        <ele>299.59</ele>
        <time>2015-11-22T12:23:08Z</time>
      </trkpt>
      <trkpt lat="44.78807" lon="1.66927">
        <ele>299.59</ele>
        <time>2015-11-22T12:23:09Z</time>
      </trkpt>
      <trkpt lat="44.78806" lon="1.66927">
        <ele>299.59</ele>
        <time>2015-11-22T12:23:10Z</time>
      </trkpt>
      <trkpt lat="44.78797" lon="1.66913">
        <ele>300.55</ele>
        <time>2015-11-22T12:23:22Z</time>
      </trkpt>
      <trkpt lat="44.78789" lon="1.66906">
        <ele>302.95</ele>
        <time>2015-11-22T12:23:33Z</time>
      </trkpt>
      <trkpt lat="44.78788" lon="1.66906">
        <ele>302.95</ele>
        <time>2015-11-22T12:23:34Z</time>
      </trkpt>
      <trkpt lat="44.78786" lon="1.66905">
        <ele>303.91</ele>
        <time>2015-11-22T12:23:35Z</time>
      </trkpt>
      <trkpt lat="44.78782" lon="1.66902">
        <ele>307.76</ele>
        <time>2015-11-22T12:23:40Z</time>
      </trkpt>
      <trkpt lat="44.78781" lon="1.66901">
        <ele>307.76</ele>
        <time>2015-11-22T12:23:41Z</time>
      </trkpt>
      <trkpt lat="44.78774" lon="1.66894">
        <ele>308.72</ele>
        <time>2015-11-22T12:23:49Z</time>
      </trkpt>
      <trkpt lat="44.78766" lon="1.66891">
        <ele>310.16</ele>
        <time>2015-11-22T12:23:59Z</time>
      </trkpt>
      <trkpt lat="44.78761" lon="1.66888">
        <ele>313.53</ele>
        <time>2015-11-22T12:24:05Z</time>
      </trkpt>
      <trkpt lat="44.78755" lon="1.66883">
        <ele>315.45</ele>
        <time>2015-11-22T12:24:12Z</time>
      </trkpt>
      <trkpt lat="44.78744" lon="1.66867">
        <ele>315.93</ele>
        <time>2015-11-22T12:24:25Z</time>
      </trkpt>
      <trkpt lat="44.78739" lon="1.66865">
        <ele>316.41</ele>
        <time>2015-11-22T12:24:30Z</time>
      </trkpt>
      <trkpt lat="44.78738" lon="1.66864">
        <ele>316.41</ele>
        <time>2015-11-22T12:24:31Z</time>
      </trkpt>
      <trkpt lat="44.78737" lon="1.66862">
        <ele>316.89</ele>
        <time>2015-11-22T12:24:32Z</time>
      </trkpt>
      <trkpt lat="44.7873" lon="1.66854">
        <ele>317.85</ele>
        <time>2015-11-22T12:24:40Z</time>
      </trkpt>
      <trkpt lat="44.78727" lon="1.66852">
        <ele>318.81</ele>
        <time>2015-11-22T12:24:43Z</time>
      </trkpt>
      <trkpt lat="44.78726" lon="1.66852">
        <ele>318.81</ele>
        <time>2015-11-22T12:24:44Z</time>
      </trkpt>
      <trkpt lat="44.78709" lon="1.6684">
        <ele>321.22</ele>
        <time>2015-11-22T12:24:59Z</time>
      </trkpt>
      <trkpt lat="44.78706" lon="1.66839">
        <ele>321.7</ele>
        <time>2015-11-22T12:25:02Z</time>
      </trkpt>
      <trkpt lat="44.787" lon="1.66837">
        <ele>322.66</ele>
        <time>2015-11-22T12:25:07Z</time>
      </trkpt>
      <trkpt lat="44.78698" lon="1.66836">
        <ele>323.14</ele>
        <time>2015-11-22T12:25:08Z</time>
      </trkpt>
      <trkpt lat="44.78697" lon="1.66834">
        <ele>323.14</ele>
        <time>2015-11-22T12:25:10Z</time>
      </trkpt>
      <trkpt lat="44.78693" lon="1.66826">
        <ele>324.1</ele>
        <time>2015-11-22T12:25:15Z</time>
      </trkpt>
      <trkpt lat="44.78692" lon="1.66825">
        <ele>324.1</ele>
        <time>2015-11-22T12:25:16Z</time>
      </trkpt>
      <trkpt lat="44.7868" lon="1.66819">
        <ele>326.02</ele>
        <time>2015-11-22T12:25:28Z</time>
      </trkpt>
      <trkpt lat="44.7867" lon="1.66808">
        <ele>327.47</ele>
        <time>2015-11-22T12:25:37Z</time>
      </trkpt>
      <trkpt lat="44.78669" lon="1.66807">
        <ele>327.47</ele>
        <time>2015-11-22T12:25:38Z</time>
      </trkpt>
      <trkpt lat="44.78668" lon="1.66806">
        <ele>327.47</ele>
        <time>2015-11-22T12:25:39Z</time>
      </trkpt>
      <trkpt lat="44.78654" lon="1.66799">
        <ele>328.43</ele>
        <time>2015-11-22T12:25:50Z</time>
      </trkpt>
      <trkpt lat="44.78653" lon="1.66798">
        <ele>328.43</ele>
        <time>2015-11-22T12:25:51Z</time>
      </trkpt>
      <trkpt lat="44.78652" lon="1.66796">
        <ele>328.91</ele>
        <time>2015-11-22T12:25:52Z</time>
      </trkpt>
      <trkpt lat="44.78651" lon="1.66795">
        <ele>328.91</ele>
        <time>2015-11-22T12:25:53Z</time>
      </trkpt>
      <trkpt lat="44.7865" lon="1.66794">
        <ele>328.91</ele>
        <time>2015-11-22T12:25:54Z</time>
      </trkpt>
      <trkpt lat="44.78648" lon="1.66793">
        <ele>328.91</ele>
        <time>2015-11-22T12:25:55Z</time>
      </trkpt>
      <trkpt lat="44.78647" lon="1.66793">
        <ele>328.91</ele>
        <time>2015-11-22T12:25:56Z</time>
      </trkpt>
      <trkpt lat="44.78646" lon="1.66792">
        <ele>329.39</ele>
        <time>2015-11-22T12:25:57Z</time>
      </trkpt>
      <trkpt lat="44.78644" lon="1.66791">
        <ele>329.39</ele>
        <time>2015-11-22T12:25:58Z</time>
      </trkpt>
      <trkpt lat="44.78643" lon="1.66791">
        <ele>329.39</ele>
        <time>2015-11-22T12:25:59Z</time>
      </trkpt>
      <trkpt lat="44.78642" lon="1.6679">
        <ele>329.39</ele>
        <time>2015-11-22T12:26:00Z</time>
      </trkpt>
      <trkpt lat="44.78629" lon="1.66778">
        <ele>329.87</ele>
        <time>2015-11-22T12:26:12Z</time>
      </trkpt>
      <trkpt lat="44.78623" lon="1.66766">
        <ele>330.35</ele>
        <time>2015-11-22T12:26:23Z</time>
      </trkpt>
      <trkpt lat="44.78625" lon="1.66763">
        <ele>330.35</ele>
        <time>2015-11-22T12:26:28Z</time>
      </trkpt>
      <trkpt lat="44.78629" lon="1.66746">
        <ele>330.35</ele>
        <time>2015-11-22T12:26:42Z</time>
      </trkpt>
      <trkpt lat="44.78632" lon="1.66729">
        <ele>330.35</ele>
        <time>2015-11-22T12:26:56Z</time>
      </trkpt>
      <trkpt lat="44.78632" lon="1.66711">
        <ele>330.35</ele>
        <time>2015-11-22T12:27:12Z</time>
      </trkpt>
      <trkpt lat="44.78632" lon="1.6671">
        <ele>330.35</ele>
        <time>2015-11-22T12:27:34Z</time>
      </trkpt>
      <trkpt lat="44.78632" lon="1.66709">
        <ele>329.87</ele>
        <time>2015-11-22T12:27:52Z</time>
      </trkpt>
      <trkpt lat="44.78632" lon="1.6671">
        <ele>329.87</ele>
        <time>2015-11-22T12:28:13Z</time>
      </trkpt>
      <trkpt lat="44.78632" lon="1.66709">
        <ele>329.87</ele>
        <time>2015-11-22T12:28:32Z</time>
      </trkpt>
      <trkpt lat="44.78632" lon="1.66708">
        <ele>329.87</ele>
        <time>2015-11-22T12:28:48Z</time>
      </trkpt>
      <trkpt lat="44.78632" lon="1.66707">
        <ele>329.87</ele>
        <time>2015-11-22T12:29:09Z</time>
      </trkpt>
      <trkpt lat="44.78634" lon="1.66699">
        <ele>329.87</ele>
        <time>2015-11-22T12:29:24Z</time>
      </trkpt>
      <trkpt lat="44.78637" lon="1.66694">
        <ele>329.87</ele>
        <time>2015-11-22T12:29:27Z</time>
      </trkpt>
      <trkpt lat="44.78644" lon="1.66674">
        <ele>329.87</ele>
        <time>2015-11-22T12:29:40Z</time>
      </trkpt>
      <trkpt lat="44.78646" lon="1.66663">
        <ele>329.87</ele>
        <time>2015-11-22T12:29:46Z</time>
      </trkpt>
      <trkpt lat="44.78647" lon="1.66662">
        <ele>329.87</ele>
        <time>2015-11-22T12:29:47Z</time>
      </trkpt>
      <trkpt lat="44.78647" lon="1.66659">
        <ele>329.87</ele>
        <time>2015-11-22T12:29:48Z</time>
      </trkpt>
      <trkpt lat="44.78651" lon="1.66645">
        <ele>328.91</ele>
        <time>2015-11-22T12:29:56Z</time>
      </trkpt>
      <trkpt lat="44.78652" lon="1.66644">
        <ele>328.91</ele>
        <time>2015-11-22T12:29:57Z</time>
      </trkpt>
      <trkpt lat="44.78653" lon="1.66642">
        <ele>328.91</ele>
        <time>2015-11-22T12:29:58Z</time>
      </trkpt>
      <trkpt lat="44.78654" lon="1.66639">
        <ele>328.43</ele>
        <time>2015-11-22T12:30:00Z</time>
      </trkpt>
      <trkpt lat="44.78654" lon="1.66637">
        <ele>328.43</ele>
        <time>2015-11-22T12:30:01Z</time>
      </trkpt>
      <trkpt lat="44.78655" lon="1.66634">
        <ele>328.43</ele>
        <time>2015-11-22T12:30:02Z</time>
      </trkpt>
      <trkpt lat="44.78655" lon="1.66632">
        <ele>328.43</ele>
        <time>2015-11-22T12:30:03Z</time>
      </trkpt>
      <trkpt lat="44.78655" lon="1.66631">
        <ele>328.43</ele>
        <time>2015-11-22T12:30:04Z</time>
      </trkpt>
      <trkpt lat="44.78656" lon="1.66626">
        <ele>328.43</ele>
        <time>2015-11-22T12:30:06Z</time>
      </trkpt>
      <trkpt lat="44.78657" lon="1.66624">
        <ele>328.43</ele>
        <time>2015-11-22T12:30:07Z</time>
      </trkpt>
      <trkpt lat="44.7866" lon="1.66614">
        <ele>328.43</ele>
        <time>2015-11-22T12:30:11Z</time>
      </trkpt>
      <trkpt lat="44.7866" lon="1.66613">
        <ele>327.95</ele>
        <time>2015-11-22T12:30:12Z</time>
      </trkpt>
      <trkpt lat="44.78661" lon="1.66611">
        <ele>327.95</ele>
        <time>2015-11-22T12:30:13Z</time>
      </trkpt>
      <trkpt lat="44.78662" lon="1.66608">
        <ele>327.95</ele>
        <time>2015-11-22T12:30:14Z</time>
      </trkpt>
      <trkpt lat="44.78663" lon="1.66606">
        <ele>327.95</ele>
        <time>2015-11-22T12:30:15Z</time>
      </trkpt>
      <trkpt lat="44.78664" lon="1.66603">
        <ele>327.95</ele>
        <time>2015-11-22T12:30:16Z</time>
      </trkpt>
      <trkpt lat="44.78664" lon="1.66601">
        <ele>327.95</ele>
        <time>2015-11-22T12:30:17Z</time>
      </trkpt>
      <trkpt lat="44.78665" lon="1.66599">
        <ele>327.95</ele>
        <time>2015-11-22T12:30:18Z</time>
      </trkpt>
      <trkpt lat="44.78674" lon="1.66572">
        <ele>326.5</ele>
        <time>2015-11-22T12:30:30Z</time>
      </trkpt>
      <trkpt lat="44.78677" lon="1.66563">
        <ele>326.5</ele>
        <time>2015-11-22T12:30:34Z</time>
      </trkpt>
      <trkpt lat="44.78678" lon="1.66561">
        <ele>326.02</ele>
        <time>2015-11-22T12:30:35Z</time>
      </trkpt>
      <trkpt lat="44.78679" lon="1.66559">
        <ele>326.02</ele>
        <time>2015-11-22T12:30:36Z</time>
      </trkpt>
      <trkpt lat="44.78679" lon="1.66557">
        <ele>326.02</ele>
        <time>2015-11-22T12:30:37Z</time>
      </trkpt>
      <trkpt lat="44.7868" lon="1.66555">
        <ele>326.02</ele>
        <time>2015-11-22T12:30:38Z</time>
      </trkpt>
      <trkpt lat="44.78681" lon="1.66553">
        <ele>326.02</ele>
        <time>2015-11-22T12:30:39Z</time>
      </trkpt>
      <trkpt lat="44.78683" lon="1.66543">
        <ele>325.54</ele>
        <time>2015-11-22T12:30:45Z</time>
      </trkpt>
      <trkpt lat="44.78683" lon="1.66533">
        <ele>325.06</ele>
        <time>2015-11-22T12:30:50Z</time>
      </trkpt>
      <trkpt lat="44.78683" lon="1.6653">
        <ele>324.58</ele>
        <time>2015-11-22T12:30:51Z</time>
      </trkpt>
      <trkpt lat="44.78684" lon="1.66524">
        <ele>324.58</ele>
        <time>2015-11-22T12:30:54Z</time>
      </trkpt>
      <trkpt lat="44.78684" lon="1.66521">
        <ele>324.58</ele>
        <time>2015-11-22T12:30:55Z</time>
      </trkpt>
      <trkpt lat="44.78685" lon="1.66519">
        <ele>324.1</ele>
        <time>2015-11-22T12:30:56Z</time>
      </trkpt>
      <trkpt lat="44.78685" lon="1.66516">
        <ele>324.1</ele>
        <time>2015-11-22T12:30:57Z</time>
      </trkpt>
      <trkpt lat="44.78686" lon="1.66514">
        <ele>324.1</ele>
        <time>2015-11-22T12:30:58Z</time>
      </trkpt>
      <trkpt lat="44.78687" lon="1.66511">
        <ele>324.1</ele>
        <time>2015-11-22T12:30:59Z</time>
      </trkpt>
      <trkpt lat="44.78688" lon="1.66504">
        <ele>323.62</ele>
        <time>2015-11-22T12:31:02Z</time>
      </trkpt>
      <trkpt lat="44.78689" lon="1.66502">
        <ele>323.62</ele>
        <time>2015-11-22T12:31:03Z</time>
      </trkpt>
      <trkpt lat="44.78689" lon="1.665">
        <ele>323.62</ele>
        <time>2015-11-22T12:31:04Z</time>
      </trkpt>
      <trkpt lat="44.7869" lon="1.66498">
        <ele>323.62</ele>
        <time>2015-11-22T12:31:05Z</time>
      </trkpt>
      <trkpt lat="44.78691" lon="1.66496">
        <ele>323.62</ele>
        <time>2015-11-22T12:31:06Z</time>
      </trkpt>
      <trkpt lat="44.78692" lon="1.66494">
        <ele>323.62</ele>
        <time>2015-11-22T12:31:07Z</time>
      </trkpt>
      <trkpt lat="44.78693" lon="1.66492">
        <ele>323.14</ele>
        <time>2015-11-22T12:31:08Z</time>
      </trkpt>
      <trkpt lat="44.78693" lon="1.6649">
        <ele>323.14</ele>
        <time>2015-11-22T12:31:09Z</time>
      </trkpt>
      <trkpt lat="44.78694" lon="1.66489">
        <ele>323.14</ele>
        <time>2015-11-22T12:31:10Z</time>
      </trkpt>
      <trkpt lat="44.78695" lon="1.66487">
        <ele>323.14</ele>
        <time>2015-11-22T12:31:11Z</time>
      </trkpt>
      <trkpt lat="44.78695" lon="1.66485">
        <ele>323.14</ele>
        <time>2015-11-22T12:31:12Z</time>
      </trkpt>
      <trkpt lat="44.78696" lon="1.66482">
        <ele>322.18</ele>
        <time>2015-11-22T12:31:13Z</time>
      </trkpt>
      <trkpt lat="44.78699" lon="1.66455">
        <ele>321.22</ele>
        <time>2015-11-22T12:31:25Z</time>
      </trkpt>
      <trkpt lat="44.787" lon="1.66434">
        <ele>319.3</ele>
        <time>2015-11-22T12:31:34Z</time>
      </trkpt>
      <trkpt lat="44.787" lon="1.66431">
        <ele>319.78</ele>
        <time>2015-11-22T12:31:35Z</time>
      </trkpt>
      <trkpt lat="44.78701" lon="1.66428">
        <ele>319.3</ele>
        <time>2015-11-22T12:31:37Z</time>
      </trkpt>
      <trkpt lat="44.78702" lon="1.66426">
        <ele>319.3</ele>
        <time>2015-11-22T12:31:38Z</time>
      </trkpt>
      <trkpt lat="44.78706" lon="1.66413">
        <ele>318.33</ele>
        <time>2015-11-22T12:31:44Z</time>
      </trkpt>
      <trkpt lat="44.78706" lon="1.6641">
        <ele>318.33</ele>
        <time>2015-11-22T12:31:45Z</time>
      </trkpt>
      <trkpt lat="44.78706" lon="1.66407">
        <ele>318.33</ele>
        <time>2015-11-22T12:31:46Z</time>
      </trkpt>
      <trkpt lat="44.78706" lon="1.66375">
        <ele>315.93</ele>
        <time>2015-11-22T12:31:58Z</time>
      </trkpt>
      <trkpt lat="44.78704" lon="1.66349">
        <ele>314.01</ele>
        <time>2015-11-22T12:32:08Z</time>
      </trkpt>
      <trkpt lat="44.78703" lon="1.66322">
        <ele>312.57</ele>
        <time>2015-11-22T12:32:19Z</time>
      </trkpt>
      <trkpt lat="44.78703" lon="1.66303">
        <ele>309.2</ele>
        <time>2015-11-22T12:32:26Z</time>
      </trkpt>
      <trkpt lat="44.78707" lon="1.66289">
        <ele>306.32</ele>
        <time>2015-11-22T12:32:32Z</time>
      </trkpt>
      <trkpt lat="44.78717" lon="1.66262">
        <ele>306.32</ele>
        <time>2015-11-22T12:32:45Z</time>
      </trkpt>
      <trkpt lat="44.7872" lon="1.6625">
        <ele>305.36</ele>
        <time>2015-11-22T12:32:50Z</time>
      </trkpt>
      <trkpt lat="44.78721" lon="1.66249">
        <ele>305.36</ele>
        <time>2015-11-22T12:32:51Z</time>
      </trkpt>
      <trkpt lat="44.78722" lon="1.66247">
        <ele>304.39</ele>
        <time>2015-11-22T12:32:52Z</time>
      </trkpt>
      <trkpt lat="44.78722" lon="1.66245">
        <ele>304.39</ele>
        <time>2015-11-22T12:32:53Z</time>
      </trkpt>
      <trkpt lat="44.78723" lon="1.66243">
        <ele>304.39</ele>
        <time>2015-11-22T12:32:54Z</time>
      </trkpt>
      <trkpt lat="44.78724" lon="1.6624">
        <ele>303.91</ele>
        <time>2015-11-22T12:32:55Z</time>
      </trkpt>
      <trkpt lat="44.78724" lon="1.66238">
        <ele>303.91</ele>
        <time>2015-11-22T12:32:56Z</time>
      </trkpt>
      <trkpt lat="44.78725" lon="1.66236">
        <ele>303.91</ele>
        <time>2015-11-22T12:32:57Z</time>
      </trkpt>
      <trkpt lat="44.78726" lon="1.66234">
        <ele>303.43</ele>
        <time>2015-11-22T12:32:58Z</time>
      </trkpt>
      <trkpt lat="44.78727" lon="1.66233">
        <ele>303.43</ele>
        <time>2015-11-22T12:32:59Z</time>
      </trkpt>
      <trkpt lat="44.78728" lon="1.66231">
        <ele>303.43</ele>
        <time>2015-11-22T12:33:00Z</time>
      </trkpt>
      <trkpt lat="44.7873" lon="1.66227">
        <ele>302.95</ele>
        <time>2015-11-22T12:33:02Z</time>
      </trkpt>
      <trkpt lat="44.7873" lon="1.66224">
        <ele>302.95</ele>
        <time>2015-11-22T12:33:03Z</time>
      </trkpt>
      <trkpt lat="44.78731" lon="1.66222">
        <ele>301.99</ele>
        <time>2015-11-22T12:33:04Z</time>
      </trkpt>
      <trkpt lat="44.78735" lon="1.66196">
        <ele>300.55</ele>
        <time>2015-11-22T12:33:14Z</time>
      </trkpt>
      <trkpt lat="44.78736" lon="1.66194">
        <ele>300.55</ele>
        <time>2015-11-22T12:33:15Z</time>
      </trkpt>
      <trkpt lat="44.78736" lon="1.66192">
        <ele>300.07</ele>
        <time>2015-11-22T12:33:16Z</time>
      </trkpt>
      <trkpt lat="44.78737" lon="1.66189">
        <ele>300.07</ele>
        <time>2015-11-22T12:33:17Z</time>
      </trkpt>
      <trkpt lat="44.78737" lon="1.66187">
        <ele>300.07</ele>
        <time>2015-11-22T12:33:18Z</time>
      </trkpt>
      <trkpt lat="44.78738" lon="1.66185">
        <ele>299.11</ele>
        <time>2015-11-22T12:33:19Z</time>
      </trkpt>
      <trkpt lat="44.78739" lon="1.66183">
        <ele>299.11</ele>
        <time>2015-11-22T12:33:20Z</time>
      </trkpt>
      <trkpt lat="44.78739" lon="1.6618">
        <ele>299.11</ele>
        <time>2015-11-22T12:33:21Z</time>
      </trkpt>
      <trkpt lat="44.78744" lon="1.66169">
        <ele>297.67</ele>
        <time>2015-11-22T12:33:27Z</time>
      </trkpt>
      <trkpt lat="44.78748" lon="1.6616">
        <ele>294.3</ele>
        <time>2015-11-22T12:33:32Z</time>
      </trkpt>
      <trkpt lat="44.78753" lon="1.66144">
        <ele>291.9</ele>
        <time>2015-11-22T12:33:39Z</time>
      </trkpt>
      <trkpt lat="44.78753" lon="1.66141">
        <ele>291.9</ele>
        <time>2015-11-22T12:33:40Z</time>
      </trkpt>
      <trkpt lat="44.78754" lon="1.66139">
        <ele>291.9</ele>
        <time>2015-11-22T12:33:41Z</time>
      </trkpt>
      <trkpt lat="44.78755" lon="1.66137">
        <ele>291.9</ele>
        <time>2015-11-22T12:33:42Z</time>
      </trkpt>
      <trkpt lat="44.78756" lon="1.66135">
        <ele>291.9</ele>
        <time>2015-11-22T12:33:43Z</time>
      </trkpt>
      <trkpt lat="44.78756" lon="1.66132">
        <ele>291.9</ele>
        <time>2015-11-22T12:33:44Z</time>
      </trkpt>
      <trkpt lat="44.78757" lon="1.6613">
        <ele>291.9</ele>
        <time>2015-11-22T12:33:45Z</time>
      </trkpt>
      <trkpt lat="44.78758" lon="1.66128">
        <ele>291.9</ele>
        <time>2015-11-22T12:33:46Z</time>
      </trkpt>
      <trkpt lat="44.78758" lon="1.66126">
        <ele>291.9</ele>
        <time>2015-11-22T12:33:47Z</time>
      </trkpt>
      <trkpt lat="44.78759" lon="1.66124">
        <ele>291.9</ele>
        <time>2015-11-22T12:33:48Z</time>
      </trkpt>
      <trkpt lat="44.78759" lon="1.66122">
        <ele>291.9</ele>
        <time>2015-11-22T12:33:49Z</time>
      </trkpt>
      <trkpt lat="44.7876" lon="1.6612">
        <ele>291.9</ele>
        <time>2015-11-22T12:33:50Z</time>
      </trkpt>
      <trkpt lat="44.7876" lon="1.66118">
        <ele>291.9</ele>
        <time>2015-11-22T12:33:51Z</time>
      </trkpt>
      <trkpt lat="44.78763" lon="1.66113">
        <ele>291.42</ele>
        <time>2015-11-22T12:33:54Z</time>
      </trkpt>
      <trkpt lat="44.78764" lon="1.66112">
        <ele>291.42</ele>
        <time>2015-11-22T12:33:55Z</time>
      </trkpt>
      <trkpt lat="44.78767" lon="1.66107">
        <ele>290.94</ele>
        <time>2015-11-22T12:33:58Z</time>
      </trkpt>
      <trkpt lat="44.78768" lon="1.66104">
        <ele>290.94</ele>
        <time>2015-11-22T12:33:59Z</time>
      </trkpt>
      <trkpt lat="44.78769" lon="1.66103">
        <ele>290.94</ele>
        <time>2015-11-22T12:34:00Z</time>
      </trkpt>
      <trkpt lat="44.7877" lon="1.66101">
        <ele>290.46</ele>
        <time>2015-11-22T12:34:01Z</time>
      </trkpt>
      <trkpt lat="44.78771" lon="1.66099">
        <ele>290.46</ele>
        <time>2015-11-22T12:34:02Z</time>
      </trkpt>
      <trkpt lat="44.78778" lon="1.6608">
        <ele>289.01</ele>
        <time>2015-11-22T12:34:10Z</time>
      </trkpt>
      <trkpt lat="44.78779" lon="1.66078">
        <ele>289.01</ele>
        <time>2015-11-22T12:34:11Z</time>
      </trkpt>
      <trkpt lat="44.78779" lon="1.66075">
        <ele>289.01</ele>
        <time>2015-11-22T12:34:12Z</time>
      </trkpt>
      <trkpt lat="44.7878" lon="1.66073">
        <ele>288.53</ele>
        <time>2015-11-22T12:34:13Z</time>
      </trkpt>
      <trkpt lat="44.7878" lon="1.66071">
        <ele>288.53</ele>
        <time>2015-11-22T12:34:14Z</time>
      </trkpt>
      <trkpt lat="44.78781" lon="1.66069">
        <ele>288.53</ele>
        <time>2015-11-22T12:34:15Z</time>
      </trkpt>
      <trkpt lat="44.78782" lon="1.66067">
        <ele>288.05</ele>
        <time>2015-11-22T12:34:16Z</time>
      </trkpt>
      <trkpt lat="44.78783" lon="1.66065">
        <ele>288.05</ele>
        <time>2015-11-22T12:34:17Z</time>
      </trkpt>
      <trkpt lat="44.78785" lon="1.66061">
        <ele>287.57</ele>
        <time>2015-11-22T12:34:19Z</time>
      </trkpt>
      <trkpt lat="44.78786" lon="1.66059">
        <ele>287.57</ele>
        <time>2015-11-22T12:34:20Z</time>
      </trkpt>
      <trkpt lat="44.78802" lon="1.66032">
        <ele>285.17</ele>
        <time>2015-11-22T12:34:33Z</time>
      </trkpt>
      <trkpt lat="44.78808" lon="1.66025">
        <ele>284.69</ele>
        <time>2015-11-22T12:34:38Z</time>
      </trkpt>
      <trkpt lat="44.78823" lon="1.66001">
        <ele>282.28</ele>
        <time>2015-11-22T12:34:51Z</time>
      </trkpt>
      <trkpt lat="44.78832" lon="1.65987">
        <ele>280.84</ele>
        <time>2015-11-22T12:35:00Z</time>
      </trkpt>
      <trkpt lat="44.78834" lon="1.65986">
        <ele>280.84</ele>
        <time>2015-11-22T12:35:01Z</time>
      </trkpt>
      <trkpt lat="44.78835" lon="1.65984">
        <ele>280.84</ele>
        <time>2015-11-22T12:35:02Z</time>
      </trkpt>
      <trkpt lat="44.78836" lon="1.65982">
        <ele>280.36</ele>
        <time>2015-11-22T12:35:03Z</time>
      </trkpt>
      <trkpt lat="44.78837" lon="1.6598">
        <ele>280.36</ele>
        <time>2015-11-22T12:35:04Z</time>
      </trkpt>
      <trkpt lat="44.78838" lon="1.65978">
        <ele>280.36</ele>
        <time>2015-11-22T12:35:05Z</time>
      </trkpt>
      <trkpt lat="44.78839" lon="1.65976">
        <ele>279.88</ele>
        <time>2015-11-22T12:35:06Z</time>
      </trkpt>
      <trkpt lat="44.78839" lon="1.65974">
        <ele>279.88</ele>
        <time>2015-11-22T12:35:07Z</time>
      </trkpt>
      <trkpt lat="44.7884" lon="1.65972">
        <ele>279.88</ele>
        <time>2015-11-22T12:35:08Z</time>
      </trkpt>
      <trkpt lat="44.78841" lon="1.65971">
        <ele>279.88</ele>
        <time>2015-11-22T12:35:09Z</time>
      </trkpt>
      <trkpt lat="44.78842" lon="1.65969">
        <ele>279.88</ele>
        <time>2015-11-22T12:35:10Z</time>
      </trkpt>
      <trkpt lat="44.78843" lon="1.65968">
        <ele>279.4</ele>
        <time>2015-11-22T12:35:11Z</time>
      </trkpt>
      <trkpt lat="44.78844" lon="1.65967">
        <ele>279.4</ele>
        <time>2015-11-22T12:35:12Z</time>
      </trkpt>
      <trkpt lat="44.78845" lon="1.65966">
        <ele>279.4</ele>
        <time>2015-11-22T12:35:13Z</time>
      </trkpt>
      <trkpt lat="44.78846" lon="1.65964">
        <ele>279.4</ele>
        <time>2015-11-22T12:35:14Z</time>
      </trkpt>
      <trkpt lat="44.78847" lon="1.65961">
        <ele>278.44</ele>
        <time>2015-11-22T12:35:15Z</time>
      </trkpt>
      <trkpt lat="44.78847" lon="1.65959">
        <ele>278.44</ele>
        <time>2015-11-22T12:35:16Z</time>
      </trkpt>
      <trkpt lat="44.78848" lon="1.65957">
        <ele>278.44</ele>
        <time>2015-11-22T12:35:17Z</time>
      </trkpt>
      <trkpt lat="44.78849" lon="1.65954">
        <ele>277.96</ele>
        <time>2015-11-22T12:35:18Z</time>
      </trkpt>
      <trkpt lat="44.7885" lon="1.65952">
        <ele>277.96</ele>
        <time>2015-11-22T12:35:19Z</time>
      </trkpt>
      <trkpt lat="44.7885" lon="1.65949">
        <ele>277.96</ele>
        <time>2015-11-22T12:35:20Z</time>
      </trkpt>
      <trkpt lat="44.78851" lon="1.65947">
        <ele>277.96</ele>
        <time>2015-11-22T12:35:21Z</time>
      </trkpt>
      <trkpt lat="44.78852" lon="1.65945">
        <ele>277.48</ele>
        <time>2015-11-22T12:35:22Z</time>
      </trkpt>
      <trkpt lat="44.78852" lon="1.65943">
        <ele>277.48</ele>
        <time>2015-11-22T12:35:23Z</time>
      </trkpt>
      <trkpt lat="44.78852" lon="1.65941">
        <ele>277.48</ele>
        <time>2015-11-22T12:35:24Z</time>
      </trkpt>
      <trkpt lat="44.78845" lon="1.65915">
        <ele>275.56</ele>
        <time>2015-11-22T12:35:36Z</time>
      </trkpt>
      <trkpt lat="44.78833" lon="1.65887">
        <ele>274.59</ele>
        <time>2015-11-22T12:35:49Z</time>
      </trkpt>
      <trkpt lat="44.78817" lon="1.65851">
        <ele>272.67</ele>
        <time>2015-11-22T12:36:07Z</time>
      </trkpt>
      <trkpt lat="44.78807" lon="1.65823">
        <ele>271.71</ele>
        <time>2015-11-22T12:36:20Z</time>
      </trkpt>
      <trkpt lat="44.788" lon="1.65793">
        <ele>270.75</ele>
        <time>2015-11-22T12:36:33Z</time>
      </trkpt>
      <trkpt lat="44.78796" lon="1.65777">
        <ele>270.27</ele>
        <time>2015-11-22T12:36:41Z</time>
      </trkpt>
      <trkpt lat="44.78795" lon="1.65775">
        <ele>270.27</ele>
        <time>2015-11-22T12:36:42Z</time>
      </trkpt>
      <trkpt lat="44.78795" lon="1.65772">
        <ele>270.27</ele>
        <time>2015-11-22T12:36:43Z</time>
      </trkpt>
      <trkpt lat="44.78794" lon="1.65771">
        <ele>269.31</ele>
        <time>2015-11-22T12:36:44Z</time>
      </trkpt>
      <trkpt lat="44.78794" lon="1.65769">
        <ele>269.79</ele>
        <time>2015-11-22T12:36:45Z</time>
      </trkpt>
      <trkpt lat="44.78793" lon="1.65767">
        <ele>269.79</ele>
        <time>2015-11-22T12:36:46Z</time>
      </trkpt>
      <trkpt lat="44.78793" lon="1.65764">
        <ele>269.79</ele>
        <time>2015-11-22T12:36:47Z</time>
      </trkpt>
      <trkpt lat="44.78792" lon="1.65761">
        <ele>269.79</ele>
        <time>2015-11-22T12:36:48Z</time>
      </trkpt>
      <trkpt lat="44.78791" lon="1.65759">
        <ele>269.79</ele>
        <time>2015-11-22T12:36:49Z</time>
      </trkpt>
      <trkpt lat="44.78791" lon="1.65757">
        <ele>269.79</ele>
        <time>2015-11-22T12:36:50Z</time>
      </trkpt>
      <trkpt lat="44.78784" lon="1.65722">
        <ele>268.35</ele>
        <time>2015-11-22T12:37:05Z</time>
      </trkpt>
      <trkpt lat="44.78779" lon="1.65692">
        <ele>267.38</ele>
        <time>2015-11-22T12:37:19Z</time>
      </trkpt>
      <trkpt lat="44.78778" lon="1.65688">
        <ele>267.38</ele>
        <time>2015-11-22T12:37:21Z</time>
      </trkpt>
      <trkpt lat="44.78778" lon="1.65686">
        <ele>267.38</ele>
        <time>2015-11-22T12:37:22Z</time>
      </trkpt>
      <trkpt lat="44.78772" lon="1.65664">
        <ele>267.38</ele>
        <time>2015-11-22T12:37:32Z</time>
      </trkpt>
      <trkpt lat="44.78771" lon="1.65661">
        <ele>267.38</ele>
        <time>2015-11-22T12:37:33Z</time>
      </trkpt>
      <trkpt lat="44.7877" lon="1.65659">
        <ele>267.38</ele>
        <time>2015-11-22T12:37:34Z</time>
      </trkpt>
      <trkpt lat="44.78761" lon="1.65626">
        <ele>267.38</ele>
        <time>2015-11-22T12:37:48Z</time>
      </trkpt>
      <trkpt lat="44.78756" lon="1.65605">
        <ele>268.35</ele>
        <time>2015-11-22T12:37:59Z</time>
      </trkpt>
      <trkpt lat="44.78755" lon="1.65604">
        <ele>268.35</ele>
        <time>2015-11-22T12:38:00Z</time>
      </trkpt>
      <trkpt lat="44.78746" lon="1.65572">
        <ele>268.83</ele>
        <time>2015-11-22T12:38:15Z</time>
      </trkpt>
      <trkpt lat="44.78737" lon="1.65537">
        <ele>269.31</ele>
        <time>2015-11-22T12:38:30Z</time>
      </trkpt>
      <trkpt lat="44.78732" lon="1.65516">
        <ele>269.31</ele>
        <time>2015-11-22T12:38:41Z</time>
      </trkpt>
      <trkpt lat="44.78732" lon="1.65514">
        <ele>269.31</ele>
        <time>2015-11-22T12:38:42Z</time>
      </trkpt>
      <trkpt lat="44.78732" lon="1.65512">
        <ele>269.31</ele>
        <time>2015-11-22T12:38:43Z</time>
      </trkpt>
      <trkpt lat="44.78729" lon="1.65504">
        <ele>269.79</ele>
        <time>2015-11-22T12:38:53Z</time>
      </trkpt>
      <trkpt lat="44.78729" lon="1.65505">
        <ele>269.79</ele>
        <time>2015-11-22T12:39:04Z</time>
      </trkpt>
      <trkpt lat="44.78724" lon="1.65491">
        <ele>269.79</ele>
        <time>2015-11-22T12:39:15Z</time>
      </trkpt>
      <trkpt lat="44.78723" lon="1.65488">
        <ele>269.79</ele>
        <time>2015-11-22T12:39:18Z</time>
      </trkpt>
      <trkpt lat="44.78717" lon="1.65465">
        <ele>269.79</ele>
        <time>2015-11-22T12:39:30Z</time>
      </trkpt>
      <trkpt lat="44.78714" lon="1.65443">
        <ele>269.31</ele>
        <time>2015-11-22T12:39:40Z</time>
      </trkpt>
      <trkpt lat="44.78713" lon="1.65441">
        <ele>269.31</ele>
        <time>2015-11-22T12:39:41Z</time>
      </trkpt>
      <trkpt lat="44.78708" lon="1.65411">
        <ele>270.75</ele>
        <time>2015-11-22T12:39:54Z</time>
      </trkpt>
      <trkpt lat="44.78695" lon="1.65379">
        <ele>272.19</ele>
        <time>2015-11-22T12:40:11Z</time>
      </trkpt>
      <trkpt lat="44.78673" lon="1.65361">
        <ele>273.15</ele>
        <time>2015-11-22T12:40:28Z</time>
      </trkpt>
      <trkpt lat="44.78671" lon="1.6536">
        <ele>273.15</ele>
        <time>2015-11-22T12:40:29Z</time>
      </trkpt>
      <trkpt lat="44.78671" lon="1.65359">
        <ele>273.15</ele>
        <time>2015-11-22T12:40:30Z</time>
      </trkpt>
      <trkpt lat="44.7867" lon="1.65357">
        <ele>273.15</ele>
        <time>2015-11-22T12:40:31Z</time>
      </trkpt>
      <trkpt lat="44.78656" lon="1.65335">
        <ele>273.63</ele>
        <time>2015-11-22T12:40:43Z</time>
      </trkpt>
      <trkpt lat="44.78651" lon="1.65325">
        <ele>273.63</ele>
        <time>2015-11-22T12:40:49Z</time>
      </trkpt>
      <trkpt lat="44.78651" lon="1.65324">
        <ele>273.63</ele>
        <time>2015-11-22T12:40:50Z</time>
      </trkpt>
      <trkpt lat="44.7865" lon="1.65322">
        <ele>273.63</ele>
        <time>2015-11-22T12:40:51Z</time>
      </trkpt>
      <trkpt lat="44.78648" lon="1.6532">
        <ele>273.63</ele>
        <time>2015-11-22T12:40:52Z</time>
      </trkpt>
      <trkpt lat="44.78648" lon="1.65318">
        <ele>274.11</ele>
        <time>2015-11-22T12:40:53Z</time>
      </trkpt>
      <trkpt lat="44.78637" lon="1.65294">
        <ele>274.11</ele>
        <time>2015-11-22T12:41:05Z</time>
      </trkpt>
      <trkpt lat="44.78624" lon="1.65261">
        <ele>274.59</ele>
        <time>2015-11-22T12:41:20Z</time>
      </trkpt>
      <trkpt lat="44.78615" lon="1.65234">
        <ele>275.07</ele>
        <time>2015-11-22T12:41:35Z</time>
      </trkpt>
      <trkpt lat="44.78614" lon="1.65232">
        <ele>275.07</ele>
        <time>2015-11-22T12:41:36Z</time>
      </trkpt>
      <trkpt lat="44.78613" lon="1.6523">
        <ele>275.07</ele>
        <time>2015-11-22T12:41:37Z</time>
      </trkpt>
      <trkpt lat="44.786" lon="1.65197">
        <ele>275.07</ele>
        <time>2015-11-22T12:41:52Z</time>
      </trkpt>
      <trkpt lat="44.78589" lon="1.65167">
        <ele>275.07</ele>
        <time>2015-11-22T12:42:07Z</time>
      </trkpt>
      <trkpt lat="44.78585" lon="1.65157">
        <ele>275.07</ele>
        <time>2015-11-22T12:42:12Z</time>
      </trkpt>
      <trkpt lat="44.78585" lon="1.65155">
        <ele>275.07</ele>
        <time>2015-11-22T12:42:13Z</time>
      </trkpt>
      <trkpt lat="44.78585" lon="1.65153">
        <ele>275.07</ele>
        <time>2015-11-22T12:42:14Z</time>
      </trkpt>
      <trkpt lat="44.78584" lon="1.65151">
        <ele>275.07</ele>
        <time>2015-11-22T12:42:15Z</time>
      </trkpt>
      <trkpt lat="44.78574" lon="1.65124">
        <ele>275.07</ele>
        <time>2015-11-22T12:42:29Z</time>
      </trkpt>
      <trkpt lat="44.78573" lon="1.65122">
        <ele>275.07</ele>
        <time>2015-11-22T12:42:30Z</time>
      </trkpt>
      <trkpt lat="44.78572" lon="1.6512">
        <ele>275.07</ele>
        <time>2015-11-22T12:42:31Z</time>
      </trkpt>
      <trkpt lat="44.78572" lon="1.65118">
        <ele>275.07</ele>
        <time>2015-11-22T12:42:32Z</time>
      </trkpt>
      <trkpt lat="44.78571" lon="1.65117">
        <ele>275.07</ele>
        <time>2015-11-22T12:42:33Z</time>
      </trkpt>
      <trkpt lat="44.7857" lon="1.65115">
        <ele>275.07</ele>
        <time>2015-11-22T12:42:34Z</time>
      </trkpt>
      <trkpt lat="44.78555" lon="1.65089">
        <ele>274.11</ele>
        <time>2015-11-22T12:42:49Z</time>
      </trkpt>
      <trkpt lat="44.7855" lon="1.65081">
        <ele>274.11</ele>
        <time>2015-11-22T12:42:53Z</time>
      </trkpt>
      <trkpt lat="44.78539" lon="1.65073">
        <ele>273.63</ele>
        <time>2015-11-22T12:43:01Z</time>
      </trkpt>
      <trkpt lat="44.78538" lon="1.65072">
        <ele>273.63</ele>
        <time>2015-11-22T12:43:02Z</time>
      </trkpt>
      <trkpt lat="44.78536" lon="1.65071">
        <ele>273.63</ele>
        <time>2015-11-22T12:43:03Z</time>
      </trkpt>
      <trkpt lat="44.78534" lon="1.65071">
        <ele>273.63</ele>
        <time>2015-11-22T12:43:04Z</time>
      </trkpt>
      <trkpt lat="44.78533" lon="1.6507">
        <ele>273.63</ele>
        <time>2015-11-22T12:43:05Z</time>
      </trkpt>
      <trkpt lat="44.78531" lon="1.65068">
        <ele>273.63</ele>
        <time>2015-11-22T12:43:06Z</time>
      </trkpt>
      <trkpt lat="44.78516" lon="1.65048">
        <ele>273.63</ele>
        <time>2015-11-22T12:43:18Z</time>
      </trkpt>
      <trkpt lat="44.78513" lon="1.65043">
        <ele>273.63</ele>
        <time>2015-11-22T12:43:21Z</time>
      </trkpt>
      <trkpt lat="44.78512" lon="1.65042">
        <ele>273.63</ele>
        <time>2015-11-22T12:43:22Z</time>
      </trkpt>
      <trkpt lat="44.7851" lon="1.6504">
        <ele>274.59</ele>
        <time>2015-11-22T12:43:23Z</time>
      </trkpt>
      <trkpt lat="44.78509" lon="1.65039">
        <ele>274.59</ele>
        <time>2015-11-22T12:43:24Z</time>
      </trkpt>
      <trkpt lat="44.78508" lon="1.65038">
        <ele>274.59</ele>
        <time>2015-11-22T12:43:25Z</time>
      </trkpt>
      <trkpt lat="44.78507" lon="1.65037">
        <ele>274.59</ele>
        <time>2015-11-22T12:43:26Z</time>
      </trkpt>
      <trkpt lat="44.78505" lon="1.65035">
        <ele>274.59</ele>
        <time>2015-11-22T12:43:27Z</time>
      </trkpt>
      <trkpt lat="44.785" lon="1.6503">
        <ele>274.59</ele>
        <time>2015-11-22T12:43:31Z</time>
      </trkpt>
      <trkpt lat="44.78499" lon="1.6503">
        <ele>274.59</ele>
        <time>2015-11-22T12:43:32Z</time>
      </trkpt>
      <trkpt lat="44.78498" lon="1.65028">
        <ele>274.59</ele>
        <time>2015-11-22T12:43:33Z</time>
      </trkpt>
      <trkpt lat="44.78496" lon="1.65027">
        <ele>274.59</ele>
        <time>2015-11-22T12:43:34Z</time>
      </trkpt>
      <trkpt lat="44.78495" lon="1.65025">
        <ele>275.07</ele>
        <time>2015-11-22T12:43:35Z</time>
      </trkpt>
      <trkpt lat="44.7848" lon="1.6501">
        <ele>275.07</ele>
        <time>2015-11-22T12:43:45Z</time>
      </trkpt>
      <trkpt lat="44.7846" lon="1.64995">
        <ele>275.07</ele>
        <time>2015-11-22T12:44:00Z</time>
      </trkpt>
      <trkpt lat="44.78447" lon="1.64995">
        <ele>275.07</ele>
        <time>2015-11-22T12:44:08Z</time>
      </trkpt>
      <trkpt lat="44.78426" lon="1.65003">
        <ele>275.07</ele>
        <time>2015-11-22T12:44:20Z</time>
      </trkpt>
      <trkpt lat="44.78417" lon="1.65004">
        <ele>275.07</ele>
        <time>2015-11-22T12:44:25Z</time>
      </trkpt>
      <trkpt lat="44.78416" lon="1.65003">
        <ele>275.07</ele>
        <time>2015-11-22T12:44:26Z</time>
      </trkpt>
      <trkpt lat="44.7841" lon="1.65">
        <ele>275.07</ele>
        <time>2015-11-22T12:44:30Z</time>
      </trkpt>
      <trkpt lat="44.78409" lon="1.64999">
        <ele>275.07</ele>
        <time>2015-11-22T12:44:31Z</time>
      </trkpt>
      <trkpt lat="44.78408" lon="1.64998">
        <ele>275.56</ele>
        <time>2015-11-22T12:44:42Z</time>
      </trkpt>
      <trkpt lat="44.78409" lon="1.64996">
        <ele>276.04</ele>
        <time>2015-11-22T12:44:55Z</time>
      </trkpt>
      <trkpt lat="44.78409" lon="1.64998">
        <ele>276.04</ele>
        <time>2015-11-22T12:45:18Z</time>
      </trkpt>
      <trkpt lat="44.78409" lon="1.64997">
        <ele>276.04</ele>
        <time>2015-11-22T12:45:43Z</time>
      </trkpt>
      <trkpt lat="44.78409" lon="1.64997">
        <ele>276.04</ele>
        <time>2015-11-22T12:46:00Z</time>
      </trkpt>
      <trkpt lat="44.78409" lon="1.64998">
        <ele>276.04</ele>
        <time>2015-11-22T12:46:22Z</time>
      </trkpt>
      <trkpt lat="44.78409" lon="1.64998">
        <ele>276.04</ele>
        <time>2015-11-22T12:46:39Z</time>
      </trkpt>
      <trkpt lat="44.78409" lon="1.64998">
        <ele>276.04</ele>
        <time>2015-11-22T12:47:01Z</time>
      </trkpt>
      <trkpt lat="44.78409" lon="1.64997">
        <ele>276.04</ele>
        <time>2015-11-22T12:47:18Z</time>
      </trkpt>
      <trkpt lat="44.78408" lon="1.64998">
        <ele>276.04</ele>
        <time>2015-11-22T12:47:33Z</time>
      </trkpt>
      <trkpt lat="44.78408" lon="1.64997">
        <ele>276.04</ele>
        <time>2015-11-22T12:47:53Z</time>
      </trkpt>
      <trkpt lat="44.78408" lon="1.64998">
        <ele>276.04</ele>
        <time>2015-11-22T12:48:17Z</time>
      </trkpt>
      <trkpt lat="44.78408" lon="1.64997">
        <ele>276.04</ele>
        <time>2015-11-22T12:48:34Z</time>
      </trkpt>
      <trkpt lat="44.78407" lon="1.64997">
        <ele>276.04</ele>
        <time>2015-11-22T12:48:57Z</time>
      </trkpt>
      <trkpt lat="44.78408" lon="1.64997">
        <ele>276.04</ele>
        <time>2015-11-22T12:49:17Z</time>
      </trkpt>
      <trkpt lat="44.78408" lon="1.64996">
        <ele>276.04</ele>
        <time>2015-11-22T12:49:40Z</time>
      </trkpt>
      <trkpt lat="44.78408" lon="1.64996">
        <ele>276.04</ele>
        <time>2015-11-22T12:50:10Z</time>
      </trkpt>
      <trkpt lat="44.78408" lon="1.64997">
        <ele>276.04</ele>
        <time>2015-11-22T12:50:32Z</time>
      </trkpt>
      <trkpt lat="44.78407" lon="1.64995">
        <ele>276.04</ele>
        <time>2015-11-22T12:50:34Z</time>
      </trkpt>
      <trkpt lat="44.78406" lon="1.64993">
        <ele>276.04</ele>
        <time>2015-11-22T12:50:35Z</time>
      </trkpt>
      <trkpt lat="44.78404" lon="1.6499">
        <ele>276.04</ele>
        <time>2015-11-22T12:50:36Z</time>
      </trkpt>
      <trkpt lat="44.78404" lon="1.64988">
        <ele>276.04</ele>
        <time>2015-11-22T12:50:37Z</time>
      </trkpt>
      <trkpt lat="44.78403" lon="1.64986">
        <ele>276.04</ele>
        <time>2015-11-22T12:50:38Z</time>
      </trkpt>
      <trkpt lat="44.78396" lon="1.64965">
        <ele>276.04</ele>
        <time>2015-11-22T12:50:50Z</time>
      </trkpt>
      <trkpt lat="44.78391" lon="1.64952">
        <ele>276.04</ele>
        <time>2015-11-22T12:50:57Z</time>
      </trkpt>
      <trkpt lat="44.78396" lon="1.64936">
        <ele>276.04</ele>
        <time>2015-11-22T12:51:05Z</time>
      </trkpt>
      <trkpt lat="44.78397" lon="1.64934">
        <ele>276.04</ele>
        <time>2015-11-22T12:51:06Z</time>
      </trkpt>
      <trkpt lat="44.78403" lon="1.64928">
        <ele>276.04</ele>
        <time>2015-11-22T12:51:10Z</time>
      </trkpt>
      <trkpt lat="44.78422" lon="1.6491">
        <ele>276.04</ele>
        <time>2015-11-22T12:51:24Z</time>
      </trkpt>
      <trkpt lat="44.78427" lon="1.64904">
        <ele>276.04</ele>
        <time>2015-11-22T12:51:28Z</time>
      </trkpt>
      <trkpt lat="44.78428" lon="1.64902">
        <ele>276.04</ele>
        <time>2015-11-22T12:51:29Z</time>
      </trkpt>
      <trkpt lat="44.78429" lon="1.649">
        <ele>276.04</ele>
        <time>2015-11-22T12:51:30Z</time>
      </trkpt>
      <trkpt lat="44.78431" lon="1.64899">
        <ele>276.04</ele>
        <time>2015-11-22T12:51:31Z</time>
      </trkpt>
      <trkpt lat="44.78432" lon="1.64897">
        <ele>276.04</ele>
        <time>2015-11-22T12:51:32Z</time>
      </trkpt>
      <trkpt lat="44.78433" lon="1.64896">
        <ele>276.04</ele>
        <time>2015-11-22T12:51:33Z</time>
      </trkpt>
      <trkpt lat="44.78435" lon="1.64894">
        <ele>276.04</ele>
        <time>2015-11-22T12:51:34Z</time>
      </trkpt>
      <trkpt lat="44.78436" lon="1.64893">
        <ele>276.04</ele>
        <time>2015-11-22T12:51:35Z</time>
      </trkpt>
      <trkpt lat="44.78441" lon="1.64887">
        <ele>276.04</ele>
        <time>2015-11-22T12:51:39Z</time>
      </trkpt>
      <trkpt lat="44.78456" lon="1.6487">
        <ele>276.04</ele>
        <time>2015-11-22T12:51:51Z</time>
      </trkpt>
      <trkpt lat="44.78476" lon="1.64853">
        <ele>277</ele>
        <time>2015-11-22T12:52:05Z</time>
      </trkpt>
      <trkpt lat="44.78489" lon="1.64843">
        <ele>277</ele>
        <time>2015-11-22T12:52:14Z</time>
      </trkpt>
      <trkpt lat="44.78508" lon="1.64832">
        <ele>277</ele>
        <time>2015-11-22T12:52:25Z</time>
      </trkpt>
      <trkpt lat="44.78526" lon="1.6482">
        <ele>277</ele>
        <time>2015-11-22T12:52:37Z</time>
      </trkpt>
      <trkpt lat="44.78543" lon="1.64811">
        <ele>277</ele>
        <time>2015-11-22T12:52:48Z</time>
      </trkpt>
      <trkpt lat="44.78565" lon="1.64797">
        <ele>277.48</ele>
        <time>2015-11-22T12:53:02Z</time>
      </trkpt>
      <trkpt lat="44.78574" lon="1.64791">
        <ele>277.48</ele>
        <time>2015-11-22T12:53:08Z</time>
      </trkpt>
      <trkpt lat="44.78576" lon="1.6479">
        <ele>277.48</ele>
        <time>2015-11-22T12:53:09Z</time>
      </trkpt>
      <trkpt lat="44.78577" lon="1.64789">
        <ele>277.96</ele>
        <time>2015-11-22T12:53:10Z</time>
      </trkpt>
      <trkpt lat="44.78579" lon="1.64788">
        <ele>277.96</ele>
        <time>2015-11-22T12:53:11Z</time>
      </trkpt>
      <trkpt lat="44.7858" lon="1.64787">
        <ele>277.96</ele>
        <time>2015-11-22T12:53:12Z</time>
      </trkpt>
      <trkpt lat="44.786" lon="1.64779">
        <ele>277.96</ele>
        <time>2015-11-22T12:53:25Z</time>
      </trkpt>
      <trkpt lat="44.78617" lon="1.64767">
        <ele>278.44</ele>
        <time>2015-11-22T12:53:37Z</time>
      </trkpt>
      <trkpt lat="44.78638" lon="1.64756">
        <ele>278.44</ele>
        <time>2015-11-22T12:53:50Z</time>
      </trkpt>
      <trkpt lat="44.78658" lon="1.64744">
        <ele>278.44</ele>
        <time>2015-11-22T12:54:03Z</time>
      </trkpt>
      <trkpt lat="44.78666" lon="1.64738">
        <ele>278.92</ele>
        <time>2015-11-22T12:54:09Z</time>
      </trkpt>
      <trkpt lat="44.78668" lon="1.64737">
        <ele>278.92</ele>
        <time>2015-11-22T12:54:10Z</time>
      </trkpt>
      <trkpt lat="44.78669" lon="1.64736">
        <ele>278.92</ele>
        <time>2015-11-22T12:54:11Z</time>
      </trkpt>
      <trkpt lat="44.78671" lon="1.64735">
        <ele>278.92</ele>
        <time>2015-11-22T12:54:12Z</time>
      </trkpt>
      <trkpt lat="44.78673" lon="1.64734">
        <ele>278.92</ele>
        <time>2015-11-22T12:54:13Z</time>
      </trkpt>
      <trkpt lat="44.78675" lon="1.64733">
        <ele>278.92</ele>
        <time>2015-11-22T12:54:14Z</time>
      </trkpt>
      <trkpt lat="44.78688" lon="1.64723">
        <ele>278.92</ele>
        <time>2015-11-22T12:54:24Z</time>
      </trkpt>
      <trkpt lat="44.78689" lon="1.64721">
        <ele>278.92</ele>
        <time>2015-11-22T12:54:25Z</time>
      </trkpt>
      <trkpt lat="44.7869" lon="1.6472">
        <ele>278.92</ele>
        <time>2015-11-22T12:54:26Z</time>
      </trkpt>
      <trkpt lat="44.78691" lon="1.64719">
        <ele>278.92</ele>
        <time>2015-11-22T12:54:27Z</time>
      </trkpt>
      <trkpt lat="44.78693" lon="1.64718">
        <ele>278.92</ele>
        <time>2015-11-22T12:54:28Z</time>
      </trkpt>
      <trkpt lat="44.78695" lon="1.64717">
        <ele>278.92</ele>
        <time>2015-11-22T12:54:29Z</time>
      </trkpt>
      <trkpt lat="44.78696" lon="1.64716">
        <ele>278.92</ele>
        <time>2015-11-22T12:54:30Z</time>
      </trkpt>
      <trkpt lat="44.78698" lon="1.64715">
        <ele>278.92</ele>
        <time>2015-11-22T12:54:31Z</time>
      </trkpt>
      <trkpt lat="44.78699" lon="1.64713">
        <ele>278.92</ele>
        <time>2015-11-22T12:54:32Z</time>
      </trkpt>
      <trkpt lat="44.78702" lon="1.64713">
        <ele>278.92</ele>
        <time>2015-11-22T12:54:33Z</time>
      </trkpt>
      <trkpt lat="44.78703" lon="1.64711">
        <ele>278.92</ele>
        <time>2015-11-22T12:54:34Z</time>
      </trkpt>
      <trkpt lat="44.78705" lon="1.64709">
        <ele>278.92</ele>
        <time>2015-11-22T12:54:35Z</time>
      </trkpt>
      <trkpt lat="44.78722" lon="1.64698">
        <ele>278.92</ele>
        <time>2015-11-22T12:54:46Z</time>
      </trkpt>
      <trkpt lat="44.78727" lon="1.64692">
        <ele>278.92</ele>
        <time>2015-11-22T12:54:50Z</time>
      </trkpt>
      <trkpt lat="44.78728" lon="1.64691">
        <ele>278.92</ele>
        <time>2015-11-22T12:54:51Z</time>
      </trkpt>
      <trkpt lat="44.78729" lon="1.6469">
        <ele>278.92</ele>
        <time>2015-11-22T12:54:52Z</time>
      </trkpt>
      <trkpt lat="44.78731" lon="1.64688">
        <ele>278.92</ele>
        <time>2015-11-22T12:54:53Z</time>
      </trkpt>
      <trkpt lat="44.78732" lon="1.64687">
        <ele>278.92</ele>
        <time>2015-11-22T12:54:54Z</time>
      </trkpt>
      <trkpt lat="44.78733" lon="1.64685">
        <ele>278.92</ele>
        <time>2015-11-22T12:54:55Z</time>
      </trkpt>
      <trkpt lat="44.78734" lon="1.64683">
        <ele>278.92</ele>
        <time>2015-11-22T12:54:56Z</time>
      </trkpt>
      <trkpt lat="44.78735" lon="1.64681">
        <ele>278.92</ele>
        <time>2015-11-22T12:54:57Z</time>
      </trkpt>
      <trkpt lat="44.78737" lon="1.6468">
        <ele>278.92</ele>
        <time>2015-11-22T12:54:58Z</time>
      </trkpt>
      <trkpt lat="44.78738" lon="1.64678">
        <ele>278.92</ele>
        <time>2015-11-22T12:54:59Z</time>
      </trkpt>
      <trkpt lat="44.78739" lon="1.64676">
        <ele>278.92</ele>
        <time>2015-11-22T12:55:00Z</time>
      </trkpt>
      <trkpt lat="44.78739" lon="1.64673">
        <ele>278.92</ele>
        <time>2015-11-22T12:55:01Z</time>
      </trkpt>
      <trkpt lat="44.7874" lon="1.64671">
        <ele>278.92</ele>
        <time>2015-11-22T12:55:02Z</time>
      </trkpt>
      <trkpt lat="44.7874" lon="1.64669">
        <ele>278.92</ele>
        <time>2015-11-22T12:55:03Z</time>
      </trkpt>
      <trkpt lat="44.78743" lon="1.64652">
        <ele>278.92</ele>
        <time>2015-11-22T12:55:11Z</time>
      </trkpt>
      <trkpt lat="44.78743" lon="1.64627">
        <ele>279.88</ele>
        <time>2015-11-22T12:55:23Z</time>
      </trkpt>
      <trkpt lat="44.7875" lon="1.64606">
        <ele>280.84</ele>
        <time>2015-11-22T12:55:34Z</time>
      </trkpt>
      <trkpt lat="44.78751" lon="1.64604">
        <ele>281.32</ele>
        <time>2015-11-22T12:55:35Z</time>
      </trkpt>
      <trkpt lat="44.78763" lon="1.64586">
        <ele>281.8</ele>
        <time>2015-11-22T12:55:46Z</time>
      </trkpt>
      <trkpt lat="44.78776" lon="1.64569">
        <ele>282.77</ele>
        <time>2015-11-22T12:55:58Z</time>
      </trkpt>
      <trkpt lat="44.78783" lon="1.64557">
        <ele>283.25</ele>
        <time>2015-11-22T12:56:06Z</time>
      </trkpt>
      <trkpt lat="44.78784" lon="1.64555">
        <ele>282.77</ele>
        <time>2015-11-22T12:56:07Z</time>
      </trkpt>
      <trkpt lat="44.78785" lon="1.64553">
        <ele>283.73</ele>
        <time>2015-11-22T12:56:08Z</time>
      </trkpt>
      <trkpt lat="44.78786" lon="1.64551">
        <ele>283.73</ele>
        <time>2015-11-22T12:56:09Z</time>
      </trkpt>
      <trkpt lat="44.78787" lon="1.6455">
        <ele>283.73</ele>
        <time>2015-11-22T12:56:10Z</time>
      </trkpt>
      <trkpt lat="44.78788" lon="1.64548">
        <ele>283.73</ele>
        <time>2015-11-22T12:56:11Z</time>
      </trkpt>
      <trkpt lat="44.78789" lon="1.64547">
        <ele>283.73</ele>
        <time>2015-11-22T12:56:12Z</time>
      </trkpt>
      <trkpt lat="44.78797" lon="1.64536">
        <ele>284.21</ele>
        <time>2015-11-22T12:56:19Z</time>
      </trkpt>
      <trkpt lat="44.788" lon="1.6453">
        <ele>284.69</ele>
        <time>2015-11-22T12:56:23Z</time>
      </trkpt>
      <trkpt lat="44.78811" lon="1.64517">
        <ele>285.17</ele>
        <time>2015-11-22T12:56:32Z</time>
      </trkpt>
      <trkpt lat="44.78812" lon="1.64516">
        <ele>285.65</ele>
        <time>2015-11-22T12:56:33Z</time>
      </trkpt>
      <trkpt lat="44.78813" lon="1.64514">
        <ele>285.65</ele>
        <time>2015-11-22T12:56:34Z</time>
      </trkpt>
      <trkpt lat="44.78815" lon="1.64513">
        <ele>285.65</ele>
        <time>2015-11-22T12:56:35Z</time>
      </trkpt>
      <trkpt lat="44.78817" lon="1.64511">
        <ele>285.65</ele>
        <time>2015-11-22T12:56:36Z</time>
      </trkpt>
      <trkpt lat="44.78818" lon="1.6451">
        <ele>285.65</ele>
        <time>2015-11-22T12:56:37Z</time>
      </trkpt>
      <trkpt lat="44.7882" lon="1.64509">
        <ele>285.65</ele>
        <time>2015-11-22T12:56:38Z</time>
      </trkpt>
      <trkpt lat="44.78821" lon="1.64508">
        <ele>285.65</ele>
        <time>2015-11-22T12:56:39Z</time>
      </trkpt>
      <trkpt lat="44.78823" lon="1.64508">
        <ele>285.65</ele>
        <time>2015-11-22T12:56:40Z</time>
      </trkpt>
      <trkpt lat="44.78824" lon="1.64507">
        <ele>285.65</ele>
        <time>2015-11-22T12:56:41Z</time>
      </trkpt>
      <trkpt lat="44.78845" lon="1.64498">
        <ele>286.13</ele>
        <time>2015-11-22T12:56:55Z</time>
      </trkpt>
      <trkpt lat="44.78846" lon="1.64497">
        <ele>286.13</ele>
        <time>2015-11-22T12:56:56Z</time>
      </trkpt>
      <trkpt lat="44.78868" lon="1.64486">
        <ele>286.13</ele>
        <time>2015-11-22T12:57:09Z</time>
      </trkpt>
      <trkpt lat="44.78892" lon="1.64471">
        <ele>286.13</ele>
        <time>2015-11-22T12:57:24Z</time>
      </trkpt>
      <trkpt lat="44.78907" lon="1.64462">
        <ele>286.13</ele>
        <time>2015-11-22T12:57:36Z</time>
      </trkpt>
      <trkpt lat="44.78928" lon="1.64454">
        <ele>285.17</ele>
        <time>2015-11-22T12:57:49Z</time>
      </trkpt>
      <trkpt lat="44.78947" lon="1.64449">
        <ele>284.69</ele>
        <time>2015-11-22T12:58:00Z</time>
      </trkpt>
      <trkpt lat="44.78969" lon="1.64441">
        <ele>284.21</ele>
        <time>2015-11-22T12:58:14Z</time>
      </trkpt>
      <trkpt lat="44.78992" lon="1.64432">
        <ele>284.21</ele>
        <time>2015-11-22T12:58:28Z</time>
      </trkpt>
      <trkpt lat="44.78998" lon="1.64429">
        <ele>283.73</ele>
        <time>2015-11-22T12:58:32Z</time>
      </trkpt>
      <trkpt lat="44.78999" lon="1.64429">
        <ele>283.73</ele>
        <time>2015-11-22T12:58:33Z</time>
      </trkpt>
      <trkpt lat="44.79003" lon="1.64425">
        <ele>283.73</ele>
        <time>2015-11-22T12:58:36Z</time>
      </trkpt>
      <trkpt lat="44.79021" lon="1.64409">
        <ele>284.69</ele>
        <time>2015-11-22T12:58:49Z</time>
      </trkpt>
      <trkpt lat="44.79037" lon="1.64398">
        <ele>285.17</ele>
        <time>2015-11-22T12:59:01Z</time>
      </trkpt>
      <trkpt lat="44.79051" lon="1.64384">
        <ele>285.65</ele>
        <time>2015-11-22T12:59:14Z</time>
      </trkpt>
      <trkpt lat="44.79067" lon="1.64371">
        <ele>285.65</ele>
        <time>2015-11-22T12:59:25Z</time>
      </trkpt>
      <trkpt lat="44.79075" lon="1.64363">
        <ele>286.13</ele>
        <time>2015-11-22T12:59:32Z</time>
      </trkpt>
      <trkpt lat="44.79081" lon="1.64351">
        <ele>286.13</ele>
        <time>2015-11-22T12:59:47Z</time>
      </trkpt>
      <trkpt lat="44.79083" lon="1.64348">
        <ele>286.13</ele>
        <time>2015-11-22T12:59:50Z</time>
      </trkpt>
      <trkpt lat="44.7909" lon="1.64329">
        <ele>286.13</ele>
        <time>2015-11-22T13:00:01Z</time>
      </trkpt>
      <trkpt lat="44.79102" lon="1.64311">
        <ele>286.13</ele>
        <time>2015-11-22T13:00:13Z</time>
      </trkpt>
      <trkpt lat="44.79114" lon="1.64286">
        <ele>285.65</ele>
        <time>2015-11-22T13:00:26Z</time>
      </trkpt>
      <trkpt lat="44.79121" lon="1.64267">
        <ele>285.65</ele>
        <time>2015-11-22T13:00:36Z</time>
      </trkpt>
      <trkpt lat="44.79129" lon="1.64247">
        <ele>285.65</ele>
        <time>2015-11-22T13:00:47Z</time>
      </trkpt>
      <trkpt lat="44.7913" lon="1.6424">
        <ele>285.65</ele>
        <time>2015-11-22T13:00:50Z</time>
      </trkpt>
      <trkpt lat="44.79136" lon="1.64229">
        <ele>285.65</ele>
        <time>2015-11-22T13:00:56Z</time>
      </trkpt>
      <trkpt lat="44.79141" lon="1.6422">
        <ele>285.65</ele>
        <time>2015-11-22T13:01:01Z</time>
      </trkpt>
      <trkpt lat="44.79144" lon="1.64214">
        <ele>285.65</ele>
        <time>2015-11-22T13:01:04Z</time>
      </trkpt>
      <trkpt lat="44.79157" lon="1.642">
        <ele>283.73</ele>
        <time>2015-11-22T13:01:14Z</time>
      </trkpt>
      <trkpt lat="44.79169" lon="1.64187">
        <ele>282.28</ele>
        <time>2015-11-22T13:01:23Z</time>
      </trkpt>
      <trkpt lat="44.79171" lon="1.64184">
        <ele>282.28</ele>
        <time>2015-11-22T13:01:25Z</time>
      </trkpt>
      <trkpt lat="44.7918" lon="1.64175">
        <ele>280.84</ele>
        <time>2015-11-22T13:01:31Z</time>
      </trkpt>
      <trkpt lat="44.79186" lon="1.64164">
        <ele>279.88</ele>
        <time>2015-11-22T13:01:37Z</time>
      </trkpt>
      <trkpt lat="44.79188" lon="1.64158">
        <ele>279.88</ele>
        <time>2015-11-22T13:01:40Z</time>
      </trkpt>
      <trkpt lat="44.79189" lon="1.64149">
        <ele>279.4</ele>
        <time>2015-11-22T13:01:44Z</time>
      </trkpt>
      <trkpt lat="44.7919" lon="1.64146">
        <ele>278.92</ele>
        <time>2015-11-22T13:01:46Z</time>
      </trkpt>
      <trkpt lat="44.79191" lon="1.64138">
        <ele>278.92</ele>
        <time>2015-11-22T13:01:50Z</time>
      </trkpt>
      <trkpt lat="44.79191" lon="1.64129">
        <ele>278.44</ele>
        <time>2015-11-22T13:01:54Z</time>
      </trkpt>
      <trkpt lat="44.79194" lon="1.64103">
        <ele>277.96</ele>
        <time>2015-11-22T13:02:06Z</time>
      </trkpt>
      <trkpt lat="44.79199" lon="1.64069">
        <ele>276.52</ele>
        <time>2015-11-22T13:02:20Z</time>
      </trkpt>
      <trkpt lat="44.79205" lon="1.64041">
        <ele>275.56</ele>
        <time>2015-11-22T13:02:32Z</time>
      </trkpt>
      <trkpt lat="44.79211" lon="1.64013">
        <ele>274.11</ele>
        <time>2015-11-22T13:02:44Z</time>
      </trkpt>
      <trkpt lat="44.79212" lon="1.64011">
        <ele>274.11</ele>
        <time>2015-11-22T13:02:45Z</time>
      </trkpt>
      <trkpt lat="44.79216" lon="1.63982">
        <ele>272.67</ele>
        <time>2015-11-22T13:02:58Z</time>
      </trkpt>
      <trkpt lat="44.79219" lon="1.6395">
        <ele>272.19</ele>
        <time>2015-11-22T13:03:12Z</time>
      </trkpt>
      <trkpt lat="44.7922" lon="1.63945">
        <ele>272.19</ele>
        <time>2015-11-22T13:03:15Z</time>
      </trkpt>
      <trkpt lat="44.79222" lon="1.63925">
        <ele>272.19</ele>
        <time>2015-11-22T13:03:24Z</time>
      </trkpt>
      <trkpt lat="44.79223" lon="1.639">
        <ele>271.23</ele>
        <time>2015-11-22T13:03:37Z</time>
      </trkpt>
      <trkpt lat="44.79226" lon="1.63872">
        <ele>271.23</ele>
        <time>2015-11-22T13:03:49Z</time>
      </trkpt>
      <trkpt lat="44.79228" lon="1.63857">
        <ele>271.23</ele>
        <time>2015-11-22T13:03:57Z</time>
      </trkpt>
      <trkpt lat="44.79227" lon="1.63848">
        <ele>271.23</ele>
        <time>2015-11-22T13:04:02Z</time>
      </trkpt>
      <trkpt lat="44.7923" lon="1.6382">
        <ele>271.23</ele>
        <time>2015-11-22T13:04:15Z</time>
      </trkpt>
      <trkpt lat="44.79232" lon="1.63803">
        <ele>272.67</ele>
        <time>2015-11-22T13:04:28Z</time>
      </trkpt>
      <trkpt lat="44.79233" lon="1.63786">
        <ele>272.67</ele>
        <time>2015-11-22T13:04:39Z</time>
      </trkpt>
      <trkpt lat="44.79236" lon="1.63763">
        <ele>272.67</ele>
        <time>2015-11-22T13:04:49Z</time>
      </trkpt>
      <trkpt lat="44.79242" lon="1.63744">
        <ele>272.67</ele>
        <time>2015-11-22T13:04:58Z</time>
      </trkpt>
      <trkpt lat="44.79243" lon="1.63737">
        <ele>272.67</ele>
        <time>2015-11-22T13:05:01Z</time>
      </trkpt>
      <trkpt lat="44.7925" lon="1.63714">
        <ele>272.67</ele>
        <time>2015-11-22T13:05:14Z</time>
      </trkpt>
      <trkpt lat="44.79254" lon="1.63688">
        <ele>272.67</ele>
        <time>2015-11-22T13:05:27Z</time>
      </trkpt>
      <trkpt lat="44.79256" lon="1.63682">
        <ele>272.67</ele>
        <time>2015-11-22T13:05:30Z</time>
      </trkpt>
      <trkpt lat="44.79256" lon="1.63679">
        <ele>272.67</ele>
        <time>2015-11-22T13:05:32Z</time>
      </trkpt>
      <trkpt lat="44.79263" lon="1.63654">
        <ele>271.71</ele>
        <time>2015-11-22T13:05:45Z</time>
      </trkpt>
      <trkpt lat="44.79269" lon="1.63631">
        <ele>271.71</ele>
        <time>2015-11-22T13:05:57Z</time>
      </trkpt>
      <trkpt lat="44.79274" lon="1.63608">
        <ele>271.23</ele>
        <time>2015-11-22T13:06:09Z</time>
      </trkpt>
      <trkpt lat="44.79275" lon="1.63603">
        <ele>270.75</ele>
        <time>2015-11-22T13:06:12Z</time>
      </trkpt>
      <trkpt lat="44.79281" lon="1.63583">
        <ele>270.75</ele>
        <time>2015-11-22T13:06:24Z</time>
      </trkpt>
      <trkpt lat="44.79282" lon="1.63575">
        <ele>269.79</ele>
        <time>2015-11-22T13:06:28Z</time>
      </trkpt>
      <trkpt lat="44.79285" lon="1.63563">
        <ele>269.31</ele>
        <time>2015-11-22T13:06:34Z</time>
      </trkpt>
      <trkpt lat="44.79286" lon="1.63556">
        <ele>269.31</ele>
        <time>2015-11-22T13:06:38Z</time>
      </trkpt>
      <trkpt lat="44.79292" lon="1.63536">
        <ele>269.31</ele>
        <time>2015-11-22T13:06:49Z</time>
      </trkpt>
      <trkpt lat="44.79297" lon="1.63517">
        <ele>268.83</ele>
        <time>2015-11-22T13:06:58Z</time>
      </trkpt>
      <trkpt lat="44.79299" lon="1.6351">
        <ele>268.83</ele>
        <time>2015-11-22T13:07:01Z</time>
      </trkpt>
      <trkpt lat="44.79302" lon="1.63499">
        <ele>268.83</ele>
        <time>2015-11-22T13:07:07Z</time>
      </trkpt>
      <trkpt lat="44.79308" lon="1.63485">
        <ele>268.83</ele>
        <time>2015-11-22T13:07:14Z</time>
      </trkpt>
      <trkpt lat="44.79311" lon="1.63482">
        <ele>268.83</ele>
        <time>2015-11-22T13:07:16Z</time>
      </trkpt>
      <trkpt lat="44.79321" lon="1.63464">
        <ele>268.83</ele>
        <time>2015-11-22T13:07:28Z</time>
      </trkpt>
      <trkpt lat="44.79325" lon="1.63459">
        <ele>268.83</ele>
        <time>2015-11-22T13:07:31Z</time>
      </trkpt>
      <trkpt lat="44.79343" lon="1.63436">
        <ele>268.83</ele>
        <time>2015-11-22T13:07:48Z</time>
      </trkpt>
      <trkpt lat="44.79352" lon="1.63425">
        <ele>268.83</ele>
        <time>2015-11-22T13:07:57Z</time>
      </trkpt>
      <trkpt lat="44.79367" lon="1.63403">
        <ele>268.83</ele>
        <time>2015-11-22T13:08:11Z</time>
      </trkpt>
      <trkpt lat="44.79368" lon="1.634">
        <ele>268.83</ele>
        <time>2015-11-22T13:08:14Z</time>
      </trkpt>
      <trkpt lat="44.79371" lon="1.63398">
        <ele>268.83</ele>
        <time>2015-11-22T13:08:16Z</time>
      </trkpt>
      <trkpt lat="44.79377" lon="1.63389">
        <ele>268.83</ele>
        <time>2015-11-22T13:08:22Z</time>
      </trkpt>
      <trkpt lat="44.79392" lon="1.6337">
        <ele>268.83</ele>
        <time>2015-11-22T13:08:35Z</time>
      </trkpt>
      <trkpt lat="44.79401" lon="1.63357">
        <ele>268.83</ele>
        <time>2015-11-22T13:08:44Z</time>
      </trkpt>
      <trkpt lat="44.79414" lon="1.6334">
        <ele>268.35</ele>
        <time>2015-11-22T13:08:56Z</time>
      </trkpt>
      <trkpt lat="44.79422" lon="1.63329">
        <ele>267.86</ele>
        <time>2015-11-22T13:09:03Z</time>
      </trkpt>
      <trkpt lat="44.7943" lon="1.63317">
        <ele>267.86</ele>
        <time>2015-11-22T13:09:11Z</time>
      </trkpt>
      <trkpt lat="44.79448" lon="1.63295">
        <ele>267.38</ele>
        <time>2015-11-22T13:09:26Z</time>
      </trkpt>
      <trkpt lat="44.79454" lon="1.63288">
        <ele>267.38</ele>
        <time>2015-11-22T13:09:30Z</time>
      </trkpt>
      <trkpt lat="44.79468" lon="1.63268">
        <ele>265.94</ele>
        <time>2015-11-22T13:09:43Z</time>
      </trkpt>
      <trkpt lat="44.79479" lon="1.63253">
        <ele>265.46</ele>
        <time>2015-11-22T13:09:54Z</time>
      </trkpt>
      <trkpt lat="44.79488" lon="1.63239">
        <ele>264.98</ele>
        <time>2015-11-22T13:10:04Z</time>
      </trkpt>
      <trkpt lat="44.79493" lon="1.63232">
        <ele>264.5</ele>
        <time>2015-11-22T13:10:08Z</time>
      </trkpt>
      <trkpt lat="44.795" lon="1.63222">
        <ele>264.02</ele>
        <time>2015-11-22T13:10:15Z</time>
      </trkpt>
      <trkpt lat="44.79508" lon="1.63209">
        <ele>263.54</ele>
        <time>2015-11-22T13:10:24Z</time>
      </trkpt>
      <trkpt lat="44.79509" lon="1.63205">
        <ele>263.06</ele>
        <time>2015-11-22T13:10:26Z</time>
      </trkpt>
      <trkpt lat="44.79528" lon="1.63186">
        <ele>262.1</ele>
        <time>2015-11-22T13:10:40Z</time>
      </trkpt>
      <trkpt lat="44.79546" lon="1.63165">
        <ele>261.14</ele>
        <time>2015-11-22T13:10:53Z</time>
      </trkpt>
      <trkpt lat="44.79559" lon="1.6314">
        <ele>260.65</ele>
        <time>2015-11-22T13:11:08Z</time>
      </trkpt>
      <trkpt lat="44.7957" lon="1.63115">
        <ele>260.65</ele>
        <time>2015-11-22T13:11:21Z</time>
      </trkpt>
      <trkpt lat="44.79571" lon="1.63113">
        <ele>260.65</ele>
        <time>2015-11-22T13:11:22Z</time>
      </trkpt>
      <trkpt lat="44.79572" lon="1.63109">
        <ele>260.65</ele>
        <time>2015-11-22T13:11:24Z</time>
      </trkpt>
      <trkpt lat="44.79579" lon="1.63087">
        <ele>260.65</ele>
        <time>2015-11-22T13:11:34Z</time>
      </trkpt>
      <trkpt lat="44.79584" lon="1.63073">
        <ele>260.65</ele>
        <time>2015-11-22T13:11:42Z</time>
      </trkpt>
      <trkpt lat="44.79594" lon="1.63048">
        <ele>261.62</ele>
        <time>2015-11-22T13:11:56Z</time>
      </trkpt>
      <trkpt lat="44.79603" lon="1.63019">
        <ele>262.1</ele>
        <time>2015-11-22T13:12:09Z</time>
      </trkpt>
      <trkpt lat="44.79611" lon="1.62998">
        <ele>261.62</ele>
        <time>2015-11-22T13:12:20Z</time>
      </trkpt>
      <trkpt lat="44.79614" lon="1.62992">
        <ele>261.62</ele>
        <time>2015-11-22T13:12:24Z</time>
      </trkpt>
      <trkpt lat="44.79623" lon="1.62969">
        <ele>263.06</ele>
        <time>2015-11-22T13:12:37Z</time>
      </trkpt>
      <trkpt lat="44.79636" lon="1.62944">
        <ele>264.02</ele>
        <time>2015-11-22T13:12:50Z</time>
      </trkpt>
      <trkpt lat="44.79648" lon="1.62918">
        <ele>264.5</ele>
        <time>2015-11-22T13:13:04Z</time>
      </trkpt>
      <trkpt lat="44.79656" lon="1.62899">
        <ele>264.98</ele>
        <time>2015-11-22T13:13:16Z</time>
      </trkpt>
      <trkpt lat="44.79666" lon="1.62879">
        <ele>265.46</ele>
        <time>2015-11-22T13:13:28Z</time>
      </trkpt>
      <trkpt lat="44.7967" lon="1.6287">
        <ele>265.46</ele>
        <time>2015-11-22T13:13:33Z</time>
      </trkpt>
      <trkpt lat="44.79677" lon="1.62858">
        <ele>265.46</ele>
        <time>2015-11-22T13:13:40Z</time>
      </trkpt>
      <trkpt lat="44.7968" lon="1.62851">
        <ele>265.46</ele>
        <time>2015-11-22T13:13:44Z</time>
      </trkpt>
      <trkpt lat="44.79682" lon="1.62849">
        <ele>265.46</ele>
        <time>2015-11-22T13:13:46Z</time>
      </trkpt>
      <trkpt lat="44.79687" lon="1.62839">
        <ele>265.46</ele>
        <time>2015-11-22T13:13:52Z</time>
      </trkpt>
      <trkpt lat="44.79689" lon="1.62831">
        <ele>265.46</ele>
        <time>2015-11-22T13:13:56Z</time>
      </trkpt>
      <trkpt lat="44.79694" lon="1.62818">
        <ele>265.46</ele>
        <time>2015-11-22T13:14:02Z</time>
      </trkpt>
      <trkpt lat="44.79695" lon="1.62803">
        <ele>265.46</ele>
        <time>2015-11-22T13:14:09Z</time>
      </trkpt>
      <trkpt lat="44.79691" lon="1.62779">
        <ele>265.46</ele>
        <time>2015-11-22T13:14:22Z</time>
      </trkpt>
      <trkpt lat="44.79691" lon="1.62772">
        <ele>265.46</ele>
        <time>2015-11-22T13:14:33Z</time>
      </trkpt>
      <trkpt lat="44.79691" lon="1.62772">
        <ele>265.46</ele>
        <time>2015-11-22T13:14:55Z</time>
      </trkpt>
      <trkpt lat="44.79691" lon="1.62772">
        <ele>265.46</ele>
        <time>2015-11-22T13:15:18Z</time>
      </trkpt>
      <trkpt lat="44.79691" lon="1.62773">
        <ele>265.46</ele>
        <time>2015-11-22T13:15:41Z</time>
      </trkpt>
      <trkpt lat="44.79691" lon="1.62774">
        <ele>265.46</ele>
        <time>2015-11-22T13:16:04Z</time>
      </trkpt>
      <trkpt lat="44.79691" lon="1.62774">
        <ele>265.46</ele>
        <time>2015-11-22T13:16:25Z</time>
      </trkpt>
      <trkpt lat="44.79691" lon="1.62774">
        <ele>265.94</ele>
        <time>2015-11-22T13:16:47Z</time>
      </trkpt>
      <trkpt lat="44.79691" lon="1.62774">
        <ele>265.94</ele>
        <time>2015-11-22T13:17:14Z</time>
      </trkpt>
      <trkpt lat="44.79691" lon="1.62775">
        <ele>266.42</ele>
        <time>2015-11-22T13:17:30Z</time>
      </trkpt>
      <trkpt lat="44.79692" lon="1.62775">
        <ele>266.9</ele>
        <time>2015-11-22T13:17:52Z</time>
      </trkpt>
      <trkpt lat="44.79692" lon="1.62776">
        <ele>266.9</ele>
        <time>2015-11-22T13:18:21Z</time>
      </trkpt>
      <trkpt lat="44.79691" lon="1.62776">
        <ele>266.9</ele>
        <time>2015-11-22T13:18:48Z</time>
      </trkpt>
      <trkpt lat="44.79691" lon="1.62775">
        <ele>266.9</ele>
        <time>2015-11-22T13:19:16Z</time>
      </trkpt>
      <trkpt lat="44.79692" lon="1.62775">
        <ele>266.9</ele>
        <time>2015-11-22T13:19:37Z</time>
      </trkpt>
      <trkpt lat="44.79692" lon="1.62775">
        <ele>266.9</ele>
        <time>2015-11-22T13:19:54Z</time>
      </trkpt>
      <trkpt lat="44.79692" lon="1.62776">
        <ele>267.38</ele>
        <time>2015-11-22T13:20:16Z</time>
      </trkpt>
      <trkpt lat="44.79693" lon="1.62777">
        <ele>267.38</ele>
        <time>2015-11-22T13:20:42Z</time>
      </trkpt>
      <trkpt lat="44.79692" lon="1.62777">
        <ele>267.38</ele>
        <time>2015-11-22T13:21:05Z</time>
      </trkpt>
      <trkpt lat="44.79692" lon="1.62777">
        <ele>267.38</ele>
        <time>2015-11-22T13:21:25Z</time>
      </trkpt>
      <trkpt lat="44.79692" lon="1.62776">
        <ele>267.38</ele>
        <time>2015-11-22T13:21:39Z</time>
      </trkpt>
      <trkpt lat="44.79692" lon="1.62777">
        <ele>267.38</ele>
        <time>2015-11-22T13:21:56Z</time>
      </trkpt>
      <trkpt lat="44.79692" lon="1.62777">
        <ele>267.38</ele>
        <time>2015-11-22T13:22:20Z</time>
      </trkpt>
      <trkpt lat="44.79693" lon="1.62773">
        <ele>267.38</ele>
        <time>2015-11-22T13:22:36Z</time>
      </trkpt>
      <trkpt lat="44.79691" lon="1.62774">
        <ele>267.38</ele>
        <time>2015-11-22T13:23:08Z</time>
      </trkpt>
      <trkpt lat="44.79692" lon="1.62774">
        <ele>267.38</ele>
        <time>2015-11-22T13:23:29Z</time>
      </trkpt>
      <trkpt lat="44.79692" lon="1.62775">
        <ele>267.38</ele>
        <time>2015-11-22T13:23:52Z</time>
      </trkpt>
      <trkpt lat="44.79692" lon="1.62775">
        <ele>267.38</ele>
        <time>2015-11-22T13:24:20Z</time>
      </trkpt>
      <trkpt lat="44.79692" lon="1.62774">
        <ele>267.38</ele>
        <time>2015-11-22T13:24:39Z</time>
      </trkpt>
      <trkpt lat="44.79692" lon="1.62773">
        <ele>267.86</ele>
        <time>2015-11-22T13:24:54Z</time>
      </trkpt>
      <trkpt lat="44.79692" lon="1.62774">
        <ele>267.86</ele>
        <time>2015-11-22T13:25:20Z</time>
      </trkpt>
      <trkpt lat="44.79692" lon="1.62773">
        <ele>267.86</ele>
        <time>2015-11-22T13:25:45Z</time>
      </trkpt>
      <trkpt lat="44.797" lon="1.62771">
        <ele>267.86</ele>
        <time>2015-11-22T13:25:56Z</time>
      </trkpt>
      <trkpt lat="44.79702" lon="1.6277">
        <ele>267.86</ele>
        <time>2015-11-22T13:25:58Z</time>
      </trkpt>
      <trkpt lat="44.79704" lon="1.6277">
        <ele>267.86</ele>
        <time>2015-11-22T13:25:59Z</time>
      </trkpt>
      <trkpt lat="44.79729" lon="1.62769">
        <ele>266.42</ele>
        <time>2015-11-22T13:26:13Z</time>
      </trkpt>
      <trkpt lat="44.79742" lon="1.6277">
        <ele>264.98</ele>
        <time>2015-11-22T13:26:21Z</time>
      </trkpt>
      <trkpt lat="44.79744" lon="1.6277">
        <ele>264.5</ele>
        <time>2015-11-22T13:26:22Z</time>
      </trkpt>
      <trkpt lat="44.79745" lon="1.62771">
        <ele>264.5</ele>
        <time>2015-11-22T13:26:23Z</time>
      </trkpt>
      <trkpt lat="44.79747" lon="1.62771">
        <ele>264.5</ele>
        <time>2015-11-22T13:26:24Z</time>
      </trkpt>
      <trkpt lat="44.79749" lon="1.62772">
        <ele>264.02</ele>
        <time>2015-11-22T13:26:25Z</time>
      </trkpt>
      <trkpt lat="44.79751" lon="1.62772">
        <ele>264.02</ele>
        <time>2015-11-22T13:26:26Z</time>
      </trkpt>
      <trkpt lat="44.79766" lon="1.62777">
        <ele>262.58</ele>
        <time>2015-11-22T13:26:36Z</time>
      </trkpt>
      <trkpt lat="44.7977" lon="1.62778">
        <ele>262.1</ele>
        <time>2015-11-22T13:26:38Z</time>
      </trkpt>
      <trkpt lat="44.79772" lon="1.62778">
        <ele>262.1</ele>
        <time>2015-11-22T13:26:39Z</time>
      </trkpt>
      <trkpt lat="44.79774" lon="1.62778">
        <ele>261.14</ele>
        <time>2015-11-22T13:26:40Z</time>
      </trkpt>
      <trkpt lat="44.79783" lon="1.62776">
        <ele>258.25</ele>
        <time>2015-11-22T13:26:46Z</time>
      </trkpt>
      <trkpt lat="44.79791" lon="1.62774">
        <ele>254.89</ele>
        <time>2015-11-22T13:26:50Z</time>
      </trkpt>
      <trkpt lat="44.79795" lon="1.62773">
        <ele>253.93</ele>
        <time>2015-11-22T13:26:53Z</time>
      </trkpt>
      <trkpt lat="44.79797" lon="1.62773">
        <ele>253.93</ele>
        <time>2015-11-22T13:26:54Z</time>
      </trkpt>
      <trkpt lat="44.7981" lon="1.62774">
        <ele>253.93</ele>
        <time>2015-11-22T13:27:01Z</time>
      </trkpt>
      <trkpt lat="44.79811" lon="1.62775">
        <ele>253.93</ele>
        <time>2015-11-22T13:27:02Z</time>
      </trkpt>
      <trkpt lat="44.79812" lon="1.62777">
        <ele>253.93</ele>
        <time>2015-11-22T13:27:03Z</time>
      </trkpt>
      <trkpt lat="44.79826" lon="1.62794">
        <ele>252.96</ele>
        <time>2015-11-22T13:27:16Z</time>
      </trkpt>
      <trkpt lat="44.79826" lon="1.62795">
        <ele>252.96</ele>
        <time>2015-11-22T13:27:17Z</time>
      </trkpt>
      <trkpt lat="44.79826" lon="1.62797">
        <ele>252.96</ele>
        <time>2015-11-22T13:27:18Z</time>
      </trkpt>
      <trkpt lat="44.79827" lon="1.62799">
        <ele>252</ele>
        <time>2015-11-22T13:27:19Z</time>
      </trkpt>
      <trkpt lat="44.7983" lon="1.62808">
        <ele>250.56</ele>
        <time>2015-11-22T13:27:24Z</time>
      </trkpt>
      <trkpt lat="44.79833" lon="1.62815">
        <ele>247.2</ele>
        <time>2015-11-22T13:27:28Z</time>
      </trkpt>
      <trkpt lat="44.79835" lon="1.62817">
        <ele>245.27</ele>
        <time>2015-11-22T13:27:30Z</time>
      </trkpt>
      <trkpt lat="44.79836" lon="1.62818">
        <ele>244.79</ele>
        <time>2015-11-22T13:27:31Z</time>
      </trkpt>
      <trkpt lat="44.79839" lon="1.62817">
        <ele>243.35</ele>
        <time>2015-11-22T13:27:33Z</time>
      </trkpt>
      <trkpt lat="44.7984" lon="1.62816">
        <ele>243.35</ele>
        <time>2015-11-22T13:27:34Z</time>
      </trkpt>
      <trkpt lat="44.79841" lon="1.62814">
        <ele>242.87</ele>
        <time>2015-11-22T13:27:35Z</time>
      </trkpt>
      <trkpt lat="44.79848" lon="1.62795">
        <ele>241.43</ele>
        <time>2015-11-22T13:27:46Z</time>
      </trkpt>
      <trkpt lat="44.79849" lon="1.62793">
        <ele>241.43</ele>
        <time>2015-11-22T13:27:47Z</time>
      </trkpt>
      <trkpt lat="44.7985" lon="1.62775">
        <ele>238.06</ele>
        <time>2015-11-22T13:27:55Z</time>
      </trkpt>
      <trkpt lat="44.7985" lon="1.62773">
        <ele>237.1</ele>
        <time>2015-11-22T13:27:56Z</time>
      </trkpt>
      <trkpt lat="44.7985" lon="1.62771">
        <ele>236.14</ele>
        <time>2015-11-22T13:27:57Z</time>
      </trkpt>
      <trkpt lat="44.7985" lon="1.62768">
        <ele>235.18</ele>
        <time>2015-11-22T13:27:58Z</time>
      </trkpt>
      <trkpt lat="44.79848" lon="1.62754">
        <ele>231.81</ele>
        <time>2015-11-22T13:28:04Z</time>
      </trkpt>
      <trkpt lat="44.79844" lon="1.62728">
        <ele>231.33</ele>
        <time>2015-11-22T13:28:15Z</time>
      </trkpt>
      <trkpt lat="44.79844" lon="1.62723">
        <ele>231.33</ele>
        <time>2015-11-22T13:28:17Z</time>
      </trkpt>
      <trkpt lat="44.79845" lon="1.62721">
        <ele>230.85</ele>
        <time>2015-11-22T13:28:18Z</time>
      </trkpt>
      <trkpt lat="44.79846" lon="1.62719">
        <ele>230.85</ele>
        <time>2015-11-22T13:28:19Z</time>
      </trkpt>
      <trkpt lat="44.79847" lon="1.62718">
        <ele>230.37</ele>
        <time>2015-11-22T13:28:20Z</time>
      </trkpt>
      <trkpt lat="44.79851" lon="1.62707">
        <ele>226.53</ele>
        <time>2015-11-22T13:28:26Z</time>
      </trkpt>
      <trkpt lat="44.79852" lon="1.62704">
        <ele>223.64</ele>
        <time>2015-11-22T13:28:30Z</time>
      </trkpt>
      <trkpt lat="44.79861" lon="1.62694">
        <ele>222.2</ele>
        <time>2015-11-22T13:28:40Z</time>
      </trkpt>
      <trkpt lat="44.79863" lon="1.62691">
        <ele>222.2</ele>
        <time>2015-11-22T13:28:42Z</time>
      </trkpt>
      <trkpt lat="44.79868" lon="1.62688">
        <ele>221.24</ele>
        <time>2015-11-22T13:28:45Z</time>
      </trkpt>
      <trkpt lat="44.79884" lon="1.62674">
        <ele>218.36</ele>
        <time>2015-11-22T13:28:54Z</time>
      </trkpt>
      <trkpt lat="44.79885" lon="1.62673">
        <ele>217.4</ele>
        <time>2015-11-22T13:28:55Z</time>
      </trkpt>
      <trkpt lat="44.79887" lon="1.62672">
        <ele>216.91</ele>
        <time>2015-11-22T13:28:56Z</time>
      </trkpt>
      <trkpt lat="44.79888" lon="1.62669">
        <ele>215.95</ele>
        <time>2015-11-22T13:28:57Z</time>
      </trkpt>
      <trkpt lat="44.7989" lon="1.62668">
        <ele>214.99</ele>
        <time>2015-11-22T13:28:58Z</time>
      </trkpt>
      <trkpt lat="44.79891" lon="1.62666">
        <ele>214.03</ele>
        <time>2015-11-22T13:28:59Z</time>
      </trkpt>
      <trkpt lat="44.79892" lon="1.62665">
        <ele>213.55</ele>
        <time>2015-11-22T13:29:00Z</time>
      </trkpt>
      <trkpt lat="44.79893" lon="1.62663">
        <ele>212.59</ele>
        <time>2015-11-22T13:29:01Z</time>
      </trkpt>
      <trkpt lat="44.79895" lon="1.6266">
        <ele>211.63</ele>
        <time>2015-11-22T13:29:03Z</time>
      </trkpt>
      <trkpt lat="44.79907" lon="1.62641">
        <ele>209.7</ele>
        <time>2015-11-22T13:29:15Z</time>
      </trkpt>
      <trkpt lat="44.79913" lon="1.62632">
        <ele>208.74</ele>
        <time>2015-11-22T13:29:20Z</time>
      </trkpt>
      <trkpt lat="44.79919" lon="1.62623">
        <ele>205.86</ele>
        <time>2015-11-22T13:29:26Z</time>
      </trkpt>
      <trkpt lat="44.79924" lon="1.62615">
        <ele>202.01</ele>
        <time>2015-11-22T13:29:31Z</time>
      </trkpt>
      <trkpt lat="44.79937" lon="1.62599">
        <ele>200.57</ele>
        <time>2015-11-22T13:29:42Z</time>
      </trkpt>
      <trkpt lat="44.79938" lon="1.62598">
        <ele>200.57</ele>
        <time>2015-11-22T13:29:43Z</time>
      </trkpt>
      <trkpt lat="44.79939" lon="1.62597">
        <ele>200.57</ele>
        <time>2015-11-22T13:29:44Z</time>
      </trkpt>
      <trkpt lat="44.7994" lon="1.62595">
        <ele>200.57</ele>
        <time>2015-11-22T13:29:45Z</time>
      </trkpt>
      <trkpt lat="44.79955" lon="1.62579">
        <ele>197.69</ele>
        <time>2015-11-22T13:29:56Z</time>
      </trkpt>
      <trkpt lat="44.79958" lon="1.62574">
        <ele>194.8</ele>
        <time>2015-11-22T13:29:59Z</time>
      </trkpt>
      <trkpt lat="44.79964" lon="1.62568">
        <ele>191.92</ele>
        <time>2015-11-22T13:30:03Z</time>
      </trkpt>
      <trkpt lat="44.7998" lon="1.62551">
        <ele>191.44</ele>
        <time>2015-11-22T13:30:16Z</time>
      </trkpt>
      <trkpt lat="44.79981" lon="1.62549">
        <ele>191.44</ele>
        <time>2015-11-22T13:30:18Z</time>
      </trkpt>
      <trkpt lat="44.79983" lon="1.62547">
        <ele>190.96</ele>
        <time>2015-11-22T13:30:19Z</time>
      </trkpt>
      <trkpt lat="44.79984" lon="1.62546">
        <ele>190.96</ele>
        <time>2015-11-22T13:30:20Z</time>
      </trkpt>
      <trkpt lat="44.79985" lon="1.62544">
        <ele>190.48</ele>
        <time>2015-11-22T13:30:21Z</time>
      </trkpt>
      <trkpt lat="44.79986" lon="1.62543">
        <ele>190.48</ele>
        <time>2015-11-22T13:30:22Z</time>
      </trkpt>
      <trkpt lat="44.79988" lon="1.62542">
        <ele>190</ele>
        <time>2015-11-22T13:30:23Z</time>
      </trkpt>
      <trkpt lat="44.79989" lon="1.62539">
        <ele>188.56</ele>
        <time>2015-11-22T13:30:25Z</time>
      </trkpt>
      <trkpt lat="44.79995" lon="1.62533">
        <ele>184.71</ele>
        <time>2015-11-22T13:30:29Z</time>
      </trkpt>
      <trkpt lat="44.80004" lon="1.62525">
        <ele>180.87</ele>
        <time>2015-11-22T13:30:35Z</time>
      </trkpt>
      <trkpt lat="44.80018" lon="1.62512">
        <ele>180.87</ele>
        <time>2015-11-22T13:30:47Z</time>
      </trkpt>
      <trkpt lat="44.80024" lon="1.62506">
        <ele>177.98</ele>
        <time>2015-11-22T13:30:52Z</time>
      </trkpt>
      <trkpt lat="44.80029" lon="1.62502">
        <ele>174.62</ele>
        <time>2015-11-22T13:30:56Z</time>
      </trkpt>
      <trkpt lat="44.80037" lon="1.62496">
        <ele>171.73</ele>
        <time>2015-11-22T13:31:02Z</time>
      </trkpt>
      <trkpt lat="44.80047" lon="1.62487">
        <ele>171.25</ele>
        <time>2015-11-22T13:31:10Z</time>
      </trkpt>
      <trkpt lat="44.80049" lon="1.62486">
        <ele>170.77</ele>
        <time>2015-11-22T13:31:11Z</time>
      </trkpt>
      <trkpt lat="44.8005" lon="1.62485">
        <ele>170.77</ele>
        <time>2015-11-22T13:31:12Z</time>
      </trkpt>
      <trkpt lat="44.80051" lon="1.62484">
        <ele>170.77</ele>
        <time>2015-11-22T13:31:13Z</time>
      </trkpt>
      <trkpt lat="44.80052" lon="1.62482">
        <ele>170.77</ele>
        <time>2015-11-22T13:31:14Z</time>
      </trkpt>
      <trkpt lat="44.80061" lon="1.62472">
        <ele>166.93</ele>
        <time>2015-11-22T13:31:22Z</time>
      </trkpt>
      <trkpt lat="44.80063" lon="1.62467">
        <ele>164.04</ele>
        <time>2015-11-22T13:31:26Z</time>
      </trkpt>
      <trkpt lat="44.80077" lon="1.62447">
        <ele>162.12</ele>
        <time>2015-11-22T13:31:40Z</time>
      </trkpt>
      <trkpt lat="44.80091" lon="1.62428">
        <ele>158.27</ele>
        <time>2015-11-22T13:31:51Z</time>
      </trkpt>
      <trkpt lat="44.80096" lon="1.62419">
        <ele>155.39</ele>
        <time>2015-11-22T13:31:56Z</time>
      </trkpt>
      <trkpt lat="44.80098" lon="1.62417">
        <ele>155.39</ele>
        <time>2015-11-22T13:31:57Z</time>
      </trkpt>
      <trkpt lat="44.801" lon="1.62414">
        <ele>154.91</ele>
        <time>2015-11-22T13:31:59Z</time>
      </trkpt>
      <trkpt lat="44.801" lon="1.62413">
        <ele>154.91</ele>
        <time>2015-11-22T13:32:00Z</time>
      </trkpt>
      <trkpt lat="44.80101" lon="1.62411">
        <ele>154.91</ele>
        <time>2015-11-22T13:32:01Z</time>
      </trkpt>
      <trkpt lat="44.80102" lon="1.6241">
        <ele>154.91</ele>
        <time>2015-11-22T13:32:02Z</time>
      </trkpt>
      <trkpt lat="44.80103" lon="1.62408">
        <ele>154.91</ele>
        <time>2015-11-22T13:32:03Z</time>
      </trkpt>
      <trkpt lat="44.80111" lon="1.62395">
        <ele>153.95</ele>
        <time>2015-11-22T13:32:11Z</time>
      </trkpt>
      <trkpt lat="44.80112" lon="1.62394">
        <ele>153.47</ele>
        <time>2015-11-22T13:32:12Z</time>
      </trkpt>
      <trkpt lat="44.80114" lon="1.62389">
        <ele>152.99</ele>
        <time>2015-11-22T13:32:15Z</time>
      </trkpt>
      <trkpt lat="44.80115" lon="1.62388">
        <ele>152.99</ele>
        <time>2015-11-22T13:32:16Z</time>
      </trkpt>
      <trkpt lat="44.80122" lon="1.62371">
        <ele>149.62</ele>
        <time>2015-11-22T13:32:26Z</time>
      </trkpt>
      <trkpt lat="44.80123" lon="1.62367">
        <ele>148.18</ele>
        <time>2015-11-22T13:32:28Z</time>
      </trkpt>
      <trkpt lat="44.80131" lon="1.62342">
        <ele>146.26</ele>
        <time>2015-11-22T13:32:39Z</time>
      </trkpt>
      <trkpt lat="44.80138" lon="1.62321">
        <ele>143.85</ele>
        <time>2015-11-22T13:32:50Z</time>
      </trkpt>
      <trkpt lat="44.8014" lon="1.62314">
        <ele>140.49</ele>
        <time>2015-11-22T13:32:54Z</time>
      </trkpt>
      <trkpt lat="44.80142" lon="1.62305">
        <ele>137.61</ele>
        <time>2015-11-22T13:32:58Z</time>
      </trkpt>
      <trkpt lat="44.80148" lon="1.62283">
        <ele>135.2</ele>
        <time>2015-11-22T13:33:08Z</time>
      </trkpt>
      <trkpt lat="44.80155" lon="1.62268">
        <ele>133.76</ele>
        <time>2015-11-22T13:33:22Z</time>
      </trkpt>
      <trkpt lat="44.80156" lon="1.62271">
        <ele>133.76</ele>
        <time>2015-11-22T13:33:25Z</time>
      </trkpt>
      <trkpt lat="44.80157" lon="1.62274">
        <ele>133.28</ele>
        <time>2015-11-22T13:33:38Z</time>
      </trkpt>
      <trkpt lat="44.80158" lon="1.62273">
        <ele>132.8</ele>
        <time>2015-11-22T13:33:51Z</time>
      </trkpt>
      <trkpt lat="44.80158" lon="1.62271">
        <ele>132.8</ele>
        <time>2015-11-22T13:33:52Z</time>
      </trkpt>
      <trkpt lat="44.80158" lon="1.62269">
        <ele>132.8</ele>
        <time>2015-11-22T13:33:54Z</time>
      </trkpt>
      <trkpt lat="44.80158" lon="1.62266">
        <ele>132.8</ele>
        <time>2015-11-22T13:33:56Z</time>
      </trkpt>
      <trkpt lat="44.80154" lon="1.62264">
        <ele>132.8</ele>
        <time>2015-11-22T13:34:00Z</time>
      </trkpt>
      <trkpt lat="44.80146" lon="1.62259">
        <ele>132.8</ele>
        <time>2015-11-22T13:34:07Z</time>
      </trkpt>
      <trkpt lat="44.80139" lon="1.6225">
        <ele>132.8</ele>
        <time>2015-11-22T13:34:14Z</time>
      </trkpt>
      <trkpt lat="44.80138" lon="1.62249">
        <ele>132.8</ele>
        <time>2015-11-22T13:34:15Z</time>
      </trkpt>
      <trkpt lat="44.80137" lon="1.62248">
        <ele>132.8</ele>
        <time>2015-11-22T13:34:16Z</time>
      </trkpt>
      <trkpt lat="44.80135" lon="1.62246">
        <ele>132.8</ele>
        <time>2015-11-22T13:34:19Z</time>
      </trkpt>
      <trkpt lat="44.80133" lon="1.62246">
        <ele>132.8</ele>
        <time>2015-11-22T13:34:20Z</time>
      </trkpt>
      <trkpt lat="44.80128" lon="1.62244">
        <ele>132.8</ele>
        <time>2015-11-22T13:34:24Z</time>
      </trkpt>
      <trkpt lat="44.80127" lon="1.62244">
        <ele>132.8</ele>
        <time>2015-11-22T13:34:25Z</time>
      </trkpt>
      <trkpt lat="44.80124" lon="1.62241">
        <ele>132.8</ele>
        <time>2015-11-22T13:34:38Z</time>
      </trkpt>
      <trkpt lat="44.80123" lon="1.62239">
        <ele>134.24</ele>
        <time>2015-11-22T13:35:04Z</time>
      </trkpt>
      <trkpt lat="44.80123" lon="1.62239">
        <ele>134.24</ele>
        <time>2015-11-22T13:35:26Z</time>
      </trkpt>
      <trkpt lat="44.80124" lon="1.62239">
        <ele>134.24</ele>
        <time>2015-11-22T13:35:41Z</time>
      </trkpt>
      <trkpt lat="44.80126" lon="1.6224">
        <ele>134.24</ele>
        <time>2015-11-22T13:35:42Z</time>
      </trkpt>
      <trkpt lat="44.80135" lon="1.62244">
        <ele>134.24</ele>
        <time>2015-11-22T13:35:55Z</time>
      </trkpt>
      <trkpt lat="44.80137" lon="1.62243">
        <ele>134.24</ele>
        <time>2015-11-22T13:36:18Z</time>
      </trkpt>
      <trkpt lat="44.8014" lon="1.62246">
        <ele>134.24</ele>
        <time>2015-11-22T13:36:49Z</time>
      </trkpt>
      <trkpt lat="44.80152" lon="1.62258">
        <ele>133.28</ele>
        <time>2015-11-22T13:37:03Z</time>
      </trkpt>
      <trkpt lat="44.80157" lon="1.62259">
        <ele>133.28</ele>
        <time>2015-11-22T13:37:18Z</time>
      </trkpt>
      <trkpt lat="44.80164" lon="1.62258">
        <ele>133.28</ele>
        <time>2015-11-22T13:37:33Z</time>
      </trkpt>
      <trkpt lat="44.80173" lon="1.62254">
        <ele>133.28</ele>
        <time>2015-11-22T13:37:47Z</time>
      </trkpt>
      <trkpt lat="44.80187" lon="1.62248">
        <ele>133.28</ele>
        <time>2015-11-22T13:38:02Z</time>
      </trkpt>
      <trkpt lat="44.80189" lon="1.62246">
        <ele>133.28</ele>
        <time>2015-11-22T13:38:05Z</time>
      </trkpt>
      <trkpt lat="44.80204" lon="1.6223">
        <ele>132.32</ele>
        <time>2015-11-22T13:38:20Z</time>
      </trkpt>
      <trkpt lat="44.80202" lon="1.62221">
        <ele>132.32</ele>
        <time>2015-11-22T13:38:27Z</time>
      </trkpt>
      <trkpt lat="44.802" lon="1.6221">
        <ele>132.32</ele>
        <time>2015-11-22T13:38:35Z</time>
      </trkpt>
      <trkpt lat="44.80199" lon="1.62202">
        <ele>131.84</ele>
        <time>2015-11-22T13:38:40Z</time>
      </trkpt>
      <trkpt lat="44.80196" lon="1.62185">
        <ele>131.36</ele>
        <time>2015-11-22T13:38:50Z</time>
      </trkpt>
      <trkpt lat="44.80196" lon="1.62181">
        <ele>131.36</ele>
        <time>2015-11-22T13:38:52Z</time>
      </trkpt>
      <trkpt lat="44.80195" lon="1.62178">
        <ele>131.36</ele>
        <time>2015-11-22T13:38:54Z</time>
      </trkpt>
      <trkpt lat="44.80192" lon="1.62167">
        <ele>131.36</ele>
        <time>2015-11-22T13:39:01Z</time>
      </trkpt>
      <trkpt lat="44.80192" lon="1.62166">
        <ele>131.36</ele>
        <time>2015-11-22T13:39:02Z</time>
      </trkpt>
      <trkpt lat="44.80191" lon="1.62159">
        <ele>130.88</ele>
        <time>2015-11-22T13:39:06Z</time>
      </trkpt>
      <trkpt lat="44.8019" lon="1.62153">
        <ele>130.88</ele>
        <time>2015-11-22T13:39:09Z</time>
      </trkpt>
      <trkpt lat="44.80183" lon="1.6214">
        <ele>130.4</ele>
        <time>2015-11-22T13:39:17Z</time>
      </trkpt>
      <trkpt lat="44.80178" lon="1.6213">
        <ele>130.4</ele>
        <time>2015-11-22T13:39:23Z</time>
      </trkpt>
      <trkpt lat="44.80177" lon="1.62128">
        <ele>130.4</ele>
        <time>2015-11-22T13:39:24Z</time>
      </trkpt>
      <trkpt lat="44.8017" lon="1.62113">
        <ele>130.4</ele>
        <time>2015-11-22T13:39:33Z</time>
      </trkpt>
      <trkpt lat="44.80158" lon="1.62093">
        <ele>129.92</ele>
        <time>2015-11-22T13:39:45Z</time>
      </trkpt>
      <trkpt lat="44.80156" lon="1.62092">
        <ele>129.92</ele>
        <time>2015-11-22T13:39:46Z</time>
      </trkpt>
      <trkpt lat="44.80155" lon="1.62091">
        <ele>129.92</ele>
        <time>2015-11-22T13:39:47Z</time>
      </trkpt>
      <trkpt lat="44.8015" lon="1.62083">
        <ele>129.92</ele>
        <time>2015-11-22T13:39:52Z</time>
      </trkpt>
      <trkpt lat="44.80149" lon="1.62081">
        <ele>129.92</ele>
        <time>2015-11-22T13:39:53Z</time>
      </trkpt>
      <trkpt lat="44.80147" lon="1.6208">
        <ele>129.92</ele>
        <time>2015-11-22T13:39:54Z</time>
      </trkpt>
      <trkpt lat="44.80146" lon="1.62079">
        <ele>129.92</ele>
        <time>2015-11-22T13:39:55Z</time>
      </trkpt>
      <trkpt lat="44.80144" lon="1.62077">
        <ele>129.92</ele>
        <time>2015-11-22T13:39:56Z</time>
      </trkpt>
      <trkpt lat="44.80133" lon="1.62062">
        <ele>129.92</ele>
        <time>2015-11-22T13:40:07Z</time>
      </trkpt>
      <trkpt lat="44.8013" lon="1.62059">
        <ele>129.92</ele>
        <time>2015-11-22T13:40:09Z</time>
      </trkpt>
      <trkpt lat="44.80129" lon="1.62058">
        <ele>129.92</ele>
        <time>2015-11-22T13:40:10Z</time>
      </trkpt>
      <trkpt lat="44.80128" lon="1.62056">
        <ele>129.92</ele>
        <time>2015-11-22T13:40:11Z</time>
      </trkpt>
      <trkpt lat="44.80127" lon="1.62055">
        <ele>129.92</ele>
        <time>2015-11-22T13:40:12Z</time>
      </trkpt>
      <trkpt lat="44.80125" lon="1.62053">
        <ele>129.92</ele>
        <time>2015-11-22T13:40:13Z</time>
      </trkpt>
      <trkpt lat="44.80123" lon="1.62049">
        <ele>129.92</ele>
        <time>2015-11-22T13:40:15Z</time>
      </trkpt>
      <trkpt lat="44.80121" lon="1.62046">
        <ele>129.92</ele>
        <time>2015-11-22T13:40:17Z</time>
      </trkpt>
      <trkpt lat="44.8012" lon="1.62044">
        <ele>129.92</ele>
        <time>2015-11-22T13:40:18Z</time>
      </trkpt>
      <trkpt lat="44.80118" lon="1.62043">
        <ele>129.92</ele>
        <time>2015-11-22T13:40:19Z</time>
      </trkpt>
      <trkpt lat="44.80117" lon="1.62042">
        <ele>129.92</ele>
        <time>2015-11-22T13:40:20Z</time>
      </trkpt>
      <trkpt lat="44.80116" lon="1.62041">
        <ele>129.92</ele>
        <time>2015-11-22T13:40:21Z</time>
      </trkpt>
      <trkpt lat="44.80115" lon="1.6204">
        <ele>129.43</ele>
        <time>2015-11-22T13:40:22Z</time>
      </trkpt>
      <trkpt lat="44.80114" lon="1.62039">
        <ele>129.43</ele>
        <time>2015-11-22T13:40:23Z</time>
      </trkpt>
      <trkpt lat="44.80113" lon="1.62038">
        <ele>129.43</ele>
        <time>2015-11-22T13:40:24Z</time>
      </trkpt>
      <trkpt lat="44.80112" lon="1.62036">
        <ele>129.43</ele>
        <time>2015-11-22T13:40:25Z</time>
      </trkpt>
      <trkpt lat="44.80111" lon="1.62035">
        <ele>129.43</ele>
        <time>2015-11-22T13:40:26Z</time>
      </trkpt>
      <trkpt lat="44.80096" lon="1.62017">
        <ele>128.95</ele>
        <time>2015-11-22T13:40:39Z</time>
      </trkpt>
      <trkpt lat="44.80093" lon="1.6201">
        <ele>128.95</ele>
        <time>2015-11-22T13:40:43Z</time>
      </trkpt>
      <trkpt lat="44.80093" lon="1.62009">
        <ele>128.95</ele>
        <time>2015-11-22T13:40:44Z</time>
      </trkpt>
      <trkpt lat="44.80093" lon="1.62006">
        <ele>128.95</ele>
        <time>2015-11-22T13:40:45Z</time>
      </trkpt>
      <trkpt lat="44.80088" lon="1.61996">
        <ele>128.95</ele>
        <time>2015-11-22T13:40:52Z</time>
      </trkpt>
      <trkpt lat="44.80087" lon="1.61993">
        <ele>128.95</ele>
        <time>2015-11-22T13:40:54Z</time>
      </trkpt>
      <trkpt lat="44.80085" lon="1.61985">
        <ele>128.95</ele>
        <time>2015-11-22T13:41:00Z</time>
      </trkpt>
      <trkpt lat="44.80084" lon="1.61983">
        <ele>128.95</ele>
        <time>2015-11-22T13:41:01Z</time>
      </trkpt>
      <trkpt lat="44.80083" lon="1.61981">
        <ele>128.95</ele>
        <time>2015-11-22T13:41:02Z</time>
      </trkpt>
      <trkpt lat="44.80082" lon="1.61979">
        <ele>129.92</ele>
        <time>2015-11-22T13:41:03Z</time>
      </trkpt>
      <trkpt lat="44.80081" lon="1.61977">
        <ele>129.92</ele>
        <time>2015-11-22T13:41:04Z</time>
      </trkpt>
      <trkpt lat="44.8008" lon="1.61976">
        <ele>129.92</ele>
        <time>2015-11-22T13:41:05Z</time>
      </trkpt>
      <trkpt lat="44.80073" lon="1.61967">
        <ele>129.92</ele>
        <time>2015-11-22T13:41:11Z</time>
      </trkpt>
      <trkpt lat="44.80067" lon="1.61961">
        <ele>129.92</ele>
        <time>2015-11-22T13:41:16Z</time>
      </trkpt>
      <trkpt lat="44.80065" lon="1.61959">
        <ele>129.92</ele>
        <time>2015-11-22T13:41:17Z</time>
      </trkpt>
      <trkpt lat="44.80064" lon="1.61958">
        <ele>129.92</ele>
        <time>2015-11-22T13:41:18Z</time>
      </trkpt>
      <trkpt lat="44.80062" lon="1.61956">
        <ele>129.92</ele>
        <time>2015-11-22T13:41:19Z</time>
      </trkpt>
      <trkpt lat="44.80054" lon="1.61947">
        <ele>129.92</ele>
        <time>2015-11-22T13:41:27Z</time>
      </trkpt>
      <trkpt lat="44.80053" lon="1.61946">
        <ele>129.92</ele>
        <time>2015-11-22T13:41:28Z</time>
      </trkpt>
      <trkpt lat="44.80048" lon="1.61944">
        <ele>129.92</ele>
        <time>2015-11-22T13:41:31Z</time>
      </trkpt>
      <trkpt lat="44.80045" lon="1.61942">
        <ele>129.43</ele>
        <time>2015-11-22T13:41:34Z</time>
      </trkpt>
      <trkpt lat="44.8004" lon="1.61939">
        <ele>129.43</ele>
        <time>2015-11-22T13:41:38Z</time>
      </trkpt>
      <trkpt lat="44.8003" lon="1.61934">
        <ele>129.43</ele>
        <time>2015-11-22T13:41:45Z</time>
      </trkpt>
      <trkpt lat="44.80029" lon="1.61933">
        <ele>129.43</ele>
        <time>2015-11-22T13:41:46Z</time>
      </trkpt>
      <trkpt lat="44.80027" lon="1.61933">
        <ele>129.43</ele>
        <time>2015-11-22T13:41:47Z</time>
      </trkpt>
      <trkpt lat="44.80026" lon="1.61932">
        <ele>129.43</ele>
        <time>2015-11-22T13:41:48Z</time>
      </trkpt>
      <trkpt lat="44.80025" lon="1.61931">
        <ele>129.43</ele>
        <time>2015-11-22T13:41:49Z</time>
      </trkpt>
      <trkpt lat="44.80023" lon="1.6193">
        <ele>129.43</ele>
        <time>2015-11-22T13:41:50Z</time>
      </trkpt>
      <trkpt lat="44.8002" lon="1.61929">
        <ele>129.43</ele>
        <time>2015-11-22T13:41:52Z</time>
      </trkpt>
      <trkpt lat="44.80019" lon="1.61928">
        <ele>129.43</ele>
        <time>2015-11-22T13:41:53Z</time>
      </trkpt>
      <trkpt lat="44.80017" lon="1.61927">
        <ele>129.43</ele>
        <time>2015-11-22T13:41:54Z</time>
      </trkpt>
      <trkpt lat="44.80016" lon="1.61927">
        <ele>129.43</ele>
        <time>2015-11-22T13:41:55Z</time>
      </trkpt>
      <trkpt lat="44.80014" lon="1.61927">
        <ele>129.43</ele>
        <time>2015-11-22T13:41:56Z</time>
      </trkpt>
      <trkpt lat="44.80012" lon="1.61926">
        <ele>129.43</ele>
        <time>2015-11-22T13:41:57Z</time>
      </trkpt>
      <trkpt lat="44.80011" lon="1.61925">
        <ele>129.43</ele>
        <time>2015-11-22T13:41:58Z</time>
      </trkpt>
      <trkpt lat="44.80009" lon="1.61925">
        <ele>129.43</ele>
        <time>2015-11-22T13:41:59Z</time>
      </trkpt>
      <trkpt lat="44.80008" lon="1.61924">
        <ele>129.43</ele>
        <time>2015-11-22T13:42:00Z</time>
      </trkpt>
      <trkpt lat="44.80007" lon="1.61923">
        <ele>129.43</ele>
        <time>2015-11-22T13:42:01Z</time>
      </trkpt>
      <trkpt lat="44.80005" lon="1.61922">
        <ele>129.43</ele>
        <time>2015-11-22T13:42:02Z</time>
      </trkpt>
      <trkpt lat="44.80004" lon="1.61922">
        <ele>129.43</ele>
        <time>2015-11-22T13:42:03Z</time>
      </trkpt>
      <trkpt lat="44.79985" lon="1.61912">
        <ele>128.95</ele>
        <time>2015-11-22T13:42:17Z</time>
      </trkpt>
      <trkpt lat="44.79969" lon="1.61907">
        <ele>128.95</ele>
        <time>2015-11-22T13:42:29Z</time>
      </trkpt>
      <trkpt lat="44.79963" lon="1.61908">
        <ele>128.95</ele>
        <time>2015-11-22T13:42:46Z</time>
      </trkpt>
      <trkpt lat="44.79961" lon="1.61909">
        <ele>128.95</ele>
        <time>2015-11-22T13:43:03Z</time>
      </trkpt>
      <trkpt lat="44.79961" lon="1.61909">
        <ele>128.95</ele>
        <time>2015-11-22T13:43:18Z</time>
      </trkpt>
      <trkpt lat="44.79961" lon="1.6191">
        <ele>128.95</ele>
        <time>2015-11-22T13:43:40Z</time>
      </trkpt>
      <trkpt lat="44.7996" lon="1.61909">
        <ele>128.95</ele>
        <time>2015-11-22T13:43:50Z</time>
      </trkpt>
      <trkpt lat="44.79958" lon="1.619">
        <ele>127.51</ele>
        <time>2015-11-22T13:44:00Z</time>
      </trkpt>
      <trkpt lat="44.79955" lon="1.61897">
        <ele>127.51</ele>
        <time>2015-11-22T13:44:05Z</time>
      </trkpt>
      <trkpt lat="44.79944" lon="1.61884">
        <ele>127.51</ele>
        <time>2015-11-22T13:44:18Z</time>
      </trkpt>
      <trkpt lat="44.79936" lon="1.61881">
        <ele>126.55</ele>
        <time>2015-11-22T13:44:29Z</time>
      </trkpt>
      <trkpt lat="44.79931" lon="1.61881">
        <ele>126.55</ele>
        <time>2015-11-22T13:44:42Z</time>
      </trkpt>
      <trkpt lat="44.79926" lon="1.61878">
        <ele>126.55</ele>
        <time>2015-11-22T13:44:47Z</time>
      </trkpt>
      <trkpt lat="44.79914" lon="1.61873">
        <ele>126.07</ele>
        <time>2015-11-22T13:44:56Z</time>
      </trkpt>
      <trkpt lat="44.79913" lon="1.61873">
        <ele>126.07</ele>
        <time>2015-11-22T13:44:57Z</time>
      </trkpt>
      <trkpt lat="44.79892" lon="1.61871">
        <ele>126.07</ele>
        <time>2015-11-22T13:45:11Z</time>
      </trkpt>
      <trkpt lat="44.79875" lon="1.61869">
        <ele>125.59</ele>
        <time>2015-11-22T13:45:25Z</time>
      </trkpt>
      <trkpt lat="44.7986" lon="1.61859">
        <ele>125.59</ele>
        <time>2015-11-22T13:45:37Z</time>
      </trkpt>
      <trkpt lat="44.79853" lon="1.61853">
        <ele>125.11</ele>
        <time>2015-11-22T13:45:42Z</time>
      </trkpt>
      <trkpt lat="44.79852" lon="1.61852">
        <ele>125.11</ele>
        <time>2015-11-22T13:45:43Z</time>
      </trkpt>
      <trkpt lat="44.79841" lon="1.61838">
        <ele>125.11</ele>
        <time>2015-11-22T13:45:55Z</time>
      </trkpt>
      <trkpt lat="44.7984" lon="1.61838">
        <ele>125.11</ele>
        <time>2015-11-22T13:45:56Z</time>
      </trkpt>
      <trkpt lat="44.79835" lon="1.61835">
        <ele>125.11</ele>
        <time>2015-11-22T13:46:00Z</time>
      </trkpt>
      <trkpt lat="44.79834" lon="1.61833">
        <ele>125.11</ele>
        <time>2015-11-22T13:46:01Z</time>
      </trkpt>
      <trkpt lat="44.79833" lon="1.61832">
        <ele>125.11</ele>
        <time>2015-11-22T13:46:02Z</time>
      </trkpt>
      <trkpt lat="44.79832" lon="1.6183">
        <ele>125.11</ele>
        <time>2015-11-22T13:46:03Z</time>
      </trkpt>
      <trkpt lat="44.79831" lon="1.61829">
        <ele>125.11</ele>
        <time>2015-11-22T13:46:04Z</time>
      </trkpt>
      <trkpt lat="44.7983" lon="1.61828">
        <ele>125.11</ele>
        <time>2015-11-22T13:46:05Z</time>
      </trkpt>
      <trkpt lat="44.79828" lon="1.61827">
        <ele>125.11</ele>
        <time>2015-11-22T13:46:06Z</time>
      </trkpt>
      <trkpt lat="44.79827" lon="1.61826">
        <ele>125.11</ele>
        <time>2015-11-22T13:46:07Z</time>
      </trkpt>
      <trkpt lat="44.79812" lon="1.6181">
        <ele>125.11</ele>
        <time>2015-11-22T13:46:21Z</time>
      </trkpt>
      <trkpt lat="44.79799" lon="1.61796">
        <ele>124.63</ele>
        <time>2015-11-22T13:46:34Z</time>
      </trkpt>
      <trkpt lat="44.79781" lon="1.61779">
        <ele>124.63</ele>
        <time>2015-11-22T13:46:51Z</time>
      </trkpt>
      <trkpt lat="44.79777" lon="1.61775">
        <ele>124.63</ele>
        <time>2015-11-22T13:47:09Z</time>
      </trkpt>
      <trkpt lat="44.7977" lon="1.61767">
        <ele>124.63</ele>
        <time>2015-11-22T13:47:29Z</time>
      </trkpt>
      <trkpt lat="44.79754" lon="1.61747">
        <ele>124.63</ele>
        <time>2015-11-22T13:47:45Z</time>
      </trkpt>
      <trkpt lat="44.79739" lon="1.61726">
        <ele>124.63</ele>
        <time>2015-11-22T13:48:01Z</time>
      </trkpt>
      <trkpt lat="44.79729" lon="1.61706">
        <ele>124.63</ele>
        <time>2015-11-22T13:48:16Z</time>
      </trkpt>
      <trkpt lat="44.79718" lon="1.6168">
        <ele>124.63</ele>
        <time>2015-11-22T13:48:31Z</time>
      </trkpt>
      <trkpt lat="44.79718" lon="1.61679">
        <ele>124.63</ele>
        <time>2015-11-22T13:48:32Z</time>
      </trkpt>
      <trkpt lat="44.79717" lon="1.61677">
        <ele>124.63</ele>
        <time>2015-11-22T13:48:33Z</time>
      </trkpt>
      <trkpt lat="44.79716" lon="1.61675">
        <ele>124.63</ele>
        <time>2015-11-22T13:48:34Z</time>
      </trkpt>
      <trkpt lat="44.79716" lon="1.61673">
        <ele>124.63</ele>
        <time>2015-11-22T13:48:35Z</time>
      </trkpt>
      <trkpt lat="44.79709" lon="1.61657">
        <ele>124.63</ele>
        <time>2015-11-22T13:48:46Z</time>
      </trkpt>
      <trkpt lat="44.79707" lon="1.61654">
        <ele>124.63</ele>
        <time>2015-11-22T13:48:48Z</time>
      </trkpt>
      <trkpt lat="44.79701" lon="1.61636">
        <ele>125.59</ele>
        <time>2015-11-22T13:48:59Z</time>
      </trkpt>
      <trkpt lat="44.797" lon="1.61632">
        <ele>125.59</ele>
        <time>2015-11-22T13:49:02Z</time>
      </trkpt>
      <trkpt lat="44.79699" lon="1.61629">
        <ele>125.59</ele>
        <time>2015-11-22T13:49:04Z</time>
      </trkpt>
      <trkpt lat="44.79697" lon="1.61622">
        <ele>125.59</ele>
        <time>2015-11-22T13:49:09Z</time>
      </trkpt>
      <trkpt lat="44.79694" lon="1.61616">
        <ele>126.07</ele>
        <time>2015-11-22T13:49:25Z</time>
      </trkpt>
      <trkpt lat="44.79688" lon="1.61605">
        <ele>126.07</ele>
        <time>2015-11-22T13:49:39Z</time>
      </trkpt>
      <trkpt lat="44.79688" lon="1.61607">
        <ele>126.07</ele>
        <time>2015-11-22T13:49:53Z</time>
      </trkpt>
      <trkpt lat="44.79689" lon="1.61618">
        <ele>126.07</ele>
        <time>2015-11-22T13:50:03Z</time>
      </trkpt>
      <trkpt lat="44.79688" lon="1.61621">
        <ele>126.07</ele>
        <time>2015-11-22T13:50:05Z</time>
      </trkpt>
      <trkpt lat="44.79687" lon="1.61623">
        <ele>126.07</ele>
        <time>2015-11-22T13:50:06Z</time>
      </trkpt>
      <trkpt lat="44.79687" lon="1.61624">
        <ele>126.07</ele>
        <time>2015-11-22T13:50:07Z</time>
      </trkpt>
      <trkpt lat="44.79686" lon="1.61626">
        <ele>126.07</ele>
        <time>2015-11-22T13:50:08Z</time>
      </trkpt>
      <trkpt lat="44.79685" lon="1.61627">
        <ele>126.07</ele>
        <time>2015-11-22T13:50:09Z</time>
      </trkpt>
      <trkpt lat="44.79683" lon="1.61636">
        <ele>126.07</ele>
        <time>2015-11-22T13:50:14Z</time>
      </trkpt>
      <trkpt lat="44.7968" lon="1.6164">
        <ele>125.11</ele>
        <time>2015-11-22T13:50:25Z</time>
      </trkpt>
      <trkpt lat="44.79665" lon="1.61634">
        <ele>124.63</ele>
        <time>2015-11-22T13:50:39Z</time>
      </trkpt>
      <trkpt lat="44.79655" lon="1.61644">
        <ele>124.15</ele>
        <time>2015-11-22T13:50:51Z</time>
      </trkpt>
      <trkpt lat="44.79647" lon="1.61643">
        <ele>124.15</ele>
        <time>2015-11-22T13:50:56Z</time>
      </trkpt>
      <trkpt lat="44.79646" lon="1.61642">
        <ele>124.15</ele>
        <time>2015-11-22T13:50:57Z</time>
      </trkpt>
      <trkpt lat="44.79643" lon="1.61641">
        <ele>124.15</ele>
        <time>2015-11-22T13:50:58Z</time>
      </trkpt>
      <trkpt lat="44.79626" lon="1.61626">
        <ele>124.15</ele>
        <time>2015-11-22T13:51:12Z</time>
      </trkpt>
      <trkpt lat="44.79615" lon="1.61614">
        <ele>125.11</ele>
        <time>2015-11-22T13:51:22Z</time>
      </trkpt>
      <trkpt lat="44.79604" lon="1.61593">
        <ele>126.07</ele>
        <time>2015-11-22T13:51:35Z</time>
      </trkpt>
      <trkpt lat="44.7959" lon="1.61579">
        <ele>127.99</ele>
        <time>2015-11-22T13:51:48Z</time>
      </trkpt>
      <trkpt lat="44.7958" lon="1.61574">
        <ele>129.43</ele>
        <time>2015-11-22T13:52:02Z</time>
      </trkpt>
      <trkpt lat="44.79573" lon="1.6155">
        <ele>130.4</ele>
        <time>2015-11-22T13:52:15Z</time>
      </trkpt>
      <trkpt lat="44.79565" lon="1.61542">
        <ele>133.76</ele>
        <time>2015-11-22T13:52:23Z</time>
      </trkpt>
      <trkpt lat="44.7956" lon="1.61535">
        <ele>137.13</ele>
        <time>2015-11-22T13:52:28Z</time>
      </trkpt>
      <trkpt lat="44.79553" lon="1.61526">
        <ele>137.13</ele>
        <time>2015-11-22T13:52:34Z</time>
      </trkpt>
      <trkpt lat="44.79544" lon="1.61528">
        <ele>137.61</ele>
        <time>2015-11-22T13:52:44Z</time>
      </trkpt>
      <trkpt lat="44.79542" lon="1.61532">
        <ele>139.05</ele>
        <time>2015-11-22T13:52:59Z</time>
      </trkpt>
      <trkpt lat="44.79552" lon="1.61509">
        <ele>139.53</ele>
        <time>2015-11-22T13:53:29Z</time>
      </trkpt>
      <trkpt lat="44.79555" lon="1.61512">
        <ele>139.53</ele>
        <time>2015-11-22T13:53:45Z</time>
      </trkpt>
      <trkpt lat="44.79555" lon="1.61514">
        <ele>139.53</ele>
        <time>2015-11-22T13:54:12Z</time>
      </trkpt>
      <trkpt lat="44.79555" lon="1.61515">
        <ele>138.57</ele>
        <time>2015-11-22T13:54:42Z</time>
      </trkpt>
      <trkpt lat="44.79556" lon="1.61515">
        <ele>138.57</ele>
        <time>2015-11-22T13:55:04Z</time>
      </trkpt>
      <trkpt lat="44.79556" lon="1.61517">
        <ele>138.57</ele>
        <time>2015-11-22T13:55:28Z</time>
      </trkpt>
      <trkpt lat="44.79557" lon="1.61519">
        <ele>138.57</ele>
        <time>2015-11-22T13:55:50Z</time>
      </trkpt>
      <trkpt lat="44.79559" lon="1.61523">
        <ele>137.61</ele>
        <time>2015-11-22T13:56:04Z</time>
      </trkpt>
      <trkpt lat="44.79563" lon="1.61524">
        <ele>137.13</ele>
        <time>2015-11-22T13:56:24Z</time>
      </trkpt>
      <trkpt lat="44.79575" lon="1.61535">
        <ele>135.2</ele>
        <time>2015-11-22T13:56:37Z</time>
      </trkpt>
      <trkpt lat="44.79586" lon="1.61554">
        <ele>133.76</ele>
        <time>2015-11-22T13:56:51Z</time>
      </trkpt>
      <trkpt lat="44.79588" lon="1.61558">
        <ele>133.28</ele>
        <time>2015-11-22T13:56:54Z</time>
      </trkpt>
      <trkpt lat="44.79592" lon="1.61573">
        <ele>130.88</ele>
        <time>2015-11-22T13:57:11Z</time>
      </trkpt>
      <trkpt lat="44.79595" lon="1.61582">
        <ele>130.4</ele>
        <time>2015-11-22T13:57:29Z</time>
      </trkpt>
      <trkpt lat="44.79606" lon="1.61589">
        <ele>129.43</ele>
        <time>2015-11-22T13:57:43Z</time>
      </trkpt>
      <trkpt lat="44.79607" lon="1.6159">
        <ele>129.43</ele>
        <time>2015-11-22T13:57:44Z</time>
      </trkpt>
      <trkpt lat="44.79611" lon="1.61592">
        <ele>128.95</ele>
        <time>2015-11-22T13:57:48Z</time>
      </trkpt>
      <trkpt lat="44.7962" lon="1.61601">
        <ele>127.99</ele>
        <time>2015-11-22T13:58:01Z</time>
      </trkpt>
      <trkpt lat="44.79625" lon="1.61612">
        <ele>127.51</ele>
        <time>2015-11-22T13:58:17Z</time>
      </trkpt>
      <trkpt lat="44.79634" lon="1.6162">
        <ele>127.03</ele>
        <time>2015-11-22T13:58:34Z</time>
      </trkpt>
      <trkpt lat="44.79636" lon="1.61624">
        <ele>127.03</ele>
        <time>2015-11-22T13:58:49Z</time>
      </trkpt>
      <trkpt lat="44.79638" lon="1.61625">
        <ele>127.03</ele>
        <time>2015-11-22T13:58:54Z</time>
      </trkpt>
      <trkpt lat="44.7964" lon="1.61625">
        <ele>127.03</ele>
        <time>2015-11-22T13:58:55Z</time>
      </trkpt>
      <trkpt lat="44.79642" lon="1.61628">
        <ele>126.55</ele>
        <time>2015-11-22T13:58:58Z</time>
      </trkpt>
      <trkpt lat="44.7965" lon="1.61631">
        <ele>126.55</ele>
        <time>2015-11-22T13:59:07Z</time>
      </trkpt>
      <trkpt lat="44.79657" lon="1.61627">
        <ele>126.55</ele>
        <time>2015-11-22T13:59:14Z</time>
      </trkpt>
      <trkpt lat="44.79658" lon="1.61626">
        <ele>126.55</ele>
        <time>2015-11-22T13:59:15Z</time>
      </trkpt>
      <trkpt lat="44.79671" lon="1.61621">
        <ele>127.03</ele>
        <time>2015-11-22T13:59:26Z</time>
      </trkpt>
      <trkpt lat="44.79683" lon="1.6162">
        <ele>127.03</ele>
        <time>2015-11-22T13:59:40Z</time>
      </trkpt>
      <trkpt lat="44.79691" lon="1.61613">
        <ele>127.03</ele>
        <time>2015-11-22T13:59:55Z</time>
      </trkpt>
      <trkpt lat="44.79701" lon="1.61603">
        <ele>129.43</ele>
        <time>2015-11-22T14:00:07Z</time>
      </trkpt>
      <trkpt lat="44.79724" lon="1.6162">
        <ele>133.28</ele>
        <time>2015-11-22T14:00:24Z</time>
      </trkpt>
      <trkpt lat="44.7973" lon="1.61627">
        <ele>136.16</ele>
        <time>2015-11-22T14:00:29Z</time>
      </trkpt>
      <trkpt lat="44.79745" lon="1.61635">
        <ele>138.57</ele>
        <time>2015-11-22T14:00:45Z</time>
      </trkpt>
      <trkpt lat="44.79754" lon="1.61647">
        <ele>138.57</ele>
        <time>2015-11-22T14:00:58Z</time>
      </trkpt>
      <trkpt lat="44.7977" lon="1.61667">
        <ele>139.53</ele>
        <time>2015-11-22T14:01:18Z</time>
      </trkpt>
      <trkpt lat="44.79773" lon="1.61675">
        <ele>140.01</ele>
        <time>2015-11-22T14:01:24Z</time>
      </trkpt>
      <trkpt lat="44.7978" lon="1.61686">
        <ele>140.97</ele>
        <time>2015-11-22T14:01:32Z</time>
      </trkpt>
      <trkpt lat="44.79782" lon="1.61687">
        <ele>140.97</ele>
        <time>2015-11-22T14:01:33Z</time>
      </trkpt>
      <trkpt lat="44.79804" lon="1.61693">
        <ele>142.89</ele>
        <time>2015-11-22T14:01:48Z</time>
      </trkpt>
      <trkpt lat="44.79816" lon="1.61701">
        <ele>146.26</ele>
        <time>2015-11-22T14:02:02Z</time>
      </trkpt>
      <trkpt lat="44.79818" lon="1.61708">
        <ele>149.14</ele>
        <time>2015-11-22T14:02:07Z</time>
      </trkpt>
      <trkpt lat="44.79822" lon="1.61712">
        <ele>151.54</ele>
        <time>2015-11-22T14:02:11Z</time>
      </trkpt>
      <trkpt lat="44.7983" lon="1.61722">
        <ele>152.99</ele>
        <time>2015-11-22T14:02:20Z</time>
      </trkpt>
      <trkpt lat="44.79835" lon="1.61726">
        <ele>152.99</ele>
        <time>2015-11-22T14:02:25Z</time>
      </trkpt>
      <trkpt lat="44.79837" lon="1.61728">
        <ele>152.99</ele>
        <time>2015-11-22T14:02:26Z</time>
      </trkpt>
      <trkpt lat="44.79838" lon="1.61729">
        <ele>153.47</ele>
        <time>2015-11-22T14:02:27Z</time>
      </trkpt>
      <trkpt lat="44.79851" lon="1.61742">
        <ele>155.39</ele>
        <time>2015-11-22T14:02:42Z</time>
      </trkpt>
      <trkpt lat="44.79858" lon="1.61751">
        <ele>156.35</ele>
        <time>2015-11-22T14:02:51Z</time>
      </trkpt>
      <trkpt lat="44.79859" lon="1.61752">
        <ele>156.35</ele>
        <time>2015-11-22T14:02:52Z</time>
      </trkpt>
      <trkpt lat="44.79871" lon="1.6177">
        <ele>158.27</ele>
        <time>2015-11-22T14:03:06Z</time>
      </trkpt>
      <trkpt lat="44.79885" lon="1.61778">
        <ele>158.75</ele>
        <time>2015-11-22T14:03:23Z</time>
      </trkpt>
      <trkpt lat="44.79888" lon="1.61775">
        <ele>162.6</ele>
        <time>2015-11-22T14:03:37Z</time>
      </trkpt>
      <trkpt lat="44.79891" lon="1.61772">
        <ele>165.96</ele>
        <time>2015-11-22T14:03:41Z</time>
      </trkpt>
      <trkpt lat="44.79894" lon="1.61772">
        <ele>167.41</ele>
        <time>2015-11-22T14:03:44Z</time>
      </trkpt>
      <trkpt lat="44.79899" lon="1.61772">
        <ele>170.29</ele>
        <time>2015-11-22T14:03:50Z</time>
      </trkpt>
      <trkpt lat="44.79905" lon="1.61775">
        <ele>173.66</ele>
        <time>2015-11-22T14:03:58Z</time>
      </trkpt>
      <trkpt lat="44.79909" lon="1.61775">
        <ele>177.02</ele>
        <time>2015-11-22T14:04:12Z</time>
      </trkpt>
      <trkpt lat="44.79913" lon="1.61777">
        <ele>177.98</ele>
        <time>2015-11-22T14:04:24Z</time>
      </trkpt>
      <trkpt lat="44.79915" lon="1.61776">
        <ele>177.98</ele>
        <time>2015-11-22T14:04:39Z</time>
      </trkpt>
      <trkpt lat="44.79917" lon="1.61773">
        <ele>177.98</ele>
        <time>2015-11-22T14:04:53Z</time>
      </trkpt>
      <trkpt lat="44.79916" lon="1.61768">
        <ele>178.46</ele>
        <time>2015-11-22T14:04:56Z</time>
      </trkpt>
      <trkpt lat="44.79916" lon="1.61766">
        <ele>178.46</ele>
        <time>2015-11-22T14:04:57Z</time>
      </trkpt>
      <trkpt lat="44.79916" lon="1.6176">
        <ele>180.87</ele>
        <time>2015-11-22T14:05:00Z</time>
      </trkpt>
      <trkpt lat="44.79916" lon="1.61755">
        <ele>184.71</ele>
        <time>2015-11-22T14:05:03Z</time>
      </trkpt>
      <trkpt lat="44.79916" lon="1.61748">
        <ele>187.59</ele>
        <time>2015-11-22T14:05:07Z</time>
      </trkpt>
      <trkpt lat="44.79916" lon="1.6174">
        <ele>184.23</ele>
        <time>2015-11-22T14:05:14Z</time>
      </trkpt>
      <trkpt lat="44.7991" lon="1.61743">
        <ele>184.23</ele>
        <time>2015-11-22T14:05:18Z</time>
      </trkpt>
      <trkpt lat="44.79913" lon="1.61745">
        <ele>185.19</ele>
        <time>2015-11-22T14:05:31Z</time>
      </trkpt>
      <trkpt lat="44.79916" lon="1.61746">
        <ele>186.63</ele>
        <time>2015-11-22T14:05:48Z</time>
      </trkpt>
      <trkpt lat="44.79917" lon="1.6175">
        <ele>187.11</ele>
        <time>2015-11-22T14:05:54Z</time>
      </trkpt>
      <trkpt lat="44.79919" lon="1.61757">
        <ele>189.04</ele>
        <time>2015-11-22T14:05:58Z</time>
      </trkpt>
      <trkpt lat="44.7992" lon="1.61759">
        <ele>190</ele>
        <time>2015-11-22T14:05:59Z</time>
      </trkpt>
      <trkpt lat="44.79921" lon="1.61762">
        <ele>194.32</ele>
        <time>2015-11-22T14:06:02Z</time>
      </trkpt>
      <trkpt lat="44.79924" lon="1.61761">
        <ele>198.17</ele>
        <time>2015-11-22T14:06:04Z</time>
      </trkpt>
      <trkpt lat="44.79925" lon="1.61761">
        <ele>199.61</ele>
        <time>2015-11-22T14:06:05Z</time>
      </trkpt>
      <trkpt lat="44.79938" lon="1.6176">
        <ele>201.53</ele>
        <time>2015-11-22T14:06:08Z</time>
      </trkpt>
      <trkpt lat="44.79956" lon="1.61757">
        <ele>198.17</ele>
        <time>2015-11-22T14:06:13Z</time>
      </trkpt>
      <trkpt lat="44.79954" lon="1.61757">
        <ele>194.8</ele>
        <time>2015-11-22T14:06:17Z</time>
      </trkpt>
      <trkpt lat="44.79954" lon="1.61758">
        <ele>195.77</ele>
        <time>2015-11-22T14:06:36Z</time>
      </trkpt>
      <trkpt lat="44.79994" lon="1.61754">
        <ele>196.73</ele>
        <time>2015-11-22T14:07:10Z</time>
      </trkpt>
      <trkpt lat="44.80009" lon="1.61757">
        <ele>200.09</ele>
        <time>2015-11-22T14:07:22Z</time>
      </trkpt>
      <trkpt lat="44.8001" lon="1.61756">
        <ele>202.49</ele>
        <time>2015-11-22T14:07:25Z</time>
      </trkpt>
      <trkpt lat="44.80007" lon="1.61754">
        <ele>204.42</ele>
        <time>2015-11-22T14:07:28Z</time>
      </trkpt>
      <trkpt lat="44.79994" lon="1.61749">
        <ele>205.38</ele>
        <time>2015-11-22T14:07:41Z</time>
      </trkpt>
      <trkpt lat="44.8" lon="1.6174">
        <ele>206.82</ele>
        <time>2015-11-22T14:07:57Z</time>
      </trkpt>
      <trkpt lat="44.80001" lon="1.61734">
        <ele>208.74</ele>
        <time>2015-11-22T14:08:06Z</time>
      </trkpt>
      <trkpt lat="44.79996" lon="1.61735">
        <ele>209.22</ele>
        <time>2015-11-22T14:08:11Z</time>
      </trkpt>
      <trkpt lat="44.7999" lon="1.61741">
        <ele>210.67</ele>
        <time>2015-11-22T14:08:21Z</time>
      </trkpt>
      <trkpt lat="44.79992" lon="1.61735">
        <ele>212.11</ele>
        <time>2015-11-22T14:08:27Z</time>
      </trkpt>
      <trkpt lat="44.79999" lon="1.61731">
        <ele>216.43</ele>
        <time>2015-11-22T14:08:33Z</time>
      </trkpt>
      <trkpt lat="44.8" lon="1.6173">
        <ele>217.4</ele>
        <time>2015-11-22T14:08:35Z</time>
      </trkpt>
      <trkpt lat="44.80003" lon="1.61729">
        <ele>218.36</ele>
        <time>2015-11-22T14:08:37Z</time>
      </trkpt>
      <trkpt lat="44.80008" lon="1.61726">
        <ele>218.36</ele>
        <time>2015-11-22T14:08:43Z</time>
      </trkpt>
      <trkpt lat="44.80007" lon="1.61723">
        <ele>218.36</ele>
        <time>2015-11-22T14:08:45Z</time>
      </trkpt>
      <trkpt lat="44.80002" lon="1.61721">
        <ele>218.36</ele>
        <time>2015-11-22T14:08:50Z</time>
      </trkpt>
      <trkpt lat="44.79995" lon="1.61726">
        <ele>218.84</ele>
        <time>2015-11-22T14:08:57Z</time>
      </trkpt>
      <trkpt lat="44.7999" lon="1.61727">
        <ele>219.32</ele>
        <time>2015-11-22T14:09:02Z</time>
      </trkpt>
      <trkpt lat="44.79991" lon="1.61721">
        <ele>221.24</ele>
        <time>2015-11-22T14:09:11Z</time>
      </trkpt>
      <trkpt lat="44.80003" lon="1.61706">
        <ele>222.68</ele>
        <time>2015-11-22T14:09:21Z</time>
      </trkpt>
      <trkpt lat="44.8002" lon="1.61711">
        <ele>224.61</ele>
        <time>2015-11-22T14:09:37Z</time>
      </trkpt>
      <trkpt lat="44.80031" lon="1.61715">
        <ele>226.05</ele>
        <time>2015-11-22T14:09:43Z</time>
      </trkpt>
      <trkpt lat="44.80029" lon="1.61704">
        <ele>227.01</ele>
        <time>2015-11-22T14:09:52Z</time>
      </trkpt>
      <trkpt lat="44.80026" lon="1.61699">
        <ele>227.97</ele>
        <time>2015-11-22T14:09:56Z</time>
      </trkpt>
      <trkpt lat="44.80028" lon="1.61694">
        <ele>230.37</ele>
        <time>2015-11-22T14:10:09Z</time>
      </trkpt>
      <trkpt lat="44.80029" lon="1.61697">
        <ele>230.85</ele>
        <time>2015-11-22T14:10:13Z</time>
      </trkpt>
      <trkpt lat="44.80038" lon="1.61708">
        <ele>233.26</ele>
        <time>2015-11-22T14:10:22Z</time>
      </trkpt>
      <trkpt lat="44.80042" lon="1.61705">
        <ele>236.14</ele>
        <time>2015-11-22T14:10:26Z</time>
      </trkpt>
      <trkpt lat="44.80038" lon="1.61695">
        <ele>237.1</ele>
        <time>2015-11-22T14:10:33Z</time>
      </trkpt>
      <trkpt lat="44.80037" lon="1.61689">
        <ele>237.1</ele>
        <time>2015-11-22T14:10:36Z</time>
      </trkpt>
      <trkpt lat="44.80037" lon="1.61681">
        <ele>237.1</ele>
        <time>2015-11-22T14:10:40Z</time>
      </trkpt>
      <trkpt lat="44.80041" lon="1.61685">
        <ele>237.1</ele>
        <time>2015-11-22T14:10:46Z</time>
      </trkpt>
      <trkpt lat="44.80049" lon="1.61688">
        <ele>239.51</ele>
        <time>2015-11-22T14:11:01Z</time>
      </trkpt>
      <trkpt lat="44.80042" lon="1.61676">
        <ele>240.47</ele>
        <time>2015-11-22T14:11:14Z</time>
      </trkpt>
      <trkpt lat="44.80042" lon="1.61675">
        <ele>240.47</ele>
        <time>2015-11-22T14:11:19Z</time>
      </trkpt>
      <trkpt lat="44.80038" lon="1.61669">
        <ele>241.43</ele>
        <time>2015-11-22T14:11:31Z</time>
      </trkpt>
      <trkpt lat="44.80029" lon="1.61675">
        <ele>242.87</ele>
        <time>2015-11-22T14:11:39Z</time>
      </trkpt>
      <trkpt lat="44.80018" lon="1.61683">
        <ele>243.83</ele>
        <time>2015-11-22T14:11:44Z</time>
      </trkpt>
      <trkpt lat="44.80014" lon="1.61685">
        <ele>245.27</ele>
        <time>2015-11-22T14:11:53Z</time>
      </trkpt>
      <trkpt lat="44.80024" lon="1.61673">
        <ele>249.12</ele>
        <time>2015-11-22T14:12:01Z</time>
      </trkpt>
      <trkpt lat="44.80031" lon="1.61671">
        <ele>252.48</ele>
        <time>2015-11-22T14:12:06Z</time>
      </trkpt>
      <trkpt lat="44.80032" lon="1.6167">
        <ele>252.48</ele>
        <time>2015-11-22T14:12:07Z</time>
      </trkpt>
      <trkpt lat="44.80048" lon="1.61666">
        <ele>252.96</ele>
        <time>2015-11-22T14:12:21Z</time>
      </trkpt>
      <trkpt lat="44.80048" lon="1.61665">
        <ele>252.96</ele>
        <time>2015-11-22T14:12:22Z</time>
      </trkpt>
      <trkpt lat="44.80032" lon="1.61667">
        <ele>252.96</ele>
        <time>2015-11-22T14:12:36Z</time>
      </trkpt>
      <trkpt lat="44.80024" lon="1.61665">
        <ele>252.96</ele>
        <time>2015-11-22T14:12:42Z</time>
      </trkpt>
      <trkpt lat="44.80011" lon="1.61667">
        <ele>253.44</ele>
        <time>2015-11-22T14:12:51Z</time>
      </trkpt>
      <trkpt lat="44.8" lon="1.61659">
        <ele>253.44</ele>
        <time>2015-11-22T14:13:02Z</time>
      </trkpt>
      <trkpt lat="44.80002" lon="1.6165">
        <ele>253.44</ele>
        <time>2015-11-22T14:13:06Z</time>
      </trkpt>
      <trkpt lat="44.80003" lon="1.61644">
        <ele>253.44</ele>
        <time>2015-11-22T14:13:09Z</time>
      </trkpt>
      <trkpt lat="44.80008" lon="1.61641">
        <ele>253.44</ele>
        <time>2015-11-22T14:13:13Z</time>
      </trkpt>
      <trkpt lat="44.80015" lon="1.6164">
        <ele>253.44</ele>
        <time>2015-11-22T14:13:18Z</time>
      </trkpt>
      <trkpt lat="44.80022" lon="1.61641">
        <ele>253.44</ele>
        <time>2015-11-22T14:13:23Z</time>
      </trkpt>
      <trkpt lat="44.80039" lon="1.61647">
        <ele>252.96</ele>
        <time>2015-11-22T14:13:36Z</time>
      </trkpt>
      <trkpt lat="44.80057" lon="1.61642">
        <ele>253.93</ele>
        <time>2015-11-22T14:13:48Z</time>
      </trkpt>
      <trkpt lat="44.80074" lon="1.6164">
        <ele>254.89</ele>
        <time>2015-11-22T14:14:01Z</time>
      </trkpt>
      <trkpt lat="44.80092" lon="1.61641">
        <ele>255.37</ele>
        <time>2015-11-22T14:14:15Z</time>
      </trkpt>
      <trkpt lat="44.80099" lon="1.61645">
        <ele>255.85</ele>
        <time>2015-11-22T14:14:20Z</time>
      </trkpt>
      <trkpt lat="44.80116" lon="1.61646">
        <ele>256.81</ele>
        <time>2015-11-22T14:14:35Z</time>
      </trkpt>
      <trkpt lat="44.8012" lon="1.61639">
        <ele>256.81</ele>
        <time>2015-11-22T14:14:40Z</time>
      </trkpt>
      <trkpt lat="44.8013" lon="1.61614">
        <ele>256.81</ele>
        <time>2015-11-22T14:14:55Z</time>
      </trkpt>
      <trkpt lat="44.80131" lon="1.61612">
        <ele>256.81</ele>
        <time>2015-11-22T14:14:56Z</time>
      </trkpt>
      <trkpt lat="44.80136" lon="1.61603">
        <ele>256.81</ele>
        <time>2015-11-22T14:15:01Z</time>
      </trkpt>
      <trkpt lat="44.80143" lon="1.61591">
        <ele>257.29</ele>
        <time>2015-11-22T14:15:09Z</time>
      </trkpt>
      <trkpt lat="44.80145" lon="1.61588">
        <ele>257.29</ele>
        <time>2015-11-22T14:15:11Z</time>
      </trkpt>
      <trkpt lat="44.80151" lon="1.61569">
        <ele>257.29</ele>
        <time>2015-11-22T14:15:24Z</time>
      </trkpt>
      <trkpt lat="44.80152" lon="1.61568">
        <ele>257.29</ele>
        <time>2015-11-22T14:15:31Z</time>
      </trkpt>
      <trkpt lat="44.8014" lon="1.61571">
        <ele>257.29</ele>
        <time>2015-11-22T14:15:46Z</time>
      </trkpt>
      <trkpt lat="44.8013" lon="1.61576">
        <ele>257.29</ele>
        <time>2015-11-22T14:15:58Z</time>
      </trkpt>
      <trkpt lat="44.80127" lon="1.61576">
        <ele>257.29</ele>
        <time>2015-11-22T14:16:14Z</time>
      </trkpt>
      <trkpt lat="44.80127" lon="1.61576">
        <ele>257.29</ele>
        <time>2015-11-22T14:16:29Z</time>
      </trkpt>
      <trkpt lat="44.80126" lon="1.61575">
        <ele>257.29</ele>
        <time>2015-11-22T14:16:44Z</time>
      </trkpt>
      <trkpt lat="44.80126" lon="1.61577">
        <ele>257.29</ele>
        <time>2015-11-22T14:16:57Z</time>
      </trkpt>
    </trkseg>
  </trk>
</gpx>